<
# Wetter Temperatur Luftdruck Luftfeuchtigkeit Sichtweite Windgeschwindigkeit Windrichtung Zeit
1 Clouds 8 1025 87 10000 5 30 22:29 24.01.2020
2 Rain 8 1026 87 8000 4 30 21:59 24.01.2020
3 Rain 8 1027 87 8000 4 20 21:41 24.01.2020
4 Rain 8 1027 87 8000 4 20 21:19 24.01.2020
5 Rain 8 1026 87 8000 5 50 20:44 24.01.2020
6 Rain 8 1027 93 8000 4 10 20:23 24.01.2020
7 Rain 8 1027 93 8000 2 360 19:59 24.01.2020
8 Rain 8 1028 93 8000 3 360 19:40 24.01.2020
9 Rain 8 1028 93 8000 3 360 19:22 24.01.2020
10 Rain 8 1028 93 8000 3 10 18:56 24.01.2020
11 Rain 8 1028 93 8000 3 30 18:37 24.01.2020
12 Rain 8 1028 93 8000 3 30 18:19 24.01.2020
13 Rain 8 1029 93 6000 3 20 17:42 24.01.2020
14 Rain 9 1029 93 6000 3 20 17:21 24.01.2020
15 Rain 9 1029 93 6000 3 20 17:21 24.01.2020
16 Rain 8 1029 93 6000 3 40 16:45 24.01.2020
17 Rain 8 1029 93 6000 3 40 16:22 24.01.2020
18 Rain 8 1029 93 6000 3 40 16:22 24.01.2020
19 Rain 8 1029 93 6000 4 20 15:57 24.01.2020
20 Rain 8 1030 87 7000 3 20 15:39 24.01.2020
21 Rain 8 1030 87 7000 3 20 15:20 24.01.2020
22 Clouds 8 1029 87 8000 4 40 14:41 24.01.2020
23 Clouds 8 1029 87 8000 4 40 14:23 24.01.2020
24 Rain 8 1028 87 6000 6 40 13:57 24.01.2020
25 Rain 8 1030 87 6000 5 30 13:39 24.01.2020
26 Rain 8 1030 87 6000 5 30 13:19 24.01.2020
27 Rain 9 1030 81 5000 4 20 12:41 24.01.2020
28 Rain 9 1030 81 5000 4 20 12:18 24.01.2020
29 Mist 9 1028 81 5000 5 40 11:43 24.01.2020
30 Mist 9 1028 81 5000 5 40 11:19 24.01.2020
31 Rain 9 1028 87 5000 4 30 10:43 24.01.2020
32 Rain 9 1028 81 5000 5 20 10:22 24.01.2020
33 Rain 10 1028 81 5000 5 40 09:56 24.01.2020
34 Rain 9 1027 81 6000 6 40 09:38 24.01.2020
35 Rain 9 1027 81 6000 6 40 09:38 24.01.2020
36 Rain 9 1027 81 6000 6 40 09:20 24.01.2020
37 Clouds 10 1027 76 6000 7 40 08:40 24.01.2020
38 Clouds 10 1027 76 6000 7 40 08:19 24.01.2020
39 Clouds 10 1027 76 7000 7 40 07:49 24.01.2020
40 Clouds 10 1028 76 7000 5 40 07:28 24.01.2020
41 Clouds 11 1028 76 8000 5 40 06:46 24.01.2020
42 Clouds 11 1028 81 10000 6 30 06:28 24.01.2020
43 Clouds 10 1027 81 10000 6 40 05:43 24.01.2020
44 Clouds 10 1029 81 10000 6 40 03:55 24.01.2020
45 Clouds 11 1029 81 10000 6 40 02:43 24.01.2020
46 Clouds 9 1029 87 10000 5 50 02:23 24.01.2020
47 Clouds 9 1028 87 10000 4 40 01:39 24.01.2020
48 Clouds 9 1028 87 10000 4 40 00:54 24.01.2020
49 Clouds 9 1028 87 10000 4 30 00:19 24.01.2020
50 Clouds 9 1027 93 10000 4 30 23:45 23.01.2020
51 Clouds 9 1027 93 10000 4 30 23:26 23.01.2020
52 Clouds 8 1027 93 10000 4 10 22:59 23.01.2020
53 Clouds 8 1027 93 10000 2 10 22:37 23.01.2020
54 Clouds 8 1027 93 10000 2 10 22:18 23.01.2020
55 Clouds 8 1026 93 10000 2 60 21:55 23.01.2020
56 Rain 8 1026 93 10000 2 40 21:37 23.01.2020
57 Rain 8 1026 93 10000 2 40 21:19 23.01.2020
58 Rain 8 1026 93 10000 2 40 21:19 23.01.2020
59 Rain 8 1026 93 10000 4 30 20:55 23.01.2020
60 Rain 8 1027 93 10000 3 30 20:37 23.01.2020
61 Rain 8 1027 93 10000 3 30 20:18 23.01.2020
62 Rain 8 1027 93 10000 2 50 19:42 23.01.2020
63 Clouds 8 1026 93 10000 4 50 19:23 23.01.2020
64 Rain 8 1026 93 10000 4 50 18:58 23.01.2020
65 Rain 8 1027 87 10000 4 30 18:38 23.01.2020
66 Rain 8 1027 87 10000 4 30 18:20 23.01.2020
67 Rain 8 1027 93 8000 4 40 17:55 23.01.2020
68 Rain 8 1027 93 8000 3 20 17:37 23.01.2020
69 Rain 9 1027 93 8000 3 20 17:18 23.01.2020
70 Rain 8 1027 100 8000 3 30 16:39 23.01.2020
71 Rain 9 1027 100 8000 3 30 16:20 23.01.2020
72 Rain 9 1027 93 8000 2 30 15:58 23.01.2020
73 Rain 9 1027 93 10000 2 50 15:39 23.01.2020
74 Rain 8 1027 93 10000 2 50 15:19 23.01.2020
75 Rain 8 1026 93 10000 3 70 14:58 23.01.2020
76 Rain 8 1026 93 10000 3 50 14:40 23.01.2020
77 Rain 8 1026 93 10000 3 50 14:22 23.01.2020
78 Rain 8 1026 93 10000 4 40 13:54 23.01.2020
79 Rain 9 1027 93 10000 3 30 13:36 23.01.2020
80 Rain 8 1027 93 10000 3 30 13:18 23.01.2020
81 Rain 9 1025 87 10000 5 60 12:40 23.01.2020
82 Rain 9 1025 87 10000 5 60 12:22 23.01.2020
83 Rain 9 1024 87 10000 5 50 11:55 23.01.2020
84 Rain 9 1025 93 7000 5 30 11:36 23.01.2020
85 Rain 9 1025 93 7000 5 30 11:18 23.01.2020
86 Rain 9 1024 93 6000 4 50 10:41 23.01.2020
87 Rain 9 1024 93 6000 4 50 10:19 23.01.2020
88 Rain 10 1023 87 8000 4 50 09:41 23.01.2020
89 Rain 10 1023 87 8000 4 50 09:23 23.01.2020
90 Rain 11 1023 93 8000 4 30 08:57 23.01.2020
91 Rain 10 1023 93 10000 2 50 08:38 23.01.2020
92 Rain 11 1023 93 10000 2 50 08:19 23.01.2020
93 Clouds 11 1023 87 10000 4 40 07:42 23.01.2020
94 Clouds 11 1023 87 10000 4 40 07:21 23.01.2020
95 Clouds 11 1023 87 10000 4 40 07:21 23.01.2020
96 Clouds 11 1023 87 10000 3 40 06:44 23.01.2020
97 Clouds 11 1023 87 10000 3 40 06:19 23.01.2020
98 Clouds 11 1023 87 10000 2 70 04:44 23.01.2020
99 Clouds 10 1024 93 8000 6 50 03:48 23.01.2020
100 Rain 10 1023 100 2700 3 10 01:56 23.01.2020
101 Rain 9 1022 100 2500 2 10 00:46 23.01.2020
102 Rain 9 1022 100 2500 2 10 00:24 23.01.2020
103 Rain 9 1022 100 1400 3 350 23:46 22.01.2020
104 Rain 9 1022 100 1400 3 320 23:28 22.01.2020
105 Rain 9 1022 93 3000 4 320 22:55 22.01.2020
106 Rain 9 1022 93 4000 2 310 22:36 22.01.2020
107 Rain 9 1022 93 4000 2 310 22:18 22.01.2020
108 Rain 9 1021 93 3000 4 320 21:38 22.01.2020
109 Rain 9 1021 93 3000 4 320 21:20 22.01.2020
110 Rain 9 1022 93 3000 4 310 20:55 22.01.2020
111 Rain 9 1021 93 3000 3 310 20:36 22.01.2020
112 Rain 9 1021 93 3000 3 310 20:18 22.01.2020
113 Rain 9 1021 93 3000 3 330 19:41 22.01.2020
114 Rain 9 1021 93 3000 3 330 19:21 22.01.2020
115 Mist 9 1022 93 3000 3 290 18:59 22.01.2020
116 Mist 9 1021 93 2500 2 320 18:40 22.01.2020
117 Mist 9 1021 93 2500 2 320 18:21 22.01.2020
118 Mist 9 1021 93 2500 3 290 17:57 22.01.2020
119 Mist 9 1021 93 2500 3 290 17:57 22.01.2020
120 Mist 9 1021 93 2500 3 280 17:39 22.01.2020
121 Mist 9 1021 93 2500 3 280 17:39 22.01.2020
122 Mist 9 1021 93 2500 3 280 17:19 22.01.2020
123 Mist 9 1021 93 3000 2 280 16:54 22.01.2020
124 Mist 9 1022 93 3000 3 290 16:36 22.01.2020
125 Mist 9 1022 93 3000 3 290 16:18 22.01.2020
126 Rain 9 1021 93 3000 3 320 15:41 22.01.2020
127 Rain 9 1021 93 3000 3 320 15:23 22.01.2020
128 Rain 9 1022 93 2500 3 330 14:58 22.01.2020
129 Rain 9 1022 100 2300 4 330 14:37 22.01.2020
130 Rain 9 1022 100 2300 4 330 14:19 22.01.2020
131 Rain 9 1022 100 2300 3 300 13:55 22.01.2020
132 Rain 9 1021 93 2300 3 310 13:37 22.01.2020
133 Rain 9 1021 93 2300 3 310 13:18 22.01.2020
134 Rain 9 1021 93 2300 4 330 12:56 22.01.2020
135 Rain 10 1021 93 2300 4 310 12:37 22.01.2020
136 Rain 10 1021 93 2300 4 310 12:18 22.01.2020
137 Rain 9 1020 100 2300 3 340 11:56 22.01.2020
138 Rain 9 1020 100 2300 3 340 11:56 22.01.2020
139 Rain 9 1020 100 2300 4 340 11:37 22.01.2020
140 Rain 9 1020 100 2300 4 340 11:18 22.01.2020
141 Rain 10 1019 93 2300 4 340 10:44 22.01.2020
142 Rain 10 1019 93 2300 4 340 10:20 22.01.2020
143 Rain 10 1019 93 2300 4 340 10:20 22.01.2020
144 Rain 10 1019 93 2000 3 340 09:44 22.01.2020
145 Rain 10 1019 93 2000 3 340 09:25 22.01.2020
146 Rain 10 1018 93 2200 3 330 08:58 22.01.2020
147 Rain 10 1018 93 2200 3 350 08:40 22.01.2020
148 Rain 10 1018 93 2200 3 350 08:21 22.01.2020
149 Rain 10 1018 93 2000 3 340 07:54 22.01.2020
150 Rain 10 1018 93 2500 2 360 07:36 22.01.2020
151 Rain 10 1018 93 2500 2 360 07:18 22.01.2020
152 Rain 10 1019 93 2300 3 340 06:30 22.01.2020
153 Rain 11 1020 93 2700 2 350 05:41 22.01.2020
154 Rain 11 1020 93 2700 2 350 05:41 22.01.2020
155 Rain 10 1021 93 1800 3 340 04:18 22.01.2020
156 Rain 10 1021 93 1800 3 340 03:22 22.01.2020
157 Rain 10 1020 93 1800 2 0 01:44 22.01.2020
158 Rain 9 1020 100 3000 2 170 00:44 22.01.2020
159 Rain 9 1020 100 3000 2 170 00:26 22.01.2020
160 Rain 10 1020 93 5000 2 210 23:39 21.01.2020
161 Rain 10 1020 93 5000 2 210 23:21 21.01.2020
162 Rain 10 1020 93 5000 3 250 22:59 21.01.2020
163 Rain 10 1019 93 5000 2 230 22:39 21.01.2020
164 Rain 10 1019 93 5000 2 230 22:20 21.01.2020
165 Rain 11 1019 93 5000 2 170 21:56 21.01.2020
166 Mist 10 1019 93 5000 2 150 21:37 21.01.2020
167 Mist 10 1019 93 5000 2 150 21:19 21.01.2020
168 Rain 10 1020 93 5000 1 220 20:55 21.01.2020
169 Rain 10 1020 93 6000 1 0 20:37 21.01.2020
170 Rain 10 1020 93 6000 1 0 20:18 21.01.2020
171 Rain 10 1020 93 6000 1 0 20:18 21.01.2020
172 Rain 10 1021 93 6000 2 220 19:55 21.01.2020
173 Rain 10 1021 93 6000 3 170 19:36 21.01.2020
174 Rain 10 1021 93 6000 3 170 19:18 21.01.2020
175 Rain 11 1021 93 6000 4 160 18:54 21.01.2020
176 Rain 11 1021 93 6000 3 160 18:36 21.01.2020
177 Rain 11 1021 93 6000 3 160 18:18 21.01.2020
178 Rain 11 1021 93 5000 3 140 17:42 21.01.2020
179 Rain 11 1021 93 5000 3 140 17:19 21.01.2020
180 Rain 11 1022 93 5000 2 140 16:56 21.01.2020
181 Rain 11 1022 93 5000 3 140 16:36 21.01.2020
182 Rain 11 1022 93 5000 3 140 16:18 21.01.2020
183 Rain 10 1022 93 5000 3 130 15:40 21.01.2020
184 Rain 10 1022 93 5000 3 130 15:20 21.01.2020
185 Rain 10 1022 93 5000 3 130 14:55 21.01.2020
186 Rain 10 1023 93 5000 3 130 14:36 21.01.2020
187 Rain 10 1023 93 5000 3 130 14:18 21.01.2020
188 Rain 10 1023 87 5000 3 140 13:38 21.01.2020
189 Rain 10 1023 87 5000 3 140 13:18 21.01.2020
190 Rain 10 1023 87 5000 5 150 12:43 21.01.2020
191 Rain 10 1023 87 5000 4 150 12:43 21.01.2020
192 Rain 10 1023 87 5000 5 150 12:24 21.01.2020
193 Rain 10 1023 81 5000 5 140 11:56 21.01.2020
194 Rain 10 1023 81 5000 5 130 11:38 21.01.2020
195 Rain 10 1023 81 5000 5 130 11:38 21.01.2020
196 Rain 10 1023 81 5000 5 130 11:19 21.01.2020
197 Rain 11 1023 76 5000 4 140 10:43 21.01.2020
198 Rain 11 1023 76 5000 4 130 10:23 21.01.2020
199 Rain 11 1022 71 5000 6 130 09:57 21.01.2020
200 Rain 11 1024 66 6000 4 120 09:39 21.01.2020
201 Rain 11 1024 66 6000 4 120 09:21 21.01.2020
202 Rain 12 1024 62 7000 4 130 08:45 21.01.2020
203 Rain 12 1024 62 7000 5 140 08:27 21.01.2020
204 Clear 13 1024 62 7000 5 140 07:44 21.01.2020
205 Clear 12 1024 58 7000 6 140 07:25 21.01.2020
206 Clouds 14 1024 58 7000 7 140 06:58 21.01.2020
207 Clouds 14 1025 58 7000 7 160 06:38 21.01.2020
208 Clouds 14 1025 58 7000 7 160 06:20 21.01.2020
209 Clear 13 1026 50 7000 7 140 05:40 21.01.2020
210 Clear 13 1027 54 7000 6 130 04:38 21.01.2020
211 Mist 12 1028 70 4000 4 100 02:29 21.01.2020
212 Mist 7 1028 81 2800 2 100 01:36 21.01.2020
213 Mist 7 1028 93 2500 1 90 00:51 21.01.2020
214 Mist 6 1028 93 2500 1 0 00:28 21.01.2020
215 Mist 7 1028 93 2500 2.48 104 23:56 20.01.2020
216 Mist 6 1027 93 2500 1 360 23:36 20.01.2020
217 Mist 6 1027 93 2500 1 360 23:18 20.01.2020
218 Mist 6 1027 93 2500 1 360 22:40 20.01.2020
219 Mist 6 1027 93 2500 1 360 22:21 20.01.2020
220 Mist 6 1027 93 2500 1 360 21:58 20.01.2020
221 Mist 5 1027 93 2500 1 20 21:38 20.01.2020
222 Mist 5 1027 93 2500 1 20 21:20 20.01.2020
223 Mist 5 1027 93 2500 2 10 20:59 20.01.2020
224 Mist 6 1028 86 2500 2 10 20:41 20.01.2020
225 Mist 6 1028 86 2500 2 10 20:20 20.01.2020
226 Mist 5 1028 93 2500 2 360 19:58 20.01.2020
227 Mist 5 1028 86 2500 1 50 19:40 20.01.2020
228 Mist 5 1028 86 2500 1 50 19:19 20.01.2020
229 Mist 5 1028 86 2500 1 50 18:54 20.01.2020
230 Mist 6 1028 86 2500 2 70 18:36 20.01.2020
231 Mist 6 1028 86 2500 2 70 18:18 20.01.2020
232 Mist 6 1029 75 2500 1 100 17:38 20.01.2020
233 Mist 6 1029 75 2500 1 100 17:19 20.01.2020
234 Mist 6 1029 75 2500 1 0 16:46 20.01.2020
235 Mist 7 1028 70 2500 2 100 16:25 20.01.2020
236 Mist 7 1028 70 2500 2 90 15:58 20.01.2020
237 Mist 7 1028 70 2500 2 100 15:40 20.01.2020
238 Mist 7 1028 70 2500 2 100 15:21 20.01.2020
239 Mist 7 1028 75 2500 2 90 14:56 20.01.2020
240 Mist 7 1028 70 3000 3 70 14:37 20.01.2020
241 Mist 7 1028 70 3000 3 70 14:19 20.01.2020
242 Haze 7 1028 65 5000 2 50 13:42 20.01.2020
243 Haze 8 1028 65 5000 2 50 13:23 20.01.2020
244 Haze 8 1028 61 5000 2 360 12:56 20.01.2020
245 Haze 8 1028 61 5000 3 350 12:38 20.01.2020
246 Haze 8 1028 61 5000 3 350 12:19 20.01.2020
247 Haze 8 1027 61 5000 3 360 11:43 20.01.2020
248 Haze 8 1027 61 5000 3 360 11:43 20.01.2020
249 Haze 9 1027 61 5000 3 360 11:24 20.01.2020
250 Haze 9 1026 57 5000 3 350 10:57 20.01.2020
251 Haze 9 1026 53 5000 4 340 10:39 20.01.2020
252 Haze 9 1026 53 5000 4 340 10:19 20.01.2020
253 Haze 10 1025 53 5000 3 350 09:41 20.01.2020
254 Haze 10 1025 53 5000 3 350 09:41 20.01.2020
255 Haze 10 1025 53 5000 3 350 09:21 20.01.2020
256 Haze 10 1025 50 5000 2 0 08:49 20.01.2020
257 Haze 10 1025 42 5000 4 350 08:30 20.01.2020
258 Clear 11 1025 35 6000 3 330 07:54 20.01.2020
259 Clear 11 1025 43 6000 3 320 07:30 20.01.2020
260 Haze 12 1025 40 5000 4 330 06:59 20.01.2020
261 Haze 12 1025 43 5000 3 310 06:30 20.01.2020
262 Haze 11 1026 53 5000 4 310 05:44 20.01.2020
263 Haze 11 1026 53 5000 4 310 05:25 20.01.2020
264 Haze 10 1026 53 5000 4 300 04:49 20.01.2020
265 Haze 8 1027 70 5000 3 280 02:59 20.01.2020
266 Mist 6 1026 75 4000 3 250 01:57 20.01.2020
267 Mist 6 1026 80 4000 2 240 01:37 20.01.2020
268 Mist 4 1026 80 4000 2 250 00:45 20.01.2020
269 Mist 4 1025 69 4000 2 260 00:25 20.01.2020
270 Mist 4 1025 69 5000 3 250 23:40 19.01.2020
271 Mist 4 1025 68 5000 3 250 23:20 19.01.2020
272 Mist 4 1025 68 5000 2 240 22:58 19.01.2020
273 Mist 4 1024 68 5000 2 240 22:40 19.01.2020
274 Mist 4 1024 68 5000 2 240 22:21 19.01.2020
275 Mist 3 1024 68 5000 1 220 21:57 19.01.2020
276 Mist 3 1024 68 5000 1 220 21:57 19.01.2020
277 Mist 3 1024 68 5000 1 0 21:39 19.01.2020
278 Mist 3 1024 68 5000 1 0 21:21 19.01.2020
279 Mist 4 1024 68 5000 1 180 20:58 19.01.2020
280 Clear 4 1025 86 6000 1 170 20:39 19.01.2020
281 Clear 5 1025 86 6000 1 170 20:21 19.01.2020
282 Clear 3 1025 86 6000 1 0 19:57 19.01.2020
283 Clear 4 1025 86 6000 1 190 19:39 19.01.2020
284 Clear 4 1025 86 6000 1 190 19:21 19.01.2020
285 Clear 4 1025 60 6000 1 0 18:59 19.01.2020
286 Clear 5 1025 80 6000 1 0 18:41 19.01.2020
287 Clear 4 1025 80 6000 1 0 18:21 19.01.2020
288 Clear 5 1025 60 6000 1 190 17:59 19.01.2020
289 Clear 5 1024 60 7000 1 0 17:40 19.01.2020
290 Clear 5 1024 60 7000 1 0 17:40 19.01.2020
291 Clear 5 1024 56 7000 1 0 17:21 19.01.2020
292 Clear 5 1025 75 10000 1 260 16:59 19.01.2020
293 Clear 5 1025 56 10000 2 240 16:40 19.01.2020
294 Clear 5 1025 56 10000 2 240 16:21 19.01.2020
295 Clear 5 1025 56 10000 2 260 15:59 19.01.2020
296 Clear 6 1025 56 10000 2 260 15:39 19.01.2020
297 Clear 6 1025 56 10000 2 260 15:20 19.01.2020
298 Clear 6 1025 56 10000 2 250 14:58 19.01.2020
299 Clear 7 1025 56 10000 2 250 14:39 19.01.2020
300 Clear 6 1025 54 10000 2 250 14:18 19.01.2020
301 Clear 6 1025 54 10000 2 260 14:18 19.01.2020
302 Clear 6 1025 54 10000 2 260 13:57 19.01.2020
303 Clear 6 1025 54 7000 2 240 13:38 19.01.2020
304 Clear 6 1025 54 7000 2 240 13:19 19.01.2020
305 Clear 6 1025 54 7000 3 240 12:55 19.01.2020
306 Clear 7 1024 54 7000 2 250 12:37 19.01.2020
307 Clear 7 1024 54 7000 2 250 12:19 19.01.2020
308 Clear 7 1024 54 7000 2 240 11:42 19.01.2020
309 Clear 7 1024 46 7000 2 240 11:20 19.01.2020
310 Clear 8 1024 46 6000 3 270 10:56 19.01.2020
311 Clear 8 1024 46 6000 3 270 10:56 19.01.2020
312 Clear 8 1024 46 6000 3 240 10:38 19.01.2020
313 Clear 8 1024 46 6000 3 240 10:19 19.01.2020
314 Clouds 8 1023 46 6000 4 270 09:55 19.01.2020
315 Clouds 8 1023 46 6000 4 270 09:55 19.01.2020
316 Clouds 8 1023 46 6000 4 270 09:55 19.01.2020
317 Clouds 8 1023 46 6000 4 270 09:55 19.01.2020
318 Clouds 9 1023 46 6000 4 240 09:36 19.01.2020
319 Clouds 9 1023 46 6000 4 240 09:18 19.01.2020
320 Clouds 9 1023 49 8000 3 280 08:44 19.01.2020
321 Clouds 9 1023 49 8000 3 280 08:26 19.01.2020
322 Clouds 10 1023 42 8000 4 240 07:42 19.01.2020
323 Clouds 9 1023 42 8000 4 240 07:22 19.01.2020
324 Clouds 9 1023 42 8000 4 240 07:22 19.01.2020
325 Clouds 9 1023 49 8000 3 0 06:51 19.01.2020
326 Clouds 9 1024 52 8000 3 270 06:21 19.01.2020
327 Clouds 8 1026 53 6000 4 280 02:44 19.01.2020
328 Clouds 6 1026 64 6000 3 330 02:21 19.01.2020
329 Clouds 5 1025 63 7000 3 310 01:25 19.01.2020
330 Clouds 5 1025 63 7000 3 330 00:46 19.01.2020
331 Clouds 5 1024 65 10000 3 320 00:28 19.01.2020
332 Clouds 5 1024 65 10000 3 320 23:56 18.01.2020
333 Clouds 4 1024 69 10000 3 330 23:38 18.01.2020
334 Clouds 4 1024 69 10000 3 330 23:19 18.01.2020
335 Clouds 4 1024 58 10000 2 330 22:55 18.01.2020
336 Clouds 5 1024 65 10000 2 310 22:37 18.01.2020
337 Clouds 5 1024 65 10000 2 310 22:18 18.01.2020
338 Clouds 5 1024 65 10000 3 330 21:56 18.01.2020
339 Clouds 5 1024 65 10000 2 300 21:37 18.01.2020
340 Clouds 5 1024 65 10000 2 300 21:18 18.01.2020
341 Clouds 5 1024 65 10000 2 240 20:42 18.01.2020
342 Clouds 5 1024 65 10000 2 240 20:21 18.01.2020
343 Clouds 5 1025 60 10000 2 250 19:55 18.01.2020
344 Clouds 5 1025 65 10000 2 250 19:37 18.01.2020
345 Clouds 5 1025 65 10000 2 250 19:19 18.01.2020
346 Clouds 5 1024 60 10000 3 280 18:41 18.01.2020
347 Clouds 5 1024 60 10000 3 280 18:21 18.01.2020
348 Clouds 5 1025 60 10000 2 270 17:41 18.01.2020
349 Clouds 5 1025 60 10000 2 270 17:21 18.01.2020
350 Clouds 5 1025 60 10000 2 270 17:21 18.01.2020
351 Clouds 5 1025 60 10000 2 250 16:59 18.01.2020
352 Clouds 5 1025 56 10000 2 260 16:41 18.01.2020
353 Clouds 5 1025 56 10000 2 260 16:22 18.01.2020
354 Clouds 5 1025 56 10000 2 290 15:58 18.01.2020
355 Clouds 5 1025 56 10000 2 290 15:58 18.01.2020
356 Clouds 5 1025 60 10000 2 250 15:40 18.01.2020
357 Clouds 5 1025 60 10000 2 250 15:21 18.01.2020
358 Clouds 5 1025 60 10000 1 0 14:44 18.01.2020
359 Clouds 5 1025 60 10000 1 0 14:21 18.01.2020
360 Clouds 5 1025 60 10000 2 250 13:59 18.01.2020
361 Clouds 5 1026 60 8000 2 240 13:41 18.01.2020
362 Clouds 5 1026 60 8000 2 240 13:20 18.01.2020
363 Clouds 5 1025 60 8000 2 250 12:55 18.01.2020
364 Clouds 5 1025 60 8000 2 250 12:54 18.01.2020
365 Clouds 5 1025 60 8000 3 250 12:36 18.01.2020
366 Clouds 5 1025 60 8000 3 250 12:18 18.01.2020
367 Clouds 5 1025 65 8000 2 310 11:43 18.01.2020
368 Clouds 5 1025 65 8000 2 310 11:21 18.01.2020
369 Clouds 5 1024 65 7000 2 330 10:43 18.01.2020
370 Clouds 5 1025 65 7000 2 340 10:22 18.01.2020
371 Clouds 5 1025 65 8000 3 340 09:56 18.01.2020
372 Clouds 5 1024 65 8000 4 360 09:38 18.01.2020
373 Clouds 6 1025 65 8000 4 350 09:18 18.01.2020
374 Clouds 6 1025 65 8000 3 360 08:42 18.01.2020
375 Clouds 6 1025 65 8000 3 360 08:20 18.01.2020
376 Clouds 6 1025 65 8000 3 360 07:56 18.01.2020
377 Clouds 7 1025 65 10000 4 360 07:37 18.01.2020
378 Clouds 6 1025 65 10000 4 340 06:50 18.01.2020
379 Clouds 7 1025 65 8000 3 340 06:22 18.01.2020
380 Clouds 7 1026 42 8000 3 350 05:45 18.01.2020
381 Clouds 5 1027 69 8000 3 330 04:19 18.01.2020
382 Clouds 6 1027 69 7000 3 340 02:33 18.01.2020
383 Clouds 4 1027 69 8000 3 330 01:36 18.01.2020
384 Clouds 4 1027 69 10000 4 340 00:39 18.01.2020
385 Clouds 4 1027 69 10000 4 340 00:19 18.01.2020
386 Clouds 4 1027 69 10000 5 330 23:56 17.01.2020
387 Clouds 4 1027 69 10000 4 340 23:38 17.01.2020
388 Clouds 4 1027 69 10000 4 340 23:18 17.01.2020
389 Clouds 4 1026 69 10000 4 330 22:40 17.01.2020
390 Clouds 4 1026 69 10000 4 330 22:19 17.01.2020
391 Clouds 4 1026 69 10000 4 330 21:42 17.01.2020
392 Clouds 4 1026 69 10000 4 330 21:24 17.01.2020
393 Clouds 4 1026 69 10000 4 330 20:59 17.01.2020
394 Clouds 4 1026 69 10000 4 320 20:41 17.01.2020
395 Clouds 5 1026 69 10000 4 320 20:20 17.01.2020
396 Clouds 5 1026 69 10000 4 320 20:20 17.01.2020
397 Clouds 4 1026 69 10000 3 310 19:57 17.01.2020
398 Clouds 4 1026 69 10000 4 320 19:38 17.01.2020
399 Clouds 4 1026 69 10000 4 320 19:19 17.01.2020
400 Clouds 5 1026 65 10000 4 320 18:57 17.01.2020
401 Clouds 5 1026 65 10000 3 330 18:37 17.01.2020
402 Clouds 5 1026 65 10000 3 330 18:19 17.01.2020
403 Clouds 5 1027 65 10000 5 320 17:39 17.01.2020
404 Clouds 5 1027 65 10000 5 320 17:21 17.01.2020
405 Clouds 5 1027 65 10000 4 320 16:44 17.01.2020
406 Clouds 5 1027 65 10000 5 330 16:21 17.01.2020
407 Clouds 5 1027 65 10000 4 330 15:58 17.01.2020
408 Clouds 5 1027 61 10000 4 320 15:40 17.01.2020
409 Clouds 5 1027 61 10000 4 320 15:22 17.01.2020
410 Clouds 6 1027 61 10000 4 320 14:43 17.01.2020
411 Clouds 6 1027 61 10000 4 320 14:25 17.01.2020
412 Clouds 6 1027 58 10000 5 320 13:46 17.01.2020
413 Clouds 6 1027 58 10000 4 320 13:23 17.01.2020
414 Clouds 6 1027 58 10000 4 320 12:48 17.01.2020
415 Clouds 6 1027 70 10000 4 320 12:24 17.01.2020
416 Clouds 6 1026 70 10000 4 320 11:56 17.01.2020
417 Clouds 6 1026 70 10000 5 330 11:37 17.01.2020
418 Clouds 6 1026 70 10000 5 330 11:18 17.01.2020
419 Clouds 6 1026 70 10000 4 330 10:42 17.01.2020
420 Clouds 6 1026 70 10000 4 330 10:41 17.01.2020
421 Clouds 6 1026 70 10000 4 330 10:22 17.01.2020
422 Clouds 6 1026 70 10000 4 340 09:56 17.01.2020
423 Clouds 6 1026 70 10000 5 330 09:37 17.01.2020
424 Clouds 6 1026 70 10000 5 330 09:18 17.01.2020
425 Clouds 6 1025 75 10000 4 320 08:42 17.01.2020
426 Clouds 7 1025 75 10000 4 320 08:23 17.01.2020
427 Clouds 6 1025 75 10000 4 320 07:51 17.01.2020
428 Clouds 7 1025 75 10000 5 320 07:31 17.01.2020
429 Clouds 7 1026 75 10000 6 340 06:56 17.01.2020
430 Clouds 7 1026 75 10000 5 330 06:37 17.01.2020
431 Rain 6 1027 81 8000 5 340 05:22 17.01.2020
432 Clouds 8 1023 79 0 3.62 332 03:38 17.01.2020
433 Clouds 8 1023 83 0 3.62 332 02:43 17.01.2020
434 Clouds 6 1023 90 0 3.95 346 01:45 17.01.2020
435 Clouds 6 1023 90 0 3.86 352 01:27 17.01.2020
436 Clouds 6 1023 91 0 3.86 352 00:43 17.01.2020
437 Clouds 6 1027 93 10000 4 340 00:19 17.01.2020
438 Clouds 6 1027 93 10000 4 340 23:41 16.01.2020
439 Clouds 6 1027 93 10000 4 340 23:41 16.01.2020
440 Clouds 6 1027 93 10000 4 340 23:23 16.01.2020
441 Clouds 6 1026 86 10000 5 340 22:43 16.01.2020
442 Clouds 6 1026 93 10000 5 340 22:22 16.01.2020
443 Clouds 6 1026 93 10000 4 340 21:57 16.01.2020
444 Clouds 6 1026 93 10000 5 360 21:38 16.01.2020
445 Clouds 6 1026 93 10000 5 360 21:38 16.01.2020
446 Clouds 6 1026 93 10000 5 360 21:19 16.01.2020
447 Rain 6 1026 93 10000 5 350 20:58 16.01.2020
448 Rain 6 1026 93 10000 6 350 20:39 16.01.2020
449 Rain 6 1026 93 10000 6 350 20:19 16.01.2020
450 Rain 6 1026 87 10000 5 350 19:56 16.01.2020
451 Rain 6 1026 87 10000 5 340 19:38 16.01.2020
452 Rain 6 1026 87 10000 5 340 19:19 16.01.2020
453 Clouds 6 1026 87 10000 4 340 18:55 16.01.2020
454 Clouds 6 1026 87 10000 4 350 18:37 16.01.2020
455 Clouds 6 1026 87 10000 4 350 18:18 16.01.2020
456 Clouds 6 1026 87 10000 4 350 18:18 16.01.2020
457 Rain 6 1026 93 10000 4 350 17:42 16.01.2020
458 Rain 6 1026 93 10000 4 350 17:23 16.01.2020
459 Rain 6 1026 87 10000 4 350 16:57 16.01.2020
460 Rain 6 1026 87 10000 5 360 16:38 16.01.2020
461 Rain 6 1026 87 10000 5 360 16:19 16.01.2020
462 Rain 6 1026 93 10000 5 360 16:19 16.01.2020
463 Rain 6 1026 87 10000 5 360 15:44 16.01.2020
464 Rain 6 1026 87 10000 5 360 15:22 16.01.2020
465 Rain 6 1026 93 10000 4 10 14:57 16.01.2020
466 Rain 6 1026 93 10000 5 360 14:38 16.01.2020
467 Rain 6 1026 93 10000 5 360 14:20 16.01.2020
468 Rain 6 1026 93 10000 5 360 13:44 16.01.2020
469 Rain 6 1026 93 10000 5 360 13:25 16.01.2020
470 Rain 6 1025 93 10000 5 360 12:47 16.01.2020
471 Rain 6 1025 93 10000 4 10 12:28 16.01.2020
472 Rain 6 1025 93 10000 5 10 11:58 16.01.2020
473 Rain 7 1025 87 10000 4 30 11:39 16.01.2020
474 Rain 7 1025 87 10000 4 30 11:21 16.01.2020
475 Rain 7 1024 87 8000 5 30 10:40 16.01.2020
476 Rain 7 1024 87 8000 5 30 10:22 16.01.2020
477 Rain 7 1024 87 8000 6 30 09:58 16.01.2020
478 Rain 7 1024 93 8000 5 20 09:40 16.01.2020
479 Rain 7 1024 93 8000 5 20 09:22 16.01.2020
480 Rain 7 1024 93 6000 5 30 08:53 16.01.2020
481 Rain 7 1024 93 6000 5 20 08:35 16.01.2020
482 Rain 7 1023 93 10000 4 30 07:59 16.01.2020
483 Rain 8 1023 93 10000 4 40 07:39 16.01.2020
484 Rain 7 1023 93 10000 4 40 07:21 16.01.2020
485 Rain 7 1023 93 10000 4 50 06:43 16.01.2020
486 Rain 7 1023 93 10000 4 50 06:22 16.01.2020
487 Rain 7 1024 87 10000 4 50 05:46 16.01.2020
488 Rain 7 1025 93 10000 4 50 04:40 16.01.2020
489 Rain 7 1025 87 10000 4 50 03:28 16.01.2020
490 Rain 7 1025 87 10000 5 50 02:43 16.01.2020
491 Rain 7 1025 87 10000 5 50 01:24 16.01.2020
492 Rain 7 1024 87 10000 4 50 00:25 16.01.2020
493 Rain 7 1024 87 10000 5 50 23:56 15.01.2020
494 Rain 7 1024 87 10000 5 60 23:38 15.01.2020
495 Rain 7 1024 87 10000 5 60 23:18 15.01.2020
496 Rain 6 1024 93 10000 3 60 22:42 15.01.2020
497 Rain 6 1024 93 10000 3 60 22:20 15.01.2020
498 Rain 6 1024 87 10000 4 70 21:59 15.01.2020
499 Rain 6 1024 87 10000 4 60 21:40 15.01.2020
500 Rain 6 1024 87 10000 4 60 21:22 15.01.2020
501 Rain 7 1024 87 10000 5 70 20:58 15.01.2020
502 Rain 7 1024 87 10000 5 70 20:40 15.01.2020
503 Rain 7 1024 87 10000 5 70 20:22 15.01.2020
504 Rain 7 1024 93 10000 4 60 19:57 15.01.2020
505 Rain 7 1025 93 10000 5 70 19:38 15.01.2020
506 Rain 7 1025 93 10000 5 70 19:20 15.01.2020
507 Rain 7 1025 93 10000 4 70 18:57 15.01.2020
508 Rain 6 1025 93 10000 4 70 18:38 15.01.2020
509 Rain 7 1025 93 10000 4 70 18:20 15.01.2020
510 Rain 7 1025 93 10000 4 70 18:20 15.01.2020
511 Rain 6 1025 87 10000 4 60 17:58 15.01.2020
512 Rain 7 1025 87 10000 4 70 17:40 15.01.2020
513 Rain 7 1025 87 10000 4 70 17:21 15.01.2020
514 Rain 7 1025 81 10000 4 80 16:43 15.01.2020
515 Rain 7 1025 81 10000 4 80 16:24 15.01.2020
516 Rain 7 1026 81 10000 5 90 15:59 15.01.2020
517 Rain 7 1026 81 10000 4 80 15:41 15.01.2020
518 Rain 6 1026 81 10000 4 80 15:20 15.01.2020
519 Rain 6 1026 87 10000 3 80 14:45 15.01.2020
520 Rain 6 1025 87 10000 5 70 14:21 15.01.2020
521 Rain 7 1026 87 10000 4 70 13:56 15.01.2020
522 Rain 7 1026 87 10000 3 70 13:38 15.01.2020
523 Rain 7 1026 87 10000 3 70 13:20 15.01.2020
524 Rain 7 1026 81 10000 4 70 12:54 15.01.2020
525 Rain 7 1026 87 10000 3 60 12:36 15.01.2020
526 Rain 7 1026 81 10000 3 60 12:18 15.01.2020
527 Rain 7 1026 81 10000 3 60 12:18 15.01.2020
528 Rain 7 1026 81 10000 3 40 11:38 15.01.2020
529 Rain 8 1026 81 10000 3 40 11:19 15.01.2020
530 Rain 8 1026 75 10000 3 80 10:47 15.01.2020
531 Rain 8 1025 75 10000 3 90 10:28 15.01.2020
532 Rain 8 1025 75 10000 4 90 09:57 15.01.2020
533 Rain 8 1025 75 10000 4 90 09:57 15.01.2020
534 Rain 8 1025 75 10000 5 80 09:38 15.01.2020
535 Rain 7 1025 75 10000 5 80 09:19 15.01.2020
536 Clouds 8 1025 61 10000 4 90 08:44 15.01.2020
537 Clouds 9 1025 61 10000 4 90 08:23 15.01.2020
538 Clouds 8 1025 61 10000 4 80 07:54 15.01.2020
539 Clouds 8 1025 61 10000 3 90 07:32 15.01.2020
540 Clouds 8 1025 56 10000 4 90 06:48 15.01.2020
541 Clouds 9 1026 56 10000 4 80 06:23 15.01.2020
542 Clouds 8 1028 55 10000 4 60 04:45 15.01.2020
543 Clouds 8 1028 55 10000 2 50 02:39 15.01.2020
544 Clouds 6 1028 62 10000 4 50 01:28 15.01.2020
545 Clouds 6 1028 62 10000 4 50 01:28 15.01.2020
546 Clouds 6 1028 64 10000 3 40 00:59 15.01.2020
547 Clouds 6 1028 64 10000 3 40 00:59 15.01.2020
548 Clouds 5 1028 86 10000 3 10 00:36 15.01.2020
549 Clouds 5 1028 86 10000 3 10 00:18 15.01.2020
550 Clouds 4 1029 86 10000 2 350 23:45 14.01.2020
551 Clouds 4 1028 67 10000 2 360 23:24 14.01.2020
552 Clouds 4 1028 67 10000 2 340 22:41 14.01.2020
553 Clouds 4 1028 67 10000 2 340 22:20 14.01.2020
554 Clouds 4 1028 67 10000 2 350 21:59 14.01.2020
555 Clouds 4 1028 67 10000 2 350 21:40 14.01.2020
556 Clouds 4 1028 67 10000 2 350 21:22 14.01.2020
557 Clouds 4 1028 67 10000 3 350 20:59 14.01.2020
558 Clouds 4 1028 67 10000 4 10 20:40 14.01.2020
559 Clouds 4 1028 70 10000 4 10 20:20 14.01.2020
560 Clouds 4 1028 70 10000 4 10 19:56 14.01.2020
561 Clouds 4 1028 70 10000 4 360 19:38 14.01.2020
562 Clouds 4 1028 70 10000 4 360 19:19 14.01.2020
563 Clouds 4 1028 70 10000 3 10 18:56 14.01.2020
564 Clouds 4 1028 70 10000 2 340 18:37 14.01.2020
565 Clouds 4 1028 70 10000 2 340 18:18 14.01.2020
566 Clouds 4 1028 70 10000 2 350 17:38 14.01.2020
567 Clouds 4 1028 60 10000 2 350 17:19 14.01.2020
568 Clouds 4 1028 86 10000 4 20 16:55 14.01.2020
569 Clouds 4 1029 60 10000 3 360 16:37 14.01.2020
570 Clouds 5 1029 60 10000 3 360 16:19 14.01.2020
571 Clouds 5 1029 80 10000 4 360 15:43 14.01.2020
572 Clouds 5 1029 60 8000 4 360 15:19 14.01.2020
573 Clouds 5 1029 60 8000 4 30 14:47 14.01.2020
574 Clouds 5 1029 60 8000 4 30 14:47 14.01.2020
575 Clouds 5 1029 55 8000 4 40 14:23 14.01.2020
576 Clouds 5 1029 55 8000 3 10 13:59 14.01.2020
577 Clouds 5 1029 69 8000 3 10 13:41 14.01.2020
578 Clouds 5 1029 69 8000 3 10 13:19 14.01.2020
579 Haze 6 1029 56 5000 3 320 12:43 14.01.2020
580 Haze 6 1029 56 5000 3 320 12:24 14.01.2020
581 Haze 6 1028 56 5000 3 320 11:58 14.01.2020
582 Haze 6 1028 60 5000 4 330 11:40 14.01.2020
583 Haze 6 1028 60 5000 4 330 11:22 14.01.2020
584 Haze 7 1028 56 4500 4 330 10:56 14.01.2020
585 Haze 6 1027 56 4000 5 340 10:37 14.01.2020
586 Haze 7 1027 56 4000 5 340 10:19 14.01.2020
587 Haze 7 1026 56 4000 6 10 09:43 14.01.2020
588 Haze 7 1026 56 4000 6 10 09:24 14.01.2020
589 Haze 7 1026 52 4000 5 330 08:58 14.01.2020
590 Haze 8 1026 48 4000 6 340 08:39 14.01.2020
591 Haze 9 1026 53 4000 6 340 08:20 14.01.2020
592 Haze 9 1027 53 3500 5 320 07:46 14.01.2020
593 Haze 8 1027 61 3500 5 330 07:18 14.01.2020
594 Haze 9 1027 61 3500 7 330 06:42 14.01.2020
595 Haze 8 1027 61 3500 6 330 05:56 14.01.2020
596 Haze 7 1027 57 3500 5 340 04:24 14.01.2020
597 Haze 9 1028 65 2500 5 340 03:45 14.01.2020
598 Mist 8 1027 75 2500 4 340 02:30 14.01.2020
599 Mist 5 1027 75 2500 3 330 01:18 14.01.2020
600 Mist 5 1027 80 2700 3 330 00:42 14.01.2020
601 Mist 5 1027 80 2700 3 330 00:21 14.01.2020
602 Mist 5 1026 80 4000 2 320 23:42 13.01.2020
603 Mist 5 1026 80 4000 2 320 23:18 13.01.2020
604 Mist 6 1026 80 5000 2 300 22:55 13.01.2020
605 Mist 6 1025 80 5000 1 0 22:37 13.01.2020
606 Mist 6 1025 80 5000 1 0 22:19 13.01.2020
607 Mist 6 1025 80 5000 3 330 21:54 13.01.2020
608 Mist 6 1025 80 5000 3 330 21:36 13.01.2020
609 Mist 6 1025 80 5000 3 330 21:18 13.01.2020
610 Mist 6 1025 80 5000 2 340 20:42 13.01.2020
611 Mist 6 1025 80 5000 2 340 20:23 13.01.2020
612 Mist 6 1025 75 5000 2 330 19:59 13.01.2020
613 Mist 6 1025 75 5000 3 320 19:40 13.01.2020
614 Mist 6 1025 75 5000 3 320 19:20 13.01.2020
615 Clouds 6 1024 70 6000 2 340 18:58 13.01.2020
616 Clouds 6 1025 70 7000 2 320 18:37 13.01.2020
617 Clouds 6 1025 70 7000 2 320 18:37 13.01.2020
618 Clouds 6 1025 70 7000 2 320 18:19 13.01.2020
619 Clouds 7 1025 75 7000 3 350 17:44 13.01.2020
620 Clouds 7 1025 75 7000 3 350 17:44 13.01.2020
621 Clouds 7 1025 65 7000 0.87 299 17:25 13.01.2020
622 Clouds 7 1025 65 8000 1 0 16:58 13.01.2020
623 Clouds 7 1021 64 0 0.73 48 16:38 13.01.2020
624 Clouds 7 1020 65 0 0.73 48 16:20 13.01.2020
625 Clouds 7 1020 64 0 0.73 48 15:54 13.01.2020
626 Clouds 7 1020 64 0 0.73 48 15:36 13.01.2020
627 Clouds 7 1020 65 0 0.73 48 15:18 13.01.2020
628 Clouds 7 1020 64 0 0.73 48 14:40 13.01.2020
629 Clouds 7 1020 64 0 1.41 139 14:22 13.01.2020
630 Clouds 7 1020 63 0 1.41 139 13:56 13.01.2020
631 Clouds 7 1020 63 0 1.41 139 13:56 13.01.2020
632 Clouds 7 1020 63 0 1.41 139 13:37 13.01.2020
633 Clouds 7 1020 63 0 1.67 80 13:19 13.01.2020
634 Clouds 7 1024 65 6000 4 360 12:43 13.01.2020
635 Clouds 7 1024 65 6000 4 360 12:23 13.01.2020
636 Clouds 7 1024 65 6000 4 360 12:23 13.01.2020
637 Clouds 7 1024 65 6000 4 360 11:58 13.01.2020
638 Clouds 7 1023 61 6000 3 10 11:38 13.01.2020
639 Clouds 7 1023 61 6000 3 10 11:38 13.01.2020
640 Clouds 7 1023 61 6000 3 10 11:19 13.01.2020
641 Clouds 8 1023 61 6000 4 30 10:56 13.01.2020
642 Clouds 8 1022 54 6000 3 40 10:38 13.01.2020
643 Clouds 8 1022 54 6000 3 40 10:19 13.01.2020
644 Clouds 9 1022 49 8000 1 0 09:44 13.01.2020
645 Clouds 9 1022 49 8000 1 0 09:24 13.01.2020
646 Clouds 8 1022 49 7000 1 0 08:57 13.01.2020
647 Clouds 9 1023 54 7000 1 0 08:37 13.01.2020
648 Clouds 9 1023 48 7000 1 0 08:18 13.01.2020
649 Clouds 9 1023 49 6000 3 210 07:43 13.01.2020
650 Clouds 9 1023 49 6000 3 210 07:24 13.01.2020
651 Clouds 9 1024 52 6000 1 0 06:37 13.01.2020
652 Clouds 9 1024 52 6000 1 0 06:37 13.01.2020
653 Clouds 9 1025 61 6000 2 0 05:37 13.01.2020
654 Clouds 8 1025 61 6000 2 0 05:18 13.01.2020
655 Haze 10 1025 70 3000 4 150 03:41 13.01.2020
656 Mist 9 1025 81 2500 2 200 02:50 13.01.2020
657 Mist 9 1025 80 1600 2 210 02:30 13.01.2020
658 Mist 9 1025 80 1600 2 210 02:30 13.01.2020
659 Mist 4 1025 93 1200 1.38 40 01:33 13.01.2020
660 Mist 4 1025 93 1200 1 0 00:44 13.01.2020
661 Mist 3 1025 93 1600 1 10 00:26 13.01.2020
662 Mist 4 1025 93 2200 1 0 23:57 12.01.2020
663 Mist 4 1025 93 2200 1 0 23:39 12.01.2020
664 Mist 4 1025 93 2200 1 0 23:21 12.01.2020
665 Mist 4 1024 93 2000 1 290 22:45 12.01.2020
666 Mist 4 1023 70 2000 1 0 22:27 12.01.2020
667 Mist 4 1024 93 2000 1 360 21:59 12.01.2020
668 Mist 4 1024 70 2000 1 10 21:40 12.01.2020
669 Mist 4 1024 70 2000 1 10 21:20 12.01.2020
670 Mist 4 1024 93 2000 2 340 20:58 12.01.2020
671 Mist 4 1024 93 2000 1 360 20:39 12.01.2020
672 Mist 4 1024 93 2000 1 360 20:21 12.01.2020
673 Mist 4 1025 93 2000 1 340 19:56 12.01.2020
674 Mist 4 1025 93 2000 1 340 19:56 12.01.2020
675 Mist 4 1025 93 2000 1 340 19:56 12.01.2020
676 Mist 4 1024 86 3500 1 360 19:38 12.01.2020
677 Mist 4 1024 86 3500 1 360 19:38 12.01.2020
678 Mist 4 1024 86 3500 1 360 19:19 12.01.2020
679 Mist 5 1025 86 3500 1 350 18:58 12.01.2020
680 Mist 5 1025 86 3500 1 350 18:58 12.01.2020
681 Mist 5 1025 86 5000 1 350 18:40 12.01.2020
682 Mist 5 1025 86 5000 1 350 18:40 12.01.2020
683 Mist 5 1025 86 5000 1 350 18:21 12.01.2020
684 Mist 5 1025 86 5000 2 30 17:58 12.01.2020
685 Mist 5 1025 80 5000 2 330 17:38 12.01.2020
686 Mist 5 1025 80 5000 2 330 17:19 12.01.2020
687 Mist 5 1025 80 5000 3 320 16:55 12.01.2020
688 Mist 5 1025 80 5000 3 330 16:37 12.01.2020
689 Mist 5 1025 80 5000 3 330 16:18 12.01.2020
690 Mist 5 1025 80 5000 3 330 15:42 12.01.2020
691 Mist 5 1025 80 5000 3 330 15:24 12.01.2020
692 Haze 5 1025 75 5000 3 320 14:57 12.01.2020
693 Haze 5 1025 75 5000 3 320 14:38 12.01.2020
694 Haze 5 1025 75 5000 3 320 14:19 12.01.2020
695 Haze 6 1025 51 5000 3 320 13:43 12.01.2020
696 Clear 6 1025 52 7000 3 320 13:24 12.01.2020
697 Clear 6 1024 52 7000 3 320 12:58 12.01.2020
698 Clear 6 1024 52 7000 3 330 12:39 12.01.2020
699 Clear 7 1024 52 7000 3 330 12:20 12.01.2020
700 Haze 7 1024 52 5000 3 330 11:57 12.01.2020
701 Haze 7 1024 52 5000 3 340 11:38 12.01.2020
702 Haze 7 1024 44 5000 3 340 11:19 12.01.2020
703 Haze 7 1024 56 5000 4 330 10:41 12.01.2020
704 Haze 7 1024 56 5000 4 330 10:21 12.01.2020
705 Haze 7 1023 56 5000 5 350 09:56 12.01.2020
706 Haze 7 1023 44 5000 4 340 09:38 12.01.2020
707 Haze 8 1023 44 5000 4 340 09:18 12.01.2020
708 Haze 7 1023 56 5000 4 340 08:42 12.01.2020
709 Haze 8 1023 56 5000 4 340 08:19 12.01.2020
710 Haze 7 1023 52 4000 4 320 07:40 12.01.2020
711 Haze 7 1023 52 4000 4 320 07:21 12.01.2020
712 Haze 9 1023 38 4000 5 330 06:43 12.01.2020
713 Haze 9 1023 38 4000 5 330 06:19 12.01.2020
714 Haze 8 1024 38 5000 5 320 05:23 12.01.2020
715 Haze 9 1026 43 5000 5 330 03:47 12.01.2020
716 Haze 8 1026 43 5000 5 320 03:22 12.01.2020
717 Mist 8 1025 75 5000 3 320 02:30 12.01.2020
718 Mist 5 1024 80 5000 4 330 01:42 12.01.2020
719 Mist 4 1024 80 5000 4 330 01:22 12.01.2020
720 Mist 4 1024 80 5000 4 330 01:21 12.01.2020
721 Clouds 4 1024 53 6000 4 320 00:40 12.01.2020
722 Clouds 4 1024 80 7000 4 320 00:19 12.01.2020
723 Clouds 4 1024 80 7000 3 330 23:42 11.01.2020
724 Clouds 4 1024 80 7000 3 330 23:19 11.01.2020
725 Clouds 5 1023 69 6000 4 330 22:57 11.01.2020
726 Clouds 5 1023 75 6000 4 320 22:39 11.01.2020
727 Clouds 5 1023 75 6000 4 320 22:20 11.01.2020
728 Clouds 5 1023 75 6000 5 320 21:54 11.01.2020
729 Clouds 5 1023 80 6000 4 320 21:36 11.01.2020
730 Clouds 5 1023 80 6000 4 320 21:18 11.01.2020
731 Clouds 5 1023 80 6000 5 340 20:40 11.01.2020
732 Clouds 5 1023 80 6000 5 340 20:20 11.01.2020
733 Mist 5 1023 86 5000 4 340 19:58 11.01.2020
734 Mist 6 1023 81 4200 4 320 19:38 11.01.2020
735 Mist 6 1023 81 4200 4 320 19:20 11.01.2020
736 Mist 6 1023 87 4500 4 320 18:57 11.01.2020
737 Mist 6 1023 87 4500 3 320 18:37 11.01.2020
738 Mist 6 1023 87 4500 3 320 18:19 11.01.2020
739 Clouds 6 1023 81 6000 4 310 17:57 11.01.2020
740 Clouds 6 1023 75 7000 4 320 17:39 11.01.2020
741 Clouds 6 1023 75 7000 4 320 17:18 11.01.2020
742 Clouds 6 1023 81 7000 5 330 16:44 11.01.2020
743 Clouds 6 1023 81 7000 5 330 16:25 11.01.2020
744 Clouds 6 1023 87 7000 5 330 15:56 11.01.2020
745 Clouds 6 1023 87 7000 4 320 15:38 11.01.2020
746 Clouds 6 1023 87 7000 4 320 15:20 11.01.2020
747 Clouds 6 1023 87 10000 4 350 14:46 11.01.2020
748 Clouds 6 1023 87 10000 5 330 14:46 11.01.2020
749 Clouds 6 1023 87 10000 4 350 14:25 11.01.2020
750 Clouds 6 1022 87 10000 4 350 13:57 11.01.2020
751 Clouds 6 1022 87 7000 5 340 13:38 11.01.2020
752 Clouds 6 1022 87 7000 5 340 13:20 11.01.2020
753 Clouds 6 1022 93 7000 5 350 12:55 11.01.2020
754 Rain 6 1022 93 7000 5 350 12:36 11.01.2020
755 Rain 6 1022 93 7000 5 350 12:18 11.01.2020
756 Rain 7 1022 87 6000 5 340 11:42 11.01.2020
757 Rain 7 1022 87 6000 5 340 11:23 11.01.2020
758 Rain 7 1021 87 6000 5 350 10:44 11.01.2020
759 Rain 7 1021 93 4500 5 330 10:24 11.01.2020
760 Rain 7 1021 93 4500 5 330 10:24 11.01.2020
761 Rain 7 1020 93 4500 4 350 09:43 11.01.2020
762 Rain 7 1020 93 4500 4 350 09:21 11.01.2020
763 Rain 7 1020 93 4500 3 360 08:43 11.01.2020
764 Rain 7 1020 87 6000 5 360 08:23 11.01.2020
765 Clouds 8 1020 87 7000 4 360 07:45 11.01.2020
766 Clouds 7 1020 87 6000 4 360 07:27 11.01.2020
767 Clouds 7 1020 93 6000 4 360 06:56 11.01.2020
768 Clouds 8 1020 87 6000 4 350 06:37 11.01.2020
769 Clouds 8 1021 93 6000 4 360 05:18 11.01.2020
770 Rain 8 1022 93 4500 5 360 04:37 11.01.2020
771 Rain 8 1022 93 4500 5 360 04:19 11.01.2020
772 Rain 7 1022 93 4500 6 10 02:45 11.01.2020
773 Rain 7 1022 93 7000 5 10 01:45 11.01.2020
774 Rain 7 1022 93 7000 5 10 01:21 11.01.2020
775 Rain 7 1021 93 8000 5 10 00:47 11.01.2020
776 Rain 7 1021 93 8000 5 10 00:20 11.01.2020
777 Rain 7 1021 93 10000 5 20 23:41 10.01.2020
778 Rain 8 1021 93 10000 5 20 23:23 10.01.2020
779 Rain 8 1021 93 8000 4 20 22:59 10.01.2020
780 Rain 7 1021 93 8000 4 20 22:41 10.01.2020
781 Rain 7 1021 93 8000 4 20 22:21 10.01.2020
782 Rain 7 1020 93 8000 5 20 21:58 10.01.2020
783 Rain 7 1020 93 8000 5 20 21:39 10.01.2020
784 Rain 7 1020 93 8000 5 20 21:19 10.01.2020
785 Rain 7 1020 93 8000 4 30 20:55 10.01.2020
786 Rain 7 1020 93 8000 6 30 20:37 10.01.2020
787 Rain 7 1020 93 8000 6 30 20:18 10.01.2020
788 Rain 8 1021 93 10000 4 30 19:39 10.01.2020
789 Rain 8 1021 93 10000 4 30 19:20 10.01.2020
790 Rain 8 1021 93 10000 4 40 18:44 10.01.2020
791 Rain 8 1021 87 10000 5 30 18:20 10.01.2020
792 Rain 9 1021 87 10000 6 40 17:58 10.01.2020
793 Rain 8 1020 93 10000 6 40 17:40 10.01.2020
794 Rain 8 1020 93 10000 6 40 17:21 10.01.2020
795 Rain 8 1021 93 10000 6 30 16:59 10.01.2020
796 Rain 8 1021 93 10000 5 40 16:41 10.01.2020
797 Rain 8 1021 93 10000 5 40 16:21 10.01.2020
798 Rain 8 1021 93 8000 4 40 15:56 10.01.2020
799 Rain 8 1021 93 8000 5 40 15:37 10.01.2020
800 Rain 8 1021 93 8000 5 40 15:19 10.01.2020
801 Rain 8 1021 93 10000 5 40 14:56 10.01.2020
802 Rain 9 1021 93 10000 4 40 14:38 10.01.2020
803 Rain 8 1021 93 10000 4 40 14:19 10.01.2020
804 Rain 8 1021 93 10000 4 60 13:44 10.01.2020
805 Rain 8 1021 93 10000 4 60 13:26 10.01.2020
806 Rain 8 1021 93 10000 4 60 13:26 10.01.2020
807 Rain 8 1021 93 10000 5 60 12:59 10.01.2020
808 Rain 8 1020 93 10000 4 50 12:40 10.01.2020
809 Rain 8 1020 93 10000 4 50 12:21 10.01.2020
810 Rain 8 1020 93 10000 4 60 11:56 10.01.2020
811 Rain 8 1020 93 10000 5 60 11:38 10.01.2020
812 Rain 9 1020 93 10000 5 60 11:19 10.01.2020
813 Rain 8 1020 93 10000 5 60 10:58 10.01.2020
814 Rain 8 1020 93 10000 5 60 10:58 10.01.2020
815 Rain 8 1020 93 10000 5 60 10:58 10.01.2020
816 Rain 8 1020 93 10000 4 50 10:37 10.01.2020
817 Rain 8 1020 93 10000 5 60 10:18 10.01.2020
818 Rain 8 1020 93 10000 5 60 09:45 10.01.2020
819 Rain 9 1019 87 10000 5 70 09:25 10.01.2020
820 Rain 8 1020 93 8000 4 60 08:44 10.01.2020
821 Rain 9 1020 93 8000 4 60 08:24 10.01.2020
822 Rain 9 1020 93 8000 4 60 08:24 10.01.2020
823 Rain 9 1020 93 10000 4 60 07:48 10.01.2020
824 Rain 9 1020 93 7000 3 40 07:30 10.01.2020
825 Rain 9 1020 93 5000 4 60 06:56 10.01.2020
826 Rain 9 1021 93 7000 3 60 06:27 10.01.2020
827 Rain 9 1021 81 10000 4 60 05:59 10.01.2020
828 Rain 9 1023 87 7000 3 70 03:50 10.01.2020
829 Rain 10 1024 93 10000 2 70 03:31 10.01.2020
830 Rain 9 1023 87 10000 5 80 02:52 10.01.2020
831 Clouds 9 1023 81 10000 5 80 01:53 10.01.2020
832 Clouds 9 1022 81 10000 3 80 01:29 10.01.2020
833 Clouds 9 1023 81 10000 4 60 00:48 10.01.2020
834 Clouds 9 1022 81 10000 4 70 00:30 10.01.2020
835 Clouds 9 1023 76 10000 4 60 23:40 09.01.2020
836 Clouds 9 1023 76 10000 4 60 23:21 09.01.2020
837 Clouds 9 1023 76 10000 4 60 23:21 09.01.2020
838 Clouds 9 1023 76 10000 3 60 22:58 09.01.2020
839 Clouds 9 1023 76 10000 3 60 22:58 09.01.2020
840 Clouds 9 1023 76 10000 2 60 22:39 09.01.2020
841 Clouds 9 1023 76 10000 2 60 22:19 09.01.2020
842 Clouds 9 1023 76 10000 2 60 22:19 09.01.2020
843 Clouds 9 1022 87 10000 2 60 21:57 09.01.2020
844 Clouds 9 1022 81 10000 3 70 21:39 09.01.2020
845 Clouds 9 1022 81 10000 3 70 21:20 09.01.2020
846 Clouds 8 1023 87 10000 2 30 20:58 09.01.2020
847 Clouds 8 1023 87 10000 2 30 20:39 09.01.2020
848 Clouds 8 1023 87 10000 2 30 20:20 09.01.2020
849 Clouds 8 1023 87 10000 2 30 20:20 09.01.2020
850 Clouds 8 1023 87 10000 2 30 19:59 09.01.2020
851 Clouds 8 1023 93 10000 3 20 19:39 09.01.2020
852 Clouds 8 1023 93 10000 3 20 19:20 09.01.2020
853 Clouds 8 1023 93 10000 2 30 18:56 09.01.2020
854 Clouds 8 1023 87 10000 3 40 18:38 09.01.2020
855 Clouds 8 1023 87 10000 3 40 18:20 09.01.2020
856 Clouds 8 1023 93 10000 3 50 17:41 09.01.2020
857 Clouds 7 1023 93 10000 3 50 17:19 09.01.2020
858 Clouds 7 1024 87 10000 3 40 16:56 09.01.2020
859 Clouds 7 1024 87 10000 3 40 16:37 09.01.2020
860 Clouds 7 1024 87 10000 3 40 16:19 09.01.2020
861 Clouds 7 1024 87 10000 4 60 15:41 09.01.2020
862 Clouds 7 1024 87 10000 4 60 15:21 09.01.2020
863 Clouds 7 1024 87 10000 3 50 14:55 09.01.2020
864 Rain 7 1024 87 10000 3 40 14:37 09.01.2020
865 Rain 7 1024 87 10000 3 40 14:18 09.01.2020
866 Clouds 7 1024 87 10000 4 50 13:55 09.01.2020
867 Rain 7 1024 87 10000 4 50 13:36 09.01.2020
868 Rain 7 1024 87 10000 4 50 13:18 09.01.2020
869 Clouds 6 1024 93 10000 5 50 12:42 09.01.2020
870 Clouds 6 1024 93 10000 5 50 12:42 09.01.2020
871 Clouds 6 1024 93 10000 5 50 12:23 09.01.2020
872 Clouds 6 1024 93 8000 3 50 11:59 09.01.2020
873 Rain 6 1024 93 7000 5 50 11:41 09.01.2020
874 Rain 6 1024 93 7000 5 50 11:22 09.01.2020
875 Rain 6 1025 93 8000 4 20 10:55 09.01.2020
876 Rain 6 1025 93 10000 3 20 10:37 09.01.2020
877 Rain 7 1025 93 10000 3 20 10:19 09.01.2020
878 Rain 6 1024 93 10000 4 20 09:41 09.01.2020
879 Rain 6 1024 93 10000 4 20 09:21 09.01.2020
880 Rain 7 1024 93 10000 3 40 08:56 09.01.2020
881 Rain 6 1024 87 7000 2 20 08:37 09.01.2020
882 Rain 6 1024 87 7000 2 20 08:19 09.01.2020
883 Rain 6 1024 93 7000 3 20 07:42 09.01.2020
884 Rain 6 1025 87 10000 4 360 07:24 09.01.2020
885 Rain 8 1025 75 10000 4 350 06:39 09.01.2020
886 Rain 8 1025 75 10000 4 350 06:20 09.01.2020
887 Rain 7 1025 75 10000 4 10 05:50 09.01.2020
888 Rain 7 1025 75 10000 4 10 05:50 09.01.2020
889 Clouds 7 1026 75 10000 4 350 04:44 09.01.2020
890 Clouds 7 1027 81 10000 3 360 03:54 09.01.2020
891 Clouds 7 1027 75 10000 3 360 02:55 09.01.2020
892 Clouds 7 1027 75 10000 3 360 02:28 09.01.2020
893 Clouds 7 1026 70 10000 3 360 01:39 09.01.2020
894 Clouds 6 1026 75 10000 2 20 00:43 09.01.2020
895 Clouds 5 1026 75 10000 2 20 00:21 09.01.2020
896 Clouds 6 1026 75 10000 3 360 23:44 08.01.2020
897 Clouds 5 1026 66 10000 3 10 23:25 08.01.2020
898 Clouds 5 1026 66 10000 3 360 22:59 08.01.2020
899 Clouds 5 1026 66 10000 4 10 22:39 08.01.2020
900 Clouds 5 1026 66 10000 4 10 22:20 08.01.2020
901 Clouds 5 1027 66 10000 3 340 21:57 08.01.2020
902 Clouds 5 1027 66 10000 3 340 21:38 08.01.2020
903 Clouds 5 1027 66 10000 3 340 21:19 08.01.2020
904 Clouds 5 1027 66 10000 3 10 20:58 08.01.2020
905 Clouds 5 1027 66 10000 3 360 20:38 08.01.2020
906 Clouds 6 1028 63 10000 4 360 20:20 08.01.2020
907 Clouds 5 1028 63 10000 4 360 19:56 08.01.2020
908 Clouds 5 1028 63 10000 4 360 19:56 08.01.2020
909 Clouds 5 1028 65 10000 4 360 19:37 08.01.2020
910 Clouds 5 1028 65 10000 4 360 19:37 08.01.2020
911 Clouds 5 1028 65 10000 4 360 19:36 08.01.2020
912 Clouds 5 1028 65 10000 4 360 19:18 08.01.2020
913 Clouds 5 1028 65 10000 4 360 18:55 08.01.2020
914 Clouds 5 1028 65 10000 4 360 18:55 08.01.2020
915 Clouds 5 1028 65 10000 4 360 18:55 08.01.2020
916 Clouds 6 1028 65 10000 5 360 18:36 08.01.2020
917 Clouds 6 1028 65 10000 5 360 18:18 08.01.2020
918 Clouds 5 1028 65 10000 3 10 17:45 08.01.2020
919 Clouds 5 1028 65 10000 5 30 17:24 08.01.2020
920 Clouds 5 1027 65 10000 4 40 16:57 08.01.2020
921 Clouds 5 1028 60 10000 4 50 16:39 08.01.2020
922 Clouds 5 1028 60 10000 4 50 16:19 08.01.2020
923 Clouds 5 1028 60 10000 4 50 16:19 08.01.2020
924 Clouds 5 1028 60 10000 3 30 15:56 08.01.2020
925 Clouds 5 1028 55 10000 3 40 15:38 08.01.2020
926 Clouds 5 1028 55 10000 3 40 15:18 08.01.2020
927 Clouds 5 1028 55 10000 3 20 14:41 08.01.2020
928 Clouds 6 1028 56 10000 3 30 14:21 08.01.2020
929 Clouds 5 1028 65 10000 3 360 13:56 08.01.2020
930 Clouds 6 1027 56 10000 4 360 13:37 08.01.2020
931 Clouds 6 1027 56 10000 4 360 13:18 08.01.2020
932 Clouds 6 1027 56 10000 3 340 12:40 08.01.2020
933 Clouds 6 1027 56 10000 3 340 12:18 08.01.2020
934 Clouds 7 1027 56 10000 5 350 11:48 08.01.2020
935 Clouds 6 1027 56 10000 5 340 11:20 08.01.2020
936 Clouds 6 1027 56 10000 6 350 10:59 08.01.2020
937 Clouds 7 1027 56 10000 6 350 10:41 08.01.2020
938 Clouds 7 1027 52 10000 5 330 10:21 08.01.2020
939 Clouds 7 1026 56 10000 6 330 09:57 08.01.2020
940 Clouds 7 1027 52 10000 6 330 09:36 08.01.2020
941 Clouds 8 1027 52 10000 6 330 09:18 08.01.2020
942 Clouds 8 1027 52 10000 6 320 08:41 08.01.2020
943 Clouds 8 1027 52 10000 6 330 08:22 08.01.2020
944 Clouds 9 1027 52 10000 6 330 07:59 08.01.2020
945 Clouds 9 1027 49 10000 6 310 07:40 08.01.2020
946 Clouds 9 1027 49 10000 6 310 07:19 08.01.2020
947 Clouds 8 1027 36 10000 6 300 06:42 08.01.2020
948 Clouds 8 1027 36 10000 5 280 05:56 08.01.2020
949 Clouds 7 1028 65 10000 4 300 05:26 08.01.2020
950 Clouds 6 1029 70 10000 5 310 04:37 08.01.2020
951 Clouds 7 1029 75 10000 5 290 02:46 08.01.2020
952 Clouds 6 1029 49 10000 5 300 02:28 08.01.2020
953 Clouds 5 1029 75 7000 7 300 01:56 08.01.2020
954 Clouds 5 1029 75 10000 5 310 01:30 08.01.2020
955 Clouds 5 1028 75 10000 7 310 00:51 08.01.2020
956 Clouds 5 1028 75 10000 7 310 00:22 08.01.2020
957 Clouds 6 1027 70 10000 7 310 23:46 07.01.2020
958 Clouds 6 1027 70 10000 6 290 23:21 07.01.2020
959 Clouds 6 1027 70 10000 6 290 23:21 07.01.2020
960 Clouds 6 1027 70 10000 6 300 22:41 07.01.2020
961 Clouds 6 1026 75 10000 7 310 22:21 07.01.2020
962 Clouds 6 1026 75 10000 6 290 21:59 07.01.2020
963 Clouds 5 1026 75 10000 6 290 21:59 07.01.2020
964 Clouds 6 1025 70 10000 8 320 21:41 07.01.2020
965 Clouds 6 1025 70 10000 8 320 21:21 07.01.2020
966 Clouds 6 1025 70 10000 8 310 20:57 07.01.2020
967 Clouds 6 1024 70 10000 9 300 20:39 07.01.2020
968 Clouds 6 1024 70 10000 9 300 20:21 07.01.2020
969 Clouds 6 1025 70 10000 9 310 19:56 07.01.2020
970 Clouds 6 1024 70 10000 9 290 19:37 07.01.2020
971 Clouds 6 1024 70 10000 9 290 19:18 07.01.2020
972 Clouds 6 1024 70 10000 9 290 19:18 07.01.2020
973 Clouds 6 1024 70 10000 9 290 18:55 07.01.2020
974 Clouds 6 1023 70 10000 9 300 18:36 07.01.2020
975 Clouds 6 1023 70 10000 9 300 18:18 07.01.2020
976 Clouds 6 1023 65 10000 9 300 17:40 07.01.2020
977 Clouds 6 1023 65 10000 9 300 17:22 07.01.2020
978 Rain 7 1023 65 10000 11 290 16:57 07.01.2020
979 Clouds 7 1022 70 10000 6 290 16:38 07.01.2020
980 Rain 7 1022 70 10000 6 290 16:19 07.01.2020
981 Clouds 7 1022 70 10000 9 280 15:58 07.01.2020
982 Clouds 8 1022 70 10000 8 290 15:40 07.01.2020
983 Clouds 8 1022 70 10000 8 290 15:22 07.01.2020
984 Clouds 8 1022 70 10000 8 290 15:22 07.01.2020
985 Clouds 7 1021 70 10000 8 290 14:55 07.01.2020
986 Clouds 8 1021 70 10000 9 290 14:37 07.01.2020
987 Clouds 7 1021 70 10000 9 290 14:18 07.01.2020
988 Clouds 8 1020 70 10000 10 290 13:39 07.01.2020
989 Clouds 8 1020 70 10000 10 290 13:19 07.01.2020
990 Clouds 9 1019 70 10000 11 300 12:41 07.01.2020
991 Clouds 9 1019 75 10000 10 300 12:20 07.01.2020
992 Clouds 10 1018 70 10000 9 300 11:55 07.01.2020
993 Clouds 10 1017 76 10000 12 300 11:36 07.01.2020
994 Clouds 9 1017 76 10000 12 300 11:18 07.01.2020
995 Clouds 9 1017 81 10000 8 280 10:41 07.01.2020
996 Clouds 9 1017 81 10000 8 280 10:41 07.01.2020
997 Clouds 10 1016 76 10000 9 280 10:23 07.01.2020
998 Clouds 10 1016 81 10000 9 290 09:57 07.01.2020
999 Clouds 10 1015 81 10000 7 280 09:38 07.01.2020
1000 Clouds 10 1015 81 10000 7 280 09:20 07.01.2020
1001 Clouds 11 1014 81 10000 8 290 08:42 07.01.2020
1002 Rain 11 1014 87 10000 10 290 08:23 07.01.2020
1003 Rain 13 1013 87 6000 9 290 07:54 07.01.2020
1004 Mist 13 1011 93 5000 4 270 07:28 07.01.2020
1005 Mist 13 1011 93 5000 4 270 07:28 07.01.2020
1006 Rain 14 1012 93 4500 3 250 06:53 07.01.2020
1007 Mist 14 1013 82 4500 6 290 06:34 07.01.2020
1008 Mist 15 1012 87 3000 7 300 05:54 07.01.2020
1009 Mist 18 1012 87 2500 6 290 04:33 07.01.2020
1010 Mist 20 1012 82 3500 2 180 03:26 07.01.2020
1011 Clouds 18 1013 93 7000 4 280 02:22 07.01.2020
1012 Clouds 16 1012 93 8000 3 230 01:51 07.01.2020
1013 Clouds 17 1012 100 8000 2 230 01:26 07.01.2020
1014 Clouds 16 1012 100 8000 2.12 204 00:23 07.01.2020
1015 Clouds 16 1012 93 10000 2 150 23:59 06.01.2020
1016 Clouds 16 1012 93 10000 3 150 23:39 06.01.2020
1017 Clouds 16 1012 93 10000 3 150 23:21 06.01.2020
1018 Clouds 16 1012 93 10000 3 150 22:58 06.01.2020
1019 Clouds 16 1012 93 10000 2 150 22:37 06.01.2020
1020 Clouds 16 1012 93 10000 2 150 22:19 06.01.2020
1021 Clouds 16 1013 93 10000 2 150 21:55 06.01.2020
1022 Clouds 16 1013 93 10000 3 150 21:36 06.01.2020
1023 Clouds 16 1013 93 10000 3 150 21:36 06.01.2020
1024 Clouds 16 1013 93 10000 3 150 21:18 06.01.2020
1025 Clouds 16 1013 100 10000 3 150 20:54 06.01.2020
1026 Clouds 16 1013 93 10000 3 150 20:36 06.01.2020
1027 Clouds 16 1013 93 10000 3 150 20:18 06.01.2020
1028 Clouds 16 1014 93 10000 2 150 19:55 06.01.2020
1029 Clouds 16 1014 93 10000 1 160 19:36 06.01.2020
1030 Clouds 16 1014 93 10000 1 160 19:36 06.01.2020
1031 Clouds 16 1014 93 10000 1 160 19:36 06.01.2020
1032 Clouds 16 1014 93 10000 1 160 19:18 06.01.2020
1033 Clouds 17 1014 93 10000 2 170 18:43 06.01.2020
1034 Clouds 17 1014 93 10000 2 170 18:20 06.01.2020
1035 Clouds 17 1015 93 10000 2 150 17:39 06.01.2020
1036 Clouds 16 1015 93 10000 2 150 17:20 06.01.2020
1037 Clouds 16 1015 93 10000 2 150 16:57 06.01.2020
1038 Clouds 16 1015 93 10000 2 150 16:38 06.01.2020
1039 Clouds 16 1015 93 10000 2 150 16:19 06.01.2020
1040 Clouds 16 1016 93 10000 2 140 15:44 06.01.2020
1041 Clouds 17 1016 88 10000 3 140 15:22 06.01.2020
1042 Clouds 17 1016 88 10000 2 140 14:59 06.01.2020
1043 Clouds 17 1016 88 10000 2 130 14:41 06.01.2020
1044 Clear 17 1016 88 10000 2 130 14:22 06.01.2020
1045 Clear 17 1016 88 10000 2 110 13:58 06.01.2020
1046 Clear 17 1016 82 10000 1 0 13:38 06.01.2020
1047 Clear 17 1016 82 10000 1 0 13:20 06.01.2020
1048 Clear 17 1016 82 10000 1 0 12:44 06.01.2020
1049 Clear 17 1017 82 10000 2 140 12:21 06.01.2020
1050 Clear 17 1017 82 10000 2 150 11:59 06.01.2020
1051 Clear 18 1017 77 10000 4 150 11:41 06.01.2020
1052 Clear 19 1017 77 10000 4 150 11:23 06.01.2020
1053 Clear 20 1017 72 10000 3 150 10:58 06.01.2020
1054 Clear 20 1017 64 10000 4 150 10:39 06.01.2020
1055 Clear 20 1017 64 10000 4 150 10:20 06.01.2020
1056 Clear 20 1017 64 10000 4 150 10:20 06.01.2020
1057 Clear 21 1017 56 10000 4 200 09:39 06.01.2020
1058 Clear 22 1017 56 10000 4 200 09:20 06.01.2020
1059 Clear 22 1017 56 10000 4 190 08:48 06.01.2020
1060 Clear 22 1017 56 10000 4 190 08:48 06.01.2020
1061 Clear 22 1016 56 10000 4 210 08:30 06.01.2020
1062 Clear 23 1017 56 10000 5 240 07:53 06.01.2020
1063 Clear 23 1017 53 10000 5 200 07:32 06.01.2020
1064 Clear 23 1017 56 10000 4 210 06:45 06.01.2020
1065 Clear 23 1017 56 10000 5 200 06:20 06.01.2020
1066 Clear 22 1019 60 10000 6 210 05:45 06.01.2020
1067 Clear 21 1020 64 10000 6 200 04:37 06.01.2020
1068 Clear 20 1020 68 10000 5 190 04:18 06.01.2020
1069 Clear 19 1021 77 10000 4 180 02:46 06.01.2020
1070 Clouds 17 1021 82 10000 4 180 02:23 06.01.2020
1071 Clouds 16 1021 87 10000 5 170 01:44 06.01.2020
1072 Clouds 15 1021 87 10000 3 160 01:24 06.01.2020
1073 Clouds 14 1020 93 10000 4 150 00:41 06.01.2020
1074 Clouds 14 1020 93 10000 4 150 00:20 06.01.2020
1075 Clouds 14 1020 93 10000 3 150 23:41 05.01.2020
1076 Clouds 14 1020 93 10000 3 150 23:22 05.01.2020
1077 Clouds 14 1020 87 10000 4 150 22:56 05.01.2020
1078 Clouds 14 1020 87 10000 4 160 22:37 05.01.2020
1079 Clouds 14 1020 87 10000 4 160 22:19 05.01.2020
1080 Clouds 14 1020 87 10000 4 160 22:19 05.01.2020
1081 Clouds 14 1020 87 10000 4 170 21:54 05.01.2020
1082 Clouds 15 1020 82 10000 5 160 21:36 05.01.2020
1083 Clouds 15 1020 82 10000 5 160 21:18 05.01.2020
1084 Clouds 14 1021 87 10000 5 160 20:54 05.01.2020
1085 Clouds 14 1021 87 10000 3 150 20:36 05.01.2020
1086 Clouds 14 1021 87 10000 4 150 20:18 05.01.2020
1087 Clouds 14 1022 82 10000 4 160 19:41 05.01.2020
1088 Clouds 14 1022 82 10000 4 160 19:21 05.01.2020
1089 Clouds 14 1022 82 10000 4 150 18:56 05.01.2020
1090 Clouds 14 1022 82 10000 5 150 18:38 05.01.2020
1091 Clouds 14 1022 82 10000 5 150 18:19 05.01.2020
1092 Clouds 14 1022 82 10000 6 150 17:59 05.01.2020
1093 Clouds 14 1022 82 10000 6 150 17:39 05.01.2020
1094 Clouds 14 1023 82 10000 6 150 17:20 05.01.2020
1095 Clouds 14 1023 82 10000 6 150 16:57 05.01.2020
1096 Clouds 14 1023 82 10000 6 150 16:39 05.01.2020
1097 Clouds 14 1023 82 10000 6 150 16:39 05.01.2020
1098 Clouds 14 1023 82 10000 6 150 16:20 05.01.2020
1099 Clouds 14 1024 82 10000 7 140 15:40 05.01.2020
1100 Clouds 14 1024 82 10000 7 140 15:22 05.01.2020
1101 Clouds 14 1024 82 10000 5 130 14:57 05.01.2020
1102 Clouds 14 1024 76 10000 5 130 14:39 05.01.2020
1103 Clouds 14 1024 76 10000 5 130 14:20 05.01.2020
1104 Clouds 13 1024 76 10000 5 130 13:57 05.01.2020
1105 Clouds 13 1024 76 10000 6 130 13:38 05.01.2020
1106 Clouds 13 1024 76 10000 6 130 13:20 05.01.2020
1107 Clouds 13 1024 76 10000 6 130 13:20 05.01.2020
1108 Clouds 13 1024 71 10000 6 130 12:56 05.01.2020
1109 Clouds 13 1024 71 10000 6 130 12:37 05.01.2020
1110 Clouds 13 1024 71 10000 6 130 12:19 05.01.2020
1111 Clouds 13 1024 71 10000 6 130 12:19 05.01.2020
1112 Clouds 13 1024 71 10000 6 130 11:44 05.01.2020
1113 Clouds 13 1024 71 10000 5 120 11:20 05.01.2020
1114 Clouds 13 1024 71 10000 6 110 11:00 05.01.2020
1115 Clouds 13 1024 67 10000 7 120 10:40 05.01.2020
1116 Clouds 13 1024 67 10000 7 120 10:20 05.01.2020
1117 Clouds 13 1024 71 10000 7 120 09:42 05.01.2020
1118 Clouds 13 1024 71 10000 7 120 09:22 05.01.2020
1119 Clouds 14 1024 71 10000 6 120 08:54 05.01.2020
1120 Clouds 14 1024 71 10000 5 120 08:35 05.01.2020
1121 Clouds 14 1024 71 10000 6 120 07:59 05.01.2020
1122 Clouds 14 1025 67 10000 5 120 07:39 05.01.2020
1123 Clouds 13 1025 67 10000 5 120 07:20 05.01.2020
1124 Clouds 13 1025 71 10000 5 120 06:44 05.01.2020
1125 Clouds 13 1026 71 10000 5 120 05:38 05.01.2020
1126 Clouds 13 1026 71 10000 5 110 04:49 05.01.2020
1127 Clouds 13 1027 71 10000 5 120 04:18 05.01.2020
1128 Clouds 13 1027 71 10000 5 120 04:18 05.01.2020
1129 Clouds 14 1027 71 10000 5 110 03:18 05.01.2020
1130 Clouds 13 1027 71 10000 5 110 02:32 05.01.2020
1131 Clouds 12 1028 76 10000 4 100 01:49 05.01.2020
1132 Clouds 11 1027 76 10000 4 100 01:20 05.01.2020
1133 Clouds 11 1027 76 10000 4 100 00:56 05.01.2020
1134 Clouds 11 1027 76 10000 4 100 00:37 05.01.2020
1135 Clouds 11 1027 76 10000 4 100 00:19 05.01.2020
1136 Clouds 11 1026 76 10000 4 110 23:40 04.01.2020
1137 Clouds 11 1026 76 10000 4 110 23:20 04.01.2020
1138 Clouds 11 1026 76 10000 3 90 22:40 04.01.2020
1139 Clouds 11 1026 76 10000 3 90 22:22 04.01.2020
1140 Clouds 11 1026 76 10000 3 90 22:22 04.01.2020
1141 Clouds 11 1026 76 10000 3 100 21:58 04.01.2020
1142 Clouds 11 1026 71 10000 3 90 21:40 04.01.2020
1143 Clouds 11 1026 71 10000 3 90 21:40 04.01.2020
1144 Clouds 11 1026 71 10000 3 90 21:21 04.01.2020
1145 Clouds 11 1026 71 10000 3 90 20:59 04.01.2020
1146 Clouds 10 1026 76 10000 3 90 20:40 04.01.2020
1147 Clouds 10 1026 76 10000 3 90 20:22 04.01.2020
1148 Clouds 10 1027 76 8000 3 80 19:57 04.01.2020
1149 Clouds 10 1027 76 8000 2 70 19:38 04.01.2020
1150 Clouds 10 1027 76 8000 2 70 19:20 04.01.2020
1151 Clouds 10 1027 76 8000 2 60 18:56 04.01.2020
1152 Clouds 10 1027 81 8000 1 40 18:37 04.01.2020
1153 Clouds 10 1027 81 8000 1 40 18:18 04.01.2020
1154 Clouds 10 1027 76 8000 2 50 17:41 04.01.2020
1155 Clouds 10 1027 76 8000 2 50 17:23 04.01.2020
1156 Clouds 10 1027 81 8000 1 0 16:58 04.01.2020
1157 Clouds 10 1027 81 8000 4 50 16:39 04.01.2020
1158 Clouds 10 1027 81 8000 4 50 16:39 04.01.2020
1159 Clouds 10 1027 81 8000 4 50 16:21 04.01.2020
1160 Clouds 10 1028 81 8000 3 30 15:54 04.01.2020
1161 Clouds 10 1028 81 8000 3 20 15:36 04.01.2020
1162 Clouds 10 1028 81 8000 3 20 15:18 04.01.2020
1163 Clouds 10 1028 81 8000 2 30 14:42 04.01.2020
1164 Clouds 10 1027 81 8000 3 30 14:20 04.01.2020
1165 Clouds 10 1027 76 8000 3 50 13:59 04.01.2020
1166 Clouds 10 1027 76 8000 3 70 13:38 04.01.2020
1167 Clouds 10 1027 76 8000 3 70 13:19 04.01.2020
1168 Clouds 10 1027 81 8000 2 60 12:57 04.01.2020
1169 Clouds 10 1027 76 8000 2 70 12:38 04.01.2020
1170 Clouds 10 1027 76 8000 2 70 12:18 04.01.2020
1171 Clouds 10 1027 76 8000 2 60 11:55 04.01.2020
1172 Clouds 10 1027 76 8000 4 50 11:36 04.01.2020
1173 Clouds 10 1027 76 8000 4 50 11:18 04.01.2020
1174 Mist 10 1026 81 5000 4 40 10:40 04.01.2020
1175 Mist 10 1026 81 5000 4 40 10:21 04.01.2020
1176 Mist 10 1026 76 5000 4 40 09:47 04.01.2020
1177 Mist 10 1025 76 5000 3 40 09:26 04.01.2020
1178 Mist 11 1026 76 5000 4 20 08:49 04.01.2020
1179 Mist 11 1026 81 4500 3 20 08:29 04.01.2020
1180 Mist 11 1025 81 4500 4 20 07:57 04.01.2020
1181 Mist 11 1026 81 4000 3 30 07:38 04.01.2020
1182 Mist 11 1026 81 4000 4 20 06:44 04.01.2020
1183 Mist 11 1026 87 3500 3 10 05:59 04.01.2020
1184 Mist 11 1027 87 3000 3 30 04:51 04.01.2020
1185 Mist 11 1027 87 3000 3 20 04:30 04.01.2020
1186 Mist 10 1027 87 2500 3 40 03:29 04.01.2020
1187 Rain 10 1027 93 2500 3 50 02:49 04.01.2020
1188 Rain 9 1027 93 2500 4 30 02:18 04.01.2020
1189 Rain 9 1027 93 2500 4 30 02:18 04.01.2020
1190 Rain 10 1026 100 3000 3 20 01:43 04.01.2020
1191 Rain 9 1026 100 3000 3 20 01:23 04.01.2020
1192 Rain 9 1026 93 3500 3 20 00:29 04.01.2020
1193 Mist 9 1025 93 4000 3 30 23:57 03.01.2020
1194 Mist 9 1026 93 5000 2 40 23:30 03.01.2020
1195 Mist 9 1026 93 5000 2 40 23:30 03.01.2020
1196 Mist 9 1025 93 5000 2 30 22:59 03.01.2020
1197 Rain 9 1025 93 5000 3 50 22:40 03.01.2020
1198 Rain 9 1025 93 5000 3 50 22:19 03.01.2020
1199 Rain 9 1025 93 5000 3 20 21:57 03.01.2020
1200 Clouds 9 1025 93 6000 3 20 21:38 03.01.2020
1201 Clouds 9 1025 93 6000 3 20 21:19 03.01.2020
1202 Rain 10 1025 93 5000 3 50 20:55 03.01.2020
1203 Rain 10 1025 93 5000 3 50 20:55 03.01.2020
1204 Clouds 9 1025 93 6000 3 30 20:36 03.01.2020
1205 Clouds 9 1025 93 6000 3 30 20:18 03.01.2020
1206 Clouds 9 1026 93 6000 4 20 19:44 03.01.2020
1207 Rain 9 1026 93 6000 4 30 19:23 03.01.2020
1208 Mist 9 1026 100 5000 4 30 18:57 03.01.2020
1209 Mist 10 1026 87 5000 3 30 18:38 03.01.2020
1210 Mist 10 1026 87 5000 3 30 18:20 03.01.2020
1211 Mist 10 1025 93 5000 4 50 17:42 03.01.2020
1212 Mist 10 1025 93 5000 4 50 17:22 03.01.2020
1213 Mist 10 1026 93 5000 3 40 16:58 03.01.2020
1214 Rain 10 1026 93 4500 4 40 16:39 03.01.2020
1215 Rain 10 1026 93 4500 4 40 16:20 03.01.2020
1216 Rain 10 1027 93 6000 4 40 15:41 03.01.2020
1217 Rain 10 1027 93 6000 4 40 15:19 03.01.2020
1218 Clouds 10 1027 93 10000 3 40 14:40 03.01.2020
1219 Clouds 10 1027 93 10000 3 40 14:40 03.01.2020
1220 Clouds 10 1027 93 10000 3 40 14:20 03.01.2020
1221 Clouds 10 1026 93 10000 4 40 13:57 03.01.2020
1222 Clouds 10 1027 93 10000 4 40 13:39 03.01.2020
1223 Clouds 10 1027 93 10000 4 40 13:39 03.01.2020
1224 Clouds 10 1027 93 10000 4 40 13:20 03.01.2020
1225 Rain 10 1027 100 6000 2 60 12:41 03.01.2020
1226 Rain 10 1027 100 6000 2 60 12:22 03.01.2020
1227 Rain 10 1026 100 4500 4 60 11:53 03.01.2020
1228 Rain 10 1027 100 5000 4 40 11:34 03.01.2020
1229 Rain 10 1026 93 7000 4 30 10:58 03.01.2020
1230 Clouds 11 1026 93 7000 3 50 10:39 03.01.2020
1231 Clouds 11 1026 93 7000 3 50 10:21 03.01.2020
1232 Clouds 11 1026 93 7000 4 40 09:55 03.01.2020
1233 Rain 11 1025 93 7000 4 20 09:37 03.01.2020
1234 Rain 11 1025 93 7000 4 20 09:19 03.01.2020
1235 Rain 11 1025 93 4500 2 360 08:44 03.01.2020
1236 Rain 12 1025 93 4500 2 360 08:22 03.01.2020
1237 Rain 12 1025 93 3500 2 340 07:43 03.01.2020
1238 Mist 11 1025 93 4000 2 310 07:19 03.01.2020
1239 Mist 12 1025 93 4000 2 330 06:59 03.01.2020
1240 Mist 11 1025 93 2800 2 330 06:40 03.01.2020
1241 Rain 11 1025 93 2800 2 330 06:22 03.01.2020
1242 Rain 11 1025 93 2800 2 330 06:22 03.01.2020
1243 Mist 11 1027 93 1600 2 300 04:45 03.01.2020
1244 Rain 12 1028 93 2200 1 0 03:38 03.01.2020
1245 Mist 11 1028 100 2000 1 10 02:53 03.01.2020
1246 Mist 11 1028 93 2500 2 20 01:50 03.01.2020
1247 Mist 11 1027 93 2500 1 360 01:18 03.01.2020
1248 Mist 10 1027 93 5000 2 350 00:34 03.01.2020
1249 Mist 10 1027 93 5000 2 340 23:59 02.01.2020
1250 Clouds 10 1027 93 6000 1 0 23:39 02.01.2020
1251 Clouds 10 1027 93 6000 1 0 23:20 02.01.2020
1252 Clouds 10 1026 93 6000 2 350 22:58 02.01.2020
1253 Clouds 10 1026 87 6000 1 0 22:39 02.01.2020
1254 Clouds 10 1026 87 6000 1 0 22:19 02.01.2020
1255 Clouds 10 1026 87 6000 2 340 21:55 02.01.2020
1256 Clouds 10 1026 87 7000 3 350 21:36 02.01.2020
1257 Clouds 10 1026 87 7000 3 350 21:18 02.01.2020
1258 Clouds 10 1026 87 7000 1 340 20:55 02.01.2020
1259 Clouds 10 1026 87 7000 1 350 20:36 02.01.2020
1260 Clouds 10 1026 87 7000 1 350 20:18 02.01.2020
1261 Clouds 10 1027 87 7000 2 300 19:54 02.01.2020
1262 Clouds 10 1027 93 7000 2 330 19:36 02.01.2020
1263 Clouds 10 1027 93 7000 2 330 19:36 02.01.2020
1264 Clouds 10 1027 93 7000 2 330 19:18 02.01.2020
1265 Clouds 10 1027 93 7000 2 340 18:42 02.01.2020
1266 Clouds 10 1027 87 7000 2 340 18:23 02.01.2020
1267 Clouds 11 1027 93 7000 2 320 17:58 02.01.2020
1268 Clouds 11 1027 93 10000 2 320 17:38 02.01.2020
1269 Clouds 11 1027 93 10000 2 320 17:19 02.01.2020
1270 Clouds 11 1028 87 10000 2 340 16:57 02.01.2020
1271 Clouds 11 1028 93 10000 2 330 16:39 02.01.2020
1272 Clouds 11 1028 93 10000 2 330 16:20 02.01.2020
1273 Clouds 11 1028 81 10000 2 350 15:56 02.01.2020
1274 Clouds 11 1028 81 10000 2 350 15:56 02.01.2020
1275 Clouds 11 1028 81 10000 2 350 15:37 02.01.2020
1276 Clouds 11 1028 81 10000 2 340 15:19 02.01.2020
1277 Clouds 11 1028 81 10000 2 340 14:54 02.01.2020
1278 Clouds 11 1028 81 10000 3 350 14:36 02.01.2020
1279 Clouds 11 1028 81 10000 3 320 14:18 02.01.2020
1280 Clouds 11 1028 81 10000 3 340 13:45 02.01.2020
1281 Clouds 11 1028 81 10000 3 340 13:26 02.01.2020
1282 Clouds 12 1028 76 10000 3 330 12:43 02.01.2020
1283 Clouds 12 1028 76 10000 3 330 12:24 02.01.2020
1284 Clouds 12 1028 76 10000 4 340 11:43 02.01.2020
1285 Clouds 12 1028 76 10000 4 340 11:24 02.01.2020
1286 Clouds 12 1028 76 10000 3 320 10:56 02.01.2020
1287 Clouds 12 1028 76 10000 3 320 10:56 02.01.2020
1288 Clouds 12 1027 76 10000 2 0 10:36 02.01.2020
1289 Clouds 12 1027 76 10000 2 0 10:18 02.01.2020
1290 Clouds 12 1027 71 10000 2 290 09:41 02.01.2020
1291 Clouds 12 1027 71 10000 2 290 09:21 02.01.2020
1292 Clouds 13 1027 66 10000 2 230 08:41 02.01.2020
1293 Clouds 14 1027 66 10000 2 230 08:22 02.01.2020
1294 Clouds 13 1027 71 10000 2 210 07:47 02.01.2020
1295 Clouds 13 1027 76 10000 2 210 07:27 02.01.2020
1296 Clouds 13 1027 76 10000 3 190 06:43 02.01.2020
1297 Clouds 14 1028 71 10000 3 180 05:54 02.01.2020
1298 Clouds 12 1029 76 10000 3 160 04:37 02.01.2020
1299 Clouds 12 1029 81 10000 1 0 03:54 02.01.2020
1300 Clouds 11 1029 87 10000 3 140 02:21 02.01.2020
1301 Clouds 11 1029 87 10000 2 150 01:57 02.01.2020
1302 Clouds 10 1029 81 10000 3 140 01:26 02.01.2020
1303 Clouds 10 1028 81 10000 3 130 00:49 02.01.2020
1304 Clouds 10 1028 87 10000 2 120 00:26 02.01.2020
1305 Clouds 10 1028 87 10000 2 150 23:43 01.01.2020
1306 Clouds 10 1028 87 10000 2 150 23:43 01.01.2020
1307 Rain 9 1028 81 10000 2 110 23:23 01.01.2020
1308 Rain 9 1028 87 10000 2 90 22:39 01.01.2020
1309 Rain 9 1028 87 10000 2 90 22:21 01.01.2020
1310 Rain 9 1028 87 10000 1 70 21:58 01.01.2020
1311 Rain 9 1028 81 10000 1 70 21:40 01.01.2020
1312 Rain 9 1028 81 10000 1 70 21:20 01.01.2020
1313 Rain 9 1028 81 10000 1 70 21:20 01.01.2020
1314 Rain 9 1028 76 10000 1 0 20:58 01.01.2020
1315 Rain 9 1028 70 10000 2 120 20:38 01.01.2020
1316 Rain 9 1028 70 10000 2 120 20:38 01.01.2020
1317 Clouds 9 1028 70 10000 2 120 20:20 01.01.2020
1318 Clouds 9 1028 70 10000 2 120 20:20 01.01.2020
1319 Clouds 9 1028 70 10000 2 110 19:57 01.01.2020
1320 Rain 9 1028 70 10000 1 100 19:38 01.01.2020
1321 Rain 9 1028 70 10000 1 100 19:20 01.01.2020
1322 Clouds 9 1029 70 10000 2 140 18:57 01.01.2020
1323 Clouds 9 1028 70 10000 3 140 18:37 01.01.2020
1324 Clouds 9 1028 70 10000 3 140 18:19 01.01.2020
1325 Clouds 9 1028 70 10000 4 140 17:57 01.01.2020
1326 Clouds 9 1028 66 10000 4 130 17:39 01.01.2020
1327 Clouds 9 1028 66 10000 4 130 17:19 01.01.2020
1328 Clouds 9 1028 66 10000 3 130 16:56 01.01.2020
1329 Clouds 9 1029 66 10000 1 0 16:37 01.01.2020
1330 Clouds 8 1029 66 10000 1 0 16:19 01.01.2020
1331 Clouds 8 1029 66 10000 1 0 16:19 01.01.2020
1332 Clouds 8 1030 70 10000 2 140 15:54 01.01.2020
1333 Clouds 8 1030 70 10000 2 110 15:36 01.01.2020
1334 Clouds 8 1030 70 10000 2 110 15:18 01.01.2020
1335 Clouds 8 1031 70 10000 2 120 14:41 01.01.2020
1336 Clouds 8 1031 70 10000 2 120 14:22 01.01.2020
1337 Clouds 8 1030 65 10000 2 130 13:56 01.01.2020
1338 Clouds 8 1030 65 10000 2 130 13:56 01.01.2020
1339 Clouds 7 1030 65 10000 4 120 13:37 01.01.2020
1340 Clouds 7 1030 65 10000 4 120 13:19 01.01.2020
1341 Clouds 7 1030 65 10000 4 110 12:57 01.01.2020
1342 Clouds 7 1030 65 10000 4 130 12:39 01.01.2020
1343 Clouds 7 1030 65 10000 4 130 12:19 01.01.2020
1344 Clouds 7 1030 61 10000 4 110 11:55 01.01.2020
1345 Clouds 8 1030 61 10000 5 110 11:36 01.01.2020
1346 Clear 8 1030 61 10000 4 100 11:18 01.01.2020
1347 Clear 8 1030 57 10000 5 100 10:41 01.01.2020
1348 Clear 8 1030 57 10000 5 100 10:21 01.01.2020
1349 Clear 9 1030 46 10000 4 130 09:58 01.01.2020
1350 Clear 9 1030 46 10000 3 140 09:38 01.01.2020
1351 Clear 8 1030 46 10000 3 140 09:18 01.01.2020
1352 Clear 9 1030 46 10000 2 140 08:55 01.01.2020
1353 Clear 9 1030 46 10000 2 140 08:55 01.01.2020
1354 Clear 10 1031 46 10000 2 170 08:36 01.01.2020
1355 Clear 10 1031 46 10000 2 170 08:18 01.01.2020
1356 Clear 10 1031 43 10000 2 230 07:54 01.01.2020
1357 Clear 11 1031 43 10000 3 0 07:35 01.01.2020
1358 Clear 11 1031 46 10000 2 0 06:44 01.01.2020
1359 Clear 10 1032 46 10000 2 0 06:20 01.01.2020
1360 Clear 9 1032 49 10000 3 160 05:21 01.01.2020
1361 Clear 9 1034 52 10000 3 130 03:43 01.01.2020
1362 Clear 9 1034 52 10000 3 130 03:23 01.01.2020
1363 Clear 8 1034 56 10000 4 110 02:57 01.01.2020
1364 Clear 8 1035 56 10000 3 100 02:34 01.01.2020
1365 Clear 6 1035 60 10000 2 80 01:55 01.01.2020
1366 Clear 5 1034 64 10000 2 70 01:36 01.01.2020
1367 Clear 5 1034 64 10000 2 70 01:18 01.01.2020
1368 Clear 4 1034 74 10000 2 50 00:44 01.01.2020
1369 Clear 3 1034 74 10000 1 0 00:24 01.01.2020
1370 Clear 2 1034 74 10000 1 350 23:41 31.12.2019
1371 Clear 2 1034 74 10000 1 350 23:21 31.12.2019
1372 Clear 2 1034 57 10000 3 360 22:57 31.12.2019
1373 Clear 2 1033 57 10000 3 350 22:38 31.12.2019
1374 Clear 2 1033 57 10000 3 350 22:18 31.12.2019
1375 Clear 2 1033 74 10000 2 350 21:55 31.12.2019
1376 Clear 2 1033 74 10000 2 360 21:36 31.12.2019
1377 Clear 2 1033 74 10000 2 360 21:18 31.12.2019
1378 Clear 3 1034 74 10000 1 10 20:40 31.12.2019
1379 Clouds 2 1034 74 10000 1 10 20:22 31.12.2019
1380 Clear 2 1034 69 10000 1 340 19:59 31.12.2019
1381 Clear 3 1034 69 10000 1 20 19:40 31.12.2019
1382 Clear 3 1034 69 10000 1 20 19:22 31.12.2019
1383 Clear 3 1034 69 10000 1 20 19:22 31.12.2019
1384 Clear 3 1034 69 10000 1 10 18:58 31.12.2019
1385 Clouds 3 1034 64 10000 1 360 18:40 31.12.2019
1386 Clouds 3 1034 64 10000 1 360 18:19 31.12.2019
1387 Clouds 4 1035 64 10000 2 350 17:56 31.12.2019
1388 Clouds 4 1035 64 10000 2 10 17:37 31.12.2019
1389 Clouds 3 1035 64 10000 2 10 17:19 31.12.2019
1390 Clouds 3 1035 69 10000 2 360 16:56 31.12.2019
1391 Clouds 3 1036 69 10000 3 360 16:37 31.12.2019
1392 Clouds 3 1036 69 10000 3 360 16:19 31.12.2019
1393 Clouds 3 1036 64 10000 2 10 15:56 31.12.2019
1394 Clouds 3 1036 59 10000 2 10 15:38 31.12.2019
1395 Clouds 3 1036 59 10000 2 10 15:20 31.12.2019
1396 Clouds 3 1036 55 10000 3 50 14:56 31.12.2019
1397 Clouds 3 1035 55 10000 3 30 14:37 31.12.2019
1398 Clouds 3 1035 55 10000 3 30 14:19 31.12.2019
1399 Clouds 4 1036 55 10000 3 30 13:56 31.12.2019
1400 Clouds 4 1036 51 10000 4 40 13:38 31.12.2019
1401 Clouds 4 1036 51 10000 4 40 13:20 31.12.2019
1402 Clouds 4 1036 55 10000 5 10 12:56 31.12.2019
1403 Clouds 4 1036 51 10000 4 30 12:38 31.12.2019
1404 Clouds 4 1036 51 10000 4 30 12:19 31.12.2019
1405 Clouds 4 1036 52 10000 5 20 11:55 31.12.2019
1406 Clouds 4 1036 55 10000 5 40 11:37 31.12.2019
1407 Clouds 4 1036 55 10000 5 40 11:37 31.12.2019
1408 Clouds 4 1036 55 10000 5 40 11:19 31.12.2019
1409 Clouds 5 1036 52 10000 5 10 10:56 31.12.2019
1410 Clouds 5 1036 56 10000 5 20 10:37 31.12.2019
1411 Clouds 5 1036 52 10000 5 10 10:19 31.12.2019
1412 Clouds 5 1036 52 10000 5 10 09:57 31.12.2019
1413 Clouds 5 1036 52 10000 5 10 09:57 31.12.2019
1414 Clouds 5 1037 52 10000 5 20 09:38 31.12.2019
1415 Clouds 5 1037 52 10000 5 20 09:19 31.12.2019
1416 Clouds 5 1036 52 10000 5 20 08:42 31.12.2019
1417 Clouds 5 1036 56 10000 5 20 08:23 31.12.2019
1418 Clouds 5 1037 56 10000 6 10 07:57 31.12.2019
1419 Clouds 6 1037 56 10000 6 360 07:38 31.12.2019
1420 Clouds 6 1037 56 10000 6 360 07:18 31.12.2019
1421 Clouds 6 1037 56 10000 6 20 06:40 31.12.2019
1422 Clouds 5 1038 52 10000 6 360 04:58 31.12.2019
1423 Clouds 5 1039 52 10000 6 360 04:25 31.12.2019
1424 Clouds 4 1040 59 10000 4 320 02:59 31.12.2019
1425 Clouds 5 1040 55 10000 5 320 02:34 31.12.2019
1426 Clouds 4 1040 59 10000 6 330 01:51 31.12.2019
1427 Clouds 3 1040 64 10000 5 330 01:32 31.12.2019
1428 Clouds 2 1040 57 10000 4 330 00:49 31.12.2019
1429 Clouds 2 1039 64 10000 5 330 00:26 31.12.2019
1430 Clouds 2 1038 64 10000 7 340 23:59 30.12.2019
1431 Clouds 2 1039 64 10000 7 360 23:41 30.12.2019
1432 Clouds 2 1039 64 10000 7 360 23:23 30.12.2019
1433 Clouds 2 1038 64 10000 8 360 22:59 30.12.2019
1434 Clouds 2 1038 64 10000 8 360 22:41 30.12.2019
1435 Clouds 2 1038 64 10000 8 360 22:22 30.12.2019
1436 Clouds 2 1037 59 10000 10 20 21:57 30.12.2019
1437 Clouds 3 1037 64 10000 9 10 21:39 30.12.2019
1438 Clouds 2 1037 64 10000 9 10 21:39 30.12.2019
1439 Clouds 2 1037 64 10000 9 10 21:20 30.12.2019
1440 Clear 3 1037 64 10000 10 10 20:59 30.12.2019
1441 Clear 3 1037 64 10000 10 10 20:41 30.12.2019
1442 Clouds 3 1037 55 10000 10 10 20:20 30.12.2019
1443 Clouds 3 1037 59 10000 10 360 19:59 30.12.2019
1444 Clouds 4 1036 60 10000 11 360 19:39 30.12.2019
1445 Clouds 4 1036 60 10000 11 360 19:19 30.12.2019
1446 Clouds 5 1036 56 10000 10 360 18:59 30.12.2019
1447 Clouds 6 1036 56 10000 11 360 18:40 30.12.2019
1448 Clouds 6 1036 56 10000 11 360 18:20 30.12.2019
1449 Clouds 6 1036 56 10000 11 360 18:20 30.12.2019
1450 Clouds 6 1035 50 10000 11 360 17:57 30.12.2019
1451 Clouds 7 1035 70 10000 11 360 17:39 30.12.2019
1452 Clouds 7 1035 70 10000 11 360 17:19 30.12.2019
1453 Clouds 7 1034 70 10000 9 10 16:58 30.12.2019
1454 Clouds 8 1034 70 10000 9 10 16:37 30.12.2019
1455 Clouds 8 1034 70 10000 9 10 16:19 30.12.2019
1456 Clouds 8 1034 70 10000 9 10 15:56 30.12.2019
1457 Clouds 8 1034 70 10000 9 10 15:37 30.12.2019
1458 Clouds 8 1034 70 10000 9 10 15:18 30.12.2019
1459 Clouds 8 1033 70 10000 8 10 14:43 30.12.2019
1460 Clouds 8 1033 70 10000 8 10 14:43 30.12.2019
1461 Clouds 8 1032 75 8000 10 10 14:20 30.12.2019
1462 Clouds 9 1032 87 7000 10 10 13:57 30.12.2019
1463 Clouds 9 1031 81 7000 10 10 13:39 30.12.2019
1464 Clouds 9 1031 81 7000 10 10 13:21 30.12.2019
1465 Clouds 9 1031 87 6000 9 360 12:56 30.12.2019
1466 Mist 9 1031 87 5000 10 360 12:36 30.12.2019
1467 Mist 9 1031 87 5000 10 360 12:18 30.12.2019
1468 Clouds 10 1029 76 6000 8 20 11:40 30.12.2019
1469 Clouds 11 1029 76 6000 8 20 11:19 30.12.2019
1470 Clouds 11 1029 71 6000 9 10 10:57 30.12.2019
1471 Clouds 11 1028 66 6000 9 10 10:38 30.12.2019
1472 Clouds 11 1028 66 6000 9 10 10:18 30.12.2019
1473 Clouds 12 1027 58 7000 8 360 09:41 30.12.2019
1474 Clouds 12 1027 58 7000 8 360 09:20 30.12.2019
1475 Clouds 12 1027 58 6000 7 10 08:55 30.12.2019
1476 Clouds 13 1026 58 6000 8 350 08:36 30.12.2019
1477 Clouds 14 1026 58 6000 8 350 08:18 30.12.2019
1478 Clouds 14 1026 58 6000 8 350 08:18 30.12.2019
1479 Clouds 14 1026 51 6000 8 350 07:40 30.12.2019
1480 Clouds 14 1026 51 6000 7 350 06:55 30.12.2019
1481 Clear 13 1026 54 6000 6 360 05:24 30.12.2019
1482 Haze 12 1027 62 5000 5 360 03:58 30.12.2019
1483 Haze 14 1027 62 4000 4 350 03:32 30.12.2019
1484 Mist 14 1027 81 3500 4 340 02:40 30.12.2019
1485 Mist 9 1026 87 3500 4 340 01:56 30.12.2019
1486 Mist 8 1026 87 3500 4 340 01:23 30.12.2019
1487 Mist 9 1025 87 3500 4 340 00:45 30.12.2019
1488 Mist 8 1025 93 3500 4 350 00:19 30.12.2019
1489 Mist 8 1025 93 5000 1 340 23:39 29.12.2019
1490 Mist 8 1025 93 5000 1 340 23:21 29.12.2019
1491 Mist 8 1024 93 5000 2 20 22:55 29.12.2019
1492 Mist 8 1024 93 4000 3 10 22:37 29.12.2019
1493 Mist 9 1024 93 4000 3 10 22:18 29.12.2019
1494 Mist 9 1024 87 4000 3 360 21:43 29.12.2019
1495 Mist 9 1023 93 4000 3 10 21:21 29.12.2019
1496 Mist 9 1023 93 5000 3 360 20:57 29.12.2019
1497 Mist 10 1023 87 5000 4 360 20:39 29.12.2019
1498 Mist 10 1023 87 5000 4 360 20:21 29.12.2019
1499 Mist 10 1023 87 5000 3 10 19:59 29.12.2019
1500 Mist 10 1023 93 5000 4 360 19:40 29.12.2019
1501 Mist 10 1023 93 5000 4 360 19:21 29.12.2019
1502 Mist 10 1023 87 5000 2 10 18:58 29.12.2019
1503 Mist 10 1022 87 5000 3 360 18:38 29.12.2019
1504 Mist 11 1022 87 5000 3 360 18:19 29.12.2019
1505 Clouds 11 1022 87 6000 3 350 17:58 29.12.2019
1506 Clouds 11 1022 87 8000 3 360 17:39 29.12.2019
1507 Clouds 11 1022 87 8000 3 360 17:20 29.12.2019
1508 Clouds 11 1022 76 8000 2 350 16:56 29.12.2019
1509 Clouds 11 1022 76 8000 3 360 16:37 29.12.2019
1510 Clouds 11 1022 76 8000 3 360 16:19 29.12.2019
1511 Clouds 12 1022 71 8000 4 350 15:57 29.12.2019
1512 Clouds 11 1022 76 8000 3 360 15:39 29.12.2019
1513 Clouds 12 1022 76 8000 3 360 15:20 29.12.2019
1514 Clouds 12 1022 71 8000 3 340 14:57 29.12.2019
1515 Clouds 12 1022 71 8000 4 350 14:38 29.12.2019
1516 Clouds 12 1022 71 8000 4 350 14:18 29.12.2019
1517 Clouds 12 1021 71 8000 4 350 13:57 29.12.2019
1518 Clouds 12 1021 71 8000 4 350 13:38 29.12.2019
1519 Clouds 12 1021 71 8000 4 350 13:19 29.12.2019
1520 Clouds 12 1021 71 8000 3 360 12:45 29.12.2019
1521 Clouds 12 1021 71 8000 4 340 12:26 29.12.2019
1522 Clouds 12 1021 71 8000 4 340 11:57 29.12.2019
1523 Clouds 13 1021 66 8000 5 340 11:38 29.12.2019
1524 Clouds 13 1021 66 8000 5 340 11:20 29.12.2019
1525 Clouds 13 1021 71 8000 5 330 10:43 29.12.2019
1526 Clouds 13 1021 71 8000 5 330 10:24 29.12.2019
1527 Clouds 13 1021 71 8000 4 320 09:58 29.12.2019
1528 Clouds 14 1020 67 7000 3 330 09:39 29.12.2019
1529 Clouds 14 1020 67 7000 3 330 09:21 29.12.2019
1530 Clouds 14 1020 67 7000 3 320 08:47 29.12.2019
1531 Clouds 15 1020 67 8000 4 290 08:27 29.12.2019
1532 Clouds 15 1020 71 10000 4 290 07:55 29.12.2019
1533 Clouds 15 1019 67 10000 3 0 07:28 29.12.2019
1534 Clouds 16 1019 67 10000 3 0 06:55 29.12.2019
1535 Clouds 15 1019 72 10000 2 0 06:25 29.12.2019
1536 Clouds 16 1019 72 10000 4 230 05:51 29.12.2019
1537 Clouds 15 1020 72 10000 3 210 04:36 29.12.2019
1538 Clouds 17 1021 76 10000 3 220 03:51 29.12.2019
1539 Clouds 16 1021 76 10000 2 200 03:20 29.12.2019
1540 Clouds 14 1021 87 10000 3 190 02:20 29.12.2019
1541 Clouds 13 1020 93 10000 3 160 01:31 29.12.2019
1542 Clouds 13 1020 93 10000 3 160 01:31 29.12.2019
1543 Rain 12 1020 87 10000 3 150 00:57 29.12.2019
1544 Clouds 12 1020 87 10000 3 150 00:39 29.12.2019
1545 Clouds 12 1020 87 10000 3 150 00:21 29.12.2019
1546 Clouds 12 1020 87 10000 3 150 23:42 28.12.2019
1547 Clouds 12 1020 87 10000 3 150 23:42 28.12.2019
1548 Clouds 12 1020 93 10000 2 150 23:18 28.12.2019
1549 Clouds 12 1020 87 10000 2 160 22:39 28.12.2019
1550 Clouds 12 1020 87 10000 2 160 22:39 28.12.2019
1551 Clouds 12 1020 87 10000 2 160 22:20 28.12.2019
1552 Clouds 12 1020 87 10000 3 140 21:58 28.12.2019
1553 Rain 12 1020 93 10000 2 120 21:39 28.12.2019
1554 Rain 12 1020 93 10000 2 120 21:21 28.12.2019
1555 Rain 12 1021 87 10000 1 80 20:57 28.12.2019
1556 Rain 12 1021 87 10000 2 160 20:37 28.12.2019
1557 Rain 12 1021 87 10000 2 160 20:19 28.12.2019
1558 Rain 12 1021 87 10000 2 140 19:55 28.12.2019
1559 Rain 11 1021 87 10000 3 140 19:37 28.12.2019
1560 Rain 11 1021 87 10000 3 140 19:18 28.12.2019
1561 Rain 12 1022 87 10000 2 140 18:56 28.12.2019
1562 Rain 11 1021 87 10000 2 140 18:38 28.12.2019
1563 Rain 11 1021 87 10000 2 140 18:18 28.12.2019
1564 Rain 12 1021 81 10000 4 130 17:42 28.12.2019
1565 Rain 12 1022 87 10000 4 140 17:42 28.12.2019
1566 Rain 12 1022 87 10000 4 140 17:21 28.12.2019
1567 Rain 12 1023 81 10000 3 150 16:58 28.12.2019
1568 Rain 12 1023 76 10000 4 140 16:40 28.12.2019
1569 Rain 12 1023 76 10000 4 140 16:21 28.12.2019
1570 Clouds 12 1023 76 10000 4 150 15:43 28.12.2019
1571 Clouds 12 1023 71 10000 5 140 15:22 28.12.2019
1572 Clouds 12 1023 71 10000 5 140 14:55 28.12.2019
1573 Clouds 12 1024 71 10000 4 150 14:36 28.12.2019
1574 Clouds 11 1024 71 10000 4 150 14:18 28.12.2019
1575 Clouds 11 1024 76 10000 3 140 13:42 28.12.2019
1576 Clouds 11 1024 71 10000 3 150 13:21 28.12.2019
1577 Clouds 11 1024 71 10000 4 150 12:58 28.12.2019
1578 Clouds 11 1023 66 10000 5 130 12:40 28.12.2019
1579 Clouds 11 1023 66 10000 5 130 12:21 28.12.2019
1580 Clouds 11 1024 66 10000 4 130 11:40 28.12.2019
1581 Clouds 11 1024 66 10000 4 130 11:40 28.12.2019
1582 Clouds 11 1024 66 10000 4 130 11:21 28.12.2019
1583 Clouds 11 1024 66 10000 4 140 10:56 28.12.2019
1584 Clouds 11 1024 62 10000 3 150 10:37 28.12.2019
1585 Clouds 11 1024 62 10000 3 150 10:18 28.12.2019
1586 Clouds 12 1024 62 10000 4 160 09:45 28.12.2019
1587 Clouds 12 1024 62 10000 5 150 09:24 28.12.2019
1588 Clouds 12 1024 58 10000 5 170 08:58 28.12.2019
1589 Clouds 12 1024 54 10000 6 180 08:39 28.12.2019
1590 Clouds 13 1024 54 10000 6 180 08:20 28.12.2019
1591 Clouds 14 1024 50 10000 5 160 07:43 28.12.2019
1592 Clouds 13 1023 50 10000 6 170 06:59 28.12.2019
1593 Haze 13 1025 54 5000 5 150 05:43 28.12.2019
1594 Haze 12 1027 61 5000 6 160 03:48 28.12.2019
1595 Haze 11 1028 66 5000 4 150 02:50 28.12.2019
1596 Haze 8 1028 65 5000 3 140 02:20 28.12.2019
1597 Haze 8 1027 65 5000 3 130 01:53 28.12.2019
1598 Mist 5 1027 75 5000 1 0 01:22 28.12.2019
1599 Clear 5 1027 56 6000 1 0 00:42 28.12.2019
1600 Clear 4 1026 56 6000 1 100 00:23 28.12.2019
1601 Clear 5 1026 56 6000 1 100 00:23 28.12.2019
1602 Clear 5 1027 56 8000 1 170 23:46 27.12.2019
1603 Clear 3 1026 53 8000 1.57 106 23:21 27.12.2019
1604 Clear 4 1026 53 10000 1 170 22:59 27.12.2019
1605 Clear 4 1026 53 10000 1.57 106 22:40 27.12.2019
1606 Clear 4 1026 53 10000 1.57 106 22:40 27.12.2019
1607 Clear 3 1026 53 10000 1.57 106 22:21 27.12.2019
1608 Clear 4 1026 53 10000 1.57 106 21:59 27.12.2019
1609 Clear 4 1026 53 10000 1 30 21:40 27.12.2019
1610 Clear 5 1026 53 10000 1 30 21:22 27.12.2019
1611 Clear 5 1027 53 10000 1.57 106 20:42 27.12.2019
1612 Clear 4 1027 80 10000 1 30 20:24 27.12.2019
1613 Clear 4 1027 51 10000 1.47 111 19:55 27.12.2019
1614 Clear 5 1027 86 10000 1 150 19:36 27.12.2019
1615 Clear 5 1027 86 10000 1 150 19:18 27.12.2019
1616 Clear 5 1027 86 10000 1 150 19:18 27.12.2019
1617 Clear 5 1027 86 10000 1 150 19:18 27.12.2019
1618 Clear 5 1027 51 10000 1 190 18:41 27.12.2019
1619 Clear 4 1027 51 10000 1 0 18:23 27.12.2019
1620 Clear 4 1027 74 10000 1 0 17:59 27.12.2019
1621 Clear 5 1027 51 10000 1 200 17:41 27.12.2019
1622 Clear 5 1027 50 10000 1 200 17:19 27.12.2019
1623 Clear 5 1027 64 10000 1 0 16:59 27.12.2019
1624 Clear 5 1027 65 10000 1 0 16:39 27.12.2019
1625 Clear 5 1027 65 10000 1 0 16:20 27.12.2019
1626 Clear 5 1027 65 10000 2 140 15:45 27.12.2019
1627 Clear 5 1027 60 10000 1 0 15:23 27.12.2019
1628 Clear 6 1028 56 10000 1 0 14:58 27.12.2019
1629 Clear 6 1028 56 10000 1 0 14:40 27.12.2019
1630 Clear 6 1028 56 10000 1 0 14:21 27.12.2019
1631 Clear 6 1028 56 10000 2 250 13:57 27.12.2019
1632 Clear 6 1028 56 10000 2 260 13:39 27.12.2019
1633 Clear 6 1028 56 10000 2 260 13:39 27.12.2019
1634 Clear 6 1028 56 10000 2 260 13:39 27.12.2019
1635 Clear 6 1028 56 10000 2 260 13:21 27.12.2019
1636 Clear 6 1028 48 10000 2 260 12:44 27.12.2019
1637 Clear 6 1028 48 10000 2 260 12:25 27.12.2019
1638 Clear 7 1028 48 10000 3 240 11:46 27.12.2019
1639 Clear 7 1028 48 10000 3 240 11:28 27.12.2019
1640 Clear 7 1027 48 10000 4 240 10:59 27.12.2019
1641 Clear 7 1027 42 10000 2 240 10:41 27.12.2019
1642 Clear 7 1027 42 10000 2 240 10:41 27.12.2019
1643 Clear 7 1027 42 10000 2 240 10:23 27.12.2019
1644 Clear 8 1027 39 10000 2 260 09:49 27.12.2019
1645 Clear 8 1027 39 10000 2 0 09:22 27.12.2019
1646 Clear 9 1027 36 10000 1 0 08:59 27.12.2019
1647 Clear 9 1027 36 10000 1 0 08:59 27.12.2019
1648 Clear 9 1026 39 10000 2 330 08:38 27.12.2019
1649 Clear 9 1026 39 10000 2 0 07:53 27.12.2019
1650 Clear 9 1027 39 10000 2 340 07:34 27.12.2019
1651 Clear 9 1027 36 10000 2 0 06:39 27.12.2019
1652 Clear 8 1027 36 10000 3 340 05:52 27.12.2019
1653 Clouds 8 1029 52 7000 4 320 03:47 27.12.2019
1654 Clouds 10 1029 52 7000 4 320 03:47 27.12.2019
1655 Clear 8 1029 33 10000 3 340 02:23 27.12.2019
1656 Clear 4 1029 50 10000 2 340 01:42 27.12.2019
1657 Clear 5 1029 48 10000 2 340 01:20 27.12.2019
1658 Clear 4 1029 48 8000 3 340 00:44 27.12.2019
1659 Clouds 4 1029 48 8000 3 330 00:24 27.12.2019
1660 Clear 5 1029 48 10000 3 310 23:42 26.12.2019
1661 Clear 4 1029 48 10000 3 310 23:23 26.12.2019
1662 Clear 4 1029 51 10000 2 300 22:57 26.12.2019
1663 Clear 4 1029 51 10000 3 310 22:37 26.12.2019
1664 Clear 4 1029 51 10000 3 310 22:18 26.12.2019
1665 Clear 4 1028 51 10000 4 310 21:39 26.12.2019
1666 Clear 4 1028 51 10000 4 310 21:21 26.12.2019
1667 Clear 5 1029 51 10000 4 310 20:47 26.12.2019
1668 Clouds 5 1029 74 10000 4 320 20:23 26.12.2019
1669 Clouds 4 1029 69 10000 3 310 19:59 26.12.2019
1670 Clouds 4 1029 64 10000 4 320 19:40 26.12.2019
1671 Clouds 4 1029 64 10000 4 320 19:22 26.12.2019
1672 Clouds 4 1029 69 10000 3 330 18:58 26.12.2019
1673 Clouds 4 1029 64 10000 3 330 18:39 26.12.2019
1674 Clouds 4 1029 64 10000 3 330 18:19 26.12.2019
1675 Clouds 4 1029 69 10000 4 330 17:55 26.12.2019
1676 Clouds 4 1029 69 10000 4 330 17:37 26.12.2019
1677 Clouds 4 1029 69 10000 4 330 17:18 26.12.2019
1678 Clouds 5 1029 53 10000 7 330 16:41 26.12.2019
1679 Clouds 5 1029 53 10000 7 330 16:22 26.12.2019
1680 Clouds 5 1028 65 10000 7 320 15:56 26.12.2019
1681 Clouds 6 1028 53 10000 7 330 15:37 26.12.2019
1682 Clouds 6 1028 53 10000 7 330 15:18 26.12.2019
1683 Clouds 6 1028 75 10000 7 330 14:40 26.12.2019
1684 Clouds 6 1028 75 10000 7 330 14:21 26.12.2019
1685 Clouds 6 1028 75 10000 8 330 13:43 26.12.2019
1686 Clouds 6 1027 75 10000 7 330 13:21 26.12.2019
1687 Clouds 6 1027 75 10000 7 330 13:21 26.12.2019
1688 Clouds 7 1027 75 10000 6 320 12:58 26.12.2019
1689 Clouds 7 1027 75 10000 7 320 12:39 26.12.2019
1690 Clouds 7 1027 75 10000 7 320 12:20 26.12.2019
1691 Clouds 7 1026 75 10000 6 330 11:57 26.12.2019
1692 Clouds 7 1026 81 10000 9 330 11:38 26.12.2019
1693 Clouds 7 1026 81 10000 9 330 11:20 26.12.2019
1694 Clouds 7 1025 75 10000 9 330 10:42 26.12.2019
1695 Clouds 7 1025 81 10000 7 330 10:18 26.12.2019
1696 Clouds 7 1024 81 10000 9 330 09:49 26.12.2019
1697 Clouds 7 1024 87 7000 7 320 09:31 26.12.2019
1698 Clouds 8 1023 81 7000 9 330 08:43 26.12.2019
1699 Clouds 9 1023 81 7000 9 330 08:24 26.12.2019
1700 Clouds 8 1023 81 7000 9 330 07:53 26.12.2019
1701 Clouds 9 1022 87 7000 11 330 07:27 26.12.2019
1702 Clouds 9 1022 81 7000 8 330 06:53 26.12.2019
1703 Clouds 9 1022 87 7000 8 330 06:32 26.12.2019
1704 Clouds 10 1022 87 7000 9 320 05:45 26.12.2019
1705 Clouds 9 1022 87 7000 8 320 04:55 26.12.2019
1706 Rain 10 1022 93 7000 8 320 04:29 26.12.2019
1707 Clouds 11 1022 87 10000 6 320 02:54 26.12.2019
1708 Clouds 10 1021 87 10000 6 310 02:34 26.12.2019
1709 Rain 10 1021 87 10000 6 310 01:46 26.12.2019
1710 Rain 10 1020 87 10000 6 320 01:27 26.12.2019
1711 Rain 10 1020 93 10000 7 310 00:48 26.12.2019
1712 Rain 10 1019 93 8000 7 330 00:25 26.12.2019
1713 Clouds 10 1019 93 10000 6 320 23:58 25.12.2019
1714 Clouds 10 1018 93 10000 8 310 23:38 25.12.2019
1715 Clouds 10 1018 93 10000 8 310 23:20 25.12.2019
1716 Clouds 11 1017 87 10000 6 310 22:58 25.12.2019
1717 Clouds 11 1017 87 10000 6 300 22:38 25.12.2019
1718 Clouds 11 1017 87 10000 6 300 22:19 25.12.2019
1719 Clouds 11 1016 87 10000 7 300 21:57 25.12.2019
1720 Clouds 11 1016 87 10000 8 290 21:39 25.12.2019
1721 Clouds 11 1016 87 10000 8 290 21:19 25.12.2019
1722 Clouds 12 1016 87 10000 7 290 20:41 25.12.2019
1723 Rain 12 1016 87 10000 7 290 20:21 25.12.2019
1724 Rain 12 1016 93 10000 7 280 19:59 25.12.2019
1725 Rain 12 1015 100 10000 6 280 19:41 25.12.2019
1726 Clouds 12 1015 100 10000 6 280 19:22 25.12.2019
1727 Rain 13 1015 93 8000 5 280 18:41 25.12.2019
1728 Rain 13 1015 93 8000 5 280 18:21 25.12.2019
1729 Rain 13 1015 100 7000 4 270 17:59 25.12.2019
1730 Rain 13 1015 100 4000 4 270 17:39 25.12.2019
1731 Rain 14 1015 100 4000 4 270 17:18 25.12.2019
1732 Rain 14 1015 93 4000 3 270 16:55 25.12.2019
1733 Rain 14 1015 93 4000 3 270 16:55 25.12.2019
1734 Rain 14 1015 100 4000 3 270 16:36 25.12.2019
1735 Rain 14 1015 100 4000 3 270 16:18 25.12.2019
1736 Rain 14 1015 100 5000 3 220 15:55 25.12.2019
1737 Rain 14 1015 100 5000 2 160 15:37 25.12.2019
1738 Rain 14 1015 100 5000 2 160 15:18 25.12.2019
1739 Rain 14 1015 100 6000 3 160 14:42 25.12.2019
1740 Rain 14 1015 100 4000 2 190 14:23 25.12.2019
1741 Rain 14 1015 100 6000 2 160 13:58 25.12.2019
1742 Rain 14 1015 100 6000 2 150 13:40 25.12.2019
1743 Rain 14 1015 100 6000 2 150 13:20 25.12.2019
1744 Rain 14 1015 100 6000 1 0 12:43 25.12.2019
1745 Rain 14 1015 100 6000 2 140 12:22 25.12.2019
1746 Rain 14 1015 93 8000 3 140 11:58 25.12.2019
1747 Rain 14 1015 87 8000 3 120 11:39 25.12.2019
1748 Rain 14 1015 87 8000 3 120 11:20 25.12.2019
1749 Rain 14 1015 93 7000 2 110 10:39 25.12.2019
1750 Rain 14 1015 93 7000 2 110 10:39 25.12.2019
1751 Rain 14 1015 93 7000 2 110 10:21 25.12.2019
1752 Rain 14 1015 87 10000 2 110 09:51 25.12.2019
1753 Rain 14 1015 87 10000 2 100 09:33 25.12.2019
1754 Rain 15 1015 87 10000 3 100 08:56 25.12.2019
1755 Rain 15 1015 87 10000 4 110 08:38 25.12.2019
1756 Rain 16 1015 87 10000 4 110 08:19 25.12.2019
1757 Clouds 15 1016 82 10000 4 130 07:40 25.12.2019
1758 Clouds 15 1016 82 10000 4 130 07:21 25.12.2019
1759 Clouds 16 1017 82 10000 3 90 06:24 25.12.2019
1760 Clouds 15 1018 82 10000 4 90 05:44 25.12.2019
1761 Clouds 15 1019 87 10000 3 80 04:40 25.12.2019
1762 Clouds 15 1019 87 10000 3 80 04:20 25.12.2019
1763 Clouds 14 1020 82 10000 3 90 03:43 25.12.2019
1764 Clouds 13 1021 82 10000 3 90 02:57 25.12.2019
1765 Clouds 13 1021 81 10000 1 0 02:28 25.12.2019
1766 Clouds 12 1021 81 10000 2 40 01:26 25.12.2019
1767 Clouds 12 1021 87 10000 3 50 00:56 25.12.2019
1768 Clouds 11 1021 87 10000 3 30 00:33 25.12.2019
1769 Clouds 11 1021 87 10000 2 10 23:59 24.12.2019
1770 Clouds 11 1021 81 10000 2 40 23:39 24.12.2019
1771 Clouds 11 1021 81 10000 2 40 23:20 24.12.2019
1772 Clouds 11 1021 81 10000 2 50 22:41 24.12.2019
1773 Clouds 11 1021 81 10000 2 60 22:23 24.12.2019
1774 Clouds 11 1021 81 10000 3 20 21:45 24.12.2019
1775 Clouds 11 1021 81 10000 3 360 21:24 24.12.2019
1776 Clouds 11 1021 81 10000 2 10 20:59 24.12.2019
1777 Clouds 11 1021 81 10000 2 10 20:41 24.12.2019
1778 Clouds 11 1021 81 10000 2 10 20:19 24.12.2019
1779 Clouds 11 1021 81 10000 2 10 20:19 24.12.2019
1780 Clouds 11 1021 81 10000 2 50 19:45 24.12.2019
1781 Clouds 11 1022 81 10000 2 40 19:21 24.12.2019
1782 Clouds 11 1022 81 10000 2 90 18:57 24.12.2019
1783 Clouds 11 1022 81 10000 2 60 18:38 24.12.2019
1784 Clouds 11 1022 81 10000 2 60 18:18 24.12.2019
1785 Clouds 11 1023 81 10000 2 60 17:39 24.12.2019
1786 Clouds 11 1023 81 10000 2 60 17:21 24.12.2019
1787 Clouds 11 1023 81 10000 3 70 16:56 24.12.2019
1788 Clouds 11 1023 81 10000 3 70 16:56 24.12.2019
1789 Clouds 11 1023 76 10000 2 70 16:38 24.12.2019
1790 Clouds 11 1023 76 10000 2 70 16:20 24.12.2019
1791 Clouds 11 1023 76 10000 3 60 15:55 24.12.2019
1792 Clouds 11 1023 76 10000 4 60 15:36 24.12.2019
1793 Clouds 12 1023 76 10000 4 60 15:18 24.12.2019
1794 Clouds 12 1023 76 10000 4 60 15:18 24.12.2019
1795 Clouds 12 1023 71 10000 3 60 14:55 24.12.2019
1796 Clouds 12 1024 76 10000 2 50 14:37 24.12.2019
1797 Clouds 12 1024 76 10000 2 50 14:19 24.12.2019
1798 Clouds 12 1024 76 10000 2 60 13:55 24.12.2019
1799 Clouds 12 1024 71 10000 2 70 13:37 24.12.2019
1800 Clouds 12 1024 71 10000 2 70 13:18 24.12.2019
1801 Clouds 12 1024 76 10000 3 90 12:55 24.12.2019
1802 Clouds 12 1024 76 10000 2 90 12:36 24.12.2019
1803 Clouds 12 1024 76 10000 2 90 12:18 24.12.2019
1804 Clouds 12 1023 71 10000 2 80 11:54 24.12.2019
1805 Clouds 12 1023 76 10000 3 80 11:36 24.12.2019
1806 Clouds 12 1023 76 10000 3 80 11:36 24.12.2019
1807 Clouds 12 1023 76 10000 3 80 11:18 24.12.2019
1808 Clouds 12 1023 76 10000 3 80 10:55 24.12.2019
1809 Clouds 12 1023 76 10000 3 80 10:55 24.12.2019
1810 Clouds 12 1024 76 10000 2 80 10:36 24.12.2019
1811 Clouds 12 1024 76 10000 2 80 10:18 24.12.2019
1812 Clouds 12 1023 76 10000 3 80 09:54 24.12.2019
1813 Clouds 12 1023 76 10000 2 90 09:36 24.12.2019
1814 Clouds 12 1023 76 10000 2 90 09:18 24.12.2019
1815 Clouds 12 1023 76 10000 3 80 08:42 24.12.2019
1816 Clouds 12 1023 76 10000 3 50 08:19 24.12.2019
1817 Clouds 12 1023 76 10000 4 70 07:44 24.12.2019
1818 Clouds 12 1023 76 10000 4 60 07:22 24.12.2019
1819 Clouds 11 1024 81 10000 4 70 06:41 24.12.2019
1820 Clouds 11 1024 81 10000 4 70 06:22 24.12.2019
1821 Clouds 11 1024 81 10000 4 70 05:55 24.12.2019
1822 Clouds 11 1024 81 10000 4 80 05:20 24.12.2019
1823 Rain 11 1025 81 10000 5 70 04:21 24.12.2019
1824 Clouds 11 1025 81 10000 5 70 03:48 24.12.2019
1825 Clouds 10 1026 87 10000 5 70 02:29 24.12.2019
1826 Rain 10 1025 87 8000 5 70 01:57 24.12.2019
1827 Clouds 10 1025 87 10000 5 50 01:27 24.12.2019
1828 Clouds 10 1025 87 10000 5 60 00:58 24.12.2019
1829 Clouds 10 1025 87 10000 4 60 00:40 24.12.2019
1830 Clouds 10 1025 87 10000 4 60 00:20 24.12.2019
1831 Clouds 10 1024 87 10000 4 60 23:43 23.12.2019
1832 Clouds 10 1024 87 10000 5 60 23:24 23.12.2019
1833 Clouds 10 1024 81 7000 6 60 22:57 23.12.2019
1834 Clouds 10 1023 87 7000 5 50 22:38 23.12.2019
1835 Clouds 10 1023 87 7000 5 50 22:20 23.12.2019
1836 Clouds 10 1023 81 7000 3 60 21:56 23.12.2019
1837 Clouds 11 1023 87 7000 4 80 21:37 23.12.2019
1838 Clouds 11 1023 87 7000 4 80 21:19 23.12.2019
1839 Rain 10 1023 87 5000 4 70 20:58 23.12.2019
1840 Rain 10 1023 87 5000 4 70 20:58 23.12.2019
1841 Rain 11 1023 87 5000 3 60 20:40 23.12.2019
1842 Rain 11 1023 87 5000 3 60 20:19 23.12.2019
1843 Rain 10 1023 93 5000 3 70 19:58 23.12.2019
1844 Rain 10 1023 93 5000 2 70 19:39 23.12.2019
1845 Rain 11 1023 93 5000 2 70 19:20 23.12.2019
1846 Rain 11 1023 93 5000 2 40 18:58 23.12.2019
1847 Rain 11 1023 93 5000 2 40 18:58 23.12.2019
1848 Rain 11 1023 100 5000 2 10 18:39 23.12.2019
1849 Rain 11 1023 100 5000 2 10 18:20 23.12.2019
1850 Rain 11 1023 93 6000 2 20 17:58 23.12.2019
1851 Rain 11 1023 100 6000 1 0 17:39 23.12.2019
1852 Rain 11 1023 100 6000 1 0 17:19 23.12.2019
1853 Rain 11 1023 93 6000 4 50 16:55 23.12.2019
1854 Rain 11 1024 93 7000 3 40 16:37 23.12.2019
1855 Rain 11 1024 93 7000 3 40 16:18 23.12.2019
1856 Rain 10 1024 93 7000 3 40 15:55 23.12.2019
1857 Rain 10 1024 93 10000 4 40 15:36 23.12.2019
1858 Rain 10 1024 93 10000 4 40 15:18 23.12.2019
1859 Rain 10 1024 93 10000 3 30 14:45 23.12.2019
1860 Rain 10 1023 93 10000 4 40 14:27 23.12.2019
1861 Rain 10 1023 87 10000 4 30 13:59 23.12.2019
1862 Rain 11 1023 87 10000 4 40 13:41 23.12.2019
1863 Rain 11 1023 87 10000 4 40 13:22 23.12.2019
1864 Rain 11 1023 87 10000 4 40 13:22 23.12.2019
1865 Rain 11 1023 76 10000 4 40 12:59 23.12.2019
1866 Clouds 11 1023 76 10000 5 50 12:40 23.12.2019
1867 Clouds 12 1023 76 10000 5 50 12:21 23.12.2019
1868 Clouds 12 1023 76 10000 5 50 12:21 23.12.2019
1869 Clouds 12 1022 71 10000 5 60 11:55 23.12.2019
1870 Clouds 12 1022 71 10000 5 60 11:37 23.12.2019
1871 Clouds 12 1022 71 10000 5 60 11:18 23.12.2019
1872 Clouds 12 1022 71 10000 4 60 10:54 23.12.2019
1873 Clouds 12 1022 71 10000 4 70 10:36 23.12.2019
1874 Clouds 12 1022 71 10000 4 70 10:18 23.12.2019
1875 Clouds 12 1022 66 10000 5 50 09:40 23.12.2019
1876 Clouds 12 1022 66 10000 5 50 09:22 23.12.2019
1877 Clouds 13 1022 62 10000 5 50 08:58 23.12.2019
1878 Clouds 13 1022 66 10000 6 40 08:40 23.12.2019
1879 Clouds 13 1022 66 10000 6 40 08:22 23.12.2019
1880 Clouds 13 1021 62 10000 5 50 07:48 23.12.2019
1881 Clouds 13 1021 62 10000 6 40 07:21 23.12.2019
1882 Clouds 13 1022 66 10000 4 60 06:57 23.12.2019
1883 Clouds 14 1022 62 10000 5 60 06:26 23.12.2019
1884 Clouds 14 1022 66 10000 5 50 05:56 23.12.2019
1885 Clouds 13 1022 66 10000 5 40 05:29 23.12.2019
1886 Clouds 12 1023 71 10000 5 40 04:31 23.12.2019
1887 Clouds 14 1024 76 10000 4 30 03:24 23.12.2019
1888 Clouds 12 1024 81 10000 4 50 02:41 23.12.2019
1889 Clouds 10 1023 76 10000 4 70 02:19 23.12.2019
1890 Clouds 10 1023 93 10000 2 60 01:42 23.12.2019
1891 Clouds 10 1023 93 10000 2 60 01:23 23.12.2019
1892 Clouds 9 1022 87 10000 2 60 00:43 23.12.2019
1893 Clouds 9 1022 93 10000 2 20 00:22 23.12.2019
1894 Clouds 8 1022 93 7000 2 360 23:40 22.12.2019
1895 Clouds 8 1022 93 7000 2 360 23:21 22.12.2019
1896 Clouds 8 1022 100 7000 2 350 22:58 22.12.2019
1897 Clouds 8 1022 100 7000 2 350 22:58 22.12.2019
1898 Clouds 8 1022 93 7000 1 360 22:40 22.12.2019
1899 Clouds 8 1022 93 7000 1 360 22:20 22.12.2019
1900 Clouds 8 1021 93 7000 2 360 21:57 22.12.2019
1901 Clouds 8 1021 93 8000 2 10 21:39 22.12.2019
1902 Clouds 8 1021 93 8000 2 10 21:21 22.12.2019
1903 Clouds 9 1022 93 8000 3 10 20:58 22.12.2019
1904 Clouds 8 1022 93 8000 2 30 20:38 22.12.2019
1905 Clouds 8 1022 93 8000 2 30 20:18 22.12.2019
1906 Clouds 8 1022 93 8000 1 30 19:55 22.12.2019
1907 Clouds 9 1022 93 7000 2 20 19:37 22.12.2019
1908 Clouds 9 1022 93 7000 2 20 19:19 22.12.2019
1909 Clouds 9 1021 93 7000 1.2 1 18:40 22.12.2019
1910 Clouds 9 1021 93 7000 1.2 1 18:22 22.12.2019
1911 Clouds 9 1021 93 8000 1 340 17:55 22.12.2019
1912 Clouds 10 1021 87 10000 1 350 17:37 22.12.2019
1913 Clouds 9 1021 87 10000 1 350 17:18 22.12.2019
1914 Clouds 10 1021 87 10000 2 330 16:56 22.12.2019
1915 Clouds 10 1021 87 10000 3 340 16:37 22.12.2019
1916 Clouds 10 1021 87 10000 3 340 16:19 22.12.2019
1917 Clouds 10 1021 87 10000 3 310 15:56 22.12.2019
1918 Clouds 10 1021 87 10000 3 300 15:36 22.12.2019
1919 Clouds 10 1021 87 10000 3 300 15:36 22.12.2019
1920 Clouds 10 1021 87 10000 3 300 15:18 22.12.2019
1921 Clouds 10 1021 87 10000 3 350 14:54 22.12.2019
1922 Clouds 10 1021 87 10000 3 350 14:54 22.12.2019
1923 Clouds 10 1021 81 10000 2 330 14:36 22.12.2019
1924 Clouds 11 1021 81 10000 2 330 14:18 22.12.2019
1925 Clouds 11 1021 81 10000 2 330 14:18 22.12.2019
1926 Clouds 11 1021 81 10000 3 340 13:54 22.12.2019
1927 Clouds 11 1020 81 10000 4 340 13:36 22.12.2019
1928 Clouds 11 1020 81 10000 4 340 13:18 22.12.2019
1929 Clouds 11 1020 81 10000 4 330 12:54 22.12.2019
1930 Clouds 10 1020 81 10000 4 340 12:36 22.12.2019
1931 Clouds 11 1020 81 10000 4 340 12:18 22.12.2019
1932 Clouds 11 1020 76 10000 3 320 11:39 22.12.2019
1933 Clouds 12 1020 76 10000 3 320 11:20 22.12.2019
1934 Clouds 12 1019 76 10000 3 330 10:58 22.12.2019
1935 Clouds 12 1019 71 10000 3 360 10:40 22.12.2019
1936 Clouds 12 1019 71 10000 3 360 10:20 22.12.2019
1937 Clouds 12 1019 76 10000 3 360 09:58 22.12.2019
1938 Clouds 12 1018 66 10000 3 360 09:40 22.12.2019
1939 Clouds 12 1018 66 10000 3 360 09:21 22.12.2019
1940 Clouds 12 1018 66 10000 4 350 08:45 22.12.2019
1941 Clouds 12 1018 66 10000 2 350 08:23 22.12.2019
1942 Clouds 13 1018 71 10000 2 340 07:52 22.12.2019
1943 Clouds 12 1018 71 10000 3 340 07:22 22.12.2019
1944 Clouds 13 1018 76 10000 4 360 06:57 22.12.2019
1945 Clouds 13 1018 76 10000 4 360 06:30 22.12.2019
1946 Clouds 13 1019 81 10000 4 340 05:43 22.12.2019
1947 Clouds 12 1019 81 10000 4 350 05:21 22.12.2019
1948 Clouds 12 1020 81 10000 4 10 04:27 22.12.2019
1949 Clouds 11 1020 87 10000 4 30 03:24 22.12.2019
1950 Clouds 11 1020 93 10000 4 20 02:34 22.12.2019
1951 Clouds 10 1019 93 10000 4 10 01:33 22.12.2019
1952 Rain 11 1019 93 10000 4 20 00:58 22.12.2019
1953 Rain 11 1019 93 10000 5 20 00:39 22.12.2019
1954 Rain 11 1019 93 10000 5 20 00:20 22.12.2019
1955 Rain 11 1019 93 10000 5 30 23:42 21.12.2019
1956 Rain 11 1019 93 10000 5 20 23:24 21.12.2019
1957 Rain 11 1018 93 10000 4 20 22:57 21.12.2019
1958 Rain 11 1018 93 10000 4 20 22:39 21.12.2019
1959 Rain 11 1018 93 10000 4 20 22:18 21.12.2019
1960 Rain 11 1018 93 10000 5 30 21:56 21.12.2019
1961 Rain 11 1018 93 8000 5 30 21:37 21.12.2019
1962 Rain 11 1018 93 8000 5 30 21:18 21.12.2019
1963 Rain 11 1019 100 8000 5 10 20:57 21.12.2019
1964 Rain 11 1019 100 8000 4 10 20:37 21.12.2019
1965 Rain 11 1019 100 8000 4 10 20:19 21.12.2019
1966 Rain 10 1019 100 8000 4 10 19:55 21.12.2019
1967 Rain 10 1019 100 8000 4 10 19:36 21.12.2019
1968 Rain 10 1019 100 8000 4 10 19:36 21.12.2019
1969 Rain 10 1019 100 8000 4 10 19:18 21.12.2019
1970 Rain 11 1019 100 8000 3 10 18:41 21.12.2019
1971 Rain 11 1019 100 8000 3 10 18:23 21.12.2019
1972 Rain 11 1019 100 8000 3 30 17:56 21.12.2019
1973 Rain 11 1019 100 10000 3 40 17:38 21.12.2019
1974 Rain 11 1019 100 10000 3 40 17:20 21.12.2019
1975 Rain 10 1020 93 10000 3 30 16:57 21.12.2019
1976 Rain 10 1020 93 10000 3 360 16:38 21.12.2019
1977 Rain 10 1020 93 10000 3 360 16:18 21.12.2019
1978 Rain 10 1020 93 10000 3 10 15:55 21.12.2019
1979 Rain 10 1020 93 10000 3 10 15:37 21.12.2019
1980 Rain 10 1020 93 10000 3 10 15:18 21.12.2019
1981 Rain 10 1020 93 10000 3 10 15:18 21.12.2019
1982 Rain 11 1021 93 10000 3 10 14:41 21.12.2019
1983 Rain 10 1021 93 10000 2 20 14:23 21.12.2019
1984 Rain 10 1021 93 10000 3 60 13:58 21.12.2019
1985 Rain 10 1021 87 10000 3 90 13:39 21.12.2019
1986 Rain 10 1021 87 10000 3 90 13:19 21.12.2019
1987 Rain 10 1021 87 10000 3 90 13:19 21.12.2019
1988 Rain 10 1021 87 10000 3 100 12:56 21.12.2019
1989 Rain 11 1021 87 10000 4 100 12:38 21.12.2019
1990 Rain 10 1021 87 10000 4 100 12:20 21.12.2019
1991 Clouds 11 1021 87 10000 4 100 11:46 21.12.2019
1992 Clouds 11 1021 87 10000 4 100 11:27 21.12.2019
1993 Clouds 10 1021 81 10000 4 90 10:59 21.12.2019
1994 Clouds 10 1021 81 10000 4 90 10:40 21.12.2019
1995 Clouds 10 1021 81 10000 4 90 10:21 21.12.2019
1996 Rain 10 1022 81 10000 5 80 09:57 21.12.2019
1997 Clouds 10 1022 81 10000 5 80 09:39 21.12.2019
1998 Clouds 10 1022 81 10000 5 80 09:19 21.12.2019
1999 Rain 10 1022 81 10000 5 80 08:47 21.12.2019
2000 Rain 10 1022 81 10000 4 80 08:27 21.12.2019
2001 Rain 10 1022 81 10000 6 80 07:47 21.12.2019
2002 Rain 10 1022 81 10000 5 80 07:23 21.12.2019
2003 Rain 10 1023 81 10000 5 70 06:49 21.12.2019
2004 Rain 10 1023 87 10000 6 70 06:31 21.12.2019
2005 Rain 10 1023 87 10000 5 70 05:59 21.12.2019
2006 Rain 10 1024 87 8000 5 70 04:59 21.12.2019
2007 Rain 10 1025 87 8000 5 60 04:34 21.12.2019
2008 Rain 11 1025 93 8000 3 60 03:56 21.12.2019
2009 Rain 10 1026 87 3800 3 80 02:23 21.12.2019
2010 Rain 9 1025 100 2600 2 30 01:42 21.12.2019
2011 Rain 10 1025 93 2200 2 10 01:23 21.12.2019
2012 Rain 10 1025 93 5000 3.97 74 00:39 21.12.2019
2013 Rain 10 1025 93 5000 3.97 74 00:20 21.12.2019
2014 Rain 10 1024 100 6000 3.97 74 23:38 20.12.2019
2015 Rain 10 1024 100 6000 3.25 107 23:20 20.12.2019
2016 Rain 10 1024 93 6000 1 0 22:57 20.12.2019
2017 Rain 10 1024 93 7000 3.25 107 22:36 20.12.2019
2018 Rain 10 1024 93 7000 3.25 107 22:18 20.12.2019
2019 Rain 10 1024 93 7000 3.25 107 21:41 20.12.2019
2020 Rain 10 1025 81 10000 2 120 21:21 20.12.2019
2021 Rain 10 1025 87 8000 2 210 20:57 20.12.2019
2022 Rain 10 1026 87 10000 1 320 20:38 20.12.2019
2023 Clouds 10 1026 87 10000 1 320 20:18 20.12.2019
2024 Clouds 10 1025 87 10000 2 360 19:42 20.12.2019
2025 Clouds 10 1026 81 10000 2 360 19:21 20.12.2019
2026 Clouds 10 1026 81 10000 2 290 18:58 20.12.2019
2027 Clouds 10 1027 76 10000 2 250 18:39 20.12.2019
2028 Clouds 10 1027 76 10000 2 250 18:39 20.12.2019
2029 Clouds 10 1027 76 10000 2 250 18:21 20.12.2019
2030 Clouds 10 1026 71 10000 1 0 17:54 20.12.2019
2031 Clouds 10 1026 71 10000 1 0 17:36 20.12.2019
2032 Clouds 10 1026 71 10000 1 0 17:18 20.12.2019
2033 Clouds 10 1026 71 10000 1 0 17:18 20.12.2019
2034 Clouds 10 1027 71 10000 2 100 16:40 20.12.2019
2035 Clouds 10 1027 71 10000 2 100 16:20 20.12.2019
2036 Clouds 10 1027 71 10000 3 80 15:57 20.12.2019
2037 Clouds 10 1028 66 10000 2 80 15:39 20.12.2019
2038 Clouds 10 1028 66 10000 2 80 15:20 20.12.2019
2039 Clouds 10 1028 66 10000 3 80 14:59 20.12.2019
2040 Clouds 10 1028 71 10000 3 60 14:40 20.12.2019
2041 Rain 10 1028 71 10000 3 60 14:22 20.12.2019
2042 Rain 10 1028 76 10000 3 60 13:55 20.12.2019
2043 Rain 9 1029 76 10000 2 30 13:36 20.12.2019
2044 Rain 9 1029 76 10000 2 30 13:18 20.12.2019
2045 Rain 9 1029 70 10000 3 50 12:41 20.12.2019
2046 Rain 9 1029 70 10000 3 50 12:19 20.12.2019
2047 Rain 9 1029 70 10000 3 20 11:59 20.12.2019
2048 Rain 9 1029 70 10000 2 40 11:40 20.12.2019
2049 Rain 9 1029 70 10000 2 40 11:21 20.12.2019
2050 Rain 9 1029 70 10000 3 50 10:59 20.12.2019
2051 Rain 9 1029 66 10000 3 30 10:41 20.12.2019
2052 Rain 9 1029 66 10000 3 30 10:20 20.12.2019
2053 Rain 9 1028 70 10000 2 70 09:56 20.12.2019
2054 Rain 9 1028 70 10000 2 90 09:38 20.12.2019
2055 Rain 9 1028 70 10000 2 90 09:19 20.12.2019
2056 Rain 10 1028 57 10000 2 70 08:43 20.12.2019
2057 Rain 10 1028 57 10000 2 70 08:24 20.12.2019
2058 Clouds 10 1028 57 10000 3 40 07:58 20.12.2019
2059 Clouds 10 1027 61 10000 3 60 07:40 20.12.2019
2060 Clouds 10 1027 61 10000 3 60 07:19 20.12.2019
2061 Clouds 10 1027 61 10000 3 50 06:51 20.12.2019
2062 Clouds 10 1027 61 10000 4 50 06:31 20.12.2019
2063 Clouds 10 1027 61 10000 5 40 05:53 20.12.2019
2064 Clouds 10 1027 61 10000 5 40 05:34 20.12.2019
2065 Clouds 10 1030 57 10000 5 30 04:30 20.12.2019
2066 Clouds 10 1030 61 10000 7 20 03:30 20.12.2019
2067 Clouds 10 1030 70 10000 5 20 02:41 20.12.2019
2068 Clouds 8 1030 75 10000 4 10 01:44 20.12.2019
2069 Clouds 7 1030 86 10000 4 360 01:18 20.12.2019
2070 Clouds 7 1030 86 10000 4 10 00:41 20.12.2019
2071 Clouds 7 1030 70 10000 5 10 00:19 20.12.2019
2072 Clouds 7 1030 86 10000 2 330 23:42 19.12.2019
2073 Clouds 6 1030 86 10000 2 330 23:23 19.12.2019
2074 Clouds 6 1029 86 10000 3 340 22:56 19.12.2019
2075 Clouds 7 1028 86 10000 2 340 22:36 19.12.2019
2076 Clouds 5 1028 86 10000 2 20 22:18 19.12.2019
2077 Clouds 7 1028 86 10000 2 340 22:18 19.12.2019
2078 Clouds 6 1029 86 10000 2 10 21:42 19.12.2019
2079 Clouds 7 1029 86 10000 2 10 21:20 19.12.2019
2080 Clouds 5 1029 86 10000 2 360 20:58 19.12.2019
2081 Clouds 6 1030 86 10000 3 340 20:38 19.12.2019
2082 Clouds 6 1030 86 10000 3 340 20:20 19.12.2019
2083 Clouds 6 1030 86 10000 3 340 20:20 19.12.2019
2084 Clouds 6 1030 86 10000 2 350 19:59 19.12.2019
2085 Clouds 5 1030 86 10000 2 360 19:40 19.12.2019
2086 Clouds 5 1030 86 10000 2 360 19:20 19.12.2019
2087 Clouds 5 1030 86 10000 2 360 19:20 19.12.2019
2088 Clouds 6 1031 80 10000 3 340 18:59 19.12.2019
2089 Clouds 6 1031 80 10000 3 330 18:40 19.12.2019
2090 Clouds 6 1031 80 10000 3 330 18:20 19.12.2019
2091 Clouds 5 1030 80 10000 2 330 17:56 19.12.2019
2092 Clouds 6 1030 80 10000 3 340 17:38 19.12.2019
2093 Clouds 6 1030 80 10000 3 340 17:18 19.12.2019
2094 Clouds 6 1030 80 10000 3 330 16:56 19.12.2019
2095 Clouds 6 1030 80 10000 3 330 16:56 19.12.2019
2096 Clouds 6 1030 80 10000 3 330 16:56 19.12.2019
2097 Clouds 6 1030 75 10000 2 330 16:38 19.12.2019
2098 Clouds 6 1030 75 10000 2 330 16:19 19.12.2019
2099 Clouds 7 1031 75 10000 3 330 15:57 19.12.2019
2100 Clouds 7 1030 75 10000 3 340 15:38 19.12.2019
2101 Clouds 7 1030 75 10000 3 340 15:19 19.12.2019
2102 Clouds 7 1030 70 10000 3 330 14:54 19.12.2019
2103 Clouds 7 1030 70 10000 3 340 14:36 19.12.2019
2104 Clouds 7 1030 70 10000 3 340 14:18 19.12.2019
2105 Clouds 8 1030 65 10000 3 330 13:38 19.12.2019
2106 Clouds 8 1030 65 10000 3 330 13:20 19.12.2019
2107 Clouds 8 1030 65 10000 4 340 12:58 19.12.2019
2108 Clouds 8 1030 65 10000 4 340 12:58 19.12.2019
2109 Clouds 8 1030 65 10000 5 340 12:39 19.12.2019
2110 Clouds 8 1030 65 10000 5 340 12:19 19.12.2019
2111 Clouds 8 1029 65 10000 4 350 11:58 19.12.2019
2112 Clouds 8 1029 65 10000 4 350 11:40 19.12.2019
2113 Clouds 8 1029 65 10000 4 350 11:18 19.12.2019
2114 Clouds 8 1029 65 10000 4 350 11:18 19.12.2019
2115 Clouds 8 1028 65 10000 4 350 10:58 19.12.2019
2116 Clouds 8 1028 65 10000 5 350 10:38 19.12.2019
2117 Clouds 8 1028 65 10000 5 350 10:20 19.12.2019
2118 Clouds 8 1028 65 10000 5 360 09:55 19.12.2019
2119 Clouds 8 1028 65 10000 4 360 09:37 19.12.2019
2120 Clouds 8 1028 65 10000 4 360 09:18 19.12.2019
2121 Clouds 8 1027 65 10000 4 350 08:42 19.12.2019
2122 Clouds 9 1027 65 10000 4 350 08:20 19.12.2019
2123 Clouds 9 1027 65 10000 4 350 08:20 19.12.2019
2124 Clouds 9 1027 65 10000 4 350 08:20 19.12.2019
2125 Clouds 8 1028 65 10000 4 350 07:59 19.12.2019
2126 Clouds 9 1027 70 10000 4 340 07:38 19.12.2019
2127 Clouds 9 1027 70 10000 4 340 07:38 19.12.2019
2128 Clouds 9 1027 70 10000 4 340 07:20 19.12.2019
2129 Clouds 9 1027 70 10000 3 340 06:50 19.12.2019
2130 Clouds 9 1028 65 10000 3 340 06:32 19.12.2019
2131 Clouds 8 1028 75 10000 3 340 05:55 19.12.2019
2132 Clouds 9 1028 75 10000 4 340 05:36 19.12.2019
2133 Clouds 8 1029 75 10000 4 340 04:52 19.12.2019
2134 Clouds 8 1030 81 10000 4 330 03:23 19.12.2019
2135 Clouds 7 1029 81 10000 4 340 02:23 19.12.2019
2136 Clouds 6 1029 86 10000 3 360 01:23 19.12.2019
2137 Clouds 5 1029 86 10000 5 350 00:43 19.12.2019
2138 Clouds 5 1029 86 10000 5 350 00:24 19.12.2019
2139 Clouds 5 1028 86 10000 3 350 23:57 18.12.2019
2140 Clouds 5 1028 86 10000 5 340 23:38 18.12.2019
2141 Clouds 5 1028 86 10000 5 340 23:18 18.12.2019
2142 Clouds 5 1028 86 10000 4 350 22:55 18.12.2019
2143 Clouds 6 1028 86 10000 5 340 22:36 18.12.2019
2144 Clouds 5 1028 86 10000 5 340 22:18 18.12.2019
2145 Clouds 5 1028 86 10000 4 340 21:55 18.12.2019
2146 Clouds 5 1028 86 10000 4 330 21:37 18.12.2019
2147 Clouds 5 1028 86 10000 4 330 21:18 18.12.2019
2148 Clouds 5 1029 93 10000 3 320 20:54 18.12.2019
2149 Rain 5 1028 93 10000 4 330 20:36 18.12.2019
2150 Rain 5 1028 93 10000 4 330 20:18 18.12.2019
2151 Rain 5 1028 93 10000 4 340 19:54 18.12.2019
2152 Clouds 5 1029 93 10000 4 340 19:36 18.12.2019
2153 Clouds 5 1029 93 10000 4 340 19:18 18.12.2019
2154 Clouds 5 1029 93 10000 4 340 19:18 18.12.2019
2155 Rain 5 1029 93 10000 4 350 18:43 18.12.2019
2156 Rain 5 1029 93 10000 4 350 18:25 18.12.2019
2157 Rain 5 1029 93 10000 4 350 18:25 18.12.2019
2158 Rain 5 1029 93 10000 5 350 17:57 18.12.2019
2159 Rain 6 1029 93 10000 7 360 17:38 18.12.2019
2160 Rain 6 1029 93 10000 7 360 17:19 18.12.2019
2161 Rain 6 1029 86 10000 7 360 16:43 18.12.2019
2162 Rain 6 1029 86 10000 7 360 16:43 18.12.2019
2163 Rain 6 1029 86 10000 7 360 16:43 18.12.2019
2164 Rain 6 1029 86 10000 6 10 16:25 18.12.2019
2165 Rain 6 1029 81 10000 6 350 15:59 18.12.2019
2166 Rain 6 1029 81 10000 6 360 15:40 18.12.2019
2167 Rain 7 1029 81 10000 6 360 15:21 18.12.2019
2168 Clouds 7 1028 81 10000 6 360 14:59 18.12.2019
2169 Clouds 7 1028 75 10000 6 10 14:40 18.12.2019
2170 Clouds 7 1028 75 10000 6 10 14:20 18.12.2019
2171 Clouds 7 1028 70 10000 6 20 13:56 18.12.2019
2172 Clouds 7 1028 75 10000 6 10 13:37 18.12.2019
2173 Clouds 7 1028 75 10000 6 10 13:19 18.12.2019
2174 Clouds 7 1028 75 10000 7 360 12:57 18.12.2019
2175 Clouds 7 1028 75 10000 5 10 12:37 18.12.2019
2176 Clouds 8 1028 75 10000 5 10 12:19 18.12.2019
2177 Rain 8 1027 75 10000 7 10 11:55 18.12.2019
2178 Clouds 8 1027 70 10000 8 360 11:36 18.12.2019
2179 Clouds 8 1027 70 10000 7 360 11:18 18.12.2019
2180 Clouds 8 1027 70 10000 7 360 10:55 18.12.2019
2181 Clouds 8 1027 70 10000 7 10 10:37 18.12.2019
2182 Clouds 9 1027 70 10000 7 10 10:18 18.12.2019
2183 Clouds 8 1026 75 10000 6 20 09:21 18.12.2019
2184 Clouds 8 1027 75 10000 6 360 08:58 18.12.2019
2185 Clouds 9 1026 75 10000 6 360 08:39 18.12.2019
2186 Clouds 9 1026 75 10000 6 360 08:21 18.12.2019
2187 Clouds 9 1027 70 10000 5 360 07:43 18.12.2019
2188 Clouds 10 1027 70 10000 5 360 07:22 18.12.2019
2189 Clouds 10 1026 70 10000 7 10 06:53 18.12.2019
2190 Clouds 9 1027 70 10000 6 10 06:26 18.12.2019
2191 Clouds 9 1027 70 10000 6 10 05:43 18.12.2019
2192 Clouds 9 1028 76 10000 7 10 04:37 18.12.2019
2193 Clouds 10 1029 81 10000 7 10 02:50 18.12.2019
2194 Clouds 9 1029 81 10000 5 360 02:30 18.12.2019
2195 Rain 9 1029 87 10000 5 360 01:47 18.12.2019
2196 Rain 9 1028 87 8000 4 10 01:29 18.12.2019
2197 Rain 9 1028 81 8000 6 360 00:59 18.12.2019
2198 Clouds 9 1027 81 8000 5 360 00:40 18.12.2019
2199 Clouds 9 1027 81 8000 5 360 00:21 18.12.2019
2200 Clouds 9 1027 87 8000 5 360 23:54 17.12.2019
2201 Clouds 10 1027 87 8000 4 360 23:36 17.12.2019
2202 Rain 9 1027 93 6000 4 360 23:18 17.12.2019
2203 Clouds 9 1027 87 8000 4 360 23:18 17.12.2019
2204 Rain 9 1027 93 6000 4 360 22:54 17.12.2019
2205 Rain 9 1026 93 6000 5 350 22:36 17.12.2019
2206 Rain 9 1026 93 6000 5 350 22:18 17.12.2019
2207 Rain 9 1026 93 5000 5 330 21:55 17.12.2019
2208 Rain 9 1026 93 5000 5 350 21:36 17.12.2019
2209 Rain 9 1026 93 5000 5 350 21:18 17.12.2019
2210 Rain 9 1026 93 5000 6 340 20:40 17.12.2019
2211 Rain 9 1026 93 5000 6 340 20:19 17.12.2019
2212 Rain 9 1025 93 5000 6 340 19:59 17.12.2019
2213 Rain 9 1025 93 5000 5 350 19:41 17.12.2019
2214 Rain 9 1025 93 5000 5 350 19:41 17.12.2019
2215 Rain 9 1025 93 5000 5 350 19:20 17.12.2019
2216 Rain 9 1025 93 5000 6 350 18:58 17.12.2019
2217 Rain 10 1025 93 6000 5 340 18:39 17.12.2019
2218 Rain 10 1025 93 6000 5 350 18:21 17.12.2019
2219 Rain 9 1025 93 6000 5 350 17:55 17.12.2019
2220 Rain 9 1025 93 6000 6 360 17:37 17.12.2019
2221 Rain 9 1025 93 6000 6 360 17:18 17.12.2019
2222 Rain 10 1025 93 6000 5 360 16:55 17.12.2019
2223 Clouds 10 1024 87 6000 6 360 16:37 17.12.2019
2224 Clouds 10 1024 87 6000 6 360 16:18 17.12.2019
2225 Clouds 10 1024 81 7000 6 360 15:38 17.12.2019
2226 Clouds 10 1024 81 7000 6 360 15:20 17.12.2019
2227 Clouds 10 1024 81 7000 6 10 14:57 17.12.2019
2228 Clouds 10 1024 87 7000 6 20 14:38 17.12.2019
2229 Clouds 10 1024 87 7000 6 20 14:19 17.12.2019
2230 Clouds 10 1024 87 8000 6 360 13:58 17.12.2019
2231 Clouds 10 1024 87 8000 5 350 13:40 17.12.2019
2232 Clouds 10 1024 87 8000 5 350 13:19 17.12.2019
2233 Clouds 10 1023 87 8000 6 360 12:59 17.12.2019
2234 Clouds 11 1023 93 8000 6 10 12:38 17.12.2019
2235 Clouds 10 1023 93 8000 6 10 12:18 17.12.2019
2236 Rain 10 1022 87 8000 7 360 11:57 17.12.2019
2237 Rain 11 1022 93 7000 6 360 11:37 17.12.2019
2238 Rain 11 1022 93 7000 6 360 11:18 17.12.2019
2239 Rain 11 1022 93 7000 6 360 10:57 17.12.2019
2240 Rain 12 1021 87 7000 7 350 10:38 17.12.2019
2241 Clouds 12 1021 87 7000 7 350 10:19 17.12.2019
2242 Rain 12 1020 93 2500 5 330 09:43 17.12.2019
2243 Rain 12 1020 93 2500 5 330 09:22 17.12.2019
2244 Rain 12 1020 87 1500 5 320 08:59 17.12.2019
2245 Rain 12 1019 87 2500 5 340 08:40 17.12.2019
2246 Rain 13 1019 87 2500 5 340 08:22 17.12.2019
2247 Rain 13 1019 87 2500 5 340 08:22 17.12.2019
2248 Rain 14 1019 87 5000 5 340 07:58 17.12.2019
2249 Clouds 14 1019 82 7000 5 350 07:40 17.12.2019
2250 Clouds 14 1019 82 7000 5 350 07:21 17.12.2019
2251 Clouds 15 1018 77 7000 4 350 06:42 17.12.2019
2252 Clouds 15 1018 77 7000 4 350 06:24 17.12.2019
2253 Clouds 15 1018 77 7000 4 350 06:24 17.12.2019
2254 Clouds 15 1018 77 7000 4 350 06:24 17.12.2019
2255 Clouds 15 1019 77 7000 4 330 05:41 17.12.2019
2256 Clouds 15 1020 72 7000 5 330 04:53 17.12.2019
2257 Mist 15 1020 77 4500 6 330 03:51 17.12.2019
2258 Mist 15 1020 82 3000 5 330 02:25 17.12.2019
2259 Mist 14 1019 82 3000 4 330 01:21 17.12.2019
2260 Mist 14 1019 82 3200 5 320 00:47 17.12.2019
2261 Mist 14 1019 82 3200 5 320 00:21 17.12.2019
2262 Mist 14 1019 82 3200 5 320 00:21 17.12.2019
2263 Mist 14 1019 82 3200 5 320 00:21 17.12.2019
2264 Mist 14 1017 87 3600 4 340 23:44 16.12.2019
2265 Mist 14 1017 87 3600 4 340 23:20 16.12.2019
2266 Mist 15 1017 82 3600 6 330 22:59 16.12.2019
2267 Mist 15 1017 82 3600 5 330 22:39 16.12.2019
2268 Mist 15 1017 82 3600 5 330 22:21 16.12.2019
2269 Mist 15 1016 87 4000 5 330 21:57 16.12.2019
2270 Mist 15 1016 93 4000 1 0 21:39 16.12.2019
2271 Mist 15 1016 93 4000 1 0 21:20 16.12.2019
2272 Mist 15 1016 87 3600 1 0 20:58 16.12.2019
2273 Mist 15 1016 93 3600 2 290 20:39 16.12.2019
2274 Mist 16 1016 93 3600 2 290 20:19 16.12.2019
2275 Mist 16 1016 93 3600 2 290 20:19 16.12.2019
2276 Clouds 16 1016 93 8000 2 280 19:57 16.12.2019
2277 Clouds 16 1015 93 8000 1 190 19:37 16.12.2019
2278 Clouds 16 1015 93 8000 1 190 19:19 16.12.2019
2279 Clouds 16 1016 93 8000 2 200 18:59 16.12.2019
2280 Clouds 16 1015 93 8000 2 140 18:40 16.12.2019
2281 Clouds 16 1015 93 8000 2 140 18:20 16.12.2019
2282 Clouds 16 1016 93 10000 2 190 17:58 16.12.2019
2283 Clouds 17 1016 87 10000 1 170 17:39 16.12.2019
2284 Clouds 16 1016 87 10000 1 0 17:21 16.12.2019
2285 Clouds 17 1016 87 10000 1 0 16:57 16.12.2019
2286 Clouds 17 1015 87 10000 2 180 16:39 16.12.2019
2287 Clouds 17 1015 87 10000 2 180 16:19 16.12.2019
2288 Clouds 17 1015 88 10000 2 190 15:58 16.12.2019
2289 Clouds 17 1015 88 10000 2 160 15:38 16.12.2019
2290 Clouds 17 1015 88 10000 2 160 15:20 16.12.2019
2291 Clouds 17 1015 82 10000 2 160 14:57 16.12.2019
2292 Clouds 17 1015 82 10000 2 160 14:37 16.12.2019
2293 Clouds 17 1015 82 10000 2 160 14:19 16.12.2019
2294 Clouds 17 1015 88 10000 2 150 13:56 16.12.2019
2295 Clouds 17 1015 88 10000 2 150 13:56 16.12.2019
2296 Clouds 17 1016 82 10000 2 180 13:37 16.12.2019
2297 Clear 17 1016 82 10000 2 180 13:19 16.12.2019
2298 Clear 17 1015 77 10000 2 150 12:57 16.12.2019
2299 Clear 17 1015 77 10000 2 150 12:39 16.12.2019
2300 Clear 17 1015 77 10000 2 140 12:18 16.12.2019
2301 Clear 18 1015 77 10000 2 140 11:57 16.12.2019
2302 Clear 18 1015 77 10000 2 150 11:39 16.12.2019
2303 Clear 18 1014 77 10000 3 150 11:19 16.12.2019
2304 Clear 18 1014 77 10000 3 150 10:55 16.12.2019
2305 Clear 19 1015 72 10000 2 160 10:36 16.12.2019
2306 Clear 19 1015 72 10000 2 160 10:18 16.12.2019
2307 Clouds 20 1015 68 10000 4 150 09:44 16.12.2019
2308 Clouds 20 1014 64 10000 3 170 09:26 16.12.2019
2309 Clouds 21 1014 60 10000 3 180 08:41 16.12.2019
2310 Clouds 22 1014 60 10000 3 180 08:20 16.12.2019
2311 Clouds 22 1014 64 10000 4 170 07:53 16.12.2019
2312 Clouds 22 1014 60 10000 4 180 07:31 16.12.2019
2313 Clouds 21 1015 68 10000 4 150 06:58 16.12.2019
2314 Clouds 22 1015 60 10000 4 160 06:40 16.12.2019
2315 Clouds 20 1016 72 10000 4 130 06:20 16.12.2019
2316 Clouds 20 1017 72 10000 5 140 05:41 16.12.2019
2317 Clouds 19 1017 72 10000 5 140 05:22 16.12.2019
2318 Clouds 20 1019 82 8000 4 140 03:28 16.12.2019
2319 Clouds 16 1019 87 8000 4 130 01:51 16.12.2019
2320 Clear 15 1019 93 8000 4 120 01:33 16.12.2019
2321 Clouds 14 1019 93 8000 4 130 00:39 16.12.2019
2322 Clouds 14 1019 93 8000 4 130 00:20 16.12.2019
2323 Clouds 14 1019 93 10000 3 110 23:44 15.12.2019
2324 Clouds 14 1019 93 10000 3 110 23:25 15.12.2019
2325 Clouds 14 1019 87 10000 4 140 22:57 15.12.2019
2326 Clouds 14 1019 87 10000 4 140 22:39 15.12.2019
2327 Clouds 14 1019 87 10000 4 140 22:19 15.12.2019
2328 Clouds 14 1020 87 10000 4 130 21:58 15.12.2019
2329 Clouds 14 1020 87 10000 5 140 21:39 15.12.2019
2330 Clouds 14 1020 87 10000 5 140 21:20 15.12.2019
2331 Clouds 14 1020 87 10000 6 130 20:58 15.12.2019
2332 Clouds 14 1020 87 10000 5 130 20:40 15.12.2019
2333 Clouds 14 1020 87 10000 5 130 20:40 15.12.2019
2334 Clouds 14 1020 87 10000 5 130 20:22 15.12.2019
2335 Clouds 14 1020 87 10000 5 130 19:58 15.12.2019
2336 Clouds 14 1021 87 10000 5 130 19:40 15.12.2019
2337 Clouds 14 1021 87 10000 5 130 19:20 15.12.2019
2338 Clouds 14 1021 82 10000 5 130 18:58 15.12.2019
2339 Clouds 14 1021 82 10000 5 130 18:39 15.12.2019
2340 Clouds 14 1021 82 10000 5 130 18:19 15.12.2019
2341 Clouds 14 1021 82 10000 5 130 17:57 15.12.2019
2342 Clouds 14 1021 82 10000 5 120 17:38 15.12.2019
2343 Clouds 14 1021 82 10000 5 120 17:38 15.12.2019
2344 Clouds 14 1022 77 10000 5 120 17:19 15.12.2019
2345 Clouds 14 1022 77 10000 5 120 16:58 15.12.2019
2346 Clouds 14 1022 77 10000 5 120 16:39 15.12.2019
2347 Clouds 14 1022 77 10000 5 120 16:21 15.12.2019
2348 Clouds 14 1022 77 10000 5 120 15:56 15.12.2019
2349 Clouds 14 1022 77 10000 5 110 15:38 15.12.2019
2350 Clouds 14 1022 77 10000 5 110 15:19 15.12.2019
2351 Clouds 14 1022 77 10000 5 120 14:55 15.12.2019
2352 Clouds 14 1022 77 10000 5 110 14:37 15.12.2019
2353 Clouds 14 1022 77 10000 5 110 14:37 15.12.2019
2354 Clouds 14 1022 77 10000 5 110 14:18 15.12.2019
2355 Clouds 14 1022 77 10000 5 110 13:58 15.12.2019
2356 Clouds 14 1023 72 10000 4 110 13:37 15.12.2019
2357 Clouds 14 1023 72 10000 4 110 13:19 15.12.2019
2358 Clouds 14 1023 76 10000 5 110 12:56 15.12.2019
2359 Clouds 14 1022 76 10000 5 110 12:38 15.12.2019
2360 Clouds 14 1022 72 10000 5 110 12:20 15.12.2019
2361 Clouds 14 1022 76 10000 4 100 11:39 15.12.2019
2362 Clouds 14 1022 72 10000 5 110 11:20 15.12.2019
2363 Clouds 14 1022 72 10000 5 110 10:58 15.12.2019
2364 Clouds 14 1022 72 10000 5 110 10:40 15.12.2019
2365 Clouds 14 1022 72 10000 5 110 10:20 15.12.2019
2366 Clouds 15 1022 72 10000 6 100 09:59 15.12.2019
2367 Clear 14 1022 72 10000 6 110 09:38 15.12.2019
2368 Clear 15 1022 72 10000 6 110 09:20 15.12.2019
2369 Clear 15 1022 72 10000 6 110 09:20 15.12.2019
2370 Clear 15 1022 67 10000 6 110 08:55 15.12.2019
2371 Clouds 15 1022 63 10000 6 100 08:37 15.12.2019
2372 Clouds 17 1022 63 10000 6 100 08:19 15.12.2019
2373 Clouds 17 1022 63 10000 5 100 07:53 15.12.2019
2374 Clouds 16 1022 63 10000 6 90 07:32 15.12.2019
2375 Clouds 18 1023 59 10000 4 120 06:30 15.12.2019
2376 Clouds 18 1024 63 10000 5 110 05:50 15.12.2019
2377 Clouds 16 1025 63 10000 6 130 05:23 15.12.2019
2378 Clouds 16 1025 63 10000 5 120 04:24 15.12.2019
2379 Clouds 14 1026 67 10000 5 110 02:59 15.12.2019
2380 Clouds 15 1026 71 10000 5 110 02:32 15.12.2019
2381 Clouds 13 1026 76 10000 5 100 01:42 15.12.2019
2382 Clouds 12 1026 76 10000 5 100 01:20 15.12.2019
2383 Clouds 12 1026 76 10000 4 100 00:51 15.12.2019
2384 Clouds 11 1026 81 10000 3 90 00:33 15.12.2019
2385 Clouds 11 1025 81 10000 3 90 23:55 14.12.2019
2386 Clouds 11 1025 81 10000 4 90 23:37 14.12.2019
2387 Clouds 11 1025 81 10000 3 100 23:18 14.12.2019
2388 Clouds 11 1025 81 10000 3 100 23:18 14.12.2019
2389 Clouds 11 1025 81 10000 3 100 22:56 14.12.2019
2390 Clouds 11 1025 81 10000 3 100 22:37 14.12.2019
2391 Clouds 11 1025 81 10000 3 100 22:18 14.12.2019
2392 Clouds 11 1025 81 10000 3 100 22:18 14.12.2019
2393 Clouds 11 1025 81 10000 3 100 21:55 14.12.2019
2394 Clouds 12 1025 81 10000 4 100 21:36 14.12.2019
2395 Clouds 12 1025 81 10000 4 100 21:18 14.12.2019
2396 Clouds 12 1026 76 10000 4 90 20:42 14.12.2019
2397 Clouds 11 1026 76 10000 4 90 20:20 14.12.2019
2398 Clouds 11 1026 76 10000 4 90 19:59 14.12.2019
2399 Clouds 11 1026 81 10000 3 80 19:39 14.12.2019
2400 Clouds 11 1026 81 10000 3 80 19:39 14.12.2019
2401 Clouds 11 1026 81 10000 3 80 19:20 14.12.2019
2402 Clouds 11 1026 81 10000 3 90 18:56 14.12.2019
2403 Clouds 11 1026 81 10000 4 90 18:38 14.12.2019
2404 Clouds 11 1026 81 10000 4 90 18:19 14.12.2019
2405 Clouds 11 1026 81 10000 3 90 17:44 14.12.2019
2406 Clouds 11 1026 81 10000 3 90 17:24 14.12.2019
2407 Clouds 12 1027 81 10000 2 70 16:59 14.12.2019
2408 Clouds 12 1027 81 10000 2 60 16:40 14.12.2019
2409 Clouds 12 1027 81 10000 2 60 16:19 14.12.2019
2410 Clouds 12 1027 81 10000 2 60 16:19 14.12.2019
2411 Clouds 12 1027 81 10000 2 70 15:43 14.12.2019
2412 Clouds 12 1027 76 10000 3 70 15:24 14.12.2019
2413 Clouds 12 1027 76 10000 3 70 14:59 14.12.2019
2414 Clouds 12 1027 76 10000 3 70 14:39 14.12.2019
2415 Clouds 12 1027 76 10000 3 70 14:20 14.12.2019
2416 Clouds 12 1027 76 10000 4 60 13:57 14.12.2019
2417 Clouds 12 1027 76 10000 3 60 13:39 14.12.2019
2418 Clouds 12 1027 76 10000 3 60 13:19 14.12.2019
2419 Clouds 12 1027 76 10000 4 80 12:55 14.12.2019
2420 Clouds 12 1027 76 10000 4 80 12:55 14.12.2019
2421 Clouds 12 1027 76 10000 3 80 12:37 14.12.2019
2422 Clouds 12 1027 71 10000 4 60 12:18 14.12.2019
2423 Clouds 12 1027 71 10000 4 60 11:55 14.12.2019
2424 Clouds 13 1027 71 10000 4 80 11:36 14.12.2019
2425 Clouds 13 1027 71 10000 4 80 11:36 14.12.2019
2426 Clouds 13 1027 71 10000 4 50 11:18 14.12.2019
2427 Clouds 13 1027 71 10000 4 50 10:55 14.12.2019
2428 Clouds 13 1027 76 10000 5 40 10:37 14.12.2019
2429 Clouds 13 1027 76 10000 5 40 10:18 14.12.2019
2430 Clouds 13 1026 67 10000 6 60 09:40 14.12.2019
2431 Clouds 14 1026 67 10000 6 60 09:20 14.12.2019
2432 Clouds 14 1026 67 10000 6 60 09:20 14.12.2019
2433 Clouds 14 1026 62 10000 5 60 08:44 14.12.2019
2434 Clouds 14 1026 62 10000 5 60 08:44 14.12.2019
2435 Clouds 15 1026 58 10000 5 70 08:20 14.12.2019
2436 Clouds 15 1026 58 10000 5 70 08:20 14.12.2019
2437 Clouds 16 1025 55 10000 5 70 07:57 14.12.2019
2438 Clouds 16 1026 55 10000 5 60 07:38 14.12.2019
2439 Clouds 16 1026 55 10000 5 60 07:19 14.12.2019
2440 Clouds 16 1026 55 10000 5 60 07:19 14.12.2019
2441 Clouds 17 1027 59 10000 5 50 06:39 14.12.2019
2442 Clouds 17 1027 59 10000 5 40 06:20 14.12.2019
2443 Clouds 15 1028 62 10000 4 70 05:20 14.12.2019
2444 Clouds 15 1029 87 7000 2 360 02:44 14.12.2019
2445 Clouds 12 1029 87 7000 2 360 02:22 14.12.2019
2446 Mist 12 1028 81 5000 3 10 01:37 14.12.2019
2447 Clouds 11 1028 81 6000 3 360 00:50 14.12.2019
2448 Clouds 10 1027 87 6000 3 360 00:29 14.12.2019
2449 Clouds 10 1027 81 8000 3 360 23:57 13.12.2019
2450 Clouds 10 1027 81 8000 3 360 23:57 13.12.2019
2451 Clouds 10 1027 81 8000 3 360 23:37 13.12.2019
2452 Clear 9 1026 87 8000 3 360 23:18 13.12.2019
2453 Clear 9 1026 81 10000 2 20 22:41 13.12.2019
2454 Clear 10 1026 81 10000 2 20 22:19 13.12.2019
2455 Clear 10 1026 87 10000 2 360 21:56 13.12.2019
2456 Clear 9 1026 87 10000 2 360 21:38 13.12.2019
2457 Clear 9 1026 87 10000 2 360 21:20 13.12.2019
2458 Clear 10 1026 87 10000 1 160 20:42 13.12.2019
2459 Clear 10 1026 87 10000 1 160 20:23 13.12.2019
2460 Clouds 10 1026 87 10000 1 160 19:59 13.12.2019
2461 Clouds 10 1026 87 10000 1.58 305 19:41 13.12.2019
2462 Clouds 10 1026 87 10000 1.58 305 19:22 13.12.2019
2463 Clouds 10 1025 81 10000 1.58 305 18:59 13.12.2019
2464 Clouds 10 1025 81 10000 1.58 305 18:40 13.12.2019
2465 Clouds 10 1025 81 10000 1.58 305 18:19 13.12.2019
2466 Clouds 10 1025 76 10000 1.58 305 17:43 13.12.2019
2467 Clouds 11 1025 76 10000 1.57 272 17:20 13.12.2019
2468 Clouds 11 1025 71 10000 1 0 16:59 13.12.2019
2469 Clouds 11 1025 76 10000 1 0 16:39 13.12.2019
2470 Clouds 11 1025 76 10000 1 0 16:20 13.12.2019
2471 Clouds 11 1025 76 10000 1.57 272 15:58 13.12.2019
2472 Clouds 11 1025 71 10000 1 0 15:37 13.12.2019
2473 Clouds 11 1025 71 10000 1 0 15:18 13.12.2019
2474 Clouds 11 1025 71 10000 1 0 14:41 13.12.2019
2475 Clouds 12 1025 71 10000 1 0 14:20 13.12.2019
2476 Clouds 12 1025 71 10000 2 190 13:57 13.12.2019
2477 Clouds 13 1025 66 10000 2 190 13:38 13.12.2019
2478 Clouds 13 1025 66 10000 2 190 13:19 13.12.2019
2479 Clouds 12 1024 66 10000 2 200 12:42 13.12.2019
2480 Clouds 12 1024 66 10000 2 200 12:20 13.12.2019
2481 Clouds 13 1024 66 10000 2 190 11:57 13.12.2019
2482 Clouds 13 1024 62 10000 2 180 11:39 13.12.2019
2483 Clouds 13 1024 62 10000 2 180 11:39 13.12.2019
2484 Clear 13 1024 62 10000 2 180 11:20 13.12.2019
2485 Clear 14 1023 62 10000 3 190 10:42 13.12.2019
2486 Clear 14 1023 62 10000 3 190 10:42 13.12.2019
2487 Clear 14 1023 62 10000 3 190 10:23 13.12.2019
2488 Clear 15 1023 51 10000 3 190 09:55 13.12.2019
2489 Clear 16 1023 48 10000 4 190 09:36 13.12.2019
2490 Clear 16 1023 45 10000 4 170 09:18 13.12.2019
2491 Clear 16 1023 45 10000 3 190 08:41 13.12.2019
2492 Clear 18 1023 45 10000 3 190 08:23 13.12.2019
2493 Clear 17 1023 45 10000 5 200 07:45 13.12.2019
2494 Clear 17 1023 45 10000 5 200 07:45 13.12.2019
2495 Clear 17 1023 45 10000 5 200 07:21 13.12.2019
2496 Clear 17 1023 45 10000 5 200 07:21 13.12.2019
2497 Clear 17 1023 45 10000 5 200 06:51 13.12.2019
2498 Clear 17 1023 45 10000 5 190 06:28 13.12.2019
2499 Clear 17 1024 51 10000 6 180 05:45 13.12.2019
2500 Clear 16 1024 51 10000 6 180 05:24 13.12.2019
2501 Clear 16 1026 51 10000 7 180 04:35 13.12.2019
2502 Clear 17 1026 58 10000 6 160 03:31 13.12.2019
2503 Clear 14 1026 62 10000 5 150 02:32 13.12.2019
2504 Clouds 12 1026 66 10000 4 140 01:42 13.12.2019
2505 Clouds 11 1026 71 10000 4 140 00:53 13.12.2019
2506 Clouds 10 1026 70 10000 4 130 00:34 13.12.2019
2507 Clouds 10 1026 70 10000 4 140 23:57 12.12.2019
2508 Clouds 10 1026 70 10000 5 130 23:37 12.12.2019
2509 Clouds 9 1026 70 10000 5 130 23:19 12.12.2019
2510 Clouds 10 1026 70 10000 3 140 22:42 12.12.2019
2511 Clouds 10 1026 70 10000 3 140 22:23 12.12.2019
2512 Clouds 9 1026 75 10000 3 140 21:57 12.12.2019
2513 Clouds 9 1026 70 10000 3 130 21:39 12.12.2019
2514 Clouds 9 1026 70 10000 3 130 21:20 12.12.2019
2515 Clouds 9 1027 70 10000 2 140 20:59 12.12.2019
2516 Clouds 9 1027 70 10000 2 140 20:41 12.12.2019
2517 Clouds 9 1027 70 10000 2 140 20:23 12.12.2019
2518 Clouds 9 1027 66 10000 3 130 19:59 12.12.2019
2519 Clouds 9 1027 66 10000 2 120 19:41 12.12.2019
2520 Clouds 9 1027 66 10000 2 120 19:21 12.12.2019
2521 Clouds 10 1027 66 10000 2 120 18:58 12.12.2019
2522 Clouds 10 1027 66 10000 2 120 18:39 12.12.2019
2523 Clouds 10 1027 66 10000 2 120 18:20 12.12.2019
2524 Clouds 10 1028 66 10000 3 110 17:57 12.12.2019
2525 Clouds 10 1028 61 10000 3 110 17:39 12.12.2019
2526 Clear 10 1028 61 10000 3 110 17:20 12.12.2019
2527 Clear 9 1028 61 10000 3 110 16:56 12.12.2019
2528 Clear 9 1028 61 10000 4 110 16:37 12.12.2019
2529 Clear 9 1028 61 10000 4 110 16:19 12.12.2019
2530 Clear 10 1028 57 10000 3 110 15:54 12.12.2019
2531 Clear 9 1029 57 10000 4 100 15:36 12.12.2019
2532 Clear 9 1029 57 10000 4 100 15:18 12.12.2019
2533 Clear 10 1029 57 10000 4 110 14:38 12.12.2019
2534 Clear 10 1029 57 10000 4 110 14:20 12.12.2019
2535 Clear 10 1029 57 10000 3 100 13:57 12.12.2019
2536 Clear 10 1029 57 10000 3 90 13:39 12.12.2019
2537 Clear 10 1029 57 10000 3 90 13:21 12.12.2019
2538 Clear 10 1029 57 10000 3 80 12:57 12.12.2019
2539 Clear 10 1029 57 10000 4 90 12:38 12.12.2019
2540 Clear 10 1029 57 10000 4 90 12:20 12.12.2019
2541 Clear 10 1029 57 10000 4 100 11:55 12.12.2019
2542 Clear 10 1029 57 10000 4 100 11:55 12.12.2019
2543 Clear 10 1029 53 10000 4 110 11:37 12.12.2019
2544 Clear 11 1029 53 10000 4 110 11:19 12.12.2019
2545 Clear 10 1028 53 10000 4 100 10:42 12.12.2019
2546 Clear 10 1028 53 10000 4 100 10:24 12.12.2019
2547 Clouds 12 1027 50 10000 4 90 09:59 12.12.2019
2548 Clouds 12 1027 50 10000 4 90 09:59 12.12.2019
2549 Clouds 11 1028 50 10000 5 80 09:41 12.12.2019
2550 Clouds 13 1028 50 10000 5 80 09:23 12.12.2019
2551 Clouds 12 1028 50 10000 5 80 09:23 12.12.2019
2552 Clear 12 1027 43 10000 4 130 08:55 12.12.2019
2553 Clear 13 1027 41 10000 4 120 08:37 12.12.2019
2554 Clouds 13 1027 41 10000 4 120 08:19 12.12.2019
2555 Clouds 13 1027 37 10000 2 0 07:41 12.12.2019
2556 -273 0 0 0 0 0 07:23 12.12.2019
2557 Clouds 13 1028 37 10000 2 0 06:44 12.12.2019
2558 Clouds 14 1029 35 10000 2 60 06:24 12.12.2019
2559 Clouds 14 1029 37 10000 2 0 05:36 12.12.2019
2560 Clouds 13 1029 37 10000 3 80 04:51 12.12.2019
2561 Clouds 15 1030 53 10000 3 70 02:57 12.12.2019
2562 Clouds 13 1030 53 10000 4 50 02:37 12.12.2019
2563 Clear 11 1030 53 10000 4 50 02:18 12.12.2019
2564 Clear 9 1029 81 10000 1 0 01:36 12.12.2019
2565 Clouds 9 1029 81 10000 2 360 00:58 12.12.2019
2566 Clouds 9 1029 80 10000 2 360 00:38 12.12.2019
2567 Clouds 8 1029 80 10000 2 360 00:18 12.12.2019
2568 Clouds 9 1028 70 10000 4 20 23:40 11.12.2019
2569 Clear 8 1028 70 10000 4 20 23:20 11.12.2019
2570 Clear 8 1028 66 10000 5 20 22:57 11.12.2019
2571 Clear 8 1028 70 10000 5 10 22:38 11.12.2019
2572 Clear 8 1028 70 10000 5 10 22:38 11.12.2019
2573 Clear 7 1028 86 10000 1 340 22:19 11.12.2019
2574 Clear 8 1027 70 10000 5 10 21:55 11.12.2019
2575 Clear 7 1028 80 10000 3 350 21:36 11.12.2019
2576 Clear 7 1028 87 10000 2 350 21:18 11.12.2019
2577 Clear 7 1028 87 10000 2 350 21:18 11.12.2019
2578 Clear 7 1028 87 10000 2 350 20:55 11.12.2019
2579 Clear 7 1027 86 10000 2 360 20:36 11.12.2019
2580 Clear 8 1027 80 10000 2 360 20:18 11.12.2019
2581 Clear 8 1027 81 10000 2 350 19:42 11.12.2019
2582 Clear 8 1027 81 10000 2 350 19:23 11.12.2019
2583 Clear 7 1027 81 10000 2 360 18:59 11.12.2019
2584 Clear 8 1027 81 10000 2 360 18:40 11.12.2019
2585 Clear 8 1027 81 10000 2 360 18:20 11.12.2019
2586 Clear 8 1027 81 8000 2.15 30 17:56 11.12.2019
2587 Clear 8 1027 81 8000 1 0 17:38 11.12.2019
2588 Clear 8 1027 81 8000 1 0 17:18 11.12.2019
2589 Clear 9 1027 75 8000 2 30 16:56 11.12.2019
2590 Clear 9 1027 75 8000 2 40 16:37 11.12.2019
2591 Clear 9 1027 75 8000 2 40 16:18 11.12.2019
2592 Clear 9 1027 70 8000 2 70 15:56 11.12.2019
2593 Clear 9 1027 76 8000 3 40 15:37 11.12.2019
2594 Clear 9 1027 76 8000 3 40 15:19 11.12.2019
2595 Clear 9 1026 70 10000 3 40 14:55 11.12.2019
2596 Clear 9 1026 70 10000 5 40 14:36 11.12.2019
2597 Clear 10 1026 61 10000 5 50 14:18 11.12.2019
2598 Clear 10 1025 61 10000 4 50 13:42 11.12.2019
2599 Clear 10 1025 61 10000 4 50 13:42 11.12.2019
2600 Clear 9 1025 61 10000 4 50 13:22 11.12.2019
2601 Clear 10 1025 66 10000 5 50 12:58 11.12.2019
2602 Clear 10 1025 66 10000 5 40 12:39 11.12.2019
2603 Clear 10 1025 66 10000 5 40 12:21 11.12.2019
2604 Clear 10 1024 62 10000 5 30 11:58 11.12.2019
2605 Clear 10 1024 57 8000 4 10 11:39 11.12.2019
2606 Clear 11 1024 50 8000 5 10 11:19 11.12.2019
2607 Clear 12 1024 50 8000 5 10 10:57 11.12.2019
2608 Clear 12 1023 43 7000 5 10 10:39 11.12.2019
2609 Clear 12 1023 43 7000 5 10 10:39 11.12.2019
2610 Clear 13 1023 43 7000 5 10 10:20 11.12.2019
2611 Clear 13 1023 43 7000 5 10 10:20 11.12.2019
2612 Clear 13 1023 47 7000 6 360 09:44 11.12.2019
2613 Clear 13 1023 47 7000 6 360 09:44 11.12.2019
2614 Clear 14 1023 44 7000 5 360 09:21 11.12.2019
2615 Clear 14 1023 44 7000 5 360 08:58 11.12.2019
2616 Clear 14 1023 44 7000 5 360 08:58 11.12.2019
2617 Clear 14 1022 41 7000 5 360 08:39 11.12.2019
2618 Clear 15 1022 41 7000 5 360 08:20 11.12.2019
2619 Clear 15 1022 37 7000 6 360 08:20 11.12.2019
2620 Clear 15 1022 37 7000 6 360 07:58 11.12.2019
2621 Clear 16 1022 38 6000 5 340 07:39 11.12.2019
2622 Clear 15 1022 38 6000 5 340 07:21 11.12.2019
2623 Clear 14 1022 41 6000 6 350 06:44 11.12.2019
2624 Haze 16 1022 38 4500 7 330 06:22 11.12.2019
2625 Haze 16 1021 51 3000 5 340 05:45 11.12.2019
2626 Haze 14 1022 54 3000 5 330 05:21 11.12.2019
2627 Haze 14 1022 51 3500 4 330 04:38 11.12.2019
2628 Haze 15 1022 58 5000 4 320 02:49 11.12.2019
2629 Mist 11 1021 76 4000 2 280 01:26 11.12.2019
2630 Mist 11 1021 81 4000 1 0 00:49 11.12.2019
2631 Mist 10 1020 81 4000 2 260 00:23 11.12.2019
2632 Mist 10 1020 87 5000 2 220 23:58 10.12.2019
2633 Clouds 9 1020 81 6000 1 210 23:39 10.12.2019
2634 Clouds 10 1020 81 6000 1 210 23:21 10.12.2019
2635 Clouds 10 1019 81 6000 2 240 22:40 10.12.2019
2636 Clouds 10 1019 81 6000 2 240 22:22 10.12.2019
2637 Clouds 10 1019 75 7000 1 240 21:57 10.12.2019
2638 Clouds 10 1019 75 7000 2 220 21:39 10.12.2019
2639 Clouds 10 1019 75 7000 2 220 21:21 10.12.2019
2640 Clouds 10 1019 75 7000 2 220 21:21 10.12.2019
2641 Clouds 10 1019 81 8000 1 210 20:57 10.12.2019
2642 Clouds 10 1019 81 8000 1 220 20:38 10.12.2019
2643 Clouds 11 1019 81 8000 1 220 20:19 10.12.2019
2644 Clouds 11 1019 75 8000 1 0 19:55 10.12.2019
2645 Clouds 11 1019 81 8000 1 240 19:37 10.12.2019
2646 Clouds 10 1019 81 8000 1 240 19:19 10.12.2019
2647 Clouds 10 1019 76 10000 1 160 18:40 10.12.2019
2648 Clouds 10 1019 76 10000 1 160 18:20 10.12.2019
2649 Clouds 10 1019 76 10000 2 180 17:58 10.12.2019
2650 Clouds 10 1019 66 10000 1 180 17:40 10.12.2019
2651 Clouds 11 1019 66 10000 1 180 17:20 10.12.2019
2652 Clouds 12 1019 71 10000 1 0 16:54 10.12.2019
2653 Clouds 12 1019 62 10000 1 0 16:36 10.12.2019
2654 Clouds 12 1019 58 10000 1 0 16:18 10.12.2019
2655 Clouds 12 1019 58 10000 1 0 16:18 10.12.2019
2656 Clouds 12 1019 62 10000 1 0 16:18 10.12.2019
2657 Clouds 12 1019 58 10000 3 250 15:38 10.12.2019
2658 Clouds 12 1019 58 10000 3 250 15:18 10.12.2019
2659 Clouds 12 1019 58 10000 2 230 14:56 10.12.2019
2660 Clouds 12 1019 62 10000 2 210 14:37 10.12.2019
2661 Clouds 13 1019 62 10000 2 210 14:19 10.12.2019
2662 Clouds 13 1019 66 10000 2 190 13:56 10.12.2019
2663 Clouds 13 1019 62 10000 2 190 13:38 10.12.2019
2664 Clouds 13 1019 62 10000 3 190 13:19 10.12.2019
2665 Clouds 13 1019 62 10000 3 190 12:47 10.12.2019
2666 Clouds 13 1019 62 10000 3 190 12:26 10.12.2019
2667 Clouds 13 1019 62 10000 3 180 11:45 10.12.2019
2668 Clouds 14 1018 62 10000 3 190 11:25 10.12.2019
2669 Clear 14 1018 58 8000 3 190 10:58 10.12.2019
2670 Clear 15 1018 41 8000 2 0 10:40 10.12.2019
2671 Clear 16 1018 36 10000 2 0 10:22 10.12.2019
2672 Clear 16 1018 36 10000 2 0 09:56 10.12.2019
2673 Clear 17 1017 34 10000 2 240 09:38 10.12.2019
2674 Clear 17 1017 34 10000 2 240 09:38 10.12.2019
2675 Clear 17 1017 34 10000 2 240 09:20 10.12.2019
2676 Clear 17 1017 34 10000 2 210 08:57 10.12.2019
2677 Clear 17 1017 34 10000 2 210 08:57 10.12.2019
2678 Clear 18 1017 32 10000 2 230 08:38 10.12.2019
2679 Clear 19 1017 32 10000 2 230 08:19 10.12.2019
2680 Clear 18 1017 32 8000 2 220 07:44 10.12.2019
2681 Clear 18 1017 32 8000 2 220 07:26 10.12.2019
2682 Clear 19 1018 34 8000 4 230 06:49 10.12.2019
2683 Clear 19 1018 36 7000 3 220 06:22 10.12.2019
2684 Clear 19 1018 34 7000 2 220 05:55 10.12.2019
2685 Clear 17 1020 44 7000 2 220 04:58 10.12.2019
2686 Clear 18 1021 50 7000 3 0 03:40 10.12.2019
2687 Clear 17 1021 54 6000 3 210 02:47 10.12.2019
2688 Clear 10 1021 76 6000 2 180 01:50 10.12.2019
2689 Clear 8 1021 93 6000 1 150 01:25 10.12.2019
2690 Clear 8 1021 93 6000 1 180 00:49 10.12.2019
2691 Clear 8 1020 93 6000 1 170 00:24 10.12.2019
2692 Clear 8 1020 93 8000 1 170 23:43 09.12.2019
2693 Clear 7 1020 93 8000 1 170 23:24 09.12.2019
2694 Clear 8 1020 93 8000 1 0 22:58 09.12.2019
2695 Clear 8 1020 93 8000 1.47 180 22:40 09.12.2019
2696 Clear 8 1020 93 8000 1.47 180 22:20 09.12.2019
2697 Clear 9 1020 87 8000 1 180 21:57 09.12.2019
2698 Clear 8 1020 87 8000 1 170 21:39 09.12.2019
2699 Clear 8 1020 87 8000 1 170 21:19 09.12.2019
2700 Clear 7 1021 93 8000 1.47 180 20:57 09.12.2019
2701 Clear 7 1021 93 8000 1.47 180 20:57 09.12.2019
2702 Clear 7 1021 81 8000 1.47 180 20:39 09.12.2019
2703 Clouds 9 1021 81 8000 1.38 159 20:20 09.12.2019
2704 Clouds 9 1021 87 8000 1.38 159 19:56 09.12.2019
2705 Clouds 9 1021 81 8000 1.38 159 19:38 09.12.2019
2706 Clouds 8 1021 81 8000 1.38 159 19:19 09.12.2019
2707 Clouds 9 1021 81 8000 1.38 159 18:58 09.12.2019
2708 Clouds 9 1021 76 10000 1 150 18:39 09.12.2019
2709 Clouds 10 1021 76 10000 1 150 18:20 09.12.2019
2710 Clouds 9 1022 76 10000 1 150 17:58 09.12.2019
2711 Clouds 9 1022 70 10000 1 0 17:39 09.12.2019
2712 Clouds 10 1022 70 10000 1 110 17:20 09.12.2019
2713 Clouds 9 1022 70 10000 1 110 16:56 09.12.2019
2714 Clouds 10 1023 70 10000 1 150 16:37 09.12.2019
2715 Clouds 10 1023 70 10000 1 150 16:19 09.12.2019
2716 Clouds 10 1023 66 10000 2 150 15:55 09.12.2019
2717 Clouds 10 1023 66 10000 2 150 15:37 09.12.2019
2718 Clouds 10 1023 66 10000 2 150 15:19 09.12.2019
2719 Clouds 10 1023 61 10000 3 160 14:55 09.12.2019
2720 Clouds 10 1023 57 10000 2 150 14:37 09.12.2019
2721 Clouds 11 1023 57 10000 2 150 14:18 09.12.2019
2722 Clouds 11 1023 53 10000 2 150 13:39 09.12.2019
2723 Clouds 11 1023 53 10000 2 150 13:20 09.12.2019
2724 Clouds 11 1023 57 10000 2 150 12:57 09.12.2019
2725 Clouds 11 1023 57 10000 3 160 12:38 09.12.2019
2726 Clouds 11 1023 57 10000 3 160 12:38 09.12.2019
2727 Clouds 11 1023 57 10000 3 160 12:20 09.12.2019
2728 Clouds 11 1022 53 10000 3 180 11:59 09.12.2019
2729 Clouds 11 1022 50 10000 3 150 11:39 09.12.2019
2730 Clear 12 1022 50 10000 3 150 11:21 09.12.2019
2731 Clear 12 1022 46 10000 3 0 10:55 09.12.2019
2732 Clear 14 1022 33 10000 2 240 10:37 09.12.2019
2733 Clear 14 1022 33 10000 2 240 10:18 09.12.2019
2734 Clear 14 1022 33 10000 2 240 10:18 09.12.2019
2735 Clear 15 1021 31 10000 3 200 09:41 09.12.2019
2736 Clear 16 1021 31 10000 3 200 09:22 09.12.2019
2737 Clear 16 1021 31 10000 2 0 08:55 09.12.2019
2738 Clear 16 1021 29 10000 3 230 08:37 09.12.2019
2739 Clear 16 1021 29 10000 3 230 08:19 09.12.2019
2740 Clear 17 1021 29 10000 3 0 07:42 09.12.2019
2741 Clear 17 1021 29 10000 3 0 07:24 09.12.2019
2742 Clear 17 1021 29 10000 2 0 06:49 09.12.2019
2743 Clear 17 1022 31 10000 2 250 06:26 09.12.2019
2744 Clear 17 1023 33 10000 3 0 05:29 09.12.2019
2745 Clear 14 1024 35 10000 3 240 04:49 09.12.2019
2746 Clear 15 1025 42 8000 3 200 03:45 09.12.2019
2747 Clear 12 1025 61 6000 2 200 02:24 09.12.2019
2748 Clear 8 1025 70 6000 2 180 01:44 09.12.2019
2749 Clear 7 1025 80 6000 2 180 00:51 09.12.2019
2750 Clear 6 1025 80 6000 2 190 00:31 09.12.2019
2751 Clear 6 1025 93 6000 2 180 23:43 08.12.2019
2752 Clear 6 1025 93 6000 2 180 23:24 08.12.2019
2753 Clear 6 1025 86 7000 1 190 22:58 08.12.2019
2754 Clear 6 1025 86 7000 1 170 22:39 08.12.2019
2755 Clear 6 1025 86 7000 1 170 22:39 08.12.2019
2756 Clear 6 1025 86 7000 1 170 22:20 08.12.2019
2757 Clear 5 1025 80 7000 1 180 21:58 08.12.2019
2758 Clear 5 1025 80 8000 1 170 21:40 08.12.2019
2759 Clear 5 1025 80 8000 1 170 21:21 08.12.2019
2760 Clear 5 1025 75 8000 1 0 20:57 08.12.2019
2761 Clear 5 1025 75 8000 1 0 20:57 08.12.2019
2762 Clear 5 1025 80 8000 1 0 20:38 08.12.2019
2763 Clear 6 1025 80 8000 1 0 20:20 08.12.2019
2764 Clear 6 1025 80 8000 1 0 20:20 08.12.2019
2765 Clear 6 1025 75 8000 1 180 19:59 08.12.2019
2766 Clear 6 1026 75 8000 1 160 19:41 08.12.2019
2767 Clear 6 1026 75 8000 1 160 19:22 08.12.2019
2768 Clear 6 1026 80 8000 1 170 18:55 08.12.2019
2769 Clear 6 1027 80 8000 2 160 18:37 08.12.2019
2770 Clear 6 1027 80 8000 2 160 18:19 08.12.2019
2771 Clear 6 1027 80 8000 2 160 18:19 08.12.2019
2772 Clear 6 1027 70 8000 1 170 17:56 08.12.2019
2773 Clear 7 1027 75 8000 2 160 17:38 08.12.2019
2774 Clear 7 1027 75 8000 2 160 17:38 08.12.2019
2775 Clear 7 1027 75 8000 2 160 17:20 08.12.2019
2776 Clear 7 1027 75 8000 2 160 17:20 08.12.2019
2777 Clear 7 1027 70 8000 2 150 16:57 08.12.2019
2778 Clear 7 1027 65 8000 2 150 16:39 08.12.2019
2779 Clear 7 1027 65 8000 2 150 16:20 08.12.2019
2780 Clear 7 1027 65 10000 2 160 15:55 08.12.2019
2781 Clear 7 1028 42 10000 2 150 15:36 08.12.2019
2782 Clear 7 1028 42 10000 2 150 15:18 08.12.2019
2783 Clear 7 1028 42 10000 2 150 14:43 08.12.2019
2784 Clear 7 1028 40 10000 2 150 14:24 08.12.2019
2785 Clear 7 1028 60 10000 2 170 13:57 08.12.2019
2786 Clear 8 1028 52 10000 3 150 13:39 08.12.2019
2787 Clear 8 1028 52 10000 3 150 13:21 08.12.2019
2788 Clear 8 1028 42 10000 1 0 12:54 08.12.2019
2789 Clear 8 1028 42 10000 1 0 12:36 08.12.2019
2790 Clear 8 1028 42 10000 1 0 12:18 08.12.2019
2791 Clear 9 1027 32 10000 2 0 11:39 08.12.2019
2792 Clear 10 1027 32 10000 2 0 11:21 08.12.2019
2793 Clear 10 1027 34 10000 2 0 10:59 08.12.2019
2794 Clear 10 1027 32 10000 2 0 10:38 08.12.2019
2795 Clear 11 1027 32 10000 2 0 10:20 08.12.2019
2796 Clear 11 1027 27 10000 2 0 09:57 08.12.2019
2797 Clear 11 1027 27 10000 2 0 09:57 08.12.2019
2798 Clear 11 1027 27 10000 2 200 09:38 08.12.2019
2799 Clear 11 1027 27 10000 2 200 09:19 08.12.2019
2800 Clear 12 1027 25 10000 3 260 08:57 08.12.2019
2801 Clear 12 1027 24 10000 1 0 08:37 08.12.2019
2802 Clear 12 1027 24 10000 1 0 08:37 08.12.2019
2803 Clear 12 1027 24 10000 1 0 08:37 08.12.2019
2804 Clear 12 1027 24 10000 1 0 08:18 08.12.2019
2805 Clear 13 1027 26 10000 2 240 07:42 08.12.2019
2806 Clear 13 1027 26 10000 2 240 07:19 08.12.2019
2807 Clear 13 1028 24 10000 2 280 06:50 08.12.2019
2808 Clear 13 1028 25 10000 2 270 06:22 08.12.2019
2809 Clear 12 1029 30 10000 2 0 05:43 08.12.2019
2810 Clear 12 1030 34 10000 2 350 04:59 08.12.2019
2811 Clear 12 1031 37 10000 2 10 03:49 08.12.2019
2812 Clear 13 1031 39 8000 2 350 03:21 08.12.2019
2813 Clear 10 1032 61 8000 2 350 02:34 08.12.2019
2814 Clear 7 1032 70 7000 1 0 01:48 08.12.2019
2815 Clear 4 1032 54 8000 1 0 00:59 08.12.2019
2816 Clear 5 1031 54 8000 1.17 326 00:39 08.12.2019
2817 Clear 4 1031 54 8000 1.17 326 00:19 08.12.2019
2818 Clear 4 1031 54 8000 1.17 326 23:40 07.12.2019
2819 Clear 4 1031 54 8000 1.15 328 23:20 07.12.2019
2820 Clear 4 1031 93 8000 1.15 328 22:56 07.12.2019
2821 Clear 4 1031 54 10000 1.15 328 22:38 07.12.2019
2822 Clear 4 1031 54 10000 1.15 328 22:19 07.12.2019
2823 Clear 4 1031 54 10000 1.15 328 22:19 07.12.2019
2824 Clear 4 1031 54 10000 1 100 21:56 07.12.2019
2825 Clear 4 1031 54 10000 1.15 328 21:38 07.12.2019
2826 Clear 4 1031 54 10000 1.15 328 21:19 07.12.2019
2827 Clear 5 1031 54 10000 1.15 328 20:54 07.12.2019
2828 Clear 5 1031 93 10000 1 340 20:36 07.12.2019
2829 Clear 5 1031 93 10000 1 340 20:18 07.12.2019
2830 Clear 5 1031 51 10000 1 360 19:55 07.12.2019
2831 Clear 5 1031 51 10000 1.32 2 19:36 07.12.2019
2832 Clear 5 1031 51 10000 1.32 2 19:18 07.12.2019
2833 Clear 5 1032 51 10000 1 0 18:43 07.12.2019
2834 Clear 5 1032 51 10000 1 0 18:19 07.12.2019
2835 Clear 5 1032 69 10000 1 0 17:57 07.12.2019
2836 Clear 5 1032 69 10000 1 340 17:39 07.12.2019
2837 Clear 5 1032 69 10000 1 340 17:20 07.12.2019
2838 Clear 6 1032 65 10000 1 0 16:56 07.12.2019
2839 Clear 6 1032 65 10000 1 0 16:37 07.12.2019
2840 Clear 6 1032 65 10000 1 0 16:18 07.12.2019
2841 Clear 6 1032 60 10000 1 0 15:41 07.12.2019
2842 Clear 6 1032 60 10000 1 0 15:23 07.12.2019
2843 Clear 7 1032 56 10000 2 10 14:57 07.12.2019
2844 Clear 7 1032 56 10000 2 10 14:39 07.12.2019
2845 Clear 6 1032 56 10000 2 10 14:18 07.12.2019
2846 Clear 7 1032 48 10000 1 0 13:41 07.12.2019
2847 Clear 7 1032 48 10000 1 0 13:21 07.12.2019
2848 Clear 7 1032 48 10000 3 360 12:56 07.12.2019
2849 Clear 7 1032 42 10000 3 350 12:37 07.12.2019
2850 Clear 7 1032 42 10000 3 350 12:19 07.12.2019
2851 Clear 7 1032 42 10000 3 360 11:55 07.12.2019
2852 Clear 7 1032 48 10000 3 10 11:37 07.12.2019
2853 Clear 7 1032 48 10000 3 10 11:19 07.12.2019
2854 Clear 8 1032 42 10000 4 10 10:37 07.12.2019
2855 Clear 8 1032 42 10000 4 10 10:19 07.12.2019
2856 Clear 9 1031 31 10000 4 10 09:41 07.12.2019
2857 Clear 9 1031 31 10000 4 10 09:22 07.12.2019
2858 Clear 10 1031 31 10000 5 10 08:47 07.12.2019
2859 Clear 10 1031 31 10000 5 20 08:26 07.12.2019
2860 Clear 10 1031 32 10000 5 30 07:57 07.12.2019
2861 Clear 11 1031 32 10000 5 20 07:38 07.12.2019
2862 Clear 10 1031 32 10000 5 20 07:19 07.12.2019
2863 Clear 10 1031 32 10000 5 30 06:45 07.12.2019
2864 Clear 10 1032 29 10000 5 20 06:24 07.12.2019
2865 Clear 10 1033 37 10000 4 360 04:49 07.12.2019
2866 Clear 12 1034 39 10000 4 350 03:53 07.12.2019
2867 Clear 12 1034 52 10000 4 350 02:50 07.12.2019
2868 Clear 7 1034 56 10000 3 10 02:19 07.12.2019
2869 Clear 6 1034 75 10000 2 350 01:30 07.12.2019
2870 Clear 6 1033 74 10000 2 10 00:43 07.12.2019
2871 Clear 5 1033 74 10000 2 10 00:19 07.12.2019
2872 Clear 5 1033 74 10000 2 350 23:45 06.12.2019
2873 Clear 4 1033 74 10000 2 340 23:23 06.12.2019
2874 Clear 4 1033 74 10000 2 10 22:58 06.12.2019
2875 Clear 4 1033 74 10000 2 10 22:58 06.12.2019
2876 Clear 4 1032 74 10000 2 10 22:36 06.12.2019
2877 Clear 4 1032 74 10000 2 10 22:18 06.12.2019
2878 Clear 4 1032 74 10000 3 340 21:41 06.12.2019
2879 Clear 4 1032 74 10000 3 340 21:41 06.12.2019
2880 Clear 4 1032 74 10000 3 340 21:21 06.12.2019
2881 Clear 4 1032 74 10000 3 340 20:59 06.12.2019
2882 Clear 4 1032 74 10000 3 350 20:41 06.12.2019
2883 Clear 5 1032 74 10000 3 350 20:20 06.12.2019
2884 Clear 5 1033 69 10000 2 350 19:43 06.12.2019
2885 Clear 5 1033 69 10000 2 350 19:24 06.12.2019
2886 Clear 5 1033 69 10000 2 330 18:59 06.12.2019
2887 Clear 5 1033 69 10000 3 330 18:40 06.12.2019
2888 Clear 5 1033 69 10000 3 330 18:22 06.12.2019
2889 Clear 5 1033 69 10000 3 340 17:58 06.12.2019
2890 Clear 5 1033 64 10000 2 340 17:40 06.12.2019
2891 Clear 5 1033 64 10000 2 340 17:22 06.12.2019
2892 Clear 5 1033 69 10000 2 350 16:58 06.12.2019
2893 Clear 5 1034 64 10000 2 350 16:38 06.12.2019
2894 Clear 6 1034 64 10000 2 350 16:19 06.12.2019
2895 Clear 5 1034 60 10000 3 350 15:41 06.12.2019
2896 Clear 6 1034 60 10000 3 350 15:22 06.12.2019
2897 Clear 6 1034 60 10000 3 360 14:58 06.12.2019
2898 Clear 7 1034 60 10000 3 360 14:40 06.12.2019
2899 Clouds 9 1034 60 10000 3 360 14:20 06.12.2019
2900 Clouds 9 1034 60 10000 3 10 13:46 06.12.2019
2901 Clouds 9 1034 60 10000 3 10 13:46 06.12.2019
2902 Clouds 9 1035 56 10000 4 10 13:27 06.12.2019
2903 Clouds 7 1034 52 10000 5 10 12:58 06.12.2019
2904 Clouds 7 1034 56 10000 5 10 12:39 06.12.2019
2905 Clouds 7 1034 56 10000 5 10 12:21 06.12.2019
2906 Clouds 8 1034 52 10000 4 360 11:42 06.12.2019
2907 Clouds 10 1034 52 10000 4 360 11:23 06.12.2019
2908 Clouds 11 1034 45 10000 5 360 10:56 06.12.2019
2909 Clouds 11 1034 45 10000 5 10 10:38 06.12.2019
2910 Clouds 11 1034 45 10000 5 10 10:20 06.12.2019
2911 Clouds 9 1034 42 10000 6 360 09:56 06.12.2019
2912 Clouds 10 1034 42 10000 8 350 09:36 06.12.2019
2913 Clouds 10 1034 42 10000 8 350 09:18 06.12.2019
2914 Clouds 10 1034 39 10000 6 10 08:42 06.12.2019
2915 Clouds 11 1034 39 10000 6 10 08:24 06.12.2019
2916 Clouds 12 1034 37 10000 7 360 07:42 06.12.2019
2917 Clouds 11 1034 37 10000 7 360 07:22 06.12.2019
2918 Clouds 12 1034 40 10000 7 360 06:48 06.12.2019
2919 Clouds 14 1034 40 10000 7 350 06:25 06.12.2019
2920 Clouds 14 1034 43 10000 7 360 05:48 06.12.2019
2921 Clouds 12 1036 48 10000 8 30 02:46 06.12.2019
2922 Clouds 8 1037 58 10000 7 30 01:45 06.12.2019
2923 Clouds 9 1036 61 10000 7 30 00:51 06.12.2019
2924 Clouds 9 1036 61 10000 8 30 00:23 06.12.2019
2925 Clouds 8 1036 61 10000 8 30 23:51 05.12.2019
2926 Clouds 8 1036 61 10000 7 30 23:21 05.12.2019
2927 Clouds 8 1036 61 10000 8 30 22:58 05.12.2019
2928 Clouds 8 1036 61 10000 8 30 22:58 05.12.2019
2929 Clouds 8 1035 65 10000 8 40 22:39 05.12.2019
2930 Clouds 8 1035 65 10000 8 40 22:19 05.12.2019
2931 Clouds 8 1035 61 10000 9 30 21:56 05.12.2019
2932 Clouds 8 1035 66 10000 8 40 21:37 05.12.2019
2933 Clouds 9 1035 66 10000 8 40 21:19 05.12.2019
2934 Clouds 9 1035 66 10000 8 30 20:55 05.12.2019
2935 Clouds 9 1035 66 10000 8 30 20:36 05.12.2019
2936 Rain 9 1036 70 10000 6 30 20:18 05.12.2019
2937 Clouds 9 1036 76 10000 5 30 19:40 05.12.2019
2938 Clouds 9 1036 76 10000 5 30 19:21 05.12.2019
2939 Clouds 9 1036 76 10000 6 40 18:58 05.12.2019
2940 Clouds 9 1036 76 10000 6 30 18:38 05.12.2019
2941 Clouds 9 1036 76 10000 6 30 18:20 05.12.2019
2942 Clouds 9 1035 71 10000 7 30 17:41 05.12.2019
2943 Clouds 9 1035 71 10000 7 30 17:20 05.12.2019
2944 Clouds 9 1036 71 10000 5 30 16:59 05.12.2019
2945 Clouds 9 1035 76 10000 5 30 16:40 05.12.2019
2946 Clouds 10 1035 76 10000 5 30 16:21 05.12.2019
2947 Clouds 10 1036 71 10000 6 40 15:58 05.12.2019
2948 Clouds 10 1036 71 10000 6 40 15:58 05.12.2019
2949 Rain 10 1036 71 10000 6 30 15:39 05.12.2019
2950 Rain 10 1036 71 10000 6 30 15:20 05.12.2019
2951 Rain 10 1035 71 10000 7 30 14:56 05.12.2019
2952 Rain 10 1035 71 10000 7 30 14:56 05.12.2019
2953 Rain 10 1035 71 10000 7 30 14:37 05.12.2019
2954 Clouds 10 1035 71 10000 7 30 14:19 05.12.2019
2955 Clouds 10 1035 71 10000 7 30 14:19 05.12.2019
2956 Clouds 10 1035 61 10000 5 10 13:56 05.12.2019
2957 Clouds 11 1035 53 10000 5 20 13:38 05.12.2019
2958 Clouds 11 1035 53 10000 5 20 13:19 05.12.2019
2959 Clouds 11 1036 66 10000 3 20 12:56 05.12.2019
2960 Clouds 11 1035 66 10000 3 10 12:38 05.12.2019
2961 Clouds 11 1035 66 10000 3 10 12:19 05.12.2019
2962 Clouds 11 1035 57 10000 4 30 11:39 05.12.2019
2963 Clouds 11 1035 57 10000 4 30 11:20 05.12.2019
2964 Clouds 11 1034 57 10000 5 20 10:57 05.12.2019
2965 Clouds 11 1034 42 10000 5 20 10:39 05.12.2019
2966 Clouds 11 1034 42 10000 5 20 10:18 05.12.2019
2967 Clouds 12 1033 37 10000 6 10 09:54 05.12.2019
2968 Clouds 12 1033 30 10000 5 30 09:36 05.12.2019
2969 Clouds 12 1033 30 10000 5 30 09:18 05.12.2019
2970 Clouds 13 1032 37 10000 5 30 08:39 05.12.2019
2971 Clouds 14 1032 37 10000 5 30 08:20 05.12.2019
2972 Clouds 14 1033 28 10000 6 30 07:56 05.12.2019
2973 Clouds 14 1033 33 10000 5 30 07:36 05.12.2019
2974 Clouds 14 1033 33 10000 5 30 07:18 05.12.2019
2975 Clouds 14 1032 43 10000 5 50 06:41 05.12.2019
2976 Clouds 14 1032 43 10000 5 50 06:20 05.12.2019
2977 Clouds 13 1033 43 10000 5 50 05:47 05.12.2019
2978 Clouds 13 1033 43 10000 5 50 05:23 05.12.2019
2979 Clouds 13 1033 58 10000 6 10 04:25 05.12.2019
2980 Clouds 13 1034 58 8000 5 360 02:44 05.12.2019
2981 Clouds 11 1034 62 8000 4 10 02:24 05.12.2019
2982 Clouds 10 1034 66 8000 4 350 01:53 05.12.2019
2983 Clouds 8 1034 70 8000 2 350 01:27 05.12.2019
2984 Clouds 9 1034 75 8000 2 360 00:52 05.12.2019
2985 Clouds 9 1034 70 8000 1 340 00:33 05.12.2019
2986 Clouds 9 1033 75 10000 1 350 23:58 04.12.2019
2987 Clouds 8 1033 70 10000 3.01 354 23:39 04.12.2019
2988 Clouds 8 1033 70 10000 2.11 344 23:21 04.12.2019
2989 Clouds 8 1033 75 10000 2.11 344 22:55 04.12.2019
2990 Clouds 8 1032 65 10000 1 350 22:36 04.12.2019
2991 Clouds 8 1032 65 10000 1 350 22:18 04.12.2019
2992 Clouds 8 1032 65 10000 1 10 21:54 04.12.2019
2993 Clouds 7 1032 70 10000 2 360 21:36 04.12.2019
2994 Clouds 8 1032 70 10000 2 360 21:18 04.12.2019
2995 Clouds 8 1032 70 10000 2 340 20:55 04.12.2019
2996 Clouds 7 1032 70 10000 1 350 20:37 04.12.2019
2997 Clouds 8 1032 70 10000 1 350 20:19 04.12.2019
2998 Clouds 7 1032 75 10000 2 350 19:39 04.12.2019
2999 Clouds 7 1032 75 10000 2 350 19:21 04.12.2019
3000 Clouds 8 1032 70 10000 2 340 18:58 04.12.2019
3001 Clouds 8 1032 43 10000 1 0 18:40 04.12.2019
3002 Clouds 8 1032 43 10000 1 0 18:21 04.12.2019
3003 Clouds 9 1032 43 10000 1 0 17:40 04.12.2019
3004 Clouds 9 1032 38 10000 1 0 17:22 04.12.2019
3005 Clouds 9 1032 52 10000 1 360 16:59 04.12.2019
3006 Clouds 9 1032 52 10000 1 360 16:59 04.12.2019
3007 Clouds 9 1032 52 10000 2 10 16:40 04.12.2019
3008 Clouds 9 1032 52 10000 2 10 16:40 04.12.2019
3009 Clouds 9 1032 52 10000 2 10 16:40 04.12.2019
3010 Clouds 9 1032 52 10000 2 10 16:20 04.12.2019
3011 Clouds 9 1032 45 10000 3 350 15:56 04.12.2019
3012 Clouds 9 1032 45 10000 2 340 15:38 04.12.2019
3013 Clouds 9 1032 45 10000 2 340 15:19 04.12.2019
3014 Clouds 9 1032 45 10000 2 340 15:19 04.12.2019
3015 Clouds 10 1032 43 10000 2 350 14:44 04.12.2019
3016 Clouds 10 1032 39 10000 2 360 14:24 04.12.2019
3017 Clouds 10 1032 37 10000 3 340 13:59 04.12.2019
3018 Clouds 9 1032 39 10000 3 310 13:38 04.12.2019
3019 Clouds 9 1032 39 10000 3 310 13:20 04.12.2019
3020 Clouds 10 1032 39 10000 3 320 12:45 04.12.2019
3021 Clouds 10 1032 39 10000 3 320 12:45 04.12.2019
3022 Clouds 10 1032 39 10000 3 340 12:25 04.12.2019
3023 Clouds 10 1031 37 10000 3 350 11:56 04.12.2019
3024 Clouds 10 1031 34 10000 3 320 11:38 04.12.2019
3025 Clear 10 1031 34 10000 3 320 11:20 04.12.2019
3026 Clear 10 1031 34 10000 3 310 10:44 04.12.2019
3027 Clear 11 1031 34 10000 3 320 10:23 04.12.2019
3028 Clear 11 1030 34 10000 4 310 09:57 04.12.2019
3029 Clear 11 1030 32 10000 5 320 09:38 04.12.2019
3030 Clear 11 1030 32 10000 5 320 09:19 04.12.2019
3031 Clear 12 1030 27 10000 4 320 08:40 04.12.2019
3032 Clear 12 1030 27 10000 4 320 08:22 04.12.2019
3033 Clear 13 1030 28 10000 4 330 07:48 04.12.2019
3034 Clear 13 1030 26 10000 4 310 07:30 04.12.2019
3035 Clear 14 1030 26 10000 4 330 06:43 04.12.2019
3036 Clear 14 1030 26 10000 4 320 06:24 04.12.2019
3037 Clear 13 1031 32 10000 4 320 05:42 04.12.2019
3038 Clear 11 1032 37 6000 3 290 04:30 04.12.2019
3039 Haze 13 1033 57 4000 2 240 02:59 04.12.2019
3040 Mist 7 1031 75 3500 2 250 00:53 04.12.2019
3041 Mist 7 1031 86 3500 1 0 00:28 04.12.2019
3042 Mist 7 1031 86 5000 2 0 23:59 03.12.2019
3043 Mist 5 1031 86 5000 1 0 23:40 03.12.2019
3044 Mist 5 1031 86 5000 1 0 23:19 03.12.2019
3045 Clear 5 1030 86 6000 1 190 22:41 03.12.2019
3046 Clear 5 1030 86 6000 1 190 22:19 03.12.2019
3047 Clear 5 1030 86 6000 1 0 21:59 03.12.2019
3048 Clear 5 1030 38 6000 1 0 21:38 03.12.2019
3049 Clear 5 1030 38 6000 1 0 21:38 03.12.2019
3050 Clear 5 1030 38 6000 1 0 21:19 03.12.2019
3051 Clear 5 1030 86 6000 1 230 20:58 03.12.2019
3052 Clear 5 1030 86 6000 1.16 286 20:39 03.12.2019
3053 Clear 5 1030 86 6000 0.2 303 20:18 03.12.2019
3054 Clear 5 1030 86 6000 0.2 303 19:55 03.12.2019
3055 Clear 5 1030 39 6000 1 40 19:37 03.12.2019
3056 Clear 5 1030 39 6000 1 40 19:18 03.12.2019
3057 Clear 6 1030 39 6000 0.2 303 18:56 03.12.2019
3058 Clear 6 1031 80 6000 1 220 18:37 03.12.2019
3059 Clear 6 1031 80 6000 1 220 18:19 03.12.2019
3060 Clear 6 1031 80 6000 1 220 18:19 03.12.2019
3061 Clear 6 1031 75 6000 2 220 17:54 03.12.2019
3062 Clear 6 1031 39 6000 1 0 17:36 03.12.2019
3063 Clear 6 1031 39 6000 1 0 17:36 03.12.2019
3064 Clear 7 1031 38 7000 1 200 17:18 03.12.2019
3065 Clear 7 1031 38 7000 1 0 16:40 03.12.2019
3066 Clear 7 1031 38 7000 1 0 16:22 03.12.2019
3067 Clear 7 1030 56 7000 1 0 15:59 03.12.2019
3068 Clear 6 1031 60 7000 1 0 15:40 03.12.2019
3069 Clear 7 1031 60 7000 1 0 15:20 03.12.2019
3070 Clear 7 1031 60 7000 1 0 15:20 03.12.2019
3071 Clear 7 1030 56 8000 2 310 14:58 03.12.2019
3072 Clear 7 1030 60 10000 1 0 14:40 03.12.2019
3073 Clear 7 1030 60 10000 1 0 14:19 03.12.2019
3074 Clear 8 1030 49 10000 2 260 13:39 03.12.2019
3075 Clear 8 1030 49 10000 2 260 13:20 03.12.2019
3076 Clear 8 1030 49 10000 2 260 13:20 03.12.2019
3077 Clear 7 1030 49 10000 2 260 12:58 03.12.2019
3078 Clear 8 1030 49 10000 3 260 12:37 03.12.2019
3079 Clear 8 1030 49 10000 3 260 12:37 03.12.2019
3080 Clear 8 1030 49 10000 3 260 12:18 03.12.2019
3081 Clear 8 1030 49 10000 2 250 11:57 03.12.2019
3082 Clear 8 1029 52 10000 3 250 11:38 03.12.2019
3083 Clear 8 1029 52 10000 3 250 11:19 03.12.2019
3084 Clear 8 1029 49 10000 3 250 10:56 03.12.2019
3085 Clear 9 1029 42 10000 3 240 10:38 03.12.2019
3086 Clear 9 1029 42 10000 3 240 10:18 03.12.2019
3087 Clear 10 1029 34 10000 2 290 09:42 03.12.2019
3088 Clear 10 1029 34 10000 2 290 09:23 03.12.2019
3089 Clear 10 1029 29 10000 2 330 08:56 03.12.2019
3090 Clear 11 1028 29 10000 4 270 08:38 03.12.2019
3091 Clear 11 1028 29 10000 4 270 08:19 03.12.2019
3092 Clear 11 1028 29 10000 3 290 07:51 03.12.2019
3093 Clear 11 1028 32 10000 4 310 07:25 03.12.2019
3094 Clear 11 1028 32 10000 4 310 07:25 03.12.2019
3095 Clear 12 1029 34 10000 1 0 06:24 03.12.2019
3096 Clear 12 1029 34 10000 2 320 05:59 03.12.2019
3097 Clear 9 1030 42 10000 3 330 04:55 03.12.2019
3098 Clear 10 1031 42 10000 4 290 03:42 03.12.2019
3099 Clear 12 1031 42 10000 3 290 03:20 03.12.2019
3100 Clear 12 1031 42 10000 3 310 02:51 03.12.2019
3101 Clear 12 1031 45 10000 3 320 02:31 03.12.2019
3102 Clear 7 1031 48 8000 3 320 01:53 03.12.2019
3103 Clear 7 1031 40 7000 1 0 01:34 03.12.2019
3104 Clear 6 1031 69 7000 1 0 00:57 03.12.2019
3105 Clear 5 1030 80 7000 2.35 328 00:39 03.12.2019
3106 Clear 5 1030 80 7000 2.35 328 00:20 03.12.2019
3107 Clear 5 1030 80 8000 1 0 23:43 02.12.2019
3108 Clear 5 1030 74 10000 1 170 23:20 02.12.2019
3109 Clear 5 1030 74 10000 1 170 23:20 02.12.2019
3110 Clear 5 1030 69 10000 1 340 22:43 02.12.2019
3111 Clear 5 1030 69 10000 1 340 22:23 02.12.2019
3112 Clear 5 1029 69 10000 2 330 21:59 02.12.2019
3113 Clear 5 1029 69 10000 2 330 21:59 02.12.2019
3114 Clear 5 1029 69 10000 2 330 21:59 02.12.2019
3115 Clear 5 1030 69 10000 1 360 21:38 02.12.2019
3116 Clear 5 1030 69 10000 1 360 21:19 02.12.2019
3117 Clear 5 1030 69 10000 2 330 20:56 02.12.2019
3118 Clear 5 1030 69 10000 2 330 20:56 02.12.2019
3119 Clear 5 1030 56 10000 2 320 20:38 02.12.2019
3120 Clear 5 1030 56 10000 2 320 20:20 02.12.2019
3121 Clear 5 1030 60 10000 2 330 19:55 02.12.2019
3122 Clear 5 1030 60 10000 3 320 19:37 02.12.2019
3123 Clear 5 1030 60 10000 3 320 19:19 02.12.2019
3124 Clear 6 1029 60 10000 3 340 18:43 02.12.2019
3125 Clear 6 1029 60 10000 3 340 18:20 02.12.2019
3126 Clear 5 1030 60 10000 3 340 17:58 02.12.2019
3127 Clear 6 1030 56 10000 3 330 17:40 02.12.2019
3128 Clear 6 1030 56 10000 3 330 17:20 02.12.2019
3129 Clear 6 1030 52 10000 4 330 16:42 02.12.2019
3130 Clear 6 1030 52 10000 3 330 16:19 02.12.2019
3131 Clear 7 1030 45 10000 3 330 15:59 02.12.2019
3132 Clear 7 1030 45 10000 3 320 15:40 02.12.2019
3133 Clear 7 1030 45 10000 3 320 15:22 02.12.2019
3134 Clear 7 1030 45 10000 3 320 14:59 02.12.2019
3135 Clear 7 1030 48 10000 2 310 14:38 02.12.2019
3136 Clear 7 1030 48 10000 2 310 14:20 02.12.2019
3137 Clear 7 1030 48 10000 2 310 14:20 02.12.2019
3138 Clear 7 1030 45 10000 4 330 13:57 02.12.2019
3139 Clear 8 1030 42 10000 3 330 13:39 02.12.2019
3140 Clear 8 1030 42 10000 3 330 13:19 02.12.2019
3141 Clear 8 1030 42 10000 4 340 12:56 02.12.2019
3142 Clear 8 1030 42 10000 3 340 12:37 02.12.2019
3143 Clear 8 1030 42 10000 3 340 12:19 02.12.2019
3144 Clear 8 1030 42 10000 4 340 11:38 02.12.2019
3145 Clear 8 1030 42 10000 4 340 11:38 02.12.2019
3146 Clear 9 1030 42 10000 4 340 11:20 02.12.2019
3147 Clear 9 1030 42 10000 4 350 10:59 02.12.2019
3148 Clear 9 1030 39 10000 4 320 10:41 02.12.2019
3149 Clear 9 1030 39 10000 4 320 10:22 02.12.2019
3150 Clear 9 1029 39 10000 5 340 09:57 02.12.2019
3151 Clear 10 1029 37 10000 5 330 09:39 02.12.2019
3152 Clear 11 1029 37 10000 5 330 09:18 02.12.2019
3153 Clear 11 1029 37 10000 5 330 09:18 02.12.2019
3154 Clear 11 1028 37 10000 5 340 08:55 02.12.2019
3155 Clear 11 1028 37 10000 5 340 08:37 02.12.2019
3156 Clear 11 1028 37 10000 5 340 08:18 02.12.2019
3157 Clear 11 1028 34 10000 6 310 07:39 02.12.2019
3158 Clear 11 1028 34 10000 6 310 07:20 02.12.2019
3159 Clear 11 1029 40 10000 6 310 06:43 02.12.2019
3160 Clear 11 1029 40 10000 6 290 06:20 02.12.2019
3161 Clear 10 1029 43 10000 6 340 05:19 02.12.2019
3162 Clear 11 1030 49 10000 6 330 03:35 02.12.2019
3163 Clear 12 1030 52 8000 6 320 02:50 02.12.2019
3164 Clear 7 1030 35 7000 4 320 01:49 02.12.2019
3165 Clear 6 1029 33 6000 4 310 01:21 02.12.2019
3166 Mist 7 1029 75 5000 4 320 00:39 02.12.2019
3167 Mist 7 1029 75 5000 4 320 00:21 02.12.2019
3168 Mist 7 1029 75 5000 5 310 23:43 01.12.2019
3169 Clear 7 1028 80 6000 5 310 23:22 01.12.2019
3170 Clear 7 1028 80 7000 4 320 22:56 01.12.2019
3171 Clear 7 1028 80 7000 5 310 22:38 01.12.2019
3172 Clear 7 1028 80 7000 5 310 22:19 01.12.2019
3173 Clear 7 1028 80 7000 4 310 21:56 01.12.2019
3174 Clear 7 1028 80 7000 5 310 21:38 01.12.2019
3175 Clear 7 1028 80 7000 5 310 21:20 01.12.2019
3176 Clear 7 1028 80 7000 5 310 20:58 01.12.2019
3177 Clear 8 1028 75 7000 6 320 20:39 01.12.2019
3178 Clouds 8 1028 75 7000 6 320 20:21 01.12.2019
3179 Clouds 9 1028 70 8000 7 310 19:57 01.12.2019
3180 Clouds 8 1028 70 8000 6 320 19:39 01.12.2019
3181 Clouds 8 1028 70 8000 6 320 19:20 01.12.2019
3182 Clouds 8 1027 70 10000 8 310 18:56 01.12.2019
3183 Clouds 7 1027 70 10000 8 320 18:38 01.12.2019
3184 Clouds 9 1027 70 10000 8 320 18:38 01.12.2019
3185 Clouds 8 1027 70 10000 8 320 18:19 01.12.2019
3186 Clouds 7 1027 75 10000 6 310 17:56 01.12.2019
3187 Clouds 8 1027 75 10000 8 310 17:38 01.12.2019
3188 Clouds 9 1027 75 10000 8 310 17:20 01.12.2019
3189 Clouds 8 1026 81 10000 7 320 16:45 01.12.2019
3190 Clouds 7 1026 81 10000 7 320 16:25 01.12.2019
3191 Clouds 8 1026 81 10000 6 320 15:58 01.12.2019
3192 Clouds 8 1026 81 10000 6 320 15:58 01.12.2019
3193 Clouds 8 1026 81 10000 6 310 15:40 01.12.2019
3194 Clouds 8 1026 81 10000 6 310 15:40 01.12.2019
3195 Clouds 8 1026 81 10000 6 310 15:22 01.12.2019
3196 Clouds 8 1026 81 10000 6 310 15:22 01.12.2019
3197 Clouds 8 1026 81 10000 6 310 15:22 01.12.2019
3198 Clouds 9 1026 75 10000 8 310 14:38 01.12.2019
3199 Clouds 10 1026 75 10000 8 310 14:19 01.12.2019
3200 Clouds 10 1025 81 10000 6 300 13:40 01.12.2019
3201 Clouds 10 1025 81 10000 6 300 13:22 01.12.2019
3202 Clouds 10 1025 81 10000 7 310 12:58 01.12.2019
3203 Clouds 9 1024 81 10000 7 310 12:40 01.12.2019
3204 Clouds 9 1024 81 10000 7 310 12:40 01.12.2019
3205 Clouds 9 1024 81 10000 7 310 12:40 01.12.2019
3206 Clouds 9 1024 81 10000 7 310 12:40 01.12.2019
3207 Clouds 9 1024 81 10000 7 310 12:40 01.12.2019
3208 Rain 10 1024 81 10000 8 310 11:46 01.12.2019
3209 Rain 11 1024 81 10000 7 300 11:24 01.12.2019
3210 Rain 11 1024 81 10000 7 310 10:55 01.12.2019
3211 Rain 11 1024 81 10000 7 310 10:55 01.12.2019
3212 Clouds 10 1023 76 10000 7 300 10:37 01.12.2019
3213 Clouds 10 1023 76 10000 7 300 10:19 01.12.2019
3214 Clouds 10 1022 81 10000 7 290 09:41 01.12.2019
3215 Clouds 10 1022 81 10000 7 290 09:22 01.12.2019
3216 Clouds 10 1022 81 10000 8 290 08:49 01.12.2019
3217 Clouds 11 1022 81 10000 8 290 08:24 01.12.2019
3218 Clouds 12 1022 76 10000 9 300 07:54 01.12.2019
3219 Clouds 12 1021 76 10000 6 300 07:36 01.12.2019
3220 Clouds 12 1021 76 10000 6 300 07:18 01.12.2019
3221 Clouds 13 1021 76 10000 9 300 06:49 01.12.2019
3222 Clouds 12 1022 87 10000 7 300 05:58 01.12.2019
3223 Clouds 12 1022 81 10000 7 290 04:54 01.12.2019
3224 Clouds 12 1022 81 10000 5 300 04:22 01.12.2019
3225 Clouds 11 1023 93 10000 6 310 02:43 01.12.2019
3226 Clouds 11 1023 93 10000 6 310 02:24 01.12.2019
3227 Clouds 11 1022 93 10000 5 310 01:53 01.12.2019
3228 Rain 10 1022 93 10000 7 320 01:26 01.12.2019
3229 Rain 10 1022 93 10000 7 320 01:26 01.12.2019
3230 Rain 11 1021 93 10000 7 320 00:44 01.12.2019
3231 Rain 11 1021 93 8000 7 310 00:24 01.12.2019
3232 Rain 12 1021 93 6000 5 310 23:44 30.11.2019
3233 Rain 12 1021 93 8000 5 300 23:25 30.11.2019
3234 Rain 12 1021 93 6000 5 320 22:58 30.11.2019
3235 Rain 12 1021 93 10000 5 320 22:39 30.11.2019
3236 Rain 12 1021 93 10000 5 320 22:20 30.11.2019
3237 Rain 12 1020 93 10000 5 340 21:44 30.11.2019
3238 Rain 12 1020 93 8000 4 340 21:25 30.11.2019
3239 Rain 12 1021 93 8000 4 340 20:57 30.11.2019
3240 Rain 12 1021 93 8000 4 350 20:38 30.11.2019
3241 Rain 12 1021 93 8000 4 350 20:19 30.11.2019
3242 Rain 12 1021 93 8000 4 350 20:19 30.11.2019
3243 Rain 12 1021 93 10000 5 360 19:55 30.11.2019
3244 Rain 12 1021 93 10000 5 360 19:55 30.11.2019
3245 Rain 12 1021 93 10000 4 360 19:37 30.11.2019
3246 Rain 13 1021 93 10000 4 360 19:19 30.11.2019
3247 Rain 12 1021 93 10000 4 360 18:57 30.11.2019
3248 Rain 12 1022 93 10000 5 10 18:37 30.11.2019
3249 Rain 12 1022 93 10000 5 10 18:19 30.11.2019
3250 Rain 12 1022 93 10000 5 350 17:57 30.11.2019
3251 Rain 12 1022 93 8000 3 30 17:38 30.11.2019
3252 Rain 12 1022 93 8000 3 30 17:19 30.11.2019
3253 Rain 12 1023 93 6000 4 10 16:56 30.11.2019
3254 Rain 12 1023 93 6000 4 10 16:56 30.11.2019
3255 Rain 12 1023 93 6000 5 10 16:37 30.11.2019
3256 Rain 13 1023 93 6000 5 10 16:18 30.11.2019
3257 Rain 12 1023 93 7000 5 10 15:42 30.11.2019
3258 Rain 12 1023 93 7000 5 350 15:42 30.11.2019
3259 Rain 12 1023 93 7000 5 350 15:19 30.11.2019
3260 Rain 12 1023 93 7000 4 360 14:56 30.11.2019
3261 Rain 13 1023 100 7000 3 20 14:38 30.11.2019
3262 Rain 13 1023 100 7000 3 20 14:19 30.11.2019
3263 Rain 13 1024 100 7000 3 10 13:57 30.11.2019
3264 Rain 13 1024 93 7000 3 10 13:36 30.11.2019
3265 Rain 13 1024 93 7000 3 10 13:36 30.11.2019
3266 Rain 13 1024 93 7000 3 10 13:18 30.11.2019
3267 Rain 13 1024 93 10000 3 20 12:43 30.11.2019
3268 Rain 13 1024 93 10000 3 10 12:25 30.11.2019
3269 Rain 13 1024 93 10000 3 60 11:45 30.11.2019
3270 Rain 13 1024 93 10000 3 60 11:20 30.11.2019
3271 Rain 13 1024 100 10000 1 0 10:57 30.11.2019
3272 Rain 13 1024 100 10000 1 0 10:57 30.11.2019
3273 Rain 13 1024 93 6000 2 60 10:39 30.11.2019
3274 Rain 13 1024 93 6000 2 60 10:20 30.11.2019
3275 Rain 14 1024 93 6000 2 70 09:46 30.11.2019
3276 Rain 14 1024 93 6000 2 70 09:46 30.11.2019
3277 Rain 14 1024 93 6000 2 80 09:28 30.11.2019
3278 Rain 14 1024 93 4500 2 90 08:44 30.11.2019
3279 Rain 13 1024 93 4500 2 90 08:23 30.11.2019
3280 Rain 13 1024 93 5000 3 100 07:59 30.11.2019
3281 Rain 14 1024 87 10000 2 60 07:40 30.11.2019
3282 Rain 13 1024 87 10000 2 60 07:21 30.11.2019
3283 Rain 13 1024 82 10000 3 90 06:30 30.11.2019
3284 Clouds 15 1025 82 10000 3 80 05:55 30.11.2019
3285 Clouds 15 1027 71 10000 4 100 03:54 30.11.2019
3286 Rain 16 1028 67 10000 3 100 02:53 30.11.2019
3287 Clouds 14 1028 71 10000 2 70 02:22 30.11.2019
3288 Clouds 13 1028 76 10000 2 20 01:38 30.11.2019
3289 Clouds 13 1028 76 10000 2 20 01:38 30.11.2019
3290 Clouds 13 1028 76 10000 2 20 01:19 30.11.2019
3291 Clouds 13 1028 87 10000 1 0 00:36 30.11.2019
3292 Clouds 13 1028 87 10000 1 0 00:18 30.11.2019
3293 Clouds 12 1028 81 10000 2 20 23:43 29.11.2019
3294 Clouds 12 1028 81 10000 2 360 23:23 29.11.2019
3295 Clouds 12 1028 81 10000 2 350 22:47 29.11.2019
3296 Clouds 12 1028 81 10000 3 340 22:26 29.11.2019
3297 Clouds 12 1027 81 10000 2 40 21:45 29.11.2019
3298 Clouds 12 1027 81 10000 1 330 21:25 29.11.2019
3299 Clouds 12 1028 87 10000 2 340 20:59 29.11.2019
3300 Clouds 12 1028 76 10000 2 80 20:39 29.11.2019
3301 Clouds 11 1028 76 10000 2 80 20:20 29.11.2019
3302 Clouds 12 1028 76 10000 2 360 19:58 29.11.2019
3303 Clouds 12 1028 81 10000 2 350 19:39 29.11.2019
3304 Clouds 12 1028 81 10000 2 350 19:20 29.11.2019
3305 Clouds 12 1029 87 10000 2 360 18:58 29.11.2019
3306 Clouds 12 1029 87 10000 2 350 18:39 29.11.2019
3307 Clouds 12 1029 87 10000 2 350 18:20 29.11.2019
3308 Clouds 11 1029 76 10000 3 360 17:44 29.11.2019
3309 Clouds 11 1029 76 10000 2 360 17:25 29.11.2019
3310 Clouds 10 1029 81 10000 2 10 16:57 29.11.2019
3311 Clouds 11 1029 71 10000 2 30 16:39 29.11.2019
3312 Clouds 11 1029 71 10000 2 30 16:19 29.11.2019
3313 Clouds 11 1030 71 10000 2 60 15:41 29.11.2019
3314 Clouds 11 1030 71 10000 2 60 15:23 29.11.2019
3315 Clouds 11 1030 66 10000 3 50 14:56 29.11.2019
3316 Clouds 12 1030 66 10000 3 70 14:38 29.11.2019
3317 Clouds 11 1030 66 10000 3 70 14:19 29.11.2019
3318 Clouds 11 1030 66 10000 3 70 14:19 29.11.2019
3319 Clouds 11 1030 66 10000 4 60 13:41 29.11.2019
3320 Clouds 11 1030 66 10000 4 60 13:21 29.11.2019
3321 Clouds 11 1030 66 10000 5 50 12:57 29.11.2019
3322 Clouds 11 1030 62 10000 5 50 12:39 29.11.2019
3323 Clouds 11 1030 62 10000 5 50 12:39 29.11.2019
3324 Clouds 11 1030 62 10000 5 50 12:20 29.11.2019
3325 Clouds 12 1030 66 10000 7 30 11:54 29.11.2019
3326 Clouds 12 1030 66 10000 6 50 11:36 29.11.2019
3327 Clouds 12 1030 66 10000 6 50 11:18 29.11.2019
3328 Clouds 11 1031 66 10000 4 30 10:55 29.11.2019
3329 Clouds 11 1031 66 10000 5 30 10:36 29.11.2019
3330 Clouds 12 1031 66 10000 5 30 10:18 29.11.2019
3331 Clouds 11 1031 62 10000 4 30 09:41 29.11.2019
3332 Clouds 12 1031 62 10000 4 30 09:22 29.11.2019
3333 Clouds 12 1030 62 10000 6 40 08:59 29.11.2019
3334 Clouds 12 1030 58 10000 7 30 08:38 29.11.2019
3335 Clouds 12 1030 58 10000 7 30 08:20 29.11.2019
3336 Clouds 12 1030 58 10000 6 40 07:47 29.11.2019
3337 Clouds 13 1031 62 10000 6 20 07:24 29.11.2019
3338 Clouds 13 1031 58 10000 6 10 06:58 29.11.2019
3339 Clouds 13 1032 62 10000 6 10 06:37 29.11.2019
3340 Clouds 14 1032 58 10000 6 10 05:47 29.11.2019
3341 Clouds 13 1032 58 10000 5 10 05:23 29.11.2019
3342 Clouds 13 1033 62 10000 6 330 03:58 29.11.2019
3343 Clouds 12 1033 62 10000 5 320 03:19 29.11.2019
3344 Clouds 11 1033 66 10000 4 320 02:28 29.11.2019
3345 Clouds 12 1032 70 10000 3 330 01:50 29.11.2019
3346 Clouds 12 1032 70 10000 3 330 01:24 29.11.2019
3347 Clouds 11 1032 70 10000 4 340 00:41 29.11.2019
3348 Clouds 10 1031 70 10000 4 340 00:20 29.11.2019
3349 Clouds 10 1031 70 10000 4 330 23:44 28.11.2019
3350 Clouds 9 1031 75 10000 4 330 23:21 28.11.2019
3351 Clouds 9 1031 75 10000 4 330 23:21 28.11.2019
3352 Clouds 9 1031 70 10000 2 320 22:57 28.11.2019
3353 Clouds 9 1031 70 10000 3 310 22:37 28.11.2019
3354 Clouds 9 1031 70 10000 3 310 22:19 28.11.2019
3355 Clouds 9 1031 70 10000 3 310 21:56 28.11.2019
3356 Clouds 9 1031 70 10000 3 300 21:37 28.11.2019
3357 Clouds 9 1031 70 10000 3 300 21:18 28.11.2019
3358 Clouds 9 1031 70 10000 3 340 20:42 28.11.2019
3359 Clouds 9 1031 70 10000 3 340 20:22 28.11.2019
3360 Clouds 9 1032 70 10000 4 330 19:58 28.11.2019
3361 Clouds 9 1032 70 10000 4 330 19:40 28.11.2019
3362 Clouds 9 1032 70 10000 4 330 19:22 28.11.2019
3363 Clouds 9 1032 70 10000 3 330 18:59 28.11.2019
3364 Clouds 9 1032 70 10000 3 320 18:39 28.11.2019
3365 Clouds 9 1032 70 10000 3 320 18:18 28.11.2019
3366 Clouds 9 1032 70 10000 3 340 17:59 28.11.2019
3367 Clouds 9 1032 70 10000 4 360 17:41 28.11.2019
3368 Clouds 9 1032 70 10000 4 360 17:21 28.11.2019
3369 Clouds 9 1032 65 10000 5 360 16:56 28.11.2019
3370 Clouds 9 1032 65 10000 5 360 16:55 28.11.2019
3371 Clouds 9 1032 65 10000 5 340 16:37 28.11.2019
3372 Clouds 9 1032 65 10000 5 340 16:18 28.11.2019
3373 Clouds 10 1033 65 10000 5 340 15:41 28.11.2019
3374 Clouds 9 1033 65 10000 5 340 15:20 28.11.2019
3375 Clouds 9 1033 65 10000 5 350 14:58 28.11.2019
3376 Clouds 10 1033 61 10000 5 340 14:39 28.11.2019
3377 Clouds 10 1033 61 10000 5 340 14:20 28.11.2019
3378 Clouds 9 1033 61 10000 6 350 13:44 28.11.2019
3379 Clouds 9 1033 61 10000 5 340 13:24 28.11.2019
3380 Clouds 9 1033 61 10000 5 340 13:24 28.11.2019
3381 Clouds 9 1032 61 10000 6 350 12:59 28.11.2019
3382 Clouds 9 1032 61 10000 6 340 12:40 28.11.2019
3383 Clouds 9 1032 61 10000 6 340 12:22 28.11.2019
3384 Clouds 9 1032 61 10000 8 350 11:56 28.11.2019
3385 Clouds 9 1032 61 10000 8 350 11:38 28.11.2019
3386 Clouds 9 1032 61 10000 8 350 11:19 28.11.2019
3387 Clouds 9 1032 61 10000 8 350 11:19 28.11.2019
3388 Clouds 9 1032 57 10000 6 360 10:42 28.11.2019
3389 Clouds 10 1032 57 10000 7 360 10:22 28.11.2019
3390 Clouds 10 1032 57 10000 8 350 09:56 28.11.2019
3391 Clouds 10 1031 57 10000 7 360 09:38 28.11.2019
3392 Clouds 10 1031 57 10000 7 360 09:38 28.11.2019
3393 Clouds 10 1031 53 10000 8 360 09:19 28.11.2019
3394 Clouds 11 1031 53 10000 7 350 08:41 28.11.2019
3395 Clouds 11 1031 53 10000 7 350 08:22 28.11.2019
3396 Clouds 12 1031 53 10000 7 340 07:56 28.11.2019
3397 Clouds 12 1031 53 10000 7 350 07:38 28.11.2019
3398 Clouds 12 1031 53 10000 7 350 07:18 28.11.2019
3399 Clouds 12 1031 53 10000 7 20 06:40 28.11.2019
3400 Clouds 12 1032 53 10000 7 360 05:53 28.11.2019
3401 Clouds 11 1032 53 10000 8 360 05:34 28.11.2019
3402 Clouds 12 1033 57 10000 8 350 03:52 28.11.2019
3403 Clouds 12 1034 66 10000 7 350 02:30 28.11.2019
3404 Clouds 10 1033 66 10000 7 350 01:23 28.11.2019
3405 Clouds 9 1033 70 10000 6 350 00:39 28.11.2019
3406 Clouds 8 1032 65 10000 5 360 00:18 28.11.2019
3407 Clouds 8 1032 65 10000 6 360 23:38 27.11.2019
3408 Clouds 8 1032 65 10000 6 360 23:20 27.11.2019
3409 Clouds 8 1032 65 10000 7 10 22:56 27.11.2019
3410 Clouds 8 1032 65 10000 8 360 22:37 27.11.2019
3411 Clouds 8 1032 65 10000 8 360 22:18 27.11.2019
3412 Clouds 9 1031 70 10000 7 360 21:55 27.11.2019
3413 Clouds 9 1032 70 10000 9 350 21:36 27.11.2019
3414 Clouds 9 1032 70 10000 9 350 21:18 27.11.2019
3415 Clouds 10 1031 70 10000 7 360 20:56 27.11.2019
3416 Clouds 10 1031 70 10000 7 360 20:56 27.11.2019
3417 Clouds 10 1031 70 10000 7 360 20:36 27.11.2019
3418 Clouds 10 1031 70 10000 7 360 20:18 27.11.2019
3419 Clouds 10 1031 70 10000 8 360 19:54 27.11.2019
3420 Clouds 10 1031 76 10000 8 10 19:36 27.11.2019
3421 Clouds 10 1031 76 10000 8 10 19:18 27.11.2019
3422 Clouds 10 1031 81 10000 6 360 18:38 27.11.2019
3423 Clouds 10 1031 81 10000 6 360 18:38 27.11.2019
3424 Clouds 10 1031 81 10000 6 360 18:20 27.11.2019
3425 Clouds 10 1031 87 10000 5 360 17:59 27.11.2019
3426 Clouds 10 1031 87 10000 5 360 17:41 27.11.2019
3427 Clouds 10 1031 87 10000 5 360 17:23 27.11.2019
3428 Rain 9 1031 93 10000 5 360 16:58 27.11.2019
3429 Rain 9 1031 93 10000 5 360 16:58 27.11.2019
3430 Rain 9 1031 93 7000 6 350 16:39 27.11.2019
3431 Rain 9 1031 93 7000 6 350 16:21 27.11.2019
3432 Rain 10 1031 93 6000 7 330 15:58 27.11.2019
3433 Rain 10 1031 93 7000 6 330 15:39 27.11.2019
3434 Rain 9 1031 93 7000 6 330 15:21 27.11.2019
3435 Rain 9 1031 93 7000 6 330 14:58 27.11.2019
3436 Rain 9 1031 93 10000 6 340 14:39 27.11.2019
3437 Rain 9 1031 93 10000 6 340 14:39 27.11.2019
3438 Rain 9 1031 93 10000 6 340 14:21 27.11.2019
3439 Rain 9 1031 93 10000 5 350 13:58 27.11.2019
3440 Rain 9 1031 93 10000 5 350 13:58 27.11.2019
3441 Rain 9 1031 93 10000 5 320 13:39 27.11.2019
3442 Rain 9 1031 93 10000 5 320 13:19 27.11.2019
3443 Rain 9 1030 93 10000 5 330 12:56 27.11.2019
3444 Rain 9 1030 93 10000 4 340 12:38 27.11.2019
3445 Rain 9 1030 93 10000 5 360 12:19 27.11.2019
3446 Rain 9 1030 93 10000 6 350 11:38 27.11.2019
3447 Rain 10 1029 93 10000 6 360 11:19 27.11.2019
3448 Rain 9 1029 93 10000 6 360 10:57 27.11.2019
3449 Rain 9 1029 93 10000 5 10 10:39 27.11.2019
3450 Rain 10 1029 93 10000 5 10 10:21 27.11.2019
3451 Rain 10 1028 87 10000 6 360 09:43 27.11.2019
3452 Rain 10 1028 87 10000 6 360 09:25 27.11.2019
3453 Rain 10 1028 93 8000 6 10 08:44 27.11.2019
3454 Rain 10 1028 93 8000 6 10 08:25 27.11.2019
3455 Rain 10 1027 93 6000 7 360 07:59 27.11.2019
3456 Rain 10 1027 93 6000 5 10 07:41 27.11.2019
3457 Rain 10 1027 93 7000 6 10 07:21 27.11.2019
3458 Rain 10 1027 87 7000 6 10 06:46 27.11.2019
3459 Clouds 10 1027 81 10000 7 10 06:26 27.11.2019
3460 Clouds 10 1028 87 10000 5 20 05:27 27.11.2019
3461 Clouds 10 1028 81 10000 7 10 04:57 27.11.2019
3462 Clouds 11 1029 87 10000 6 10 04:37 27.11.2019
3463 Clouds 10 1029 87 10000 7 360 03:50 27.11.2019
3464 Rain 11 1029 87 10000 6 10 03:21 27.11.2019
3465 Rain 11 1029 87 10000 6 360 02:54 27.11.2019
3466 Clouds 11 1029 93 7000 5 360 01:34 27.11.2019
3467 Clouds 10 1029 93 7000 5 360 00:42 27.11.2019
3468 Clouds 10 1029 93 7000 5 360 00:24 27.11.2019
3469 Clouds 10 1028 93 10000 4 10 23:44 26.11.2019
3470 Clouds 10 1028 93 10000 4 10 23:25 26.11.2019
3471 Clouds 10 1028 93 10000 5 10 22:56 26.11.2019
3472 Clouds 10 1028 81 10000 6 10 22:38 26.11.2019
3473 Clouds 10 1028 81 10000 6 10 22:19 26.11.2019
3474 Clouds 10 1028 81 10000 5 20 21:40 26.11.2019
3475 Clouds 10 1028 81 10000 5 20 21:21 26.11.2019
3476 Clouds 11 1028 81 10000 4 10 20:58 26.11.2019
3477 Clouds 11 1028 81 10000 4 10 20:39 26.11.2019
3478 Clouds 10 1028 81 10000 4 10 20:20 26.11.2019
3479 Clouds 11 1028 81 10000 5 360 19:56 26.11.2019
3480 Clouds 11 1028 76 10000 5 10 19:38 26.11.2019
3481 Clouds 11 1028 76 10000 5 10 19:20 26.11.2019
3482 Clouds 11 1028 76 10000 4 360 18:59 26.11.2019
3483 Clouds 11 1028 76 10000 3 10 18:40 26.11.2019
3484 Clouds 11 1028 76 10000 4 360 18:21 26.11.2019
3485 Clouds 11 1029 76 10000 3 360 17:59 26.11.2019
3486 Clouds 11 1029 76 10000 3 360 17:41 26.11.2019
3487 Clouds 11 1029 76 10000 3 350 17:22 26.11.2019
3488 Clouds 11 1029 76 10000 3 350 16:57 26.11.2019
3489 Clouds 11 1029 81 10000 2 10 16:38 26.11.2019
3490 Clouds 11 1029 81 10000 2 10 16:19 26.11.2019
3491 Clouds 11 1029 76 10000 2 30 15:59 26.11.2019
3492 Clouds 11 1029 76 10000 3 30 15:38 26.11.2019
3493 Clouds 11 1029 76 10000 3 30 15:20 26.11.2019
3494 Clouds 11 1029 76 10000 3 30 14:51 26.11.2019
3495 Clouds 11 1029 81 10000 4 30 14:26 26.11.2019
3496 Clouds 11 1029 76 10000 3 40 13:59 26.11.2019
3497 Clouds 11 1029 76 10000 4 30 13:40 26.11.2019
3498 Clouds 11 1029 76 10000 4 30 13:22 26.11.2019
3499 Clouds 11 1028 76 10000 4 40 12:40 26.11.2019
3500 Rain 11 1029 76 10000 3 20 12:22 26.11.2019
3501 Rain 11 1028 76 10000 4 10 11:59 26.11.2019
3502 Rain 11 1028 76 10000 4 10 11:39 26.11.2019
3503 Rain 11 1028 71 10000 4 10 11:20 26.11.2019
3504 Rain 12 1028 71 10000 4 10 10:58 26.11.2019
3505 Rain 12 1028 71 10000 4 10 10:40 26.11.2019
3506 Rain 12 1028 71 10000 4 10 10:21 26.11.2019
3507 Rain 12 1027 66 10000 4 360 09:57 26.11.2019
3508 Clouds 12 1028 58 10000 3 360 09:37 26.11.2019
3509 Clouds 12 1028 58 10000 3 360 09:18 26.11.2019
3510 Clouds 13 1028 54 10000 3 20 08:43 26.11.2019
3511 Clouds 13 1028 54 10000 3 20 08:43 26.11.2019
3512 Clouds 13 1028 54 10000 3 20 08:24 26.11.2019
3513 Clouds 14 1028 54 10000 5 10 07:46 26.11.2019
3514 Clouds 14 1028 54 10000 3 360 07:27 26.11.2019
3515 Clouds 14 1028 54 10000 1 0 06:55 26.11.2019
3516 Clouds 14 1029 54 10000 2 360 06:35 26.11.2019
3517 Clouds 13 1029 62 10000 4 30 05:52 26.11.2019
3518 Clouds 13 1029 62 10000 4 30 05:52 26.11.2019
3519 Clouds 14 1031 66 10000 4 360 03:59 26.11.2019
3520 Clouds 13 1031 66 10000 5 10 02:52 26.11.2019
3521 Clouds 10 1031 70 10000 4 360 01:33 26.11.2019
3522 Clouds 10 1031 70 10000 4 360 00:52 26.11.2019
3523 Clouds 10 1031 75 10000 3 340 00:29 26.11.2019
3524 Clouds 9 1031 75 10000 3 340 23:41 25.11.2019
3525 Clouds 9 1031 75 10000 3 330 23:21 25.11.2019
3526 Clouds 9 1031 75 10000 3 330 22:59 25.11.2019
3527 Clouds 8 1030 81 10000 3 340 22:38 25.11.2019
3528 Clouds 8 1030 81 10000 3 340 22:38 25.11.2019
3529 Clouds 8 1030 81 10000 3 340 22:18 25.11.2019
3530 Clouds 9 1030 81 10000 3 340 21:58 25.11.2019
3531 Clouds 10 1030 81 10000 3 340 21:39 25.11.2019
3532 Clouds 10 1030 81 10000 3 340 21:20 25.11.2019
3533 Clouds 10 1031 75 10000 3 330 20:56 25.11.2019
3534 Clouds 9 1031 81 10000 4 340 20:38 25.11.2019
3535 Clouds 8 1031 81 10000 4 340 20:19 25.11.2019
3536 Clouds 9 1031 81 10000 4 340 19:56 25.11.2019
3537 Clouds 9 1031 81 10000 4 340 19:56 25.11.2019
3538 Clouds 9 1031 75 10000 4 340 19:37 25.11.2019
3539 Clouds 9 1031 81 10000 4 340 19:18 25.11.2019
3540 Clouds 9 1031 81 10000 4 340 18:56 25.11.2019
3541 Clouds 9 1031 75 10000 4 350 18:38 25.11.2019
3542 Clouds 9 1031 75 10000 4 350 18:38 25.11.2019
3543 Clouds 9 1031 75 10000 5 350 18:19 25.11.2019
3544 Clouds 9 1031 75 10000 5 350 17:56 25.11.2019
3545 Clouds 9 1032 70 10000 6 350 17:37 25.11.2019
3546 Clouds 9 1032 70 10000 6 350 17:18 25.11.2019
3547 Clouds 9 1032 70 10000 6 350 16:55 25.11.2019
3548 Clouds 9 1032 70 10000 5 340 16:37 25.11.2019
3549 Clouds 9 1032 70 10000 5 340 16:18 25.11.2019
3550 Clouds 9 1033 75 10000 4 330 15:41 25.11.2019
3551 Clouds 9 1033 75 10000 4 330 15:21 25.11.2019
3552 Clouds 9 1033 75 10000 4 330 14:57 25.11.2019
3553 Clouds 9 1033 75 10000 5 330 14:39 25.11.2019
3554 Clouds 9 1033 75 10000 5 330 14:20 25.11.2019
3555 Clouds 8 1033 75 10000 4 330 13:40 25.11.2019
3556 Clouds 8 1033 75 10000 4 330 13:21 25.11.2019
3557 Clouds 8 1033 75 10000 3 360 12:59 25.11.2019
3558 Clouds 8 1033 75 10000 3 360 12:59 25.11.2019
3559 Clouds 8 1033 75 10000 4 360 12:40 25.11.2019
3560 Clouds 9 1033 75 10000 5 360 12:21 25.11.2019
3561 Clouds 8 1033 75 10000 5 360 11:57 25.11.2019
3562 Clouds 8 1033 81 10000 6 360 11:38 25.11.2019
3563 Rain 8 1032 81 10000 7 360 11:19 25.11.2019
3564 Rain 8 1032 81 10000 7 360 10:42 25.11.2019
3565 Rain 8 1032 81 10000 7 360 10:23 25.11.2019
3566 Clouds 9 1032 75 10000 6 360 09:56 25.11.2019
3567 Clouds 9 1032 75 10000 8 350 09:37 25.11.2019
3568 Clouds 8 1032 75 10000 8 350 09:18 25.11.2019
3569 Clouds 8 1032 75 10000 8 350 09:18 25.11.2019
3570 Clouds 9 1032 66 10000 8 10 08:39 25.11.2019
3571 Clouds 9 1032 66 10000 8 10 08:20 25.11.2019
3572 Clouds 10 1032 66 10000 9 350 07:42 25.11.2019
3573 Clouds 10 1032 66 10000 9 350 07:24 25.11.2019
3574 Clouds 10 1032 66 10000 9 350 06:48 25.11.2019
3575 Clouds 10 1033 70 10000 7 360 06:21 25.11.2019
3576 Clouds 10 1033 76 10000 8 360 05:38 25.11.2019
3577 Clouds 9 1033 76 10000 8 360 04:52 25.11.2019
3578 Clouds 10 1034 61 10000 8 10 02:51 25.11.2019
3579 Clouds 10 1034 61 10000 7 10 02:19 25.11.2019
3580 Clouds 10 1033 61 10000 9 10 01:39 25.11.2019
3581 Clouds 10 1033 61 10000 9 10 01:20 25.11.2019
3582 Clouds 10 1032 66 10000 10 10 00:22 25.11.2019
3583 Clouds 10 1032 66 10000 10 10 23:57 24.11.2019
3584 Clouds 10 1031 66 10000 10 10 23:37 24.11.2019
3585 Clouds 11 1031 66 10000 11 360 23:18 24.11.2019
3586 Clouds 11 1031 66 10000 10 10 22:42 24.11.2019
3587 Clouds 11 1031 66 10000 10 10 22:21 24.11.2019
3588 Clouds 11 1030 66 10000 9 360 21:59 24.11.2019
3589 Clouds 11 1030 71 10000 9 350 21:41 24.11.2019
3590 Clouds 11 1030 71 10000 9 350 21:21 24.11.2019
3591 Clouds 11 1030 76 10000 9 350 20:59 24.11.2019
3592 Clouds 12 1030 66 10000 9 10 20:39 24.11.2019
3593 Clouds 12 1030 66 10000 9 10 20:19 24.11.2019
3594 Clouds 12 1030 66 10000 8 360 19:57 24.11.2019
3595 Clouds 12 1029 62 10000 11 20 19:38 24.11.2019
3596 Clouds 12 1029 62 10000 10 10 19:20 24.11.2019
3597 Clouds 12 1029 62 10000 10 10 18:59 24.11.2019
3598 Clouds 12 1029 62 10000 10 20 18:38 24.11.2019
3599 Clouds 12 1029 66 10000 10 20 18:19 24.11.2019
3600 Clouds 12 1029 66 10000 10 20 17:56 24.11.2019
3601 Clouds 12 1029 66 10000 10 20 17:56 24.11.2019
3602 Clouds 13 1029 66 10000 12 20 17:38 24.11.2019
3603 Clouds 13 1029 76 10000 10 10 17:20 24.11.2019
3604 Clouds 13 1029 76 10000 10 10 17:20 24.11.2019
3605 Clouds 13 1029 76 10000 10 10 16:57 24.11.2019
3606 Rain 13 1029 87 10000 10 10 16:39 24.11.2019
3607 Rain 13 1029 87 10000 10 10 16:20 24.11.2019
3608 Rain 13 1028 87 10000 11 10 15:44 24.11.2019
3609 Rain 13 1028 87 10000 10 20 15:26 24.11.2019
3610 Rain 13 1027 93 10000 10 10 14:58 24.11.2019
3611 Rain 13 1027 93 10000 10 10 14:58 24.11.2019
3612 Rain 14 1027 87 10000 10 10 14:38 24.11.2019
3613 Rain 14 1027 87 10000 10 10 14:18 24.11.2019
3614 Rain 14 1027 87 10000 9 20 13:54 24.11.2019
3615 Rain 14 1026 87 10000 11 10 13:36 24.11.2019
3616 Rain 14 1026 87 10000 11 10 13:18 24.11.2019
3617 Rain 15 1025 87 10000 10 10 12:41 24.11.2019
3618 Rain 15 1025 87 10000 11 10 12:19 24.11.2019
3619 Rain 16 1024 87 10000 11 10 11:57 24.11.2019
3620 Rain 16 1024 87 10000 11 10 11:37 24.11.2019
3621 Rain 16 1023 82 10000 11 10 11:18 24.11.2019
3622 Rain 17 1023 82 10000 11 10 10:47 24.11.2019
3623 Clouds 18 1021 73 7000 8 350 10:29 24.11.2019
3624 Clouds 20 1021 73 7000 6 350 09:57 24.11.2019
3625 Clouds 20 1021 68 7000 8 350 09:37 24.11.2019
3626 Clouds 21 1021 68 7000 8 350 09:18 24.11.2019
3627 Clouds 21 1020 68 8000 4 30 08:44 24.11.2019
3628 Clouds 22 1020 68 8000 4 30 08:22 24.11.2019
3629 Clouds 23 1020 64 8000 4 10 07:58 24.11.2019
3630 Clouds 23 1020 64 8000 5 20 07:37 24.11.2019
3631 Clouds 23 1019 64 7000 5 20 07:19 24.11.2019
3632 Clouds 22 1019 64 8000 3 10 06:19 24.11.2019
3633 Clouds 22 1020 68 8000 2 330 04:48 24.11.2019
3634 Clouds 23 1020 73 8000 4 10 03:33 24.11.2019
3635 Clouds 20 1020 77 8000 4 330 02:22 24.11.2019
3636 Clouds 20 1020 88 8000 3 330 01:40 24.11.2019
3637 Clouds 20 1020 88 8000 3 330 01:21 24.11.2019
3638 Clouds 19 1019 82 10000 3 310 00:47 24.11.2019
3639 Clouds 19 1019 82 10000 3 310 00:23 24.11.2019
3640 Clouds 19 1019 82 10000 3 310 00:23 24.11.2019
3641 Clouds 19 1018 82 10000 2 300 23:45 23.11.2019
3642 Clouds 19 1018 82 10000 2 300 23:22 23.11.2019
3643 Clouds 19 1018 82 10000 2 300 22:59 23.11.2019
3644 Clouds 19 1018 82 10000 2 300 22:59 23.11.2019
3645 Clouds 19 1018 82 10000 3 310 22:40 23.11.2019
3646 Clouds 19 1018 82 10000 3 310 22:22 23.11.2019
3647 Clouds 19 1018 82 10000 2 310 21:58 23.11.2019
3648 Clouds 19 1017 93 10000 1 320 21:40 23.11.2019
3649 Clouds 19 1017 93 10000 1 320 21:21 23.11.2019
3650 Clouds 19 1018 93 10000 2 330 20:55 23.11.2019
3651 Clouds 19 1017 93 10000 1 330 20:36 23.11.2019
3652 Clouds 19 1017 93 10000 1 330 20:18 23.11.2019
3653 Clouds 19 1018 93 10000 1 0 19:54 23.11.2019
3654 Clouds 19 1018 93 10000 1 200 19:36 23.11.2019
3655 Clouds 19 1018 93 10000 1 200 19:36 23.11.2019
3656 Clouds 19 1018 88 10000 1 160 19:18 23.11.2019
3657 Clouds 19 1018 88 10000 1 0 18:39 23.11.2019
3658 Clouds 19 1018 88 10000 1 0 18:20 23.11.2019
3659 Clouds 19 1018 88 10000 2 80 17:54 23.11.2019
3660 Clouds 19 1018 88 10000 2 80 17:36 23.11.2019
3661 Clouds 19 1018 88 10000 1 0 17:18 23.11.2019
3662 Clouds 19 1018 88 10000 1 0 16:54 23.11.2019
3663 Clouds 19 1018 88 10000 1 0 16:36 23.11.2019
3664 Clouds 19 1018 88 10000 1 0 16:18 23.11.2019
3665 Clouds 19 1018 88 10000 1 0 15:39 23.11.2019
3666 Clouds 19 1018 88 10000 1 0 15:19 23.11.2019
3667 Clouds 19 1018 88 10000 2 110 14:58 23.11.2019
3668 Clouds 19 1018 88 10000 1 0 14:39 23.11.2019
3669 Clouds 19 1018 88 10000 1 0 14:21 23.11.2019
3670 -273 0 0 0 0 0 13:54 23.11.2019
3671 Clouds 19 1018 88 10000 2 130 13:36 23.11.2019
3672 Clouds 19 1018 88 10000 2 130 13:36 23.11.2019
3673 Clouds 19 1018 88 10000 2 130 13:18 23.11.2019
3674 Clouds 19 1018 88 10000 2 130 13:18 23.11.2019
3675 Clouds 19 1018 88 10000 3 130 12:41 23.11.2019
3676 Clouds 19 1018 88 10000 4 140 12:23 23.11.2019
3677 Clouds 19 1017 88 10000 3 130 11:45 23.11.2019
3678 Clouds 20 1017 88 10000 3 110 11:23 23.11.2019
3679 Clouds 20 1017 88 10000 4 120 10:45 23.11.2019
3680 Clouds 20 1017 88 10000 4 120 10:23 23.11.2019
3681 Clouds 20 1017 88 10000 4 130 09:58 23.11.2019
3682 Clouds 21 1017 83 10000 3 130 09:39 23.11.2019
3683 Clouds 20 1017 83 10000 3 130 09:18 23.11.2019
3684 Clouds 21 1017 88 10000 2 120 08:41 23.11.2019
3685 Clouds 21 1017 88 10000 2 120 08:18 23.11.2019
3686 Rain 21 1018 83 10000 2 140 07:41 23.11.2019
3687 Clouds 21 1018 83 8000 2 130 06:52 23.11.2019
3688 Clouds 21 1018 83 8000 2 130 06:26 23.11.2019
3689 Rain 21 1018 88 8000 3 150 05:57 23.11.2019
3690 Clouds 21 1019 78 10000 2 150 05:31 23.11.2019
3691 Clouds 22 1019 78 10000 3 140 04:54 23.11.2019
3692 Clouds 22 1020 78 10000 3 150 04:31 23.11.2019
3693 Clouds 22 1020 78 10000 5 130 03:25 23.11.2019
3694 Clouds 21 1020 82 10000 5 110 02:31 23.11.2019
3695 Clouds 20 1020 82 10000 4 110 01:39 23.11.2019
3696 Clouds 19 1020 82 10000 3 120 00:45 23.11.2019
3697 Clouds 19 1020 82 10000 2 100 00:19 23.11.2019
3698 Clouds 18 1020 82 10000 2 100 23:43 22.11.2019
3699 Rain 18 1020 88 10000 4 100 23:21 22.11.2019
3700 Rain 18 1020 88 10000 4 100 22:58 22.11.2019
3701 Clouds 18 1020 93 10000 2 100 22:39 22.11.2019
3702 Clouds 18 1020 93 10000 2 100 22:20 22.11.2019
3703 Clouds 18 1020 93 10000 1 100 21:59 22.11.2019
3704 Clouds 18 1020 93 10000 2 80 21:39 22.11.2019
3705 Clouds 18 1020 93 10000 2 80 21:20 22.11.2019
3706 Clouds 18 1020 93 10000 3 80 20:43 22.11.2019
3707 Clear 18 1020 93 10000 2 90 20:22 22.11.2019
3708 Clear 18 1020 93 10000 2 100 19:57 22.11.2019
3709 Clear 18 1020 88 10000 2 110 19:38 22.11.2019
3710 Clear 18 1020 88 10000 2 110 19:19 22.11.2019
3711 Clear 18 1020 88 10000 2 110 19:19 22.11.2019
3712 Clouds 18 1020 93 8000 1 90 18:41 22.11.2019
3713 Clouds 18 1020 93 8000 1 90 18:22 22.11.2019
3714 Clouds 18 1020 93 8000 1 100 17:59 22.11.2019
3715 Clouds 18 1020 93 8000 1 0 17:40 22.11.2019
3716 Clouds 18 1020 93 8000 1 0 17:22 22.11.2019
3717 Clouds 18 1020 93 8000 1 0 16:47 22.11.2019
3718 Clouds 18 1020 93 8000 1 0 16:28 22.11.2019
3719 Clouds 18 1020 93 8000 2 120 15:47 22.11.2019
3720 Clear 18 1020 88 10000 3 130 15:25 22.11.2019
3721 Clear 18 1020 88 10000 2 110 14:57 22.11.2019
3722 Clouds 18 1020 88 10000 3 120 14:39 22.11.2019
3723 Clouds 18 1020 88 10000 3 120 14:21 22.11.2019
3724 Clouds 18 1021 88 10000 3 110 13:59 22.11.2019
3725 Clouds 19 1021 82 10000 3 110 13:37 22.11.2019
3726 Clouds 19 1021 82 10000 3 110 13:19 22.11.2019
3727 Clouds 19 1021 82 10000 2 110 12:57 22.11.2019
3728 Clouds 19 1021 82 10000 2 110 12:39 22.11.2019
3729 Clouds 19 1021 82 10000 2 110 12:18 22.11.2019
3730 Clouds 19 1021 82 10000 4 120 11:55 22.11.2019
3731 Clouds 19 1020 82 10000 4 110 11:36 22.11.2019
3732 Clouds 19 1020 82 10000 3 100 11:18 22.11.2019
3733 Clouds 19 1020 82 10000 3 100 11:18 22.11.2019
3734 Clouds 20 1020 77 10000 3 100 10:40 22.11.2019
3735 Clouds 20 1020 77 10000 3 100 10:22 22.11.2019
3736 Clouds 20 1020 77 10000 3 100 10:22 22.11.2019
3737 Clouds 20 1020 73 10000 2 120 09:57 22.11.2019
3738 Clouds 21 1020 73 10000 3 100 09:39 22.11.2019
3739 Clouds 21 1020 73 10000 3 100 09:21 22.11.2019
3740 Clouds 21 1020 73 10000 4 100 08:46 22.11.2019
3741 Clouds 21 1019 73 10000 3 100 08:27 22.11.2019
3742 Clouds 21 1019 73 10000 3 100 08:27 22.11.2019
3743 Clouds 22 1020 68 10000 4 100 07:46 22.11.2019
3744 Clouds 22 1020 68 10000 3 90 07:23 22.11.2019
3745 Clouds 21 1020 73 10000 4 60 06:57 22.11.2019
3746 Clouds 22 1020 68 10000 3 90 06:37 22.11.2019
3747 Clouds 23 1021 68 10000 4 70 05:49 22.11.2019
3748 Clouds 21 1021 68 10000 4 100 04:51 22.11.2019
3749 Clouds 21 1023 77 8000 2 30 02:55 22.11.2019
3750 Clouds 21 1023 82 10000 3 10 02:31 22.11.2019
3751 Clouds 19 1023 82 10000 2 10 01:45 22.11.2019
3752 Clouds 18 1022 87 10000 2 360 01:20 22.11.2019
3753 Clouds 17 1022 87 10000 3 10 00:53 22.11.2019
3754 Clouds 16 1022 82 10000 2 360 00:24 22.11.2019
3755 Clouds 17 1022 87 10000 2 340 23:49 21.11.2019
3756 Clouds 16 1022 87 10000 2 360 23:31 21.11.2019
3757 Clouds 16 1022 87 10000 3 360 22:59 21.11.2019
3758 Clouds 16 1022 87 10000 2 350 22:40 21.11.2019
3759 Clouds 16 1022 87 10000 2 350 22:22 21.11.2019
3760 Clouds 16 1021 87 10000 3 360 21:57 21.11.2019
3761 Clouds 16 1021 87 10000 2 340 21:38 21.11.2019
3762 Clouds 16 1021 87 10000 2 340 21:19 21.11.2019
3763 Clouds 16 1021 87 10000 2 350 20:58 21.11.2019
3764 Clouds 15 1022 87 10000 2 10 20:39 21.11.2019
3765 Clouds 15 1022 87 10000 2 10 20:19 21.11.2019
3766 Clouds 15 1022 87 10000 2 350 19:59 21.11.2019
3767 Clouds 16 1022 87 10000 2 360 19:41 21.11.2019
3768 Clouds 15 1022 87 10000 2 360 19:22 21.11.2019
3769 Clouds 15 1023 87 10000 1 350 18:57 21.11.2019
3770 Clouds 15 1023 87 10000 2 360 18:38 21.11.2019
3771 Clouds 15 1023 87 10000 2 360 18:19 21.11.2019
3772 Clouds 15 1023 82 10000 1 360 17:57 21.11.2019
3773 Clouds 15 1024 82 10000 1 0 17:38 21.11.2019
3774 Clouds 15 1024 82 10000 1 0 17:19 21.11.2019
3775 Clouds 15 1024 82 10000 2 360 16:41 21.11.2019
3776 Clouds 15 1024 82 10000 2 360 16:21 21.11.2019
3777 Clouds 16 1024 77 10000 1 80 15:57 21.11.2019
3778 Clouds 16 1024 72 10000 2 90 15:38 21.11.2019
3779 Clouds 16 1024 72 10000 2 90 15:19 21.11.2019
3780 Clouds 16 1025 72 10000 2 80 14:55 21.11.2019
3781 Clouds 16 1025 72 10000 2 80 14:36 21.11.2019
3782 Clouds 15 1025 72 10000 2 80 14:18 21.11.2019
3783 Clouds 16 1025 67 10000 3 80 13:39 21.11.2019
3784 Clouds 16 1025 67 10000 3 80 13:20 21.11.2019
3785 Clouds 16 1025 67 10000 3 90 12:56 21.11.2019
3786 Clouds 16 1025 67 10000 3 80 12:37 21.11.2019
3787 Clouds 16 1025 67 10000 3 80 12:19 21.11.2019
3788 Clouds 16 1025 63 10000 2 70 11:41 21.11.2019
3789 Clouds 16 1025 63 10000 2 70 11:41 21.11.2019
3790 Clouds 16 1025 63 10000 2 70 11:21 21.11.2019
3791 Clouds 16 1024 59 10000 3 70 10:59 21.11.2019
3792 Clouds 17 1024 59 10000 3 90 10:41 21.11.2019
3793 Clouds 16 1024 59 10000 3 90 10:20 21.11.2019
3794 Clouds 17 1024 59 10000 3 90 09:56 21.11.2019
3795 Clouds 17 1024 55 10000 3 90 09:37 21.11.2019
3796 Clouds 17 1024 55 10000 3 90 09:19 21.11.2019
3797 Clouds 18 1024 52 10000 3 100 08:41 21.11.2019
3798 Clouds 19 1024 52 10000 3 100 08:20 21.11.2019
3799 Clouds 19 1024 52 10000 2 100 07:40 21.11.2019
3800 Clouds 19 1024 52 10000 2 100 07:18 21.11.2019
3801 Clouds 19 1024 52 10000 3 120 06:57 21.11.2019
3802 Clouds 19 1024 51 10000 3 100 06:33 21.11.2019
3803 Clouds 19 1025 48 10000 3 160 05:32 21.11.2019
3804 Clouds 20 1027 55 10000 3 60 03:32 21.11.2019
3805 Clouds 18 1027 59 10000 3 60 02:40 21.11.2019
3806 Clouds 16 1027 63 10000 3 50 01:53 21.11.2019
3807 Clouds 16 1027 71 10000 3 20 01:26 21.11.2019
3808 Clouds 15 1027 76 10000 3 10 00:54 21.11.2019
3809 Clouds 15 1027 76 10000 3 10 00:54 21.11.2019
3810 Clouds 14 1027 76 10000 3 360 00:21 21.11.2019
3811 Clouds 13 1027 81 10000 1 10 23:52 20.11.2019
3812 Clouds 13 1027 81 10000 2 350 23:24 20.11.2019
3813 Clouds 13 1027 76 10000 1 10 22:59 20.11.2019
3814 Clouds 12 1027 76 10000 1 10 22:41 20.11.2019
3815 Clouds 13 1027 76 10000 1 10 22:20 20.11.2019
3816 Clouds 13 1026 76 10000 2 20 21:59 20.11.2019
3817 Clouds 13 1027 76 10000 2 10 21:40 20.11.2019
3818 Clouds 13 1027 76 10000 2 10 21:22 20.11.2019
3819 Clouds 13 1027 71 10000 1 30 20:58 20.11.2019
3820 Clouds 13 1027 71 10000 1 30 20:58 20.11.2019
3821 Clouds 13 1027 76 10000 1 60 20:40 20.11.2019
3822 Clear 13 1027 76 10000 1 60 20:22 20.11.2019
3823 Clear 13 1027 76 10000 2 30 19:59 20.11.2019
3824 Clear 13 1027 71 10000 2 80 19:37 20.11.2019
3825 Clear 13 1027 71 10000 2 80 19:19 20.11.2019
3826 Clear 12 1028 76 10000 2 20 18:59 20.11.2019
3827 Clear 13 1028 76 10000 1 50 18:40 20.11.2019
3828 Clear 13 1028 76 10000 1 50 18:21 20.11.2019
3829 Clear 13 1028 66 10000 2 50 17:57 20.11.2019
3830 Clear 13 1028 66 10000 1 0 17:39 20.11.2019
3831 Clear 13 1028 66 10000 1 0 17:20 20.11.2019
3832 Clouds 13 1028 71 10000 2 20 16:57 20.11.2019
3833 Clouds 13 1028 71 10000 2 20 16:39 20.11.2019
3834 Clouds 13 1028 71 10000 2 20 16:19 20.11.2019
3835 Clouds 13 1029 66 10000 2 20 15:56 20.11.2019
3836 Clouds 13 1029 66 10000 3 10 15:38 20.11.2019
3837 Clouds 13 1029 66 10000 3 10 15:18 20.11.2019
3838 Clouds 13 1029 62 10000 1 0 14:40 20.11.2019
3839 Clouds 13 1029 62 10000 1 0 14:22 20.11.2019
3840 Clouds 13 1029 62 10000 1 0 14:22 20.11.2019
3841 Clouds 13 1029 62 10000 1 0 14:22 20.11.2019
3842 Clouds 13 1029 62 10000 1 0 14:22 20.11.2019
3843 Clouds 13 1029 62 10000 1 0 14:22 20.11.2019
3844 Clouds 13 1029 58 10000 1 0 13:58 20.11.2019
3845 Clear 13 1029 58 10000 2 70 13:39 20.11.2019
3846 Clear 13 1029 58 10000 2 70 13:20 20.11.2019
3847 Clear 13 1029 58 10000 3 70 12:57 20.11.2019
3848 Clear 13 1029 54 10000 3 70 12:37 20.11.2019
3849 Clear 13 1029 54 10000 3 70 12:19 20.11.2019
3850 Clear 14 1029 54 10000 3 100 11:45 20.11.2019
3851 Clouds 14 1029 50 10000 3 90 11:22 20.11.2019
3852 Clouds 14 1028 50 10000 4 110 10:56 20.11.2019
3853 Clouds 14 1028 50 10000 5 110 10:38 20.11.2019
3854 Clouds 14 1028 50 10000 5 110 10:19 20.11.2019
3855 Clouds 15 1028 44 10000 5 110 09:44 20.11.2019
3856 Clouds 15 1028 44 10000 4 90 09:23 20.11.2019
3857 Clouds 15 1028 47 10000 4 80 08:58 20.11.2019
3858 Clouds 15 1028 41 10000 4 100 08:39 20.11.2019
3859 Clouds 16 1028 41 10000 4 100 08:20 20.11.2019
3860 Clouds 16 1028 41 10000 3 60 07:47 20.11.2019
3861 Clouds 16 1028 42 10000 3 0 07:26 20.11.2019
3862 Clouds 16 1028 41 10000 4 50 06:49 20.11.2019
3863 Clouds 16 1028 44 10000 3 30 06:22 20.11.2019
3864 Clouds 16 1029 41 10000 3 60 05:39 20.11.2019
3865 Clouds 17 1031 47 10000 4 50 03:42 20.11.2019
3866 Clear 13 1031 54 10000 3 360 02:21 20.11.2019
3867 Clear 13 1031 66 10000 2 340 01:33 20.11.2019
3868 Clear 12 1030 81 10000 2.73 45 00:41 20.11.2019
3869 Clear 10 1030 81 10000 1 0 23:55 19.11.2019
3870 Clear 10 1030 66 10000 4 10 23:26 19.11.2019
3871 Clear 10 1030 75 10000 1 340 22:58 19.11.2019
3872 Clear 10 1030 66 10000 4 10 22:40 19.11.2019
3873 Clear 9 1030 70 10000 1 330 22:19 19.11.2019
3874 Clear 10 1030 66 10000 4 360 21:56 19.11.2019
3875 Clear 10 1030 75 10000 3 350 21:37 19.11.2019
3876 Clear 9 1030 75 10000 3 350 21:19 19.11.2019
3877 Clear 9 1030 65 10000 3 350 20:56 19.11.2019
3878 Clear 9 1030 70 10000 3 330 20:38 19.11.2019
3879 Clear 9 1030 70 10000 3 330 20:38 19.11.2019
3880 Clear 9 1030 70 10000 3 330 20:19 19.11.2019
3881 Clear 9 1030 65 10000 3 320 19:55 19.11.2019
3882 Clear 9 1030 65 10000 2 330 19:37 19.11.2019
3883 Clear 9 1030 65 10000 2 330 19:18 19.11.2019
3884 Clear 9 1030 65 10000 2 330 18:54 19.11.2019
3885 Clear 10 1030 65 10000 2 340 18:36 19.11.2019
3886 Clear 10 1030 65 10000 2 340 18:18 19.11.2019
3887 Clear 10 1030 61 10000 2 350 17:54 19.11.2019
3888 Clear 10 1030 61 10000 2 350 17:36 19.11.2019
3889 Clear 10 1030 61 10000 2 350 17:18 19.11.2019
3890 Clear 10 1030 61 10000 2 360 16:41 19.11.2019
3891 Clear 10 1030 61 10000 2 360 16:21 19.11.2019
3892 Clear 10 1030 61 10000 2 20 15:47 19.11.2019
3893 Clear 10 1030 61 10000 3 10 15:27 19.11.2019
3894 Clear 10 1030 53 10000 3 30 14:58 19.11.2019
3895 Clear 10 1030 53 10000 3 50 14:39 19.11.2019
3896 Clear 10 1030 53 10000 3 50 14:21 19.11.2019
3897 Clear 10 1030 53 10000 3 50 13:57 19.11.2019
3898 Clear 10 1030 53 10000 3 40 13:38 19.11.2019
3899 Clear 11 1030 53 10000 3 40 13:18 19.11.2019
3900 Clear 11 1030 53 10000 4 30 12:40 19.11.2019
3901 Clear 11 1030 53 10000 4 30 12:21 19.11.2019
3902 Clear 11 1030 50 10000 5 20 11:56 19.11.2019
3903 Clear 11 1029 50 10000 5 20 11:37 19.11.2019
3904 Clear 11 1029 50 10000 5 20 11:37 19.11.2019
3905 Clear 11 1029 50 10000 5 20 11:19 19.11.2019
3906 Clear 12 1028 40 10000 4 30 10:44 19.11.2019
3907 Clear 12 1028 40 10000 4 30 10:21 19.11.2019
3908 Clear 12 1028 40 10000 4 20 09:45 19.11.2019
3909 Clear 13 1028 40 10000 5 20 09:22 19.11.2019
3910 Clear 13 1028 37 10000 5 30 08:59 19.11.2019
3911 Clear 14 1028 37 10000 4 20 08:40 19.11.2019
3912 Clear 14 1028 37 10000 4 20 08:22 19.11.2019
3913 Clear 14 1028 37 10000 5 30 07:56 19.11.2019
3914 Clear 14 1028 34 10000 5 350 07:37 19.11.2019
3915 Clear 14 1028 34 10000 5 350 07:18 19.11.2019
3916 Clear 15 1028 33 10000 5 50 06:42 19.11.2019
3917 Clear 14 1028 33 10000 5 50 06:19 19.11.2019
3918 Clear 13 1029 38 10000 5 20 05:19 19.11.2019
3919 Clear 14 1030 40 10000 5 350 03:41 19.11.2019
3920 Clear 13 1030 40 10000 5 350 03:19 19.11.2019
3921 Clear 14 1030 43 10000 5 330 02:49 19.11.2019
3922 Clear 9 1030 45 10000 4 330 01:49 19.11.2019
3923 Clear 9 1030 39 10000 4 320 00:49 19.11.2019
3924 Clear 7 1029 41 10000 3 330 00:20 19.11.2019
3925 Clear 7 1029 41 10000 3 330 00:20 19.11.2019
3926 Clear 7 1029 44 10000 4 330 23:40 18.11.2019
3927 Clear 7 1029 44 10000 4 330 23:20 18.11.2019
3928 Clear 7 1029 44 10000 3 330 22:46 18.11.2019
3929 Clear 7 1029 41 10000 3 330 22:24 18.11.2019
3930 Clear 7 1028 38 10000 4 340 21:58 18.11.2019
3931 Clear 7 1028 41 10000 5 340 21:40 18.11.2019
3932 Clear 7 1028 41 10000 5 340 21:21 18.11.2019
3933 Clear 8 1028 48 10000 5 350 20:57 18.11.2019
3934 Clear 7 1029 52 10000 5 350 20:39 18.11.2019
3935 Clear 7 1029 52 10000 5 350 20:18 18.11.2019
3936 Clear 7 1029 56 10000 6 360 19:56 18.11.2019
3937 Clear 7 1029 52 10000 5 350 19:38 18.11.2019
3938 Clear 7 1029 52 10000 5 350 19:19 18.11.2019
3939 Clear 7 1029 52 10000 5 340 18:55 18.11.2019
3940 Clear 7 1029 52 10000 5 340 18:37 18.11.2019
3941 Clear 8 1029 52 10000 5 340 18:19 18.11.2019
3942 Clear 8 1028 56 10000 5 350 17:55 18.11.2019
3943 Clear 8 1028 56 10000 5 350 17:55 18.11.2019
3944 Clear 8 1028 56 10000 5 350 17:36 18.11.2019
3945 Clear 8 1028 56 10000 5 350 17:36 18.11.2019
3946 Clear 8 1028 56 10000 5 350 17:18 18.11.2019
3947 Clear 8 1029 28 10000 4 340 16:42 18.11.2019
3948 Clear 8 1029 28 10000 4 340 16:23 18.11.2019
3949 Clear 8 1029 28 10000 5 350 15:56 18.11.2019
3950 Clear 8 1029 61 10000 5 340 15:38 18.11.2019
3951 Clear 9 1029 61 10000 5 340 15:19 18.11.2019
3952 Clear 9 1028 28 10000 5 340 14:43 18.11.2019
3953 Clear 9 1028 28 10000 5 340 14:43 18.11.2019
3954 Clear 9 1028 28 10000 4 340 14:24 18.11.2019
3955 Clouds 9 1028 37 10000 5 330 13:57 18.11.2019
3956 Clouds 9 1028 37 10000 6 330 13:37 18.11.2019
3957 Clouds 10 1028 40 10000 6 330 13:37 18.11.2019
3958 Clouds 9 1028 37 10000 6 330 13:37 18.11.2019
3959 Clouds 10 1028 40 10000 6 330 13:19 18.11.2019
3960 Clouds 10 1028 37 10000 6 330 13:19 18.11.2019
3961 Clouds 10 1027 57 10000 6 340 12:39 18.11.2019
3962 Clouds 10 1027 57 10000 6 340 12:19 18.11.2019
3963 Clouds 11 1028 57 10000 6 340 11:45 18.11.2019
3964 Clouds 11 1028 62 10000 6 320 11:27 18.11.2019
3965 Clouds 11 1028 62 10000 6 320 11:27 18.11.2019
3966 Clouds 11 1027 62 10000 6 340 10:59 18.11.2019
3967 Clouds 11 1027 62 10000 6 340 10:40 18.11.2019
3968 Clouds 11 1027 62 10000 7 350 10:22 18.11.2019
3969 Clouds 11 1027 62 10000 7 350 09:56 18.11.2019
3970 Clouds 11 1027 62 8000 7 350 09:37 18.11.2019
3971 Clouds 11 1027 62 8000 7 350 09:18 18.11.2019
3972 Clouds 12 1027 71 8000 6 340 08:44 18.11.2019
3973 Clouds 12 1026 62 8000 7 340 08:21 18.11.2019
3974 Clouds 12 1026 71 8000 6 340 07:48 18.11.2019
3975 Clouds 13 1026 71 8000 6 340 07:29 18.11.2019
3976 Clouds 12 1026 71 8000 7 340 06:56 18.11.2019
3977 Rain 13 1026 71 8000 6 340 06:37 18.11.2019
3978 Rain 12 1026 71 8000 6 340 06:18 18.11.2019
3979 Rain 12 1027 81 7000 6 320 04:58 18.11.2019
3980 Rain 12 1027 76 10000 6 320 02:59 18.11.2019
3981 Clouds 12 1026 58 10000 9 330 01:31 18.11.2019
3982 Clouds 13 1025 54 10000 9 340 00:39 18.11.2019
3983 Clouds 13 1024 81 10000 7 330 23:45 17.11.2019
3984 Clouds 13 1024 81 10000 7 330 23:25 17.11.2019
3985 Clouds 13 1024 81 10000 6 330 22:59 17.11.2019
3986 Clouds 13 1023 81 10000 8 320 22:41 17.11.2019
3987 Clouds 13 1023 81 10000 8 320 22:23 17.11.2019
3988 Clouds 13 1023 82 10000 7 340 21:59 17.11.2019
3989 Clouds 14 1023 82 10000 8 330 21:41 17.11.2019
3990 Clouds 14 1023 82 10000 8 330 21:19 17.11.2019
3991 Clouds 14 1022 76 10000 11 340 20:57 17.11.2019
3992 Clouds 14 1022 87 10000 7 350 20:38 17.11.2019
3993 Clouds 14 1022 87 10000 7 350 20:19 17.11.2019
3994 Rain 14 1022 87 6000 7 350 19:56 17.11.2019
3995 Rain 14 1022 87 6000 7 350 19:56 17.11.2019
3996 Rain 14 1022 87 8000 11 360 19:37 17.11.2019
3997 Rain 14 1022 87 8000 11 360 19:37 17.11.2019
3998 Rain 14 1022 87 8000 11 360 19:19 17.11.2019
3999 Rain 14 1021 82 8000 16 350 18:55 17.11.2019
4000 Clouds 15 1021 82 8000 8 340 18:37 17.11.2019
4001 Clouds 16 1021 82 8000 8 340 18:18 17.11.2019
4002 Mist 17 1021 82 5000 9 340 17:57 17.11.2019
4003 Mist 17 1020 77 5000 9 330 17:38 17.11.2019
4004 Mist 18 1020 77 5000 9 330 17:19 17.11.2019
4005 Clouds 18 1020 77 6000 8 330 16:57 17.11.2019
4006 Clouds 19 1020 77 6000 7 320 16:38 17.11.2019
4007 Clouds 20 1019 72 6000 8 320 16:20 17.11.2019
4008 Clouds 19 1019 72 6000 8 320 15:55 17.11.2019
4009 Clouds 20 1018 68 10000 8 330 15:36 17.11.2019
4010 Clouds 20 1018 68 10000 8 330 15:36 17.11.2019
4011 Clouds 20 1018 68 10000 8 330 15:18 17.11.2019
4012 Clouds 20 1018 64 10000 5 310 14:55 17.11.2019
4013 Rain 20 1018 64 10000 4 320 14:37 17.11.2019
4014 Rain 21 1018 64 10000 4 320 14:18 17.11.2019
4015 Clouds 21 1016 64 10000 3 340 13:41 17.11.2019
4016 Clouds 21 1016 64 10000 3 340 13:21 17.11.2019
4017 Clouds 21 1016 60 10000 3 340 12:59 17.11.2019
4018 Clouds 22 1015 60 10000 3 350 12:38 17.11.2019
4019 Clouds 22 1015 60 10000 3 350 12:19 17.11.2019
4020 Clouds 22 1015 56 10000 5 340 11:55 17.11.2019
4021 Clouds 23 1015 53 10000 4 320 11:37 17.11.2019
4022 Clouds 23 1015 53 10000 4 320 11:18 17.11.2019
4023 Clouds 23 1014 53 10000 3 300 10:41 17.11.2019
4024 Clouds 23 1014 53 10000 3 300 10:22 17.11.2019
4025 Clouds 23 1013 50 10000 2 0 09:42 17.11.2019
4026 Clouds 24 1013 50 10000 2 0 09:24 17.11.2019
4027 Clouds 24 1013 50 10000 3 230 08:47 17.11.2019
4028 Clear 25 1012 47 10000 2 210 08:27 17.11.2019
4029 Clouds 25 1012 44 10000 3 0 07:59 17.11.2019
4030 Clouds 25 1012 44 10000 3 230 07:40 17.11.2019
4031 Clouds 26 1012 44 10000 3 230 07:20 17.11.2019
4032 Clouds 26 1012 41 10000 3 200 06:54 17.11.2019
4033 Clouds 26 1012 44 10000 4 190 06:29 17.11.2019
4034 Clouds 26 1013 41 10000 5 180 05:24 17.11.2019
4035 Clouds 24 1014 50 10000 6 180 04:00 17.11.2019
4036 Clouds 25 1014 50 10000 6 190 03:37 17.11.2019
4037 Clouds 25 1014 50 10000 6 190 03:19 17.11.2019
4038 Clouds 21 1015 64 10000 5 180 01:54 17.11.2019
4039 Clouds 20 1015 72 10000 4 170 01:21 17.11.2019
4040 Clouds 20 1014 82 10000 3 160 00:41 17.11.2019
4041 Clouds 19 1014 82 10000 3 160 00:21 17.11.2019
4042 Clouds 18 1014 88 10000 4 160 23:42 16.11.2019
4043 Clouds 18 1014 88 10000 4 160 23:42 16.11.2019
4044 Clouds 17 1014 88 10000 4 160 23:19 16.11.2019
4045 Clouds 17 1014 88 10000 4 160 23:18 16.11.2019
4046 Clouds 17 1013 88 10000 3 180 22:42 16.11.2019
4047 Clouds 17 1013 88 10000 3 180 22:20 16.11.2019
4048 Clouds 17 1014 88 10000 4 190 21:58 16.11.2019
4049 Clouds 18 1013 82 10000 5 160 21:40 16.11.2019
4050 Clouds 18 1013 82 10000 5 160 21:21 16.11.2019
4051 Clouds 17 1013 82 10000 6 150 20:57 16.11.2019
4052 Clouds 17 1014 82 10000 5 160 20:39 16.11.2019
4053 Clouds 18 1014 82 10000 5 160 20:19 16.11.2019
4054 Clouds 18 1014 82 10000 5 150 19:41 16.11.2019
4055 Clouds 18 1014 82 10000 5 150 19:22 16.11.2019
4056 Clouds 18 1014 82 10000 4 150 18:58 16.11.2019
4057 Clouds 18 1015 82 10000 4 150 18:39 16.11.2019
4058 Clouds 18 1015 82 10000 4 150 18:20 16.11.2019
4059 Clouds 18 1015 82 10000 5 150 17:55 16.11.2019
4060 Clouds 18 1015 82 10000 4 150 17:36 16.11.2019
4061 Clouds 18 1015 82 10000 4 150 17:18 16.11.2019
4062 Clouds 18 1015 82 10000 5 150 16:43 16.11.2019
4063 Clouds 18 1015 82 10000 5 150 16:25 16.11.2019
4064 Clouds 18 1016 82 10000 4 150 15:54 16.11.2019
4065 Clouds 18 1016 77 10000 4 150 15:36 16.11.2019
4066 Clouds 18 1016 77 10000 4 150 15:18 16.11.2019
4067 Clouds 19 1016 72 10000 4 140 14:40 16.11.2019
4068 Clouds 19 1016 72 10000 4 140 14:21 16.11.2019
4069 Clouds 19 1016 72 10000 4 140 14:21 16.11.2019
4070 Clouds 19 1016 68 10000 3 140 13:56 16.11.2019
4071 Clouds 19 1016 63 10000 2 130 13:38 16.11.2019
4072 Clouds 19 1016 63 10000 2 130 13:19 16.11.2019
4073 Clouds 19 1015 63 10000 3 140 12:56 16.11.2019
4074 Clouds 20 1015 60 10000 2 140 12:38 16.11.2019
4075 Clouds 20 1015 60 10000 2 140 12:19 16.11.2019
4076 Clouds 20 1015 60 10000 2 140 11:43 16.11.2019
4077 Clouds 19 1015 60 10000 2 150 11:25 16.11.2019
4078 Clouds 21 1015 52 10000 4 140 10:56 16.11.2019
4079 Clouds 21 1015 52 10000 4 140 10:56 16.11.2019
4080 Clouds 21 1014 46 10000 3 140 10:37 16.11.2019
4081 Clouds 21 1014 46 10000 3 140 10:19 16.11.2019
4082 Clouds 21 1014 40 10000 3 150 09:42 16.11.2019
4083 Clouds 23 1014 35 10000 4 140 09:20 16.11.2019
4084 Clouds 23 1014 36 10000 4 150 08:57 16.11.2019
4085 Clouds 23 1014 38 10000 3 150 08:37 16.11.2019
4086 Clear 25 1014 38 10000 3 150 08:18 16.11.2019
4087 Clear 24 1014 36 10000 3 150 07:41 16.11.2019
4088 Clear 24 1014 36 10000 3 150 07:19 16.11.2019
4089 Clear 26 1014 41 10000 3 170 06:44 16.11.2019
4090 Clear 26 1015 41 10000 4 150 06:25 16.11.2019
4091 Clear 23 1016 46 10000 4 190 04:49 16.11.2019
4092 Clear 25 1017 56 10000 5 190 03:26 16.11.2019
4093 Clear 25 1017 56 10000 5 190 03:26 16.11.2019
4094 Clear 23 1017 52 10000 4 190 02:55 16.11.2019
4095 Clear 23 1017 52 10000 4 190 02:55 16.11.2019
4096 Clear 17 1017 77 10000 3 170 01:44 16.11.2019
4097 Clear 17 1017 82 10000 2 150 01:18 16.11.2019
4098 Clear 16 1016 82 10000 3 170 00:37 16.11.2019
4099 Clear 16 1016 82 10000 3 170 00:18 16.11.2019
4100 Clear 15 1016 87 10000 2 170 23:39 15.11.2019
4101 Clear 14 1016 87 10000 2 170 23:20 15.11.2019
4102 Clear 14 1016 87 10000 2 170 23:20 15.11.2019
4103 Clear 15 1016 87 10000 3 160 22:43 15.11.2019
4104 Clear 14 1016 87 10000 2 150 22:20 15.11.2019
4105 Clear 15 1016 82 10000 3 140 22:00 15.11.2019
4106 Clear 15 1016 87 10000 2 140 21:40 15.11.2019
4107 Clear 16 1016 87 10000 2 140 21:20 15.11.2019
4108 Clear 15 1016 82 10000 3 140 20:57 15.11.2019
4109 Clear 15 1016 82 10000 3 140 20:39 15.11.2019
4110 Clear 15 1016 82 10000 3 140 20:39 15.11.2019
4111 Clouds 15 1016 82 10000 3 140 20:21 15.11.2019
4112 Clouds 16 1016 82 10000 2 120 19:57 15.11.2019
4113 Clouds 15 1016 82 10000 3 160 19:39 15.11.2019
4114 Clouds 15 1016 82 10000 3 160 19:20 15.11.2019
4115 Clouds 15 1016 77 10000 5 160 18:56 15.11.2019
4116 Clouds 15 1016 77 10000 4 160 18:38 15.11.2019
4117 Clouds 15 1016 77 10000 4 160 18:20 15.11.2019
4118 Clouds 15 1016 82 10000 4 150 17:42 15.11.2019
4119 Clouds 15 1016 82 10000 4 150 17:42 15.11.2019
4120 Clouds 15 1016 82 10000 4 150 17:24 15.11.2019
4121 Clouds 15 1017 82 10000 4 140 16:56 15.11.2019
4122 Clouds 16 1017 77 10000 4 130 16:37 15.11.2019
4123 Clouds 16 1017 77 10000 4 130 16:19 15.11.2019
4124 Clouds 16 1017 77 10000 3 150 15:38 15.11.2019
4125 Clouds 16 1017 77 10000 3 150 15:38 15.11.2019
4126 Clouds 16 1017 77 10000 3 150 15:20 15.11.2019
4127 Clouds 16 1017 77 10000 4 150 14:57 15.11.2019
4128 Clouds 16 1017 72 10000 4 150 14:38 15.11.2019
4129 Clear 16 1017 72 10000 4 150 14:19 15.11.2019
4130 Clear 17 1017 72 10000 4 150 13:57 15.11.2019
4131 Clear 17 1017 72 10000 4 150 13:39 15.11.2019
4132 Clear 17 1017 72 10000 4 150 13:20 15.11.2019
4133 Clear 17 1017 67 10000 5 160 12:57 15.11.2019
4134 Clear 17 1017 67 10000 5 150 12:39 15.11.2019
4135 Clear 17 1017 67 10000 5 150 12:19 15.11.2019
4136 Clear 17 1017 63 10000 4 150 11:56 15.11.2019
4137 Clear 17 1017 63 10000 4 150 11:37 15.11.2019
4138 Clear 18 1017 63 10000 4 150 11:19 15.11.2019
4139 Clear 18 1017 52 10000 4 150 10:40 15.11.2019
4140 Clear 18 1017 52 10000 4 150 10:22 15.11.2019
4141 Clear 19 1017 45 10000 5 140 09:58 15.11.2019
4142 Clear 19 1017 40 10000 5 160 09:40 15.11.2019
4143 Clear 20 1017 40 10000 5 160 09:19 15.11.2019
4144 Clear 20 1017 37 10000 5 160 08:43 15.11.2019
4145 Clear 21 1017 37 10000 5 140 08:22 15.11.2019
4146 Clear 21 1018 35 10000 5 190 07:47 15.11.2019
4147 Clear 21 1018 35 10000 5 190 07:28 15.11.2019
4148 Clear 21 1018 37 10000 5 180 06:38 15.11.2019
4149 Clear 21 1018 35 10000 5 180 05:59 15.11.2019
4150 Clear 21 1019 37 10000 5 180 05:39 15.11.2019
4151 Clear 21 1019 37 10000 5 180 05:19 15.11.2019
4152 Clear 23 1020 42 10000 4 200 03:46 15.11.2019
4153 Clear 20 1020 52 10000 5 180 02:52 15.11.2019
4154 Clear 16 1020 63 10000 4 190 02:18 15.11.2019
4155 Clear 15 1020 67 10000 2 190 01:32 15.11.2019
4156 Clear 15 1020 67 10000 2 190 01:32 15.11.2019
4157 Clear 15 1020 76 10000 1 160 00:48 15.11.2019
4158 Clear 15 1020 76 10000 1 160 00:29 15.11.2019
4159 Clear 14 1019 76 10000 3 190 23:49 14.11.2019
4160 Clear 12 1019 76 10000 3 190 23:27 14.11.2019
4161 Clear 12 1019 76 10000 4 170 22:57 14.11.2019
4162 Clear 12 1019 76 10000 4 170 22:39 14.11.2019
4163 Clear 12 1019 76 10000 4 170 22:20 14.11.2019
4164 Clear 13 1020 76 10000 3 160 21:42 14.11.2019
4165 Clear 13 1020 76 10000 3 160 21:23 14.11.2019
4166 Clear 13 1020 76 10000 2 150 20:57 14.11.2019
4167 Clear 13 1020 76 10000 3 160 20:39 14.11.2019
4168 Clear 13 1020 76 10000 3 160 20:21 14.11.2019
4169 Clear 13 1021 66 10000 2 160 19:58 14.11.2019
4170 Clear 13 1021 66 10000 1 170 19:40 14.11.2019
4171 Clear 13 1021 66 10000 2 160 19:18 14.11.2019
4172 Clear 13 1021 66 10000 3 150 18:54 14.11.2019
4173 Clear 13 1021 66 10000 3 150 18:36 14.11.2019
4174 Clear 13 1021 66 10000 3 150 18:18 14.11.2019
4175 Clear 13 1021 62 10000 4 150 17:38 14.11.2019
4176 Clear 13 1021 62 10000 4 160 17:20 14.11.2019
4177 Clear 13 1021 62 10000 4 160 16:58 14.11.2019
4178 Clear 13 1022 58 10000 4 150 16:39 14.11.2019
4179 Clear 13 1022 58 10000 4 150 16:20 14.11.2019
4180 Clear 13 1022 58 10000 4 150 15:58 14.11.2019
4181 Clear 13 1022 58 10000 4 150 15:39 14.11.2019
4182 Clear 14 1022 58 10000 4 150 15:20 14.11.2019
4183 Clear 13 1022 58 10000 3 150 14:57 14.11.2019
4184 Clear 14 1022 54 10000 4 150 14:39 14.11.2019
4185 Clear 14 1022 54 10000 4 150 14:20 14.11.2019
4186 Clear 14 1023 50 10000 4 150 13:42 14.11.2019
4187 Clear 14 1023 50 10000 4 150 13:23 14.11.2019
4188 Clear 14 1023 50 10000 3 160 12:57 14.11.2019
4189 Clear 14 1023 50 10000 3 170 12:39 14.11.2019
4190 Clear 14 1023 50 10000 3 170 12:21 14.11.2019
4191 Clear 15 1023 47 10000 4 170 11:55 14.11.2019
4192 Clear 15 1023 47 10000 5 180 11:37 14.11.2019
4193 Clear 15 1023 47 10000 5 180 11:18 14.11.2019
4194 Clear 15 1023 47 10000 5 190 10:56 14.11.2019
4195 Clear 15 1023 47 10000 5 190 10:56 14.11.2019
4196 Clear 15 1023 47 10000 5 190 10:37 14.11.2019
4197 Clear 15 1023 47 10000 5 190 10:37 14.11.2019
4198 Clear 16 1023 47 10000 5 190 10:19 14.11.2019
4199 Clear 16 1023 47 10000 5 190 10:19 14.11.2019
4200 Clear 16 1023 39 10000 6 190 09:41 14.11.2019
4201 Clear 16 1023 39 10000 6 190 09:23 14.11.2019
4202 Clear 17 1023 27 10000 4 170 08:56 14.11.2019
4203 Clear 17 1023 27 10000 4 170 08:38 14.11.2019
4204 Clear 17 1023 27 10000 4 170 08:19 14.11.2019
4205 Clear 18 1023 25 10000 4 160 07:41 14.11.2019
4206 Clear 18 1023 25 10000 4 160 07:22 14.11.2019
4207 Clear 17 1023 25 10000 2 220 06:46 14.11.2019
4208 Clear 18 1024 24 10000 2 0 06:19 14.11.2019
4209 Clear 18 1025 22 10000 3 0 05:20 14.11.2019
4210 Clear 17 1027 24 0 1.66 27 04:35 14.11.2019
4211 Clear 16 1027 38 10000 2 0 02:50 14.11.2019
4212 Clear 15 1027 41 10000 2 50 02:29 14.11.2019
4213 Clear 15 1027 54 10000 2 360 01:40 14.11.2019
4214 Clear 13 1027 58 10000 1 0 00:55 14.11.2019
4215 Clear 11 1026 66 10000 2 360 00:36 14.11.2019
4216 Clear 11 1026 66 10000 2 360 00:18 14.11.2019
4217 Clear 11 1027 66 10000 2 10 23:37 13.11.2019
4218 Clear 11 1027 66 10000 2 10 23:19 13.11.2019
4219 Clear 11 1027 66 10000 2 10 23:19 13.11.2019
4220 Clear 12 1027 66 10000 3 20 22:41 13.11.2019
4221 Clear 13 1027 66 10000 3 20 22:23 13.11.2019
4222 Clear 13 1027 76 10000 3 10 21:57 13.11.2019
4223 Clear 13 1027 66 10000 3 360 21:39 13.11.2019
4224 Clear 13 1027 66 10000 3 360 21:20 13.11.2019
4225 Clear 13 1027 71 10000 3 10 20:58 13.11.2019
4226 Clear 13 1027 66 10000 4 10 20:38 13.11.2019
4227 Clouds 13 1027 66 10000 4 10 20:19 13.11.2019
4228 Clouds 13 1027 62 10000 4 10 19:59 13.11.2019
4229 Clouds 14 1027 62 10000 5 360 19:40 13.11.2019
4230 Clouds 14 1027 62 10000 5 360 19:18 13.11.2019
4231 Clouds 14 1027 58 10000 6 360 18:55 13.11.2019
4232 Clouds 14 1027 58 10000 6 360 18:55 13.11.2019
4233 Clouds 14 1027 41 10000 6 350 18:37 13.11.2019
4234 Clouds 14 1027 41 10000 6 350 18:18 13.11.2019
4235 Clouds 15 1027 30 10000 8 350 17:56 13.11.2019
4236 Clouds 15 1027 41 10000 5 340 17:36 13.11.2019
4237 Clouds 15 1027 41 10000 5 340 17:18 13.11.2019
4238 Clouds 15 1027 38 10000 6 330 16:56 13.11.2019
4239 Clouds 15 1026 38 10000 6 330 16:37 13.11.2019
4240 Clouds 15 1026 38 10000 6 330 16:18 13.11.2019
4241 Clouds 16 1027 38 10000 5 330 15:55 13.11.2019
4242 Clouds 16 1026 38 10000 6 330 15:36 13.11.2019
4243 Clouds 16 1026 38 10000 6 330 15:18 13.11.2019
4244 Clouds 17 1026 42 10000 7 330 14:39 13.11.2019
4245 Clouds 17 1025 42 10000 8 330 14:20 13.11.2019
4246 Clouds 18 1025 45 10000 8 330 13:38 13.11.2019
4247 Clouds 18 1025 45 10000 8 330 13:19 13.11.2019
4248 Clouds 18 1024 45 10000 7 330 12:58 13.11.2019
4249 Clouds 18 1024 48 10000 5 330 12:40 13.11.2019
4250 Clouds 18 1024 48 10000 5 330 12:21 13.11.2019
4251 Clouds 18 1023 52 10000 6 330 11:55 13.11.2019
4252 Clouds 18 1023 52 10000 6 320 11:36 13.11.2019
4253 Clouds 19 1023 52 10000 6 320 11:18 13.11.2019
4254 Clouds 19 1022 55 10000 5 310 10:54 13.11.2019
4255 Clouds 19 1022 55 10000 7 310 10:36 13.11.2019
4256 Clouds 19 1022 55 10000 7 310 10:18 13.11.2019
4257 Clouds 19 1021 52 10000 7 300 09:40 13.11.2019
4258 Clouds 19 1021 52 10000 7 300 09:40 13.11.2019
4259 Clouds 20 1021 52 10000 7 300 09:20 13.11.2019
4260 Clouds 21 1021 49 8000 6 320 08:41 13.11.2019
4261 Clouds 21 1021 49 8000 6 320 08:21 13.11.2019
4262 Clouds 21 1020 49 8000 6 320 07:43 13.11.2019
4263 Clouds 21 1020 56 7000 6 320 07:22 13.11.2019
4264 Clouds 23 1020 52 6000 7 330 06:58 13.11.2019
4265 Clouds 23 1020 56 6000 5 320 06:36 13.11.2019
4266 Clouds 23 1020 56 6000 5 320 06:18 13.11.2019
4267 Clouds 21 1020 60 6000 5 310 05:45 13.11.2019
4268 Clouds 20 1021 60 6000 6 310 04:56 13.11.2019
4269 Rain 18 1021 82 5000 4 270 03:36 13.11.2019
4270 Rain 18 1021 82 5000 3 270 01:48 13.11.2019
4271 Clouds 18 1020 82 7000 4 0 01:23 13.11.2019
4272 Clouds 18 1020 88 10000 4 230 00:37 13.11.2019
4273 Clouds 18 1019 82 10000 2 220 23:54 12.11.2019
4274 Clouds 18 1019 82 10000 2 230 23:36 12.11.2019
4275 Clouds 18 1019 82 10000 2 210 23:18 12.11.2019
4276 Clouds 18 1018 82 10000 3 220 22:40 12.11.2019
4277 Clouds 18 1018 82 10000 3 220 22:18 12.11.2019
4278 Clouds 18 1018 82 10000 2 180 21:45 12.11.2019
4279 Clouds 18 1018 82 10000 2 170 21:26 12.11.2019
4280 Clouds 18 1017 82 10000 3 150 20:59 12.11.2019
4281 Clouds 18 1017 82 10000 3 150 20:39 12.11.2019
4282 Clouds 18 1017 82 10000 3 150 20:19 12.11.2019
4283 Clouds 18 1018 82 10000 4 150 19:58 12.11.2019
4284 Clouds 18 1018 77 10000 3 150 19:40 12.11.2019
4285 Clouds 18 1018 77 10000 3 150 19:20 12.11.2019
4286 Clouds 18 1018 72 10000 4 150 18:59 12.11.2019
4287 Clouds 18 1018 72 10000 4 150 18:40 12.11.2019
4288 Clouds 18 1018 72 10000 4 150 18:22 12.11.2019
4289 Clouds 18 1018 72 10000 3 150 17:58 12.11.2019
4290 Clouds 18 1018 72 10000 3 150 17:58 12.11.2019
4291 Clouds 18 1019 72 10000 4 150 17:39 12.11.2019
4292 Clouds 19 1019 72 10000 4 150 17:21 12.11.2019
4293 Clouds 19 1019 72 10000 4 140 16:57 12.11.2019
4294 Clouds 19 1019 72 10000 4 140 16:39 12.11.2019
4295 Clouds 18 1019 72 10000 4 140 16:21 12.11.2019
4296 Clouds 19 1019 72 10000 3 150 15:42 12.11.2019
4297 Clouds 18 1019 72 10000 3 150 15:21 12.11.2019
4298 Clouds 19 1019 72 10000 3 150 14:57 12.11.2019
4299 Clouds 19 1019 72 10000 3 150 14:37 12.11.2019
4300 Clouds 19 1019 72 10000 3 150 14:19 12.11.2019
4301 Clouds 19 1019 72 10000 3 150 13:56 12.11.2019
4302 Clouds 18 1019 72 10000 3 150 13:37 12.11.2019
4303 Clouds 19 1019 72 10000 3 150 13:18 12.11.2019
4304 Clouds 19 1018 72 10000 3 140 12:42 12.11.2019
4305 Clouds 18 1018 72 10000 3 140 12:20 12.11.2019
4306 Clouds 18 1018 68 10000 3 130 11:59 12.11.2019
4307 Clouds 18 1018 72 10000 4 140 11:40 12.11.2019
4308 Clouds 19 1018 72 10000 4 140 11:21 12.11.2019
4309 Clouds 19 1018 68 10000 4 140 10:56 12.11.2019
4310 Clouds 19 1018 68 10000 4 150 10:37 12.11.2019
4311 Clouds 19 1018 68 10000 4 150 10:19 12.11.2019
4312 Clouds 19 1018 64 10000 6 150 09:42 12.11.2019
4313 Clouds 20 1018 60 10000 5 150 09:21 12.11.2019
4314 Clouds 20 1018 60 10000 5 150 08:52 12.11.2019
4315 Clouds 20 1018 60 10000 4 150 08:30 12.11.2019
4316 Clouds 21 1018 60 10000 4 150 07:55 12.11.2019
4317 Clouds 21 1018 60 10000 6 150 07:36 12.11.2019
4318 Clouds 21 1018 60 10000 6 150 07:18 12.11.2019
4319 Clouds 22 1019 56 10000 6 150 06:39 12.11.2019
4320 Clouds 22 1019 56 10000 6 150 06:21 12.11.2019
4321 Clouds 21 1019 56 10000 6 150 05:46 12.11.2019
4322 Clouds 20 1020 56 10000 6 160 04:44 12.11.2019
4323 Clouds 22 1021 60 10000 5 140 03:39 12.11.2019
4324 Clouds 18 1020 63 10000 5 140 01:44 12.11.2019
4325 Clouds 18 1020 63 10000 4 120 01:21 12.11.2019
4326 Clouds 18 1020 67 10000 3 120 00:47 12.11.2019
4327 Clouds 17 1020 77 10000 3 110 00:22 12.11.2019
4328 Clouds 16 1019 77 10000 3 90 23:44 11.11.2019
4329 Clouds 16 1019 77 10000 3 90 23:44 11.11.2019
4330 Clouds 15 1019 77 10000 3 90 23:23 11.11.2019
4331 Clouds 15 1019 77 10000 1 0 22:57 11.11.2019
4332 Clouds 15 1019 77 10000 3 130 22:36 11.11.2019
4333 Clouds 15 1019 77 10000 3 130 22:18 11.11.2019
4334 Clouds 15 1019 77 10000 2 130 21:56 11.11.2019
4335 Clouds 15 1019 77 10000 2 150 21:37 11.11.2019
4336 Clouds 15 1019 77 10000 2 150 21:19 11.11.2019
4337 Clouds 15 1019 72 10000 2 150 20:42 11.11.2019
4338 Clear 15 1019 72 10000 2 150 20:20 11.11.2019
4339 Clear 15 1019 72 10000 2 140 19:57 11.11.2019
4340 Clear 15 1019 72 10000 3 130 19:39 11.11.2019
4341 Clear 15 1019 72 10000 3 130 19:18 11.11.2019
4342 Clear 15 1019 72 10000 3 120 18:54 11.11.2019
4343 Clear 15 1019 67 10000 3 100 18:36 11.11.2019
4344 Clear 15 1019 67 10000 3 100 18:18 11.11.2019
4345 Clear 16 1019 62 10000 3 120 17:41 11.11.2019
4346 Clear 16 1019 62 10000 3 120 17:23 11.11.2019
4347 Clear 15 1019 62 10000 2 160 16:41 11.11.2019
4348 Clear 15 1019 62 10000 2 160 16:21 11.11.2019
4349 Clear 16 1019 55 10000 3 120 15:57 11.11.2019
4350 Clear 16 1019 55 10000 3 120 15:39 11.11.2019
4351 Clear 16 1019 59 10000 2 110 15:19 11.11.2019
4352 Clear 16 1019 55 10000 2 130 14:42 11.11.2019
4353 Clear 16 1019 51 10000 1 0 14:24 11.11.2019
4354 Clear 17 1019 48 10000 2 130 13:58 11.11.2019
4355 Clear 16 1018 48 10000 3 140 13:37 11.11.2019
4356 Clear 17 1018 48 10000 3 140 13:19 11.11.2019
4357 Clear 17 1019 45 10000 3 140 12:56 11.11.2019
4358 Clear 17 1018 39 10000 3 130 12:38 11.11.2019
4359 Clear 18 1018 39 10000 3 130 12:19 11.11.2019
4360 Clear 18 1018 36 10000 2 110 11:41 11.11.2019
4361 Clear 19 1018 27 10000 2 110 11:21 11.11.2019
4362 Clear 19 1018 27 10000 2 90 10:44 11.11.2019
4363 Clear 20 1017 22 10000 2 80 10:20 11.11.2019
4364 Clear 20 1017 22 10000 2 80 10:20 11.11.2019
4365 Clear 21 1017 21 10000 3 40 09:59 11.11.2019
4366 Clear 21 1017 21 10000 3 40 09:41 11.11.2019
4367 Clear 22 1017 17 10000 2 50 09:21 11.11.2019
4368 Clear 21 1016 17 10000 3 60 08:43 11.11.2019
4369 Clear 23 1016 17 10000 3 0 08:23 11.11.2019
4370 Clear 22 1016 17 10000 1 0 07:57 11.11.2019
4371 Clear 22 1016 17 10000 1 0 07:57 11.11.2019
4372 Clear 22 1016 17 10000 3 10 07:39 11.11.2019
4373 Clear 22 1016 17 10000 3 10 07:19 11.11.2019
4374 Clear 22 1016 18 10000 2 0 06:56 11.11.2019
4375 Clear 22 1017 17 10000 3 10 06:37 11.11.2019
4376 Clear 22 1017 17 10000 3 10 06:19 11.11.2019
4377 Clear 22 1017 18 10000 3 330 05:43 11.11.2019
4378 Clear 24 1018 22 10000 4 330 03:27 11.11.2019
4379 Clear 22 1018 32 10000 3 340 02:33 11.11.2019
4380 Clear 19 1018 39 10000 3 320 01:58 11.11.2019
4381 Clear 18 1017 42 10000 2 320 01:36 11.11.2019
4382 Clear 16 1017 67 10000 1 0 00:54 11.11.2019
4383 Clear 15 1017 81 10000 1 160 00:33 11.11.2019
4384 Clear 15 1016 76 10000 1 0 23:58 10.11.2019
4385 Clear 15 1016 62 10000 3 270 23:37 10.11.2019
4386 Clear 14 1016 71 10000 2 360 23:19 10.11.2019
4387 Clear 14 1016 71 10000 1 0 22:55 10.11.2019
4388 Clear 14 1016 71 10000 1 0 22:55 10.11.2019
4389 Clear 15 1016 62 10000 3 280 22:36 10.11.2019
4390 Clear 15 1016 62 10000 3 280 22:18 10.11.2019
4391 Clear 15 1015 62 10000 3 280 21:54 10.11.2019
4392 Clear 15 1015 54 10000 3 280 21:36 10.11.2019
4393 Clear 15 1015 54 10000 3 280 21:18 10.11.2019
4394 Clear 15 1015 62 10000 2 260 20:40 10.11.2019
4395 Clear 16 1015 62 10000 3 260 20:21 10.11.2019
4396 Clear 15 1015 58 10000 3 280 19:56 10.11.2019
4397 Clear 16 1015 55 10000 3 280 19:37 10.11.2019
4398 Clear 16 1015 55 10000 3 280 19:18 10.11.2019
4399 Clear 16 1015 55 10000 3 280 19:18 10.11.2019
4400 Clear 15 1015 55 10000 3 290 18:56 10.11.2019
4401 Clear 15 1015 55 10000 3 290 18:56 10.11.2019
4402 Clear 16 1015 59 10000 2 280 18:38 10.11.2019
4403 Clear 16 1015 59 10000 2 280 18:19 10.11.2019
4404 Clear 16 1015 62 10000 2 260 17:55 10.11.2019
4405 Clear 16 1015 62 10000 3 240 17:37 10.11.2019
4406 Clear 16 1015 62 10000 3 240 17:19 10.11.2019
4407 Clear 16 1015 62 10000 3 240 17:19 10.11.2019
4408 Clear 17 1014 55 10000 2 280 16:44 10.11.2019
4409 Clear 17 1014 52 10000 3 290 16:25 10.11.2019
4410 Clear 17 1014 55 10000 3 250 15:57 10.11.2019
4411 Clear 17 1014 51 10000 2 270 15:38 10.11.2019
4412 Clear 17 1014 51 10000 2 270 15:19 10.11.2019
4413 Clear 17 1014 51 10000 2 270 15:19 10.11.2019
4414 Clear 17 1014 51 10000 2 270 15:19 10.11.2019
4415 Clear 17 1014 51 10000 2 270 15:19 10.11.2019
4416 Clear 17 1014 48 10000 2 250 14:58 10.11.2019
4417 Clear 18 1014 48 10000 2 250 14:39 10.11.2019
4418 Clear 18 1014 48 10000 3 250 14:20 10.11.2019
4419 Clear 19 1014 45 10000 3 260 13:55 10.11.2019
4420 Clear 19 1014 42 10000 3 260 13:37 10.11.2019
4421 Clear 19 1014 42 10000 3 260 13:19 10.11.2019
4422 Clear 19 1013 45 10000 3 280 12:41 10.11.2019
4423 Clear 18 1013 45 10000 3 280 12:19 10.11.2019
4424 Clear 18 1013 45 10000 3 280 12:19 10.11.2019
4425 Clear 19 1013 42 10000 4 280 11:56 10.11.2019
4426 Clear 19 1012 45 10000 3 280 11:38 10.11.2019
4427 Clear 19 1012 45 10000 3 280 11:19 10.11.2019
4428 Clear 19 1012 45 10000 3 250 10:42 10.11.2019
4429 Clear 19 1012 45 10000 3 260 10:22 10.11.2019
4430 Clear 21 1012 43 10000 4 270 09:57 10.11.2019
4431 Clear 21 1012 43 10000 4 270 09:39 10.11.2019
4432 Clear 21 1012 43 10000 5 270 09:19 10.11.2019
4433 Clear 22 1011 43 10000 6 270 08:39 10.11.2019
4434 Clear 23 1011 37 10000 6 270 08:20 10.11.2019
4435 Clear 22 1011 37 10000 6 270 07:46 10.11.2019
4436 Clear 22 1012 37 10000 7 270 07:26 10.11.2019
4437 Clear 22 1012 35 10000 7 280 06:57 10.11.2019
4438 Clear 21 1013 37 10000 6 260 05:55 10.11.2019
4439 Clear 22 1017 45 10000 5 230 03:31 10.11.2019
4440 Clear 17 1017 51 10000 6 200 02:22 10.11.2019
4441 Clear 14 1018 76 10000 3 230 01:20 10.11.2019
4442 Clear 14 1017 82 10000 3 200 00:49 10.11.2019
4443 Clear 15 1017 81 10000 3 200 00:23 10.11.2019
4444 Clear 14 1017 81 10000 3 180 23:40 09.11.2019
4445 Clear 12 1017 81 10000 3 180 23:19 09.11.2019
4446 Clear 12 1018 81 10000 2 190 22:42 09.11.2019
4447 Clear 12 1018 81 10000 2 210 22:22 09.11.2019
4448 Clear 12 1018 87 10000 1 180 21:58 09.11.2019
4449 Clear 12 1018 87 10000 1 180 21:39 09.11.2019
4450 Clear 12 1018 87 10000 1 180 21:39 09.11.2019
4451 Clear 12 1018 76 10000 1 200 21:20 09.11.2019
4452 Clear 12 1019 81 10000 2 150 20:44 09.11.2019
4453 Clear 13 1019 76 10000 3 150 20:24 09.11.2019
4454 Clear 13 1020 81 10000 2 150 19:58 09.11.2019
4455 Clear 13 1020 81 10000 1 200 19:40 09.11.2019
4456 Clear 13 1020 81 10000 1 200 19:22 09.11.2019
4457 Clear 13 1020 76 10000 1 230 18:57 09.11.2019
4458 Clear 13 1020 76 10000 2 220 18:38 09.11.2019
4459 Clear 13 1020 76 10000 2 220 18:18 09.11.2019
4460 Clear 14 1021 67 10000 1 0 17:41 09.11.2019
4461 Clear 14 1021 67 10000 1 0 17:22 09.11.2019
4462 Clear 14 1021 67 10000 2 110 16:56 09.11.2019
4463 Clear 14 1021 62 10000 3 110 16:37 09.11.2019
4464 Clear 14 1021 62 10000 3 110 16:18 09.11.2019
4465 Clear 14 1021 62 10000 2 120 15:41 09.11.2019
4466 Clear 14 1021 62 10000 3 100 15:23 09.11.2019
4467 Clear 15 1021 62 10000 3 100 14:46 09.11.2019
4468 Clear 15 1022 62 10000 3 110 14:23 09.11.2019
4469 Clear 15 1022 62 10000 2 120 13:58 09.11.2019
4470 Clear 15 1022 62 10000 2 120 13:40 09.11.2019
4471 Clear 16 1022 62 10000 3 140 13:21 09.11.2019
4472 Clear 16 1022 62 10000 3 140 12:57 09.11.2019
4473 Clear 15 1022 62 10000 3 140 12:39 09.11.2019
4474 Clear 16 1022 45 10000 2 70 12:21 09.11.2019
4475 Clear 16 1022 45 10000 2 60 11:48 09.11.2019
4476 Clear 17 1021 45 10000 3 70 11:22 09.11.2019
4477 Clear 17 1021 48 10000 3 60 10:57 09.11.2019
4478 Clear 17 1021 45 10000 3 40 10:39 09.11.2019
4479 Clear 18 1021 45 10000 3 40 10:18 09.11.2019
4480 Clear 18 1021 32 10000 4 20 09:44 09.11.2019
4481 Clear 19 1021 32 10000 4 20 09:21 09.11.2019
4482 Clear 19 1021 32 10000 3 10 08:56 09.11.2019
4483 Clear 20 1022 38 10000 3 20 08:37 09.11.2019
4484 Clear 19 1022 25 10000 3 20 08:18 09.11.2019
4485 Clear 19 1022 30 10000 2 20 07:42 09.11.2019
4486 Clear 19 1022 30 10000 2 20 07:22 09.11.2019
4487 Clear 19 1022 28 10000 1 0 06:47 09.11.2019
4488 Clear 19 1022 32 10000 1 0 06:28 09.11.2019
4489 Clear 18 1024 39 10000 3 340 05:42 09.11.2019
4490 Clear 18 1024 45 10000 2 60 04:48 09.11.2019
4491 Clear 20 1025 51 10000 3 20 02:57 09.11.2019
4492 Clear 20 1025 51 10000 3 10 02:38 09.11.2019
4493 Clear 14 1025 62 10000 2 10 01:18 09.11.2019
4494 Clear 15 1025 66 10000 2 360 00:43 09.11.2019
4495 Clear 15 1025 66 10000 2 360 00:43 09.11.2019
4496 Clear 13 1025 71 10000 2 360 00:25 09.11.2019
4497 Clear 13 1024 76 10000 2 30 23:41 08.11.2019
4498 Clear 12 1024 76 10000 2 30 23:23 08.11.2019
4499 Clear 12 1024 76 10000 2 20 22:59 08.11.2019
4500 Clear 12 1024 71 10000 2 350 22:40 08.11.2019
4501 Clear 12 1024 71 10000 2 350 22:21 08.11.2019
4502 Clear 11 1024 76 10000 2 20 21:42 08.11.2019
4503 Clear 12 1024 76 10000 2 20 21:24 08.11.2019
4504 Clear 12 1024 76 10000 2 360 20:58 08.11.2019
4505 Clear 12 1024 76 10000 2 360 20:40 08.11.2019
4506 Clear 12 1024 76 10000 2 360 20:20 08.11.2019
4507 Clear 12 1024 76 10000 2 350 19:55 08.11.2019
4508 Clear 13 1024 76 10000 2 360 19:36 08.11.2019
4509 Clear 12 1024 76 10000 2 360 19:18 08.11.2019
4510 Clear 12 1024 71 10000 2 10 18:54 08.11.2019
4511 Clear 12 1024 76 10000 2 360 18:36 08.11.2019
4512 Clear 13 1024 76 10000 2 360 18:18 08.11.2019
4513 Clear 12 1024 71 10000 2 340 17:54 08.11.2019
4514 Clear 12 1025 71 10000 2 350 17:36 08.11.2019
4515 Clear 13 1025 71 10000 2 350 17:18 08.11.2019
4516 Clear 13 1025 71 10000 2 360 16:57 08.11.2019
4517 Clear 13 1025 71 10000 2 360 16:57 08.11.2019
4518 Clear 13 1025 66 10000 3 10 16:38 08.11.2019
4519 Clear 13 1025 66 10000 3 10 16:18 08.11.2019
4520 Clear 13 1025 66 10000 3 360 15:41 08.11.2019
4521 Clear 13 1025 66 10000 3 360 15:23 08.11.2019
4522 Clear 14 1025 58 10000 3 20 14:57 08.11.2019
4523 Clear 14 1025 58 10000 4 30 14:38 08.11.2019
4524 Clear 14 1025 58 10000 4 30 14:20 08.11.2019
4525 Clear 14 1024 58 10000 4 30 13:59 08.11.2019
4526 Clear 15 1024 54 10000 5 30 13:39 08.11.2019
4527 Clear 15 1024 54 10000 5 30 13:21 08.11.2019
4528 Clear 15 1024 54 10000 5 30 12:45 08.11.2019
4529 Clear 15 1024 54 10000 5 30 12:27 08.11.2019
4530 Clear 15 1024 51 10000 4 40 11:58 08.11.2019
4531 Clear 16 1023 48 10000 3 10 11:40 08.11.2019
4532 Clear 16 1023 48 10000 3 10 11:21 08.11.2019
4533 Clear 17 1023 44 10000 3 20 10:58 08.11.2019
4534 Clear 17 1023 42 10000 4 10 10:40 08.11.2019
4535 Clear 16 1023 42 10000 4 10 10:21 08.11.2019
4536 Clear 16 1023 45 10000 4 10 09:56 08.11.2019
4537 Clear 17 1023 42 10000 5 360 09:37 08.11.2019
4538 Clear 17 1023 42 10000 5 360 09:18 08.11.2019
4539 Clear 17 1023 42 10000 5 360 09:18 08.11.2019
4540 Clear 18 1022 42 10000 5 20 08:44 08.11.2019
4541 Clear 18 1023 39 10000 5 360 08:20 08.11.2019
4542 Clear 18 1023 39 10000 6 360 07:43 08.11.2019
4543 Clear 18 1023 39 10000 6 360 07:23 08.11.2019
4544 Clear 19 1023 39 10000 5 360 06:56 08.11.2019
4545 Clear 18 1023 37 10000 6 350 06:36 08.11.2019
4546 Clear 18 1023 37 10000 6 350 06:18 08.11.2019
4547 Clear 19 1024 42 10000 6 10 05:25 08.11.2019
4548 Clear 18 1025 45 10000 6 350 04:18 08.11.2019
4549 Clouds 18 1025 48 10000 5 20 03:41 08.11.2019
4550 Clouds 17 1025 51 10000 6 20 02:54 08.11.2019
4551 Clouds 16 1025 62 10000 7 360 01:49 08.11.2019
4552 Clouds 16 1025 62 10000 5 360 01:31 08.11.2019
4553 Clear 14 1024 76 10000 3 10 00:37 08.11.2019
4554 Clear 14 1024 76 10000 3 10 00:19 08.11.2019
4555 Clear 14 1024 76 10000 4 360 23:43 07.11.2019
4556 Clear 14 1024 76 10000 3 360 23:24 07.11.2019
4557 Clouds 14 1024 76 10000 4 360 22:55 07.11.2019
4558 Clouds 14 1023 76 10000 4 360 22:36 07.11.2019
4559 Clouds 14 1023 76 10000 4 360 22:18 07.11.2019
4560 Clouds 14 1023 76 10000 4 360 21:38 07.11.2019
4561 Clouds 15 1023 76 10000 4 360 21:20 07.11.2019
4562 Clear 15 1022 76 10000 4 10 20:58 07.11.2019
4563 Clear 15 1022 76 10000 4 10 20:40 07.11.2019
4564 Clear 15 1022 76 10000 4 10 20:40 07.11.2019
4565 Clouds 15 1022 76 10000 4 10 20:21 07.11.2019
4566 Clouds 15 1022 67 10000 4 10 19:56 07.11.2019
4567 Clouds 15 1022 67 10000 5 20 19:37 07.11.2019
4568 Clouds 15 1022 67 10000 5 20 19:18 07.11.2019
4569 Clouds 16 1022 67 10000 4 20 18:56 07.11.2019
4570 Clouds 16 1022 72 10000 5 20 18:37 07.11.2019
4571 Clouds 16 1022 72 10000 5 20 18:19 07.11.2019
4572 Clouds 16 1022 72 10000 6 10 17:40 07.11.2019
4573 Clouds 16 1022 72 10000 6 30 17:22 07.11.2019
4574 Clouds 16 1022 72 10000 6 30 16:59 07.11.2019
4575 Clouds 16 1022 72 10000 6 30 16:40 07.11.2019
4576 Clouds 16 1022 72 10000 6 30 16:21 07.11.2019
4577 Clouds 16 1022 77 10000 6 30 15:59 07.11.2019
4578 Clouds 16 1022 72 10000 7 30 15:39 07.11.2019
4579 Clouds 17 1022 72 10000 7 30 15:19 07.11.2019
4580 Clear 16 1022 72 10000 3 20 14:45 07.11.2019
4581 Clear 16 1022 72 10000 3 20 14:27 07.11.2019
4582 Clouds 16 1022 72 10000 2 10 13:57 07.11.2019
4583 Clouds 16 1022 72 10000 3 10 13:39 07.11.2019
4584 Clouds 16 1022 72 10000 3 10 13:20 07.11.2019
4585 Clouds 17 1022 67 10000 5 10 12:58 07.11.2019
4586 Clouds 17 1021 63 10000 6 10 12:40 07.11.2019
4587 Clouds 17 1021 63 10000 6 10 12:21 07.11.2019
4588 Clouds 17 1021 63 10000 6 10 11:58 07.11.2019
4589 Clouds 17 1021 63 10000 6 10 11:58 07.11.2019
4590 Clouds 18 1021 59 10000 6 10 11:39 07.11.2019
4591 Clouds 18 1021 59 10000 6 10 11:20 07.11.2019
4592 Clouds 19 1020 55 10000 6 10 10:40 07.11.2019
4593 Clouds 18 1020 55 10000 6 10 10:19 07.11.2019
4594 Clouds 19 1019 45 10000 6 360 09:43 07.11.2019
4595 Clouds 20 1019 45 10000 6 360 09:22 07.11.2019
4596 Clouds 20 1019 49 10000 6 10 08:57 07.11.2019
4597 Clouds 20 1019 49 10000 6 360 08:38 07.11.2019
4598 Clouds 20 1019 49 10000 6 360 08:19 07.11.2019
4599 Clouds 20 1019 49 10000 6 360 08:19 07.11.2019
4600 Clouds 20 1019 49 10000 6 360 08:19 07.11.2019
4601 Clouds 20 1019 49 10000 6 10 07:42 07.11.2019
4602 Clouds 20 1019 49 10000 6 10 07:42 07.11.2019
4603 Clouds 20 1019 49 10000 6 10 07:22 07.11.2019
4604 Clouds 20 1019 49 10000 6 10 07:21 07.11.2019
4605 Clouds 20 1019 56 10000 5 20 06:46 07.11.2019
4606 -273 0 0 0 0 0 06:27 07.11.2019
4607 Clouds 20 1019 56 10000 5 20 06:26 07.11.2019
4608 Clouds 20 1020 56 10000 5 360 05:51 07.11.2019
4609 Clouds 20 1020 56 10000 5 360 05:32 07.11.2019
4610 -273 0 0 0 0 0 04:53 07.11.2019
4611 Clouds 19 1020 59 10000 6 10 04:52 07.11.2019
4612 Clouds 20 1020 59 10000 6 10 04:31 07.11.2019
4613 Clouds 20 1020 59 10000 6 10 04:30 07.11.2019
4614 Clouds 18 1019 68 10000 3 10 01:32 07.11.2019
4615 Clouds 18 1019 77 10000 3 10 00:46 07.11.2019
4616 Clouds 18 1019 77 10000 3 10 00:18 07.11.2019
4617 -273 0 0 0 0 0 00:18 07.11.2019
4618 Clouds 18 1018 82 10000 2 10 23:43 06.11.2019
4619 Rain 17 1018 82 10000 2 10 23:20 06.11.2019
4620 Rain 17 1017 82 10000 2 350 22:41 06.11.2019
4621 Rain 17 1017 82 10000 2 350 22:21 06.11.2019
4622 Clouds 17 1017 77 10000 2 360 21:58 06.11.2019
4623 Clouds 17 1017 77 10000 3 350 21:39 06.11.2019
4624 Clouds 17 1017 77 10000 3 350 21:20 06.11.2019
4625 Rain 17 1016 77 10000 3 350 20:57 06.11.2019
4626 Rain 17 1016 72 10000 2 360 20:39 06.11.2019
4627 Rain 17 1016 72 10000 2 360 20:20 06.11.2019
4628 Rain 17 1016 77 10000 2 360 19:57 06.11.2019
4629 Rain 17 1016 77 10000 1 10 19:37 06.11.2019
4630 Rain 18 1016 68 10000 1 60 19:19 06.11.2019
4631 Rain 18 1016 68 10000 1 60 18:55 06.11.2019
4632 Rain 18 1016 63 10000 2 80 18:36 06.11.2019
4633 Rain 18 1016 63 10000 2 80 18:18 06.11.2019
4634 Rain 18 1016 63 10000 1 0 17:42 06.11.2019
4635 Clouds 18 1017 63 10000 1 90 17:23 06.11.2019
4636 Clouds 18 1017 63 10000 1 90 16:57 06.11.2019
4637 Clouds 18 1017 63 10000 2 120 16:39 06.11.2019
4638 Clouds 18 1017 63 10000 2 120 16:20 06.11.2019
4639 Clouds 18 1017 63 10000 2 120 15:57 06.11.2019
4640 Clouds 18 1017 63 10000 2 100 15:37 06.11.2019
4641 Clouds 18 1017 63 10000 2 100 15:19 06.11.2019
4642 Clouds 18 1017 59 10000 2 110 14:57 06.11.2019
4643 Clouds 18 1017 59 10000 3 100 14:38 06.11.2019
4644 Clouds 18 1017 59 10000 3 100 14:20 06.11.2019
4645 Clouds 18 1017 59 10000 3 110 13:57 06.11.2019
4646 Clouds 18 1017 59 10000 3 120 13:37 06.11.2019
4647 Clouds 18 1017 59 10000 3 120 13:18 06.11.2019
4648 Clouds 18 1016 59 10000 3 100 12:43 06.11.2019
4649 Clouds 18 1016 59 10000 3 100 12:23 06.11.2019
4650 Clouds 18 1016 59 10000 3 120 11:59 06.11.2019
4651 Clouds 18 1016 59 10000 3 100 11:38 06.11.2019
4652 Clouds 18 1016 59 10000 3 100 11:19 06.11.2019
4653 Clouds 19 1016 55 10000 4 100 10:57 06.11.2019
4654 Clouds 19 1015 52 10000 3 90 10:39 06.11.2019
4655 Clouds 19 1015 52 10000 3 90 10:21 06.11.2019
4656 Clouds 20 1015 52 10000 3 50 09:57 06.11.2019
4657 Clouds 20 1015 52 10000 3 40 09:38 06.11.2019
4658 Clouds 20 1015 52 10000 3 40 09:19 06.11.2019
4659 Clouds 21 1015 46 10000 1 0 08:55 06.11.2019
4660 Clouds 21 1015 43 10000 1 0 08:36 06.11.2019
4661 Clouds 21 1015 43 10000 1 0 08:18 06.11.2019
4662 Clouds 21 1015 40 10000 2 340 07:41 06.11.2019
4663 Clouds 21 1015 40 10000 2 340 07:22 06.11.2019
4664 Clouds 21 1015 43 10000 1 0 06:47 06.11.2019
4665 Clouds 21 1016 46 10000 1 0 06:28 06.11.2019
4666 Clouds 20 1017 52 10000 2 0 04:53 06.11.2019
4667 Clouds 20 1019 63 10000 3 40 02:28 06.11.2019
4668 Clear 17 1019 72 10000 2 30 01:39 06.11.2019
4669 Clear 17 1019 77 10000 1 10 00:46 06.11.2019
4670 Clear 17 1019 77 10000 1 10 00:46 06.11.2019
4671 Clear 16 1019 87 10000 1.69 45 23:58 05.11.2019
4672 Clear 16 1018 81 10000 1 0 23:39 05.11.2019
4673 Clear 16 1018 81 10000 1 0 23:39 05.11.2019
4674 Clear 14 1018 81 10000 1 0 23:21 05.11.2019
4675 Clear 14 1018 81 10000 2 340 22:46 05.11.2019
4676 Clear 15 1018 77 10000 4 10 22:20 05.11.2019
4677 Clear 14 1018 76 10000 2 350 21:59 05.11.2019
4678 Clear 15 1018 77 10000 4 10 21:41 05.11.2019
4679 Clear 15 1018 77 10000 4 10 21:21 05.11.2019
4680 Clear 15 1018 77 10000 4 360 20:59 05.11.2019
4681 Clear 15 1018 77 10000 4 10 20:39 05.11.2019
4682 Clear 15 1018 76 10000 3 350 20:20 05.11.2019
4683 Clear 15 1018 76 10000 3 360 19:57 05.11.2019
4684 Clear 14 1019 81 10000 3 360 19:38 05.11.2019
4685 Clear 14 1019 81 10000 3 360 19:38 05.11.2019
4686 Clear 14 1019 81 10000 3 360 19:38 05.11.2019
4687 Clear 14 1019 81 10000 3 360 19:20 05.11.2019
4688 Clear 15 1019 76 10000 3 360 18:57 05.11.2019
4689 Clear 15 1019 71 10000 2 10 18:38 05.11.2019
4690 Clear 15 1019 71 10000 2 10 18:19 05.11.2019
4691 Clear 15 1019 71 10000 1 10 17:57 05.11.2019
4692 Clear 15 1020 67 10000 2 40 17:38 05.11.2019
4693 Clear 15 1020 67 10000 2 40 17:18 05.11.2019
4694 Clear 16 1020 63 10000 2 50 16:42 05.11.2019
4695 Clear 15 1020 67 10000 2 40 16:22 05.11.2019
4696 Clear 16 1020 63 10000 2 50 15:59 05.11.2019
4697 Clear 16 1020 63 10000 3 50 15:37 05.11.2019
4698 Clear 16 1020 63 10000 3 50 15:18 05.11.2019
4699 Clear 16 1020 63 10000 3 50 14:55 05.11.2019
4700 Clear 16 1020 63 10000 3 50 14:37 05.11.2019
4701 Clear 16 1020 63 10000 3 50 14:19 05.11.2019
4702 Clear 16 1020 63 10000 4 50 13:43 05.11.2019
4703 Clear 16 1020 59 10000 4 40 13:24 05.11.2019
4704 Clear 17 1020 59 10000 3 60 12:43 05.11.2019
4705 Clear 17 1020 59 10000 4 70 12:24 05.11.2019
4706 Clear 17 1020 55 10000 4 40 11:59 05.11.2019
4707 Clear 17 1020 52 10000 3 30 11:40 05.11.2019
4708 Clear 18 1020 52 10000 3 30 11:21 05.11.2019
4709 Clear 18 1019 52 10000 4 30 10:59 05.11.2019
4710 Clear 18 1019 48 10000 4 40 10:40 05.11.2019
4711 Clear 19 1019 48 10000 4 40 10:22 05.11.2019
4712 Clear 18 1019 45 10000 4 30 09:55 05.11.2019
4713 Clear 19 1019 42 10000 4 40 09:37 05.11.2019
4714 Clear 19 1019 42 10000 4 40 09:37 05.11.2019
4715 Clear 20 1019 42 10000 4 40 09:18 05.11.2019
4716 Clear 20 1019 43 10000 3 60 08:39 05.11.2019
4717 Clouds 21 1019 43 10000 5 20 08:20 05.11.2019
4718 Clouds 21 1019 43 10000 5 20 08:20 05.11.2019
4719 Clouds 21 1019 43 10000 5 20 07:57 05.11.2019
4720 Clouds 21 1019 45 10000 4 40 07:38 05.11.2019
4721 Clouds 20 1019 45 10000 4 40 07:19 05.11.2019
4722 Clouds 20 1019 45 10000 4 40 07:19 05.11.2019
4723 Clouds 21 1020 43 10000 4 360 06:46 05.11.2019
4724 Clouds 20 1020 46 10000 5 350 05:51 05.11.2019
4725 Clouds 19 1021 45 10000 5 10 05:22 05.11.2019
4726 Clouds 19 1022 52 10000 5 360 04:25 05.11.2019
4727 Clouds 22 1022 55 10000 5 10 03:49 05.11.2019
4728 Clouds 22 1023 63 10000 4 360 02:44 05.11.2019
4729 Clear 17 1023 67 10000 3 350 01:57 05.11.2019
4730 Clear 16 1022 72 10000 3 350 00:50 05.11.2019
4731 Clear 16 1022 76 10000 2 330 00:29 05.11.2019
4732 Clear 15 1022 82 10000 2 320 23:55 04.11.2019
4733 Clear 15 1022 82 10000 3 330 23:36 04.11.2019
4734 Clear 14 1022 82 10000 3 330 23:18 04.11.2019
4735 Clear 14 1022 82 10000 3 330 22:40 04.11.2019
4736 Clear 14 1022 82 10000 3 330 22:22 04.11.2019
4737 Clear 15 1022 76 10000 3 330 21:56 04.11.2019
4738 Clear 14 1021 82 10000 3 330 21:37 04.11.2019
4739 Clear 15 1021 82 10000 3 330 21:19 04.11.2019
4740 Clear 15 1021 82 10000 3 340 20:57 04.11.2019
4741 Clear 15 1021 82 10000 3 10 20:38 04.11.2019
4742 Clear 14 1021 82 10000 3 10 20:20 04.11.2019
4743 Clear 15 1021 82 10000 3 10 19:57 04.11.2019
4744 Clear 15 1022 82 10000 3 360 19:39 04.11.2019
4745 Clear 15 1022 82 10000 3 360 19:21 04.11.2019
4746 Clear 15 1022 76 10000 3 360 18:55 04.11.2019
4747 Clear 15 1022 76 10000 3 360 18:37 04.11.2019
4748 Clear 15 1022 76 10000 3 360 18:18 04.11.2019
4749 Clear 15 1022 77 10000 4 360 17:38 04.11.2019
4750 Clear 15 1022 77 10000 4 360 17:20 04.11.2019
4751 Clear 16 1022 76 10000 3 10 16:55 04.11.2019
4752 Clear 16 1022 76 10000 3 10 16:55 04.11.2019
4753 Clear 15 1023 72 10000 4 20 16:36 04.11.2019
4754 Clear 16 1023 72 10000 4 20 16:18 04.11.2019
4755 Clear 16 1023 72 10000 4 10 15:41 04.11.2019
4756 Clear 16 1023 72 10000 4 10 15:22 04.11.2019
4757 Clear 17 1023 72 10000 4 10 14:59 04.11.2019
4758 Clear 16 1023 77 10000 4 10 14:40 04.11.2019
4759 Clouds 16 1023 77 10000 4 10 14:21 04.11.2019
4760 Clouds 17 1023 72 10000 4 20 13:58 04.11.2019
4761 Clouds 17 1023 72 10000 4 30 13:40 04.11.2019
4762 Clear 17 1023 72 10000 4 30 13:21 04.11.2019
4763 Clear 17 1023 72 10000 5 30 12:57 04.11.2019
4764 Clear 17 1023 68 10000 6 30 12:38 04.11.2019
4765 Clear 18 1023 68 10000 6 30 12:18 04.11.2019
4766 Clear 18 1022 68 10000 5 30 11:43 04.11.2019
4767 Clouds 19 1022 68 10000 5 40 11:23 04.11.2019
4768 Clouds 19 1022 63 10000 7 20 10:59 04.11.2019
4769 Clouds 19 1022 63 10000 6 10 10:41 04.11.2019
4770 Clouds 19 1022 63 10000 6 10 10:41 04.11.2019
4771 Clouds 19 1022 63 10000 6 10 10:23 04.11.2019
4772 Clouds 20 1021 49 10000 7 10 09:45 04.11.2019
4773 Clouds 21 1021 56 10000 8 10 09:27 04.11.2019
4774 Clouds 21 1021 49 10000 6 10 08:57 04.11.2019
4775 Clouds 21 1021 46 10000 6 20 08:37 04.11.2019
4776 Clouds 21 1021 46 10000 6 20 08:37 04.11.2019
4777 Clouds 22 1021 46 10000 6 20 08:18 04.11.2019
4778 Clouds 22 1021 49 10000 6 20 07:42 04.11.2019
4779 Clouds 22 1021 49 10000 6 20 07:21 04.11.2019
4780 Clouds 23 1021 49 10000 6 20 06:49 04.11.2019
4781 Clouds 22 1021 49 10000 6 20 06:49 04.11.2019
4782 Clouds 23 1021 53 10000 7 10 06:18 04.11.2019
4783 Clouds 22 1022 53 10000 5 10 05:38 04.11.2019
4784 Clouds 22 1023 53 10000 5 30 04:41 04.11.2019
4785 Clouds 23 1023 52 10000 5 40 03:48 04.11.2019
4786 Clouds 20 1024 72 10000 4 10 01:45 04.11.2019
4787 Clouds 19 1024 77 10000 3 360 01:19 04.11.2019
4788 Clouds 19 1023 82 10000 2 340 00:39 04.11.2019
4789 Clouds 18 1023 82 10000 2 340 00:19 04.11.2019
4790 Clouds 17 1022 87 10000 2 350 23:40 03.11.2019
4791 Clouds 17 1022 82 10000 5 10 23:21 03.11.2019
4792 Clouds 17 1022 82 10000 5 10 22:57 03.11.2019
4793 Clouds 17 1022 82 10000 5 10 22:39 03.11.2019
4794 Clouds 17 1022 87 10000 2 350 22:19 03.11.2019
4795 Clouds 17 1022 88 10000 5 360 21:43 03.11.2019
4796 Clouds 17 1021 82 10000 5 10 21:22 03.11.2019
4797 Clouds 17 1021 82 10000 5 10 21:22 03.11.2019
4798 Clouds 17 1021 82 10000 2 360 20:58 03.11.2019
4799 Clouds 17 1021 82 10000 6 360 20:38 03.11.2019
4800 Clear 17 1021 87 10000 2 360 20:19 03.11.2019
4801 Clear 17 1022 87 10000 3 350 19:57 03.11.2019
4802 Clear 17 1022 87 10000 3 350 19:57 03.11.2019
4803 Clear 17 1022 87 10000 2 360 19:39 03.11.2019
4804 Clear 17 1022 87 10000 2 360 19:39 03.11.2019
4805 Clouds 18 1021 82 10000 5 360 19:20 03.11.2019
4806 Clouds 18 1021 82 10000 6 10 18:57 03.11.2019
4807 Clear 18 1021 82 10000 5 10 18:37 03.11.2019
4808 Clear 18 1021 82 10000 5 10 18:18 03.11.2019
4809 Clear 17 1022 77 10000 3 350 17:42 03.11.2019
4810 Clear 17 1022 77 10000 3 350 17:20 03.11.2019
4811 Clear 17 1022 77 10000 2 360 16:59 03.11.2019
4812 Clear 17 1022 77 10000 2 360 16:59 03.11.2019
4813 Clear 18 1022 72 10000 2 30 16:41 03.11.2019
4814 Clear 18 1022 72 10000 2 30 16:22 03.11.2019
4815 Clear 18 1022 72 10000 3 20 15:58 03.11.2019
4816 Clear 18 1022 72 10000 3 20 15:58 03.11.2019
4817 Clear 18 1022 72 10000 3 20 15:39 03.11.2019
4818 Clear 18 1022 72 10000 3 20 15:21 03.11.2019
4819 Clear 18 1022 68 10000 4 30 14:43 03.11.2019
4820 Clouds 18 1022 68 10000 4 30 14:20 03.11.2019
4821 Clouds 18 1021 68 10000 4 30 13:59 03.11.2019
4822 Clouds 18 1021 68 10000 4 30 13:59 03.11.2019
4823 Clouds 18 1021 63 10000 4 40 13:41 03.11.2019
4824 Clear 19 1021 63 10000 4 40 13:18 03.11.2019
4825 Clear 19 1021 59 10000 5 40 12:54 03.11.2019
4826 Clear 19 1021 63 10000 5 40 12:36 03.11.2019
4827 Clear 19 1021 63 10000 5 40 12:18 03.11.2019
4828 Clear 19 1020 60 10000 6 50 11:42 03.11.2019
4829 Clouds 20 1020 60 10000 6 50 11:21 03.11.2019
4830 Clouds 20 1020 49 10000 4 40 10:55 03.11.2019
4831 Clouds 21 1019 49 10000 4 40 10:37 03.11.2019
4832 Clouds 21 1019 49 10000 4 40 10:18 03.11.2019
4833 Clouds 21 1019 49 10000 4 40 10:18 03.11.2019
4834 Clouds 22 1019 35 10000 4 360 09:42 03.11.2019
4835 Clouds 22 1019 35 10000 4 360 09:24 03.11.2019
4836 Clouds 22 1019 33 10000 4 340 08:56 03.11.2019
4837 Clouds 22 1019 33 10000 4 340 08:56 03.11.2019
4838 Clouds 22 1019 38 10000 4 10 08:36 03.11.2019
4839 Clouds 23 1019 38 10000 4 10 08:18 03.11.2019
4840 Clouds 22 1019 46 10000 5 40 07:44 03.11.2019
4841 Clouds 22 1019 46 10000 5 40 07:20 03.11.2019
4842 Clouds 22 1019 46 10000 5 40 07:20 03.11.2019
4843 Clouds 23 1019 53 10000 4 30 06:39 03.11.2019
4844 Clouds 23 1019 46 10000 3 30 05:52 03.11.2019
4845 Clouds 24 1019 46 10000 3 10 05:32 03.11.2019
4846 Clouds 22 1019 49 10000 3 20 04:51 03.11.2019
4847 Clouds 23 1020 68 10000 3 20 03:54 03.11.2019
4848 Clouds 23 1020 68 10000 1 0 02:47 03.11.2019
4849 Clouds 20 1020 72 10000 1 0 02:23 03.11.2019
4850 Clouds 20 1020 73 10000 1 0 01:49 03.11.2019
4851 Clouds 20 1020 77 10000 2 360 01:24 03.11.2019
4852 Clouds 20 1019 77 10000 1 0 00:57 03.11.2019
4853 Clouds 19 1019 77 10000 1 0 00:37 03.11.2019
4854 Clouds 20 1019 77 10000 1 0 00:18 03.11.2019
4855 Clouds 19 1018 82 10000 4 10 23:39 02.11.2019
4856 Clouds 19 1018 82 10000 4 10 23:20 02.11.2019
4857 Clouds 19 1017 82 10000 3 20 22:56 02.11.2019
4858 Clouds 19 1017 77 10000 3 20 22:38 02.11.2019
4859 Clouds 19 1017 77 10000 3 20 22:19 02.11.2019
4860 Clouds 19 1017 77 10000 3 20 22:19 02.11.2019
4861 Clouds 19 1017 77 10000 3 20 21:57 02.11.2019
4862 Clouds 19 1018 77 10000 1 0 21:38 02.11.2019
4863 Clouds 19 1018 77 10000 1 0 21:18 02.11.2019
4864 Clouds 19 1018 77 10000 1 0 21:18 02.11.2019
4865 Clouds 19 1018 77 10000 1 0 21:18 02.11.2019
4866 Clouds 19 1018 77 10000 1 0 21:18 02.11.2019
4867 Clouds 19 1017 77 10000 1 0 20:59 02.11.2019
4868 Rain 19 1017 77 10000 2 120 20:40 02.11.2019
4869 Rain 19 1017 77 10000 2 120 20:20 02.11.2019
4870 Clouds 19 1018 77 10000 1 0 19:55 02.11.2019
4871 Clouds 19 1017 72 10000 3 140 19:36 02.11.2019
4872 Clouds 19 1017 72 10000 3 140 19:18 02.11.2019
4873 Clouds 20 1018 68 10000 1 0 18:42 02.11.2019
4874 Clouds 19 1018 72 10000 1 0 18:24 02.11.2019
4875 Clouds 20 1018 68 10000 3 70 17:59 02.11.2019
4876 Clouds 20 1019 68 10000 2 120 17:39 02.11.2019
4877 Clouds 20 1019 68 10000 2 120 17:21 02.11.2019
4878 Clouds 20 1019 68 10000 1 0 16:57 02.11.2019
4879 Clouds 20 1019 68 10000 2 90 16:38 02.11.2019
4880 Clouds 20 1019 68 10000 2 90 16:18 02.11.2019
4881 Clouds 20 1019 68 10000 2 100 15:42 02.11.2019
4882 Clouds 20 1019 68 10000 2 100 15:20 02.11.2019
4883 Clouds 20 1019 68 10000 2 100 15:20 02.11.2019
4884 Clouds 19 1018 64 10000 3 100 14:43 02.11.2019
4885 Clouds 20 1018 64 10000 3 100 14:24 02.11.2019
4886 Clouds 20 1018 64 10000 3 100 14:24 02.11.2019
4887 Clouds 20 1018 64 10000 3 110 13:58 02.11.2019
4888 Clouds 20 1018 64 10000 3 120 13:39 02.11.2019
4889 Clouds 20 1018 64 10000 3 120 13:19 02.11.2019
4890 Clouds 20 1018 60 10000 4 110 12:41 02.11.2019
4891 Clouds 20 1018 60 10000 4 110 12:23 02.11.2019
4892 Clouds 20 1018 60 10000 4 120 11:59 02.11.2019
4893 Clouds 20 1017 56 10000 4 110 11:40 02.11.2019
4894 Clear 20 1017 56 10000 4 110 11:22 02.11.2019
4895 Clear 22 1017 53 10000 4 100 10:51 02.11.2019
4896 Clear 21 1017 56 10000 4 100 10:29 02.11.2019
4897 Clear 21 1017 49 10000 4 100 09:59 02.11.2019
4898 Clear 22 1017 46 10000 3 110 09:40 02.11.2019
4899 Clear 23 1017 46 10000 3 110 09:20 02.11.2019
4900 Clear 23 1017 41 10000 2 100 08:47 02.11.2019
4901 Clouds 24 1017 44 10000 3 140 08:22 02.11.2019
4902 Clouds 23 1017 41 10000 2 110 07:51 02.11.2019
4903 Clouds 23 1017 41 10000 2 0 07:33 02.11.2019
4904 Clouds 25 1017 44 10000 3 80 06:58 02.11.2019
4905 Clouds 25 1018 43 10000 3 80 06:39 02.11.2019
4906 Clouds 23 1018 46 10000 2 110 05:59 02.11.2019
4907 Clouds 23 1018 46 10000 2 0 05:25 02.11.2019
4908 Clouds 22 1019 46 8000 2 0 04:21 02.11.2019
4909 Clouds 26 1020 56 8000 2 0 03:50 02.11.2019
4910 Clouds 22 1020 64 6000 2 110 02:42 02.11.2019
4911 Mist 18 1021 88 3500 2 360 01:44 02.11.2019
4912 Mist 18 1021 88 3500 2 360 01:23 02.11.2019
4913 Mist 18 1021 88 4000 1 0 00:51 02.11.2019
4914 Mist 18 1021 93 4000 1 0 00:26 02.11.2019
4915 Mist 17 1020 87 4000 1 0 23:48 01.11.2019
4916 Mist 17 1020 93 5000 1.33 57 23:22 01.11.2019
4917 Clouds 17 1020 87 6000 1 0 22:58 01.11.2019
4918 Clouds 17 1020 93 7000 2 340 22:39 01.11.2019
4919 Clouds 17 1020 93 7000 2 340 22:20 01.11.2019
4920 Clouds 17 1020 87 8000 1 0 21:41 01.11.2019
4921 Clouds 17 1020 87 8000 1 0 21:23 01.11.2019
4922 Clouds 17 1020 93 10000 1 0 20:57 01.11.2019
4923 Clouds 17 1020 87 10000 1 10 20:39 01.11.2019
4924 Clouds 17 1020 87 10000 1 10 20:19 01.11.2019
4925 Clouds 17 1020 87 10000 1 40 19:55 01.11.2019
4926 Clouds 17 1020 87 10000 1.05 61 19:36 01.11.2019
4927 Clouds 16 1020 87 10000 1.05 61 19:18 01.11.2019
4928 Clouds 16 1021 82 10000 1.05 61 18:39 01.11.2019
4929 Clouds 17 1021 82 10000 1.05 61 18:20 01.11.2019
4930 Clouds 18 1021 77 10000 1.05 61 17:55 01.11.2019
4931 Clouds 18 1021 82 10000 1 0 17:36 01.11.2019
4932 Clear 18 1021 82 10000 1 0 17:18 01.11.2019
4933 Clear 18 1021 72 10000 1 0 16:37 01.11.2019
4934 Clear 18 1021 72 10000 1 0 16:18 01.11.2019
4935 Clear 19 1021 68 10000 1 0 15:41 01.11.2019
4936 Clear 19 1021 68 10000 1 0 15:22 01.11.2019
4937 Clear 19 1022 68 10000 2 120 14:58 01.11.2019
4938 Clear 19 1022 68 10000 2 140 14:40 01.11.2019
4939 Clouds 19 1022 68 10000 2 140 14:21 01.11.2019
4940 Clouds 19 1021 63 10000 2 130 13:56 01.11.2019
4941 Clouds 19 1021 59 10000 2 130 13:37 01.11.2019
4942 Clouds 20 1021 59 10000 2 130 13:18 01.11.2019
4943 Clouds 20 1021 56 10000 2 130 12:43 01.11.2019
4944 Clouds 20 1021 49 10000 3 120 12:24 01.11.2019
4945 Clouds 21 1021 40 10000 2 120 11:43 01.11.2019
4946 Clouds 21 1021 40 10000 2 120 11:43 01.11.2019
4947 Clouds 21 1021 40 10000 2 120 11:25 01.11.2019
4948 Clouds 22 1021 37 10000 3 100 10:58 01.11.2019
4949 Clouds 22 1020 33 10000 4 100 10:39 01.11.2019
4950 Clouds 22 1020 33 10000 4 100 10:20 01.11.2019
4951 Clouds 23 1021 33 10000 4 90 09:45 01.11.2019
4952 Clouds 24 1020 31 10000 4 90 09:26 01.11.2019
4953 Clouds 24 1020 33 10000 4 90 08:58 01.11.2019
4954 Clouds 24 1021 33 10000 4 110 08:40 01.11.2019
4955 Clouds 25 1021 33 10000 4 110 08:20 01.11.2019
4956 Clouds 25 1020 31 10000 4 80 07:52 01.11.2019
4957 Clouds 25 1021 29 10000 4 130 07:24 01.11.2019
4958 Clouds 26 1021 26 10000 4 140 06:56 01.11.2019
4959 Clouds 24 1021 29 10000 2 100 06:23 01.11.2019
4960 Clouds 24 1022 33 10000 3 150 05:59 01.11.2019
4961 Clouds 24 1022 33 10000 3 100 05:38 01.11.2019
4962 Clouds 27 1023 40 10000 3 100 03:33 01.11.2019
4963 Clear 20 1023 60 10000 3 130 01:49 01.11.2019
4964 Clear 20 1023 64 10000 1 0 01:22 01.11.2019
4965 Clear 17 1023 82 10000 1 70 00:20 01.11.2019
4966 Clear 17 1023 82 10000 1.04 85 23:45 31.10.2019
4967 Clear 15 1022 87 10000 1 0 23:27 31.10.2019
4968 Clear 16 1022 82 10000 1 20 22:59 31.10.2019
4969 Clear 16 1022 82 10000 1 20 22:59 31.10.2019
4970 Clear 16 1022 82 10000 1 360 22:40 31.10.2019
4971 Clear 16 1022 82 10000 1 360 22:22 31.10.2019
4972 Clear 16 1022 77 10000 1 20 21:56 31.10.2019
4973 Clear 16 1022 77 10000 1 20 21:56 31.10.2019
4974 Clear 16 1022 76 10000 1.05 82 21:37 31.10.2019
4975 Clear 16 1022 76 10000 1.05 82 21:18 31.10.2019
4976 Clear 16 1022 77 10000 1.05 82 20:40 31.10.2019
4977 Clear 16 1022 77 10000 1.05 82 20:40 31.10.2019
4978 Clouds 16 1022 77 10000 1.43 119 20:22 31.10.2019
4979 Clouds 17 1022 77 10000 1 30 19:45 31.10.2019
4980 Clouds 17 1022 77 10000 1 150 19:27 31.10.2019
4981 Clouds 17 1022 72 10000 1 190 18:59 31.10.2019
4982 Clouds 17 1022 72 10000 1 160 18:39 31.10.2019
4983 Clouds 17 1022 72 10000 1 160 18:21 31.10.2019
4984 Clouds 17 1022 72 10000 1 160 18:21 31.10.2019
4985 Clouds 17 1022 72 10000 1 0 17:55 31.10.2019
4986 Clouds 17 1022 67 10000 1 0 17:36 31.10.2019
4987 Clouds 17 1022 67 10000 1 0 17:18 31.10.2019
4988 Clouds 18 1022 67 10000 2 140 16:41 31.10.2019
4989 Clouds 18 1022 67 10000 2 140 16:20 31.10.2019
4990 Clouds 18 1022 67 10000 1 0 15:58 31.10.2019
4991 Clouds 18 1022 63 10000 2 160 15:40 31.10.2019
4992 Clouds 18 1022 63 10000 2 160 15:20 31.10.2019
4993 Clouds 18 1022 59 10000 2 150 14:57 31.10.2019
4994 Clouds 18 1022 63 10000 2 140 14:39 31.10.2019
4995 Clouds 18 1022 63 10000 2 140 14:20 31.10.2019
4996 Clouds 18 1022 63 10000 2 150 13:57 31.10.2019
4997 Clouds 19 1022 68 10000 3 150 13:38 31.10.2019
4998 Clouds 19 1022 68 10000 3 150 13:19 31.10.2019
4999 Clouds 19 1022 59 10000 3 150 12:44 31.10.2019
5000 Clouds 19 1022 55 10000 3 140 12:24 31.10.2019
5001 Clouds 19 1021 55 10000 3 150 11:59 31.10.2019
5002 Clouds 20 1021 52 10000 4 150 11:41 31.10.2019
5003 Clear 20 1021 52 10000 4 150 11:19 31.10.2019
5004 Clear 21 1021 52 10000 4 180 10:57 31.10.2019
5005 Clear 21 1021 52 10000 4 180 10:57 31.10.2019
5006 Clear 21 1021 52 10000 4 180 10:38 31.10.2019
5007 Clear 20 1021 52 10000 4 180 10:19 31.10.2019
5008 Clear 24 1020 29 10000 1 0 09:43 31.10.2019
5009 Clear 24 1020 29 10000 1 0 09:19 31.10.2019
5010 Clear 23 1020 31 10000 2 0 08:54 31.10.2019
5011 Clear 23 1020 31 10000 2 0 08:34 31.10.2019
5012 Clear 24 1020 29 10000 2 200 07:58 31.10.2019
5013 Clear 23 1020 31 10000 2 0 07:39 31.10.2019
5014 Clear 23 1020 31 10000 2 0 07:21 31.10.2019
5015 Clear 24 1021 29 10000 2 130 06:39 31.10.2019
5016 Clear 24 1021 29 10000 2 130 06:20 31.10.2019
5017 Clear 23 1023 35 10000 1 0 04:35 31.10.2019
5018 Clear 24 1023 49 10000 2 190 02:45 31.10.2019
5019 Clear 20 1023 55 10000 2 180 01:53 31.10.2019
5020 Clear 17 1022 76 10000 1 170 00:40 31.10.2019
5021 Clear 17 1022 76 10000 1 170 00:22 31.10.2019
5022 Clear 16 1022 76 10000 1 20 23:33 30.10.2019
5023 Clear 15 1022 82 10000 1 10 22:55 30.10.2019
5024 Clear 16 1022 76 10000 1 100 22:37 30.10.2019
5025 Clear 16 1022 76 10000 1 100 22:18 30.10.2019
5026 Clear 16 1022 76 10000 1 20 21:54 30.10.2019
5027 Clear 15 1022 76 10000 1.24 169 21:36 30.10.2019
5028 Clear 16 1022 76 10000 1.24 169 21:18 30.10.2019
5029 Clear 16 1022 71 10000 1.24 169 20:42 30.10.2019
5030 Clouds 16 1022 71 10000 1.42 155 20:22 30.10.2019
5031 Clouds 16 1022 67 10000 1.42 162 19:59 30.10.2019
5032 Clouds 16 1022 67 10000 2 130 19:39 30.10.2019
5033 Clouds 16 1022 67 10000 2 130 19:39 30.10.2019
5034 Clouds 16 1022 67 10000 2 130 19:20 30.10.2019
5035 Clouds 16 1022 63 10000 2 160 18:58 30.10.2019
5036 Clouds 17 1022 63 10000 1 160 18:37 30.10.2019
5037 Clouds 17 1022 63 10000 1 160 18:37 30.10.2019
5038 Clouds 16 1022 63 10000 1 160 18:18 30.10.2019
5039 Clouds 16 1022 67 10000 2 170 17:41 30.10.2019
5040 Clouds 17 1022 67 10000 2 170 17:19 30.10.2019
5041 Clouds 17 1022 63 10000 2 150 16:56 30.10.2019
5042 Clouds 17 1022 59 10000 3 130 16:38 30.10.2019
5043 Clouds 17 1022 59 10000 3 130 16:20 30.10.2019
5044 Clouds 17 1022 55 10000 4 130 15:57 30.10.2019
5045 Clouds 17 1023 55 10000 3 130 15:38 30.10.2019
5046 Clouds 18 1023 55 10000 3 130 15:19 30.10.2019
5047 Clouds 17 1023 59 10000 3 150 14:55 30.10.2019
5048 Clouds 17 1023 59 10000 3 150 14:55 30.10.2019
5049 Clouds 18 1023 59 10000 3 160 14:36 30.10.2019
5050 Clear 18 1023 59 10000 3 160 14:18 30.10.2019
5051 Clear 18 1022 55 10000 3 140 13:42 30.10.2019
5052 Clear 18 1022 55 10000 3 140 13:20 30.10.2019
5053 Clear 18 1022 55 10000 3 150 12:58 30.10.2019
5054 Clear 18 1022 48 10000 3 150 12:40 30.10.2019
5055 Clear 18 1022 48 10000 3 150 12:22 30.10.2019
5056 Clear 18 1022 48 10000 4 150 11:43 30.10.2019
5057 Clear 19 1022 48 10000 4 150 11:24 30.10.2019
5058 Clear 20 1022 49 10000 5 150 10:46 30.10.2019
5059 Clear 20 1021 43 10000 6 130 10:27 30.10.2019
5060 Clear 21 1021 28 10000 2 230 09:59 30.10.2019
5061 Clear 22 1021 27 10000 2 240 09:40 30.10.2019
5062 Clear 23 1021 27 10000 2 240 09:22 30.10.2019
5063 Clear 22 1021 27 10000 2 190 08:42 30.10.2019
5064 Clear 22 1021 27 10000 2 190 08:23 30.10.2019
5065 Clear 22 1021 27 10000 1 0 07:57 30.10.2019
5066 Clear 23 1021 25 10000 2 0 07:37 30.10.2019
5067 Clear 23 1021 27 10000 2 270 06:46 30.10.2019
5068 Clear 23 1022 28 10000 3 0 06:27 30.10.2019
5069 Clear 22 1022 33 10000 2 0 05:54 30.10.2019
5070 Clear 22 1022 31 10000 2 340 05:35 30.10.2019
5071 Clear 21 1024 40 10000 2 0 03:48 30.10.2019
5072 Clear 23 1024 43 10000 1 0 03:21 30.10.2019
5073 Clear 23 1024 49 10000 1 0 02:39 30.10.2019
5074 Clear 17 1024 63 10000 1 0 01:42 30.10.2019
5075 Clear 16 1023 87 10000 1 0 00:32 30.10.2019
5076 Clear 16 1023 87 10000 1 210 23:49 29.10.2019
5077 Clear 15 1022 87 10000 1 200 23:30 29.10.2019
5078 Clear 15 1022 87 10000 0.67 85 22:57 29.10.2019
5079 Clear 14 1022 87 10000 1 0 22:39 29.10.2019
5080 Clear 14 1022 87 10000 1 0 22:19 29.10.2019
5081 Clear 14 1022 87 10000 0.67 85 21:54 29.10.2019
5082 Clear 14 1022 87 10000 1 350 21:36 29.10.2019
5083 Clear 14 1022 87 10000 1 350 21:18 29.10.2019
5084 Clear 14 1022 82 10000 0.67 85 20:41 29.10.2019
5085 Clear 15 1022 82 10000 1.06 82 20:21 29.10.2019
5086 Clear 15 1022 76 10000 1 20 19:58 29.10.2019
5087 Clear 15 1022 76 10000 1 30 19:38 29.10.2019
5088 Clear 15 1022 76 10000 1 30 19:20 29.10.2019
5089 Clear 15 1022 76 10000 1.06 82 18:57 29.10.2019
5090 Clear 16 1022 72 10000 1 0 18:37 29.10.2019
5091 Clear 16 1022 72 10000 1 0 18:19 29.10.2019
5092 Clear 16 1022 72 10000 1 0 18:19 29.10.2019
5093 Clear 16 1022 67 10000 1 0 17:55 29.10.2019
5094 Clear 16 1022 67 10000 1 0 17:36 29.10.2019
5095 Clear 16 1022 67 10000 1 0 17:18 29.10.2019
5096 Clear 17 1022 63 10000 1 0 16:39 29.10.2019
5097 Clear 17 1022 63 10000 1 0 16:21 29.10.2019
5098 Clear 17 1022 59 10000 1 90 15:56 29.10.2019
5099 Clear 17 1022 59 10000 1 0 15:38 29.10.2019
5100 Clear 17 1022 59 10000 1 0 15:20 29.10.2019
5101 Clear 17 1022 63 10000 1 90 14:55 29.10.2019
5102 Clear 17 1022 59 10000 1 0 14:37 29.10.2019
5103 Clear 17 1022 59 10000 1 0 14:18 29.10.2019
5104 Clear 18 1021 59 10000 2 40 13:40 29.10.2019
5105 Clear 18 1021 59 10000 2 40 13:40 29.10.2019
5106 Clear 18 1021 59 10000 2 40 13:22 29.10.2019
5107 Clear 18 1021 59 10000 3 50 12:45 29.10.2019
5108 Clear 18 1021 68 10000 5 30 12:26 29.10.2019
5109 Clear 18 1020 42 10000 4 50 11:59 29.10.2019
5110 Clear 19 1020 40 10000 4 360 11:40 29.10.2019
5111 Clear 20 1020 40 10000 4 360 11:19 29.10.2019
5112 Clear 20 1020 40 10000 3 10 10:57 29.10.2019
5113 Clear 20 1019 37 10000 4 10 10:38 29.10.2019
5114 Clear 20 1019 37 10000 4 10 10:20 29.10.2019
5115 Clear 21 1019 37 10000 5 20 09:44 29.10.2019
5116 Clear 22 1019 37 10000 5 20 09:23 29.10.2019
5117 Clear 21 1019 35 10000 5 10 08:58 29.10.2019
5118 Clear 22 1019 35 10000 5 10 08:39 29.10.2019
5119 Clear 22 1019 35 10000 5 10 08:21 29.10.2019
5120 Clear 23 1019 35 10000 6 360 07:49 29.10.2019
5121 Clear 22 1019 33 10000 6 340 07:22 29.10.2019
5122 Clear 22 1019 27 10000 6 330 06:55 29.10.2019
5123 Clear 24 1019 35 8000 5 340 06:36 29.10.2019
5124 Clear 24 1019 35 8000 5 340 06:18 29.10.2019
5125 Clear 22 1019 33 6000 6 360 05:48 29.10.2019
5126 Clear 22 1019 28 6000 6 330 05:18 29.10.2019
5127 Haze 23 1020 37 5000 4 320 03:31 29.10.2019
5128 Haze 18 1020 67 5000 3 300 01:57 29.10.2019
5129 Mist 16 1019 77 5000 3 0 01:36 29.10.2019
5130 Mist 17 1019 82 4500 3 280 00:54 29.10.2019
5131 Mist 16 1019 93 4200 1 0 00:26 29.10.2019
5132 Mist 15 1018 100 3000 2 280 23:40 28.10.2019
5133 Mist 15 1018 100 3000 2 280 23:20 28.10.2019
5134 Mist 15 1018 93 3400 2 220 22:57 28.10.2019
5135 Mist 15 1018 93 3400 2 220 22:57 28.10.2019
5136 Mist 15 1018 100 3600 1 210 22:36 28.10.2019
5137 Mist 15 1017 93 2800 5 270 22:18 28.10.2019
5138 Mist 15 1017 100 4000 1 0 21:42 28.10.2019
5139 Mist 15 1017 100 4000 1 0 21:22 28.10.2019
5140 Mist 15 1017 93 4000 1 210 20:59 28.10.2019
5141 Mist 15 1017 100 4200 1 0 20:41 28.10.2019
5142 Mist 15 1017 100 4200 1 0 20:22 28.10.2019
5143 Mist 15 1017 100 5000 2 240 19:55 28.10.2019
5144 Mist 15 1017 87 5000 2 240 19:36 28.10.2019
5145 Mist 15 1017 87 5000 2 240 19:36 28.10.2019
5146 Mist 15 1017 87 5000 2 240 19:36 28.10.2019
5147 Mist 15 1017 87 5000 2 240 19:18 28.10.2019
5148 Mist 15 1018 93 5000 2 240 18:57 28.10.2019
5149 Mist 15 1018 93 5000 2 240 18:38 28.10.2019
5150 Mist 16 1018 93 5000 2 240 18:20 28.10.2019
5151 Mist 15 1018 93 5000 2 230 17:55 28.10.2019
5152 Clear 16 1018 93 6000 2 250 17:36 28.10.2019
5153 Clear 16 1018 93 6000 2 250 17:18 28.10.2019
5154 Clear 16 1018 93 6000 2 250 17:18 28.10.2019
5155 Clear 16 1018 87 7000 2 220 16:54 28.10.2019
5156 Clear 16 1018 87 7000 2 220 16:36 28.10.2019
5157 Clear 16 1018 87 7000 2 220 16:18 28.10.2019
5158 Clear 16 1018 87 8000 2 230 15:42 28.10.2019
5159 Clear 16 1018 87 8000 2 230 15:24 28.10.2019
5160 Clear 16 1018 87 8000 2 220 14:59 28.10.2019
5161 Clear 17 1017 82 8000 3 230 14:40 28.10.2019
5162 Clouds 17 1017 82 8000 3 230 14:20 28.10.2019
5163 Clouds 17 1017 82 8000 2 240 13:59 28.10.2019
5164 Clouds 17 1017 82 8000 2 240 13:41 28.10.2019
5165 Clouds 17 1017 82 8000 2 240 13:18 28.10.2019
5166 Clouds 18 1017 72 8000 3 240 12:43 28.10.2019
5167 Clouds 18 1017 72 8000 3 240 12:22 28.10.2019
5168 Clouds 18 1016 72 6000 2 220 11:58 28.10.2019
5169 Clouds 18 1016 72 6000 2 220 11:37 28.10.2019
5170 Clouds 19 1016 72 6000 2 220 11:19 28.10.2019
5171 Clouds 19 1015 68 7000 3 230 10:41 28.10.2019
5172 Clouds 19 1015 68 7000 3 230 10:22 28.10.2019
5173 Clouds 20 1015 68 8000 4 220 09:58 28.10.2019
5174 Clouds 20 1015 64 8000 4 220 09:39 28.10.2019
5175 Clouds 20 1015 64 8000 4 220 09:39 28.10.2019
5176 Clouds 21 1015 64 8000 4 220 09:19 28.10.2019
5177 Clouds 20 1015 64 8000 4 220 08:57 28.10.2019
5178 Clouds 21 1015 64 8000 4 230 08:38 28.10.2019
5179 Clouds 21 1015 64 8000 4 230 08:19 28.10.2019
5180 Clouds 20 1015 68 8000 4 220 07:56 28.10.2019
5181 Clouds 21 1015 64 8000 4 210 07:36 28.10.2019
5182 Clouds 22 1015 64 8000 4 210 07:18 28.10.2019
5183 Clouds 21 1016 64 10000 4 0 06:39 28.10.2019
5184 Clouds 22 1017 64 10000 3 270 05:40 28.10.2019
5185 Clouds 24 1017 64 10000 4 210 03:45 28.10.2019
5186 Clouds 22 1018 72 10000 3 230 02:46 28.10.2019
5187 Clouds 18 1018 72 10000 3 230 01:55 28.10.2019
5188 Clouds 16 1018 77 10000 1 0 00:56 28.10.2019
5189 Clouds 16 1018 82 10000 1 0 00:32 28.10.2019
5190 Clouds 16 1018 82 10000 1.42 202 23:47 27.10.2019
5191 Clouds 14 1018 82 10000 1 0 23:23 27.10.2019
5192 Clouds 15 1018 82 10000 1 0 23:23 27.10.2019
5193 Clouds 15 1018 82 10000 0.64 222 22:57 27.10.2019
5194 Clouds 15 1018 82 10000 1 40 22:39 27.10.2019
5195 Clouds 14 1018 82 10000 1 40 22:21 27.10.2019
5196 Clouds 15 1018 76 10000 1 0 21:57 27.10.2019
5197 Clouds 14 1018 76 10000 1 10 21:39 27.10.2019
5198 Clouds 15 1018 76 10000 1 10 21:20 27.10.2019
5199 Clouds 14 1018 76 10000 1 360 20:55 27.10.2019
5200 Clouds 14 1018 76 10000 1 0 20:37 27.10.2019
5201 Clouds 15 1018 76 10000 1 0 20:19 27.10.2019
5202 Clouds 14 1019 76 10000 1 0 19:40 27.10.2019
5203 Clouds 14 1019 76 10000 1 0 19:21 27.10.2019
5204 Clouds 14 1019 76 10000 1 0 18:58 27.10.2019
5205 Clouds 15 1019 71 10000 2 10 18:39 27.10.2019
5206 Clouds 14 1019 71 10000 2 10 18:21 27.10.2019
5207 Clouds 15 1019 76 10000 1 0 17:57 27.10.2019
5208 Clouds 14 1019 76 10000 1 0 17:38 27.10.2019
5209 Clouds 15 1019 76 10000 1 0 17:19 27.10.2019
5210 Clouds 14 1019 76 10000 1 0 16:56 27.10.2019
5211 Clouds 14 1019 76 10000 1 0 16:56 27.10.2019
5212 Clouds 15 1020 67 10000 2 280 16:38 27.10.2019
5213 Clouds 15 1020 67 10000 2 280 16:19 27.10.2019
5214 Clouds 15 1020 76 10000 2 280 15:55 27.10.2019
5215 Clouds 15 1020 76 10000 2 240 15:37 27.10.2019
5216 Clouds 15 1020 76 10000 2 240 15:18 27.10.2019
5217 Clouds 16 1019 67 10000 2 260 14:41 27.10.2019
5218 Clouds 15 1019 67 10000 2 260 14:20 27.10.2019
5219 Clouds 16 1019 72 10000 2 250 13:56 27.10.2019
5220 Clouds 15 1019 72 10000 2 240 13:37 27.10.2019
5221 Clouds 15 1019 72 10000 2 240 13:19 27.10.2019
5222 Clouds 16 1019 67 10000 3 260 12:43 27.10.2019
5223 Clouds 17 1019 67 10000 3 260 12:24 27.10.2019
5224 Clouds 17 1019 67 10000 2 250 11:55 27.10.2019
5225 Clouds 16 1019 67 10000 3 240 11:37 27.10.2019
5226 Clouds 17 1019 67 10000 3 240 11:18 27.10.2019
5227 Clouds 18 1019 63 10000 2 250 10:42 27.10.2019
5228 Clouds 18 1019 63 10000 2 250 10:23 27.10.2019
5229 Clouds 18 1019 63 10000 3 260 09:44 27.10.2019
5230 Clouds 19 1019 59 10000 2 260 09:20 27.10.2019
5231 Clouds 19 1019 59 10000 2 230 08:59 27.10.2019
5232 Clouds 19 1019 59 10000 2 260 08:40 27.10.2019
5233 Clouds 19 1019 59 10000 2 260 08:19 27.10.2019
5234 Clouds 19 1019 59 10000 2 230 07:48 27.10.2019
5235 Rain 19 1019 59 10000 2 0 07:28 27.10.2019
5236 Rain 19 1019 59 10000 2 0 07:28 27.10.2019
5237 Clouds 19 1020 55 10000 1 0 06:56 27.10.2019
5238 Clouds 21 1020 55 10000 1 0 06:31 27.10.2019
5239 Clouds 21 1020 55 10000 1 0 05:58 27.10.2019
5240 Clouds 21 1020 55 10000 1 0 05:58 27.10.2019
5241 Clouds 21 1020 55 10000 2 90 05:36 27.10.2019
5242 Clouds 19 1021 59 10000 2 360 04:32 27.10.2019
5243 Clouds 17 1022 63 10000 3 20 02:42 27.10.2019
5244 Clouds 16 1021 67 10000 3 10 01:28 27.10.2019
5245 Clouds 16 1021 67 10000 2 10 00:56 27.10.2019
5246 Clouds 16 1021 71 10000 3 350 00:37 27.10.2019
5247 Clouds 15 1021 71 10000 3 360 23:58 26.10.2019
5248 Clouds 15 1021 67 10000 3 10 23:40 26.10.2019
5249 Clouds 15 1021 67 10000 3 10 23:21 26.10.2019
5250 Clouds 15 1021 67 10000 3 360 22:58 26.10.2019
5251 Clouds 15 1021 67 10000 3 360 22:58 26.10.2019
5252 Clouds 15 1020 67 10000 4 20 22:39 26.10.2019
5253 Clouds 15 1020 67 10000 4 20 22:19 26.10.2019
5254 Clouds 16 1021 67 10000 4 10 21:56 26.10.2019
5255 Clouds 15 1021 67 10000 3 350 21:38 26.10.2019
5256 Clouds 16 1021 67 10000 3 350 21:19 26.10.2019
5257 Clouds 15 1021 67 10000 3 360 20:43 26.10.2019
5258 Clouds 16 1021 67 10000 4 360 20:19 26.10.2019
5259 Clouds 16 1021 67 10000 3 10 19:44 26.10.2019
5260 Clouds 16 1021 62 10000 4 360 19:21 26.10.2019
5261 Clouds 16 1022 59 10000 4 350 18:59 26.10.2019
5262 Clouds 16 1022 59 10000 3 360 18:40 26.10.2019
5263 Clouds 16 1022 59 10000 3 360 18:20 26.10.2019
5264 Clouds 16 1022 59 10000 3 10 17:59 26.10.2019
5265 Clouds 16 1022 59 10000 4 20 17:39 26.10.2019
5266 Clouds 16 1022 59 10000 4 20 17:20 26.10.2019
5267 Clouds 16 1022 59 10000 4 20 16:47 26.10.2019
5268 Clouds 16 1022 59 10000 4 10 16:25 26.10.2019
5269 Clouds 16 1022 55 10000 5 350 15:59 26.10.2019
5270 Clouds 16 1022 59 10000 4 360 15:40 26.10.2019
5271 Clouds 16 1022 59 10000 4 360 15:18 26.10.2019
5272 Clouds 17 1022 55 10000 2 360 14:40 26.10.2019
5273 Clouds 17 1022 55 10000 2 360 14:20 26.10.2019
5274 Clouds 17 1023 51 0 2.79 40 13:58 26.10.2019
5275 Clouds 17 1023 51 0 2.79 40 13:37 26.10.2019
5276 Clouds 17 1023 51 0 2.79 40 13:19 26.10.2019
5277 Clouds 18 1018 53 0 2.79 40 12:43 26.10.2019
5278 Clouds 18 1021 55 10000 5 10 12:21 26.10.2019
5279 Clouds 18 1021 55 10000 5 10 11:47 26.10.2019
5280 Clouds 17 1021 55 10000 5 10 11:25 26.10.2019
5281 Clouds 17 1021 55 10000 5 10 10:47 26.10.2019
5282 Clouds 17 1021 55 10000 5 10 10:47 26.10.2019
5283 Clouds 18 1021 55 10000 5 20 10:26 26.10.2019
5284 Clouds 18 1021 55 10000 6 30 09:50 26.10.2019
5285 Clouds 18 1021 55 10000 6 30 09:30 26.10.2019
5286 Clouds 18 1021 55 10000 7 360 08:55 26.10.2019
5287 Clouds 19 1021 55 10000 6 10 08:36 26.10.2019
5288 Clouds 19 1021 55 10000 6 10 08:18 26.10.2019
5289 Clouds 19 1021 56 10000 5 360 07:42 26.10.2019
5290 Clouds 19 1021 56 10000 5 360 07:22 26.10.2019
5291 Clouds 19 1022 59 10000 5 10 06:40 26.10.2019
5292 Clouds 19 1023 56 10000 5 10 05:56 26.10.2019
5293 Clouds 19 1023 59 10000 6 10 05:19 26.10.2019
5294 Clouds 20 1024 72 10000 5 340 03:45 26.10.2019
5295 Clouds 19 1023 63 10000 5 10 02:29 26.10.2019
5296 Clouds 19 1023 68 10000 5 10 01:46 26.10.2019
5297 Clouds 18 1023 68 10000 5 10 00:51 26.10.2019
5298 Clouds 18 1022 77 10000 5 360 23:48 25.10.2019
5299 Clouds 18 1022 82 10000 5 360 23:22 25.10.2019
5300 Clouds 18 1022 82 10000 4 340 22:58 25.10.2019
5301 Clouds 18 1022 82 10000 4 340 22:58 25.10.2019
5302 Clouds 18 1022 82 10000 4 340 22:39 25.10.2019
5303 Clouds 18 1022 82 10000 4 340 22:39 25.10.2019
5304 Clouds 18 1022 82 10000 4 340 22:21 25.10.2019
5305 Clouds 18 1022 82 10000 4 340 21:55 25.10.2019
5306 Clouds 18 1022 77 10000 4 340 21:37 25.10.2019
5307 Clouds 18 1022 77 10000 4 340 21:18 25.10.2019
5308 Clouds 19 1022 82 10000 5 350 20:42 25.10.2019
5309 Clouds 19 1022 82 10000 5 340 20:19 25.10.2019
5310 Clouds 18 1022 82 10000 4 350 19:47 25.10.2019
5311 Clouds 18 1022 82 10000 5 360 19:27 25.10.2019
5312 Clouds 18 1022 82 10000 6 360 18:55 25.10.2019
5313 Clouds 18 1022 82 10000 6 350 18:37 25.10.2019
5314 Clouds 18 1022 82 10000 6 350 18:18 25.10.2019
5315 Rain 19 1023 82 10000 7 360 17:39 25.10.2019
5316 Rain 19 1023 82 10000 7 360 17:18 25.10.2019
5317 Rain 19 1023 77 10000 6 360 16:46 25.10.2019
5318 Rain 19 1022 82 10000 5 360 16:22 25.10.2019
5319 Rain 19 1022 82 10000 7 10 15:55 25.10.2019
5320 Rain 19 1022 82 10000 8 360 15:37 25.10.2019
5321 Clouds 20 1022 82 10000 8 360 15:18 25.10.2019
5322 Clouds 20 1022 77 10000 7 20 14:42 25.10.2019
5323 Clouds 20 1022 77 10000 7 20 14:23 25.10.2019
5324 Clouds 20 1022 73 10000 7 10 13:56 25.10.2019
5325 Clouds 20 1022 68 10000 5 10 13:37 25.10.2019
5326 Clouds 20 1022 68 10000 5 10 13:18 25.10.2019
5327 Clouds 20 1022 68 10000 5 10 13:18 25.10.2019
5328 Clouds 21 1021 60 10000 5 360 12:41 25.10.2019
5329 Clouds 21 1021 60 10000 5 360 12:21 25.10.2019
5330 Clouds 22 1020 56 10000 4 360 11:57 25.10.2019
5331 Clouds 22 1020 56 10000 5 10 11:38 25.10.2019
5332 Clouds 22 1020 56 10000 5 10 11:18 25.10.2019
5333 Clouds 22 1020 53 10000 4 350 10:40 25.10.2019
5334 Clouds 23 1020 53 10000 4 350 10:21 25.10.2019
5335 Clouds 22 1020 49 10000 5 360 09:57 25.10.2019
5336 Clouds 22 1020 49 10000 5 20 09:38 25.10.2019
5337 Clouds 24 1020 49 10000 5 20 09:19 25.10.2019
5338 Clouds 24 1020 46 10000 5 20 08:45 25.10.2019
5339 Clouds 24 1020 44 10000 5 340 08:27 25.10.2019
5340 Clouds 25 1020 41 10000 4 20 07:53 25.10.2019
5341 Clouds 26 1019 41 10000 6 20 07:34 25.10.2019
5342 Clouds 25 1020 41 10000 5 30 06:42 25.10.2019
5343 Clouds 23 1020 46 10000 4 20 05:51 25.10.2019
5344 Clouds 22 1020 56 10000 3 360 05:33 25.10.2019
5345 Clouds 25 1021 56 10000 3 20 04:52 25.10.2019
5346 Clouds 24 1021 77 10000 2 360 03:30 25.10.2019
5347 Clouds 19 1021 88 8000 2 60 01:54 25.10.2019
5348 Clouds 19 1021 88 8000 2 60 01:54 25.10.2019
5349 Clouds 19 1021 88 6000 2 340 00:50 25.10.2019
5350 Clouds 17 1021 93 6000 2 330 00:20 25.10.2019
5351 Clouds 17 1020 88 8000 3 330 23:40 24.10.2019
5352 Clouds 18 1020 88 8000 3 330 23:22 24.10.2019
5353 Clouds 17 1020 88 8000 2 320 22:54 24.10.2019
5354 Clouds 18 1020 88 8000 2 320 22:36 24.10.2019
5355 Clouds 18 1020 88 8000 2 320 22:18 24.10.2019
5356 Clouds 18 1020 88 8000 2 320 22:18 24.10.2019
5357 Clouds 18 1019 88 10000 2 310 21:56 24.10.2019
5358 Clouds 18 1019 88 10000 1.99 339 21:37 24.10.2019
5359 Clouds 18 1019 88 10000 1.99 339 21:37 24.10.2019
5360 Clouds 17 1019 88 10000 1.33 338 21:18 24.10.2019
5361 Clouds 17 1019 88 10000 1.33 338 21:18 24.10.2019
5362 Clouds 17 1019 88 10000 1 0 20:55 24.10.2019
5363 Clouds 17 1019 88 10000 1 0 20:55 24.10.2019
5364 Clouds 18 1020 82 10000 2 270 20:37 24.10.2019
5365 Clouds 18 1020 82 10000 2 270 20:18 24.10.2019
5366 Clouds 18 1019 88 10000 2 360 19:42 24.10.2019
5367 Clouds 18 1019 88 10000 2 360 19:23 24.10.2019
5368 Clouds 18 1019 93 10000 4 30 18:58 24.10.2019
5369 Clouds 18 1019 82 10000 1 30 18:39 24.10.2019
5370 Clouds 18 1019 82 10000 1 30 18:39 24.10.2019
5371 Clouds 18 1019 82 10000 1 30 18:21 24.10.2019
5372 Clouds 19 1019 77 10000 2 80 17:57 24.10.2019
5373 Clouds 19 1020 77 10000 3 50 17:37 24.10.2019
5374 Clouds 19 1020 77 10000 3 50 17:18 24.10.2019
5375 Clouds 19 1020 77 10000 2 40 16:42 24.10.2019
5376 Clouds 19 1020 77 10000 2 40 16:23 24.10.2019
5377 Clouds 19 1020 77 10000 3 30 15:59 24.10.2019
5378 Clouds 19 1020 72 10000 3 30 15:41 24.10.2019
5379 Clear 20 1020 72 10000 3 30 15:23 24.10.2019
5380 Clear 20 1020 72 10000 3 30 14:59 24.10.2019
5381 Clear 20 1020 68 10000 2 10 14:41 24.10.2019
5382 Clear 20 1020 68 10000 2 10 14:22 24.10.2019
5383 Clear 20 1019 68 10000 3 10 13:42 24.10.2019
5384 Clear 20 1019 68 10000 3 10 13:20 24.10.2019
5385 Clear 21 1019 64 10000 4 10 12:58 24.10.2019
5386 Clear 21 1019 64 10000 5 10 12:40 24.10.2019
5387 Clear 21 1019 64 10000 5 10 12:20 24.10.2019
5388 Clear 21 1018 56 10000 5 10 11:57 24.10.2019
5389 Clouds 22 1018 56 10000 4 20 11:38 24.10.2019
5390 Clouds 22 1018 56 10000 4 20 11:20 24.10.2019
5391 Clouds 23 1018 53 10000 5 350 10:59 24.10.2019
5392 Clouds 22 1018 53 10000 6 360 10:39 24.10.2019
5393 Clouds 22 1018 53 10000 6 360 10:20 24.10.2019
5394 Clouds 23 1018 50 10000 5 10 09:39 24.10.2019
5395 Clouds 23 1018 50 10000 5 10 09:39 24.10.2019
5396 Clouds 24 1018 50 10000 5 10 09:19 24.10.2019
5397 Clouds 25 1017 50 10000 6 360 08:55 24.10.2019
5398 Clouds 25 1017 44 10000 5 360 08:37 24.10.2019
5399 Clouds 25 1017 44 10000 5 360 08:18 24.10.2019
5400 Clouds 24 1017 44 10000 5 350 07:45 24.10.2019
5401 Clouds 25 1018 50 10000 5 10 07:22 24.10.2019
5402 Clouds 24 1018 47 10000 4 330 06:46 24.10.2019
5403 Clouds 23 1018 47 10000 4 360 06:23 24.10.2019
5404 Clouds 23 1019 44 10000 4 360 05:48 24.10.2019
5405 Clouds 23 1019 49 10000 5 350 05:28 24.10.2019
5406 Clouds 24 1020 73 10000 5 10 03:37 24.10.2019
5407 Clear 20 1019 72 10000 5 10 02:55 24.10.2019
5408 Clear 20 1019 82 10000 3 340 02:25 24.10.2019
5409 Clear 19 1019 88 10000 3 340 01:49 24.10.2019
5410 Clear 18 1019 88 10000 2 340 01:27 24.10.2019
5411 Clear 18 1018 93 10000 2 340 00:41 24.10.2019
5412 Clouds 18 1018 93 10000 2 340 00:18 24.10.2019
5413 Clouds 18 1018 88 10000 3 330 23:42 23.10.2019
5414 Clouds 18 1018 88 10000 3 330 23:23 23.10.2019
5415 Clouds 18 1018 88 10000 2 340 22:57 23.10.2019
5416 Clouds 18 1017 88 10000 2 340 22:38 23.10.2019
5417 Clouds 18 1017 88 10000 2 340 22:18 23.10.2019
5418 Clouds 18 1017 88 10000 3 330 21:57 23.10.2019
5419 Clear 18 1018 88 10000 3 330 21:38 23.10.2019
5420 Clouds 18 1018 88 10000 3 330 21:19 23.10.2019
5421 Clouds 18 1018 88 10000 3 330 20:56 23.10.2019
5422 Clouds 18 1018 82 10000 2 320 20:37 23.10.2019
5423 Clouds 18 1018 82 10000 2 320 20:19 23.10.2019
5424 Clouds 18 1018 82 10000 2 320 19:45 23.10.2019
5425 Clouds 18 1017 82 10000 2 340 19:20 23.10.2019
5426 Clouds 18 1017 88 10000 2 340 18:59 23.10.2019
5427 Clouds 19 1017 82 10000 3 340 18:39 23.10.2019
5428 Clouds 19 1017 82 10000 3 340 18:19 23.10.2019
5429 Clouds 19 1018 82 10000 3 350 17:57 23.10.2019
5430 Clouds 19 1018 82 10000 3 350 17:39 23.10.2019
5431 Clouds 19 1018 82 10000 3 350 17:19 23.10.2019
5432 Clouds 19 1017 72 10000 3 360 16:41 23.10.2019
5433 Clouds 19 1017 72 10000 3 360 16:21 23.10.2019
5434 Clouds 19 1017 72 10000 3 10 15:57 23.10.2019
5435 Clouds 19 1017 72 10000 3 10 15:57 23.10.2019
5436 Clouds 19 1017 72 10000 3 360 15:39 23.10.2019
5437 Clouds 20 1017 72 10000 3 360 15:21 23.10.2019
5438 Clouds 20 1017 72 10000 4 30 14:56 23.10.2019
5439 Clouds 20 1017 68 10000 4 30 14:37 23.10.2019
5440 Clouds 20 1017 68 10000 4 30 14:19 23.10.2019
5441 Clouds 20 1016 64 10000 5 30 13:43 23.10.2019
5442 Clouds 20 1016 64 10000 5 30 13:43 23.10.2019
5443 Clouds 20 1016 64 10000 5 30 13:25 23.10.2019
5444 Clouds 20 1016 68 10000 5 50 12:57 23.10.2019
5445 Clouds 20 1016 64 10000 5 30 12:39 23.10.2019
5446 Clouds 21 1016 64 10000 5 30 12:19 23.10.2019
5447 Clouds 22 1016 60 10000 5 30 11:58 23.10.2019
5448 Clouds 21 1015 56 10000 5 30 11:39 23.10.2019
5449 Clouds 21 1015 56 10000 5 30 11:21 23.10.2019
5450 Clouds 22 1015 53 10000 6 40 10:55 23.10.2019
5451 Clouds 22 1015 56 10000 6 360 10:37 23.10.2019
5452 Clouds 23 1015 56 10000 6 360 10:18 23.10.2019
5453 Clouds 23 1015 53 10000 4 40 09:40 23.10.2019
5454 Clouds 24 1015 53 10000 4 40 09:22 23.10.2019
5455 Clouds 25 1015 60 10000 4 40 08:43 23.10.2019
5456 Clouds 23 1015 60 10000 4 40 08:25 23.10.2019
5457 Clouds 24 1015 64 10000 4 360 07:58 23.10.2019
5458 Clouds 25 1015 60 10000 6 10 07:39 23.10.2019
5459 Clouds 25 1015 60 10000 6 10 07:18 23.10.2019
5460 Clouds 24 1015 60 10000 6 20 06:41 23.10.2019
5461 Clouds 23 1015 60 10000 6 20 06:18 23.10.2019
5462 Clouds 22 1016 64 10000 6 20 05:18 23.10.2019
5463 Clouds 23 1016 73 10000 3 10 03:46 23.10.2019
5464 Clouds 20 1016 77 10000 5 20 02:42 23.10.2019
5465 Clouds 20 1016 82 10000 4 360 01:35 23.10.2019
5466 Clouds 19 1016 82 10000 2 350 00:59 23.10.2019
5467 Clouds 19 1016 82 10000 1 330 00:33 23.10.2019
5468 Clouds 18 1015 82 10000 1 350 23:44 22.10.2019
5469 Clouds 19 1015 82 10000 1 350 23:20 22.10.2019
5470 Clouds 19 1015 82 10000 2 20 22:59 22.10.2019
5471 Clouds 19 1015 82 10000 2 20 22:59 22.10.2019
5472 Clouds 19 1015 82 10000 2 350 22:40 22.10.2019
5473 Clouds 19 1015 82 10000 2 350 22:21 22.10.2019
5474 Clouds 19 1015 77 10000 1 10 21:57 22.10.2019
5475 Clouds 19 1015 77 10000 2 360 21:38 22.10.2019
5476 Clouds 19 1015 77 10000 2 360 21:19 22.10.2019
5477 Clouds 19 1016 77 10000 3 340 20:58 22.10.2019
5478 Clouds 19 1016 72 10000 3 320 20:40 22.10.2019
5479 Clouds 19 1016 72 10000 3 320 20:21 22.10.2019
5480 Clouds 19 1016 77 10000 2 340 19:55 22.10.2019
5481 Clouds 19 1016 72 10000 1 0 19:37 22.10.2019
5482 Clouds 19 1016 72 10000 1 0 19:19 22.10.2019
5483 Clouds 19 1016 77 10000 3 340 18:41 22.10.2019
5484 Clouds 19 1016 77 10000 3 340 18:22 22.10.2019
5485 Clouds 19 1016 77 10000 2 10 17:59 22.10.2019
5486 Clouds 19 1016 72 10000 2 10 17:39 22.10.2019
5487 Clouds 19 1016 72 10000 2 10 17:20 22.10.2019
5488 Clouds 19 1016 72 10000 2 10 17:20 22.10.2019
5489 Clouds 19 1016 72 10000 2 10 17:20 22.10.2019
5490 Clouds 19 1016 72 10000 2 20 16:57 22.10.2019
5491 Clouds 19 1016 72 10000 2 20 16:57 22.10.2019
5492 Clouds 19 1016 72 10000 2 10 16:38 22.10.2019
5493 Clouds 19 1016 72 10000 2 10 16:19 22.10.2019
5494 Clouds 19 1016 68 10000 2 30 15:58 22.10.2019
5495 Clouds 19 1016 68 10000 2 50 15:39 22.10.2019
5496 Clouds 19 1016 68 10000 2 50 15:18 22.10.2019
5497 Clouds 19 1016 64 10000 3 60 14:43 22.10.2019
5498 Clouds 19 1016 64 10000 3 40 14:20 22.10.2019
5499 Clouds 20 1016 64 10000 4 40 13:43 22.10.2019
5500 Clouds 20 1016 64 10000 4 30 13:22 22.10.2019
5501 Clouds 20 1016 64 10000 4 40 12:59 22.10.2019
5502 Clouds 20 1015 60 10000 3 50 12:40 22.10.2019
5503 Clouds 21 1015 60 10000 3 50 12:21 22.10.2019
5504 Clouds 20 1015 56 10000 3 60 11:56 22.10.2019
5505 Clouds 21 1015 56 10000 4 40 11:37 22.10.2019
5506 Clouds 21 1015 56 10000 4 40 11:19 22.10.2019
5507 Clouds 21 1015 53 10000 5 50 10:55 22.10.2019
5508 Clouds 21 1015 53 10000 5 50 10:55 22.10.2019
5509 Clouds 21 1015 53 10000 4 60 10:36 22.10.2019
5510 Clouds 21 1015 53 10000 4 60 10:18 22.10.2019
5511 Clouds 21 1015 53 10000 4 60 09:42 22.10.2019
5512 Clouds 22 1015 53 10000 4 40 09:22 22.10.2019
5513 Clouds 23 1015 49 10000 4 40 08:59 22.10.2019
5514 Clouds 23 1015 53 10000 3 40 08:41 22.10.2019
5515 Clouds 24 1015 53 10000 3 40 08:19 22.10.2019
5516 Clouds 24 1015 49 10000 3 50 07:45 22.10.2019
5517 Clouds 23 1016 53 10000 3 20 07:26 22.10.2019
5518 Clouds 23 1016 53 10000 2 10 06:45 22.10.2019
5519 Clouds 22 1016 49 10000 5 20 06:27 22.10.2019
5520 Clouds 22 1016 46 10000 1 0 05:48 22.10.2019
5521 Clouds 24 1016 49 10000 3 80 04:54 22.10.2019
5522 Clouds 20 1016 72 8000 3 40 02:31 22.10.2019
5523 Clouds 17 1016 87 8000 2 30 01:39 22.10.2019
5524 Clouds 17 1016 87 8000 2 30 01:21 22.10.2019
5525 Clouds 18 1016 82 10000 1 0 00:56 22.10.2019
5526 Clouds 17 1016 82 10000 1 20 00:38 22.10.2019
5527 Clouds 17 1016 82 10000 1 20 00:19 22.10.2019
5528 Clouds 17 1016 82 10000 1 0 23:38 21.10.2019
5529 Clouds 17 1016 82 10000 1 0 23:19 21.10.2019
5530 Clouds 17 1015 87 10000 2 10 22:58 21.10.2019
5531 Clouds 17 1015 77 10000 1 0 22:39 21.10.2019
5532 Clouds 17 1015 77 10000 1 0 22:20 21.10.2019
5533 Clouds 17 1016 77 10000 2 280 21:57 21.10.2019
5534 Clouds 17 1016 82 10000 1 320 21:38 21.10.2019
5535 Clouds 17 1016 82 10000 1 320 21:20 21.10.2019
5536 Clouds 17 1016 77 10000 1 330 20:57 21.10.2019
5537 Clouds 17 1016 82 10000 1 360 20:38 21.10.2019
5538 Clouds 17 1016 82 10000 1 360 20:20 21.10.2019
5539 Clouds 17 1016 82 10000 1 20 19:55 21.10.2019
5540 Clouds 17 1016 82 10000 1 20 19:55 21.10.2019
5541 Clouds 17 1016 82 10000 1 10 19:36 21.10.2019
5542 Clouds 17 1016 82 10000 1 10 19:18 21.10.2019
5543 Clouds 17 1017 77 10000 1 10 18:55 21.10.2019
5544 Clouds 17 1017 72 10000 2 350 18:36 21.10.2019
5545 Clouds 17 1017 72 10000 2 350 18:18 21.10.2019
5546 Clouds 17 1017 72 10000 2 350 18:18 21.10.2019
5547 Clouds 18 1017 72 10000 2 350 17:39 21.10.2019
5548 Clouds 18 1017 72 10000 2 350 17:19 21.10.2019
5549 Clouds 19 1017 68 10000 1 10 16:58 21.10.2019
5550 Clouds 19 1017 68 10000 2 40 16:40 21.10.2019
5551 Clouds 18 1017 68 10000 2 40 16:21 21.10.2019
5552 Clouds 19 1017 63 10000 2 60 15:57 21.10.2019
5553 Clouds 18 1017 63 10000 3 50 15:38 21.10.2019
5554 Clouds 19 1017 63 10000 3 50 15:18 21.10.2019
5555 Clouds 19 1017 63 10000 4 40 14:40 21.10.2019
5556 Clouds 19 1017 63 10000 4 40 14:21 21.10.2019
5557 Clouds 19 1017 60 10000 5 50 13:58 21.10.2019
5558 Clouds 19 1017 60 10000 4 60 13:40 21.10.2019
5559 Clouds 19 1017 60 10000 4 60 13:20 21.10.2019
5560 Clouds 19 1017 60 10000 4 50 12:57 21.10.2019
5561 Clouds 19 1016 60 10000 4 50 12:39 21.10.2019
5562 Clouds 19 1016 60 10000 4 50 12:39 21.10.2019
5563 Clear 20 1016 60 10000 4 50 12:19 21.10.2019
5564 Clear 21 1016 56 10000 5 30 11:40 21.10.2019
5565 Clear 21 1016 56 10000 5 30 11:22 21.10.2019
5566 Clear 21 1016 53 10000 4 40 10:58 21.10.2019
5567 Clear 22 1016 49 10000 4 30 10:38 21.10.2019
5568 Clear 23 1016 49 10000 4 30 10:19 21.10.2019
5569 Clear 23 1016 49 10000 4 30 10:19 21.10.2019
5570 Clear 23 1016 46 10000 4 50 09:54 21.10.2019
5571 Clear 22 1016 49 10000 4 10 09:36 21.10.2019
5572 Clear 23 1016 49 10000 4 10 09:18 21.10.2019
5573 Clear 22 1016 49 10000 3 30 08:40 21.10.2019
5574 Clear 22 1016 49 10000 3 30 08:22 21.10.2019
5575 Clear 23 1017 47 10000 4 10 07:44 21.10.2019
5576 Clear 23 1017 47 10000 4 10 07:23 21.10.2019
5577 Clear 24 1017 46 10000 4 350 06:58 21.10.2019
5578 Clear 22 1017 49 10000 3 350 06:40 21.10.2019
5579 Clear 23 1018 46 10000 3 20 05:57 21.10.2019
5580 Clear 23 1018 46 10000 3 20 05:57 21.10.2019
5581 Clouds 25 1018 53 10000 4 20 04:50 21.10.2019
5582 Clouds 23 1019 64 10000 3 30 03:38 21.10.2019
5583 Clouds 20 1019 72 8000 1 0 02:37 21.10.2019
5584 Clouds 20 1019 72 8000 1 0 02:19 21.10.2019
5585 Clouds 18 1019 82 6000 1 0 01:38 21.10.2019
5586 Clouds 18 1018 82 6000 2 320 00:51 21.10.2019
5587 Clouds 18 1018 87 6000 2 330 00:28 21.10.2019
5588 Clear 16 1018 87 6000 2 10 23:43 20.10.2019
5589 Clear 16 1018 82 6000 1 340 23:22 20.10.2019
5590 Clear 16 1018 82 6000 1 340 22:58 20.10.2019
5591 Clear 16 1018 82 7000 1 340 22:39 20.10.2019
5592 Clear 17 1018 82 7000 1 340 22:19 20.10.2019
5593 Clear 17 1018 87 7000 1.43 12.995 21:59 20.10.2019
5594 Clear 17 1018 82 7000 2 330 21:39 20.10.2019
5595 Clear 16 1018 82 7000 2 330 21:21 20.10.2019
5596 Clear 16 1018 82 7000 1 350 20:42 20.10.2019
5597 Clear 16 1018 82 7000 1 360 20:20 20.10.2019
5598 Clear 17 1018 77 10000 1 0 19:57 20.10.2019
5599 Clear 17 1019 72 10000 1 0 19:39 20.10.2019
5600 Clear 18 1019 72 10000 1 0 19:20 20.10.2019
5601 Clear 17 1019 77 10000 1 220 18:58 20.10.2019
5602 Clear 18 1019 68 10000 1.46 34.19 18:40 20.10.2019
5603 Clear 18 1019 68 10000 2.29 70.072 18:20 20.10.2019
5604 Clear 18 1019 68 10000 1 0 17:56 20.10.2019
5605 Clear 19 1019 63 10000 1 90 17:37 20.10.2019
5606 Clear 19 1019 63 10000 1 90 17:18 20.10.2019
5607 Clear 18 1020 63 10000 2 90 16:42 20.10.2019
5608 Clear 19 1020 63 10000 2 90 16:23 20.10.2019
5609 Clear 19 1020 63 10000 2 80 15:58 20.10.2019
5610 Clear 19 1020 63 10000 2 90 15:38 20.10.2019
5611 Clear 19 1020 63 10000 2 90 15:20 20.10.2019
5612 Clear 19 1020 63 10000 2 90 15:20 20.10.2019
5613 Clear 19 1020 63 10000 2 80 14:57 20.10.2019
5614 Clear 19 1020 60 10000 3 70 14:37 20.10.2019
5615 Clear 19 1020 60 10000 3 70 14:19 20.10.2019
5616 Clear 19 1020 60 10000 3 70 13:55 20.10.2019
5617 Clear 19 1020 60 10000 3 80 13:36 20.10.2019
5618 Clear 19 1020 60 10000 3 80 13:18 20.10.2019
5619 Clear 19 1019 60 10000 3 80 12:55 20.10.2019
5620 Clear 19 1019 60 10000 3 80 12:55 20.10.2019
5621 Clear 20 1019 56 10000 3 100 12:37 20.10.2019
5622 Clear 20 1019 56 10000 3 100 12:37 20.10.2019
5623 Clear 20 1019 56 10000 3 100 12:19 20.10.2019
5624 Clear 21 1019 49 10000 3 50 11:41 20.10.2019
5625 Clear 21 1019 49 10000 3 50 11:23 20.10.2019
5626 Clear 21 1019 43 10000 4 40 10:59 20.10.2019
5627 Clear 22 1019 46 10000 3 70 10:39 20.10.2019
5628 Clear 23 1019 46 10000 3 70 10:21 20.10.2019
5629 Clear 23 1019 46 10000 3 20 09:56 20.10.2019
5630 Clear 24 1019 44 10000 3 40 09:38 20.10.2019
5631 Clear 24 1019 44 10000 3 40 09:20 20.10.2019
5632 Clear 23 1019 44 10000 3 0 08:44 20.10.2019
5633 Clear 23 1019 44 10000 3 50 08:22 20.10.2019
5634 Clear 24 1019 38 10000 1 0 07:49 20.10.2019
5635 Clear 25 1020 41 10000 2 0 07:29 20.10.2019
5636 Clear 23 1021 46 10000 1 0 06:31 20.10.2019
5637 Clouds 26 1022 49 10000 2 30 04:41 20.10.2019
5638 Clouds 25 1023 52 10000 4 90 03:59 20.10.2019
5639 Clouds 25 1023 56 10000 4 60 03:39 20.10.2019
5640 Clouds 21 1023 56 10000 4 60 03:18 20.10.2019
5641 Clear 20 1023 72 7000 2 40 02:28 20.10.2019
5642 Clear 20 1023 77 7000 1 10 01:54 20.10.2019
5643 Clear 18 1022 82 7000 1.54 50.266 01:23 20.10.2019
5644 Clear 18 1022 87 8000 1 0 00:53 20.10.2019
5645 Clear 17 1022 87 8000 1 360 00:21 20.10.2019
5646 Clear 16 1022 87 10000 1 360 23:55 19.10.2019
5647 Clear 16 1021 87 10000 1 350 23:36 19.10.2019
5648 Clear 16 1021 87 10000 1 350 23:18 19.10.2019
5649 Clear 16 1021 82 10000 1 10 22:41 19.10.2019
5650 Clear 16 1021 82 10000 1 10 22:22 19.10.2019
5651 Clear 16 1021 87 10000 1 360 21:57 19.10.2019
5652 Clear 16 1021 87 10000 1.18 46.239 21:39 19.10.2019
5653 Clear 16 1021 87 10000 1.19 51.401 21:20 19.10.2019
5654 Clear 17 1021 82 10000 1.07 56.044 20:42 19.10.2019
5655 Clear 17 1021 82 10000 1 350 20:21 19.10.2019
5656 Clear 17 1022 77 10000 1 350 19:45 19.10.2019
5657 Clear 17 1022 72 10000 1 10 19:26 19.10.2019
5658 Clear 17 1022 77 10000 1 20 18:57 19.10.2019
5659 Clear 17 1022 77 10000 1 350 18:39 19.10.2019
5660 Clear 17 1022 77 10000 1 350 18:19 19.10.2019
5661 Clear 18 1022 68 10000 1.89 73.917 17:41 19.10.2019
5662 Clear 18 1022 68 10000 1.89 73.917 17:23 19.10.2019
5663 Clear 18 1023 63 10000 1 0 16:57 19.10.2019
5664 Clear 19 1022 63 10000 2 80 16:38 19.10.2019
5665 Clear 19 1022 63 10000 2 80 16:19 19.10.2019
5666 Clear 19 1022 68 10000 2 80 15:41 19.10.2019
5667 Clear 19 1022 68 10000 2 80 15:23 19.10.2019
5668 Clear 19 1022 64 10000 4 50 14:39 19.10.2019
5669 Clear 19 1022 64 10000 4 50 14:20 19.10.2019
5670 Clear 20 1022 64 10000 4 50 13:58 19.10.2019
5671 Clouds 19 1022 64 10000 5 50 13:40 19.10.2019
5672 Clouds 19 1022 64 10000 5 50 13:40 19.10.2019
5673 Clouds 19 1022 64 10000 5 50 13:19 19.10.2019
5674 Clouds 20 1022 56 10000 5 40 12:57 19.10.2019
5675 Clouds 20 1022 56 10000 2 60 12:37 19.10.2019
5676 Clouds 20 1022 56 10000 2 60 12:18 19.10.2019
5677 Clouds 21 1021 46 10000 4 30 11:41 19.10.2019
5678 Clouds 21 1021 46 10000 4 30 11:23 19.10.2019
5679 Clouds 21 1021 46 10000 4 50 10:56 19.10.2019
5680 Clouds 22 1021 43 10000 4 360 10:38 19.10.2019
5681 Clouds 22 1021 43 10000 4 30 10:20 19.10.2019
5682 Clouds 23 1021 38 10000 3 40 09:42 19.10.2019
5683 Clouds 23 1021 41 10000 4 10 09:24 19.10.2019
5684 Clouds 23 1021 41 10000 4 10 08:59 19.10.2019
5685 Clouds 23 1021 41 10000 4 10 08:59 19.10.2019
5686 Clouds 24 1021 38 10000 5 10 08:40 19.10.2019
5687 Clouds 24 1021 38 10000 5 10 08:40 19.10.2019
5688 Clouds 23 1021 41 10000 3 360 08:21 19.10.2019
5689 Clouds 23 1022 41 10000 4 330 07:44 19.10.2019
5690 Clouds 23 1022 43 10000 4 20 07:25 19.10.2019
5691 Clouds 23 1023 49 10000 4 10 06:47 19.10.2019
5692 Clouds 22 1023 53 10000 5 340 05:58 19.10.2019
5693 Clouds 22 1023 56 10000 4 20 05:32 19.10.2019
5694 Clear 23 1024 68 10000 5 350 03:59 19.10.2019
5695 Clear 21 1024 68 8000 4 340 02:44 19.10.2019
5696 Clear 18 1023 82 7000 2 360 01:53 19.10.2019
5697 Clear 18 1023 77 8000 2 330 01:20 19.10.2019
5698 Clear 18 1023 87 8000 2 340 00:46 19.10.2019
5699 Clear 17 1022 82 8000 2 350 00:25 19.10.2019
5700 Clear 17 1022 82 10000 2 340 23:42 18.10.2019
5701 Clear 17 1022 82 10000 2 340 23:42 18.10.2019
5702 Clear 16 1022 82 10000 2 340 23:23 18.10.2019
5703 Clear 17 1022 87 10000 2 350 22:56 18.10.2019
5704 Clear 16 1022 87 10000 1.39 338.506 22:38 18.10.2019
5705 Clear 16 1022 87 10000 1.39 338.506 22:38 18.10.2019
5706 Clear 16 1022 87 10000 1.39 338.506 22:20 18.10.2019
5707 Clear 16 1022 87 10000 1.39 338.506 22:20 18.10.2019
5708 Clear 16 1022 87 10000 1.39 338.506 21:57 18.10.2019
5709 Clear 16 1022 82 10000 1 0 21:38 18.10.2019
5710 Clear 16 1022 82 10000 1 0 21:19 18.10.2019
5711 Clear 17 1022 77 10000 1 350 20:54 18.10.2019
5712 Clear 17 1022 82 10000 1 350 20:36 18.10.2019
5713 Clear 17 1022 82 10000 1 350 20:18 18.10.2019
5714 Clear 17 1022 82 10000 2 340 19:41 18.10.2019
5715 Clear 17 1022 82 10000 2 340 19:23 18.10.2019
5716 Clear 18 1022 77 10000 3 340 18:59 18.10.2019
5717 Clear 17 1022 77 10000 2 350 18:41 18.10.2019
5718 Clear 17 1022 77 10000 2 350 18:23 18.10.2019
5719 Clear 18 1022 77 10000 2 350 17:57 18.10.2019
5720 Clear 17 1022 77 10000 3 360 17:37 18.10.2019
5721 Clear 17 1022 77 10000 3 360 17:19 18.10.2019
5722 Clear 18 1022 77 10000 3 360 16:44 18.10.2019
5723 Clear 18 1022 77 10000 3 360 16:43 18.10.2019
5724 Clear 18 1022 72 10000 3 10 16:22 18.10.2019
5725 Clear 18 1022 72 10000 3 360 15:58 18.10.2019
5726 Clear 18 1022 68 10000 3 360 15:39 18.10.2019
5727 Clear 18 1022 68 10000 3 360 15:20 18.10.2019
5728 Clear 18 1022 68 10000 4 360 14:57 18.10.2019
5729 Clear 19 1022 63 10000 4 10 14:38 18.10.2019
5730 Clear 19 1022 63 10000 4 10 14:19 18.10.2019
5731 Clear 19 1022 60 10000 3 20 13:57 18.10.2019
5732 Clear 19 1021 60 10000 3 30 13:38 18.10.2019
5733 Clear 19 1021 60 10000 3 30 13:19 18.10.2019
5734 Clear 19 1021 60 10000 4 10 12:55 18.10.2019
5735 Clear 20 1021 56 10000 5 20 12:37 18.10.2019
5736 Clear 20 1021 56 10000 5 20 12:18 18.10.2019
5737 Clear 20 1021 49 10000 6 10 11:41 18.10.2019
5738 Clear 21 1021 49 10000 6 10 11:21 18.10.2019
5739 Clear 22 1021 46 10000 7 30 10:58 18.10.2019
5740 Clear 21 1020 43 10000 7 360 10:40 18.10.2019
5741 Clear 22 1020 43 10000 7 360 10:20 18.10.2019
5742 Clear 22 1020 46 10000 7 350 09:57 18.10.2019
5743 Clear 23 1020 43 10000 7 350 09:39 18.10.2019
5744 Clear 23 1020 43 10000 7 350 09:19 18.10.2019
5745 Clear 23 1020 46 10000 5 350 08:45 18.10.2019
5746 Clouds 24 1020 46 10000 7 360 08:25 18.10.2019
5747 Clouds 23 1020 46 10000 6 330 07:53 18.10.2019
5748 Clouds 23 1021 49 10000 7 360 07:35 18.10.2019
5749 Clouds 23 1021 46 10000 6 340 06:55 18.10.2019
5750 Clouds 23 1021 46 10000 6 340 06:55 18.10.2019
5751 Clouds 23 1021 49 10000 6 350 06:35 18.10.2019
5752 Clouds 23 1021 53 10000 6 360 05:59 18.10.2019
5753 Clouds 21 1021 53 10000 6 360 05:41 18.10.2019
5754 Clouds 21 1021 53 10000 6 360 05:18 18.10.2019
5755 Clear 23 1022 60 10000 6 360 03:35 18.10.2019
5756 Clear 21 1022 64 10000 6 350 02:51 18.10.2019
5757 Clear 20 1022 72 10000 4 340 02:32 18.10.2019
5758 Clear 18 1021 82 10000 3 340 01:39 18.10.2019
5759 Clear 19 1021 82 10000 3 340 01:18 18.10.2019
5760 Clear 18 1021 87 10000 3 330 00:40 18.10.2019
5761 Clouds 18 1021 82 10000 5 320 00:19 18.10.2019
5762 Clear 18 1021 82 10000 3 330 23:38 17.10.2019
5763 Clear 18 1021 82 10000 3 330 23:19 17.10.2019
5764 Clear 18 1021 82 10000 3 330 22:56 17.10.2019
5765 Clear 18 1021 82 10000 3 330 22:38 17.10.2019
5766 Clear 18 1021 82 10000 3 330 22:19 17.10.2019
5767 Clear 18 1021 82 10000 3 330 21:56 17.10.2019
5768 Clear 18 1021 82 10000 3 330 21:38 17.10.2019
5769 Clear 18 1021 82 10000 3 330 21:20 17.10.2019
5770 Clear 18 1021 82 10000 2 320 20:57 17.10.2019
5771 -273 0 0 0 0 0 20:39 17.10.2019
5772 Clear 18 1021 82 10000 3 320 20:39 17.10.2019
5773 Clear 18 1021 82 10000 3 320 20:19 17.10.2019
5774 Clear 18 1021 82 10000 2 340 19:56 17.10.2019
5775 Clear 18 1021 82 10000 3 330 19:38 17.10.2019
5776 Clear 18 1021 82 10000 3 330 19:19 17.10.2019
5777 Clear 17 1022 77 10000 2 340 18:43 17.10.2019
5778 Clear 18 1022 77 10000 2 340 18:21 17.10.2019
5779 Clear 17 1022 77 10000 2 350 17:58 17.10.2019
5780 Clouds 18 1022 77 10000 2 350 17:40 17.10.2019
5781 Clouds 18 1022 77 10000 2 350 17:22 17.10.2019
5782 Clouds 18 1022 72 10000 3 360 16:55 17.10.2019
5783 Clouds 18 1022 77 10000 2 360 16:36 17.10.2019
5784 Clouds 18 1022 77 10000 2 360 16:18 17.10.2019
5785 Clouds 18 1022 68 10000 4 10 15:41 17.10.2019
5786 Clouds 18 1022 68 10000 4 10 15:21 17.10.2019
5787 Clouds 19 1022 63 10000 4 10 14:58 17.10.2019
5788 Clouds 19 1022 68 10000 4 10 14:39 17.10.2019
5789 Clouds 19 1022 68 10000 4 10 14:21 17.10.2019
5790 Clouds 19 1022 56 10000 4 360 13:42 17.10.2019
5791 Clouds 19 1022 56 10000 4 360 13:21 17.10.2019
5792 Clouds 20 1021 56 10000 3 360 12:58 17.10.2019
5793 Clouds 19 1021 52 10000 4 360 12:40 17.10.2019
5794 Rain 20 1021 52 10000 4 360 12:20 17.10.2019
5795 Rain 20 1021 52 10000 4 360 12:20 17.10.2019
5796 Rain 20 1021 56 10000 4 10 11:57 17.10.2019
5797 Rain 20 1021 56 10000 4 10 11:57 17.10.2019
5798 Rain 21 1021 49 10000 5 10 11:38 17.10.2019
5799 Rain 21 1021 49 10000 5 10 11:18 17.10.2019
5800 Rain 21 1021 49 10000 5 10 10:42 17.10.2019
5801 Rain 21 1021 49 10000 5 10 10:20 17.10.2019
5802 Rain 21 1021 53 10000 4 350 09:58 17.10.2019
5803 Rain 22 1021 53 10000 4 360 09:38 17.10.2019
5804 Rain 23 1021 53 10000 4 360 09:20 17.10.2019
5805 Clouds 23 1021 53 10000 4 20 08:57 17.10.2019
5806 Clouds 22 1021 53 10000 4 20 08:57 17.10.2019
5807 Clouds 22 1021 53 10000 4 360 08:38 17.10.2019
5808 Clouds 22 1021 53 10000 4 360 08:18 17.10.2019
5809 Clouds 22 1022 53 10000 5 360 07:43 17.10.2019
5810 Clouds 23 1022 53 10000 5 360 07:21 17.10.2019
5811 Clouds 23 1022 53 10000 4 340 06:56 17.10.2019
5812 Clouds 23 1022 60 10000 5 360 06:38 17.10.2019
5813 Clouds 21 1022 60 10000 5 360 06:19 17.10.2019
5814 Clouds 22 1023 64 10000 3 350 05:41 17.10.2019
5815 Clouds 21 1023 64 10000 3 350 05:20 17.10.2019
5816 Clouds 21 1023 64 10000 4 340 04:48 17.10.2019
5817 Clouds 21 1024 64 10000 5 360 03:49 17.10.2019
5818 Rain 20 1024 72 10000 4 350 02:32 17.10.2019
5819 Rain 18 1023 77 10000 3 340 00:42 17.10.2019
5820 Rain 18 1023 77 10000 3 340 00:21 17.10.2019
5821 Rain 18 1023 77 10000 3 350 23:59 16.10.2019
5822 Rain 18 1023 77 10000 4 340 23:41 16.10.2019
5823 Rain 19 1023 77 10000 4 340 23:19 16.10.2019
5824 Rain 18 1023 77 10000 4 340 22:54 16.10.2019
5825 Rain 18 1023 77 10000 3 340 22:36 16.10.2019
5826 Rain 18 1023 77 10000 3 340 22:36 16.10.2019
5827 Rain 18 1023 77 10000 3 340 22:18 16.10.2019
5828 Rain 18 1022 93 10000 4 330 21:54 16.10.2019
5829 Rain 18 1022 88 10000 4 330 21:36 16.10.2019
5830 Rain 18 1023 82 10000 3 340 21:18 16.10.2019
5831 Rain 18 1023 82 10000 3 340 20:56 16.10.2019
5832 Rain 19 1023 77 10000 3 340 20:37 16.10.2019
5833 Rain 19 1023 77 10000 3 340 20:37 16.10.2019
5834 Rain 19 1023 77 10000 3 340 20:37 16.10.2019
5835 Rain 19 1023 77 10000 3 340 20:19 16.10.2019
5836 Rain 18 1023 77 10000 3 360 19:40 16.10.2019
5837 Rain 18 1023 77 10000 3 360 19:40 16.10.2019
5838 Rain 18 1023 77 10000 3 360 19:21 16.10.2019
5839 Rain 19 1024 77 10000 3 360 18:58 16.10.2019
5840 Rain 19 1024 77 10000 3 360 18:58 16.10.2019
5841 Rain 19 1024 77 10000 3 340 18:38 16.10.2019
5842 Clouds 19 1024 77 10000 3 340 18:18 16.10.2019
5843 Clouds 19 1024 77 10000 3 340 18:18 16.10.2019
5844 Clouds 18 1024 77 10000 3 360 17:56 16.10.2019
5845 Clouds 18 1024 77 10000 3 360 17:37 16.10.2019
5846 Clouds 18 1024 77 10000 3 360 17:37 16.10.2019
5847 -273 0 0 0 0 0 17:37 16.10.2019
5848 Clouds 18 1024 77 10000 3 360 17:19 16.10.2019
5849 Clouds 18 1024 77 10000 3 360 16:56 16.10.2019
5850 Clouds 18 1024 72 10000 2 20 16:37 16.10.2019
5851 Clouds 18 1024 72 10000 2 20 16:18 16.10.2019
5852 Clouds 19 1024 68 10000 5 40 15:40 16.10.2019
5853 Clouds 19 1024 68 10000 5 40 15:40 16.10.2019
5854 Clouds 19 1024 68 10000 5 40 15:19 16.10.2019
5855 Clouds 19 1024 68 10000 5 40 14:58 16.10.2019
5856 Clouds 19 1024 68 10000 5 40 14:58 16.10.2019
5857 Clouds 19 1024 68 10000 5 40 14:39 16.10.2019
5858 Clouds 19 1024 68 10000 5 40 14:20 16.10.2019
5859 Clouds 19 1024 68 10000 5 50 13:57 16.10.2019
5860 Clouds 19 1024 68 10000 5 50 13:39 16.10.2019
5861 Clouds 19 1024 68 10000 5 20 13:21 16.10.2019
5862 Clouds 19 1024 63 10000 5 30 12:42 16.10.2019
5863 Clouds 19 1024 63 10000 5 30 12:42 16.10.2019
5864 Clouds 20 1023 60 10000 5 30 12:20 16.10.2019
5865 Clouds 20 1023 60 10000 5 30 11:55 16.10.2019
5866 Clouds 20 1023 60 10000 5 10 11:36 16.10.2019
5867 Clouds 21 1023 60 10000 5 10 11:18 16.10.2019
5868 Clouds 21 1023 56 10000 5 10 10:36 16.10.2019
5869 Clouds 21 1023 56 10000 5 10 10:36 16.10.2019
5870 Clouds 21 1023 56 10000 5 10 10:18 16.10.2019
5871 Clouds 21 1023 53 10000 5 30 09:40 16.10.2019
5872 Clouds 22 1023 52 10000 3 10 09:22 16.10.2019
5873 Clouds 21 1023 52 10000 3 20 08:56 16.10.2019
5874 Clouds 21 1023 52 10000 3 20 08:56 16.10.2019
5875 Clouds 21 1023 52 10000 2 30 08:38 16.10.2019
5876 Clouds 22 1023 52 10000 2 30 08:19 16.10.2019
5877 Clouds 23 1023 49 10000 2 0 07:41 16.10.2019
5878 Clouds 22 1023 49 10000 3 360 07:23 16.10.2019
5879 Clouds 22 1024 49 10000 4 340 06:47 16.10.2019
5880 Clouds 22 1024 49 10000 4 340 06:28 16.10.2019
5881 Clouds 23 1026 52 10000 4 20 04:25 16.10.2019
5882 Clouds 19 1026 59 10000 3 10 02:51 16.10.2019
5883 Clouds 19 1026 72 10000 3 360 01:20 16.10.2019
5884 Clouds 18 1026 76 10000 3 350 00:59 16.10.2019
5885 Clouds 18 1026 76 10000 3 350 00:39 16.10.2019
5886 Clouds 15 1026 71 10000 2 330 23:58 15.10.2019
5887 Clouds 16 1026 71 10000 2 330 23:38 15.10.2019
5888 Clouds 16 1026 71 10000 3 330 23:19 15.10.2019
5889 Clouds 16 1026 71 10000 4 310 22:55 15.10.2019
5890 Clouds 17 1026 67 10000 3 300 22:37 15.10.2019
5891 Clouds 15 1026 67 10000 3 300 22:18 15.10.2019
5892 Clouds 15 1026 67 10000 2 320 21:54 15.10.2019
5893 Clouds 15 1026 67 10000 3 310 21:36 15.10.2019
5894 Clouds 15 1026 67 10000 3 310 21:18 15.10.2019
5895 Clouds 15 1027 67 10000 3 320 20:54 15.10.2019
5896 Clouds 15 1027 67 10000 3 320 20:54 15.10.2019
5897 -273 0 0 0 0 0 20:54 15.10.2019
5898 Clouds 15 1027 67 10000 3 330 20:36 15.10.2019
5899 Clouds 16 1027 67 10000 3 330 20:18 15.10.2019
5900 Clouds 16 1027 62 10000 3 320 19:41 15.10.2019
5901 Clouds 16 1028 62 10000 4 310 19:20 15.10.2019
5902 Clouds 16 1028 62 10000 4 310 19:20 15.10.2019
5903 Clouds 16 1028 62 10000 4 310 18:55 15.10.2019
5904 Clouds 16 1028 62 10000 4 310 18:55 15.10.2019
5905 Clouds 16 1028 62 10000 5 330 18:37 15.10.2019
5906 Clouds 16 1028 62 10000 5 330 18:19 15.10.2019
5907 Clouds 16 1028 62 10000 4 320 17:42 15.10.2019
5908 -273 0 0 0 0 0 17:42 15.10.2019
5909 Clouds 16 1028 62 10000 4 320 17:42 15.10.2019
5910 Clouds 16 1028 62 10000 3 330 17:21 15.10.2019
5911 Clouds 16 1029 59 10000 5 330 16:59 15.10.2019
5912 Clouds 16 1029 59 10000 5 330 16:41 15.10.2019
5913 Clouds 16 1029 59 10000 4 360 16:21 15.10.2019
5914 Clouds 16 1029 59 10000 4 360 16:21 15.10.2019
5915 Clouds 16 1029 55 10000 4 360 15:55 15.10.2019
5916 Clouds 16 1028 67 10000 4 330 15:37 15.10.2019
5917 Clouds 16 1028 55 10000 5 360 15:19 15.10.2019
5918 Clouds 16 1028 55 10000 5 360 14:38 15.10.2019
5919 Clouds 16 1028 55 10000 5 10 14:20 15.10.2019
5920 Clouds 16 1028 55 10000 5 10 13:59 15.10.2019
5921 Clouds 16 1028 55 10000 5 10 13:40 15.10.2019
5922 Clouds 16 1028 55 10000 5 20 13:20 15.10.2019
5923 Clouds 17 1027 51 10000 6 10 12:44 15.10.2019
5924 Clear 17 1027 51 10000 7 10 12:22 15.10.2019
5925 Clear 17 1027 51 10000 7 360 11:58 15.10.2019
5926 Clear 18 1027 45 10000 6 20 11:40 15.10.2019
5927 Clear 18 1027 45 10000 6 20 11:19 15.10.2019
5928 Clear 18 1027 48 10000 7 20 10:46 15.10.2019
5929 Clear 18 1027 48 10000 7 20 10:23 15.10.2019
5930 Clear 18 1027 45 10000 8 360 09:59 15.10.2019
5931 Clear 19 1028 45 10000 7 10 09:40 15.10.2019
5932 Clear 19 1028 45 10000 7 10 09:20 15.10.2019
5933 Clear 20 1028 42 10000 8 20 08:57 15.10.2019
5934 Clear 19 1028 48 10000 8 20 08:38 15.10.2019
5935 Clear 19 1028 48 10000 8 20 08:18 15.10.2019
5936 Clear 20 1028 45 10000 7 20 07:43 15.10.2019
5937 Clear 20 1028 48 10000 8 10 07:21 15.10.2019
5938 Clear 19 1029 45 10000 7 360 06:54 15.10.2019
5939 Clouds 19 1029 52 10000 7 10 06:36 15.10.2019
5940 Clouds 19 1030 52 10000 6 10 05:54 15.10.2019
5941 Clouds 20 1030 52 10000 7 360 05:35 15.10.2019
5942 Clouds 20 1030 52 10000 7 20 04:39 15.10.2019
5943 Clouds 19 1030 52 10000 8 10 03:57 15.10.2019
5944 Clouds 19 1030 52 10000 8 10 03:27 15.10.2019
5945 Clouds 18 1030 59 10000 6 360 01:51 15.10.2019
5946 Clouds 18 1030 63 10000 5 360 01:23 15.10.2019
5947 Clear 17 1030 72 10000 5 360 00:52 15.10.2019
5948 Clear 16 1029 72 10000 4 360 00:22 15.10.2019
5949 Clear 16 1029 72 10000 4 360 23:46 14.10.2019
5950 Clear 16 1029 67 10000 4 360 23:21 14.10.2019
5951 Clouds 17 1029 67 10000 6 10 22:59 14.10.2019
5952 Clouds 17 1029 67 10000 5 10 22:39 14.10.2019
5953 Clouds 17 1029 67 10000 5 10 22:19 14.10.2019
5954 Clouds 17 1029 67 10000 5 10 22:19 14.10.2019
5955 Clouds 17 1029 67 10000 5 10 22:19 14.10.2019
5956 Clouds 17 1029 72 10000 7 360 21:56 14.10.2019
5957 Clouds 17 1029 72 10000 7 360 21:56 14.10.2019
5958 Clouds 17 1029 67 10000 6 10 21:37 14.10.2019
5959 Clouds 17 1029 67 10000 6 10 21:19 14.10.2019
5960 Clear 17 1029 63 10000 6 10 20:55 14.10.2019
5961 Clouds 17 1029 63 10000 7 10 20:37 14.10.2019
5962 Clouds 17 1029 63 10000 7 10 20:18 14.10.2019
5963 Clouds 17 1029 67 10000 5 20 19:42 14.10.2019
5964 Clouds 17 1029 67 10000 5 20 19:23 14.10.2019
5965 Clouds 18 1029 68 10000 6 30 18:59 14.10.2019
5966 Clouds 18 1029 63 10000 7 30 18:39 14.10.2019
5967 Clouds 18 1029 63 10000 8 30 18:19 14.10.2019
5968 Clouds 18 1029 63 10000 8 30 18:19 14.10.2019
5969 Clouds 18 1029 63 10000 8 30 18:19 14.10.2019
5970 Clouds 18 1029 63 10000 8 30 17:57 14.10.2019
5971 Clouds 18 1029 63 10000 8 30 17:57 14.10.2019
5972 Clouds 18 1029 63 10000 8 20 17:38 14.10.2019
5973 Clouds 18 1029 63 10000 8 20 17:20 14.10.2019
5974 Clouds 18 1029 63 10000 8 30 16:44 14.10.2019
5975 Clouds 18 1030 63 10000 8 30 16:21 14.10.2019
5976 Clouds 19 1029 72 10000 7 30 15:44 14.10.2019
5977 Rain 19 1029 72 10000 7 30 15:25 14.10.2019
5978 Rain 19 1029 77 10000 7 20 14:58 14.10.2019
5979 Clouds 19 1029 77 10000 7 10 14:39 14.10.2019
5980 Clouds 20 1029 77 10000 7 10 14:20 14.10.2019
5981 Clouds 19 1028 77 10000 7 20 13:44 14.10.2019
5982 Clouds 20 1028 77 10000 8 20 13:21 14.10.2019
5983 Clouds 20 1027 72 10000 9 20 12:55 14.10.2019
5984 Clouds 20 1027 77 10000 9 20 12:37 14.10.2019
5985 Clouds 20 1027 77 10000 9 20 12:18 14.10.2019
5986 Rain 20 1027 88 8000 6 20 11:44 14.10.2019
5987 Rain 20 1027 88 8000 6 20 11:26 14.10.2019
5988 Rain 20 1027 88 8000 6 20 11:26 14.10.2019
5989 Rain 20 1027 88 8000 6 30 10:57 14.10.2019
5990 Rain 20 1027 88 7000 8 50 10:38 14.10.2019
5991 Rain 19 1027 88 7000 8 50 10:19 14.10.2019
5992 Clouds 21 1026 60 10000 6 40 09:42 14.10.2019
5993 Clouds 22 1026 60 10000 6 40 09:21 14.10.2019
5994 Clouds 22 1025 64 10000 8 30 08:51 14.10.2019
5995 Clouds 22 1025 64 10000 5 20 08:23 14.10.2019
5996 Clouds 23 1025 68 10000 7 30 07:59 14.10.2019
5997 Clouds 23 1025 64 10000 7 10 07:39 14.10.2019
5998 Clouds 24 1025 64 10000 7 10 07:18 14.10.2019
5999 Clouds 24 1025 69 10000 7 10 06:29 14.10.2019
6000 Clouds 23 1025 73 10000 8 20 05:57 14.10.2019
6001 Clouds 24 1025 44 10000 4 40 05:29 14.10.2019
6002 Clouds 24 1025 64 10000 4 360 04:34 14.10.2019
6003 Clouds 24 1025 73 10000 4 10 03:26 14.10.2019
6004 Clouds 24 1025 73 10000 4 10 03:26 14.10.2019
6005 Clouds 23 1025 83 10000 4 360 02:32 14.10.2019
6006 Clouds 23 1024 83 10000 4 360 01:21 14.10.2019
6007 Clear 22 1023 88 10000 3 360 00:44 14.10.2019
6008 Clear 21 1023 88 10000 3 360 00:19 14.10.2019
6009 Clear 20 1023 88 10000 2 360 23:43 13.10.2019
6010 Clear 21 1022 83 10000 2 20 23:20 13.10.2019
6011 Clear 21 1022 88 10000 2 360 22:57 13.10.2019
6012 Clear 21 1022 88 10000 1 10 22:39 13.10.2019
6013 Clear 21 1022 88 10000 1 10 22:39 13.10.2019
6014 Clear 21 1022 88 10000 1 10 22:20 13.10.2019
6015 Clouds 21 1022 83 10000 1 0 21:57 13.10.2019
6016 Clouds 21 1022 88 10000 2 10 21:36 13.10.2019
6017 Clouds 21 1022 88 10000 2 10 21:18 13.10.2019
6018 Clouds 21 1022 88 10000 3 350 20:56 13.10.2019
6019 Clouds 21 1022 88 10000 3 350 20:56 13.10.2019
6020 Clear 21 1022 83 10000 3 360 20:37 13.10.2019
6021 Clear 21 1022 83 10000 3 360 20:19 13.10.2019
6022 -273 0 0 0 0 0 19:55 13.10.2019
6023 Rain 21 1022 83 10000 3 360 19:36 13.10.2019
6024 Rain 21 1022 83 10000 3 360 19:18 13.10.2019
6025 Clear 21 1022 83 10000 2 20 18:41 13.10.2019
6026 Clear 21 1022 83 10000 2 20 18:21 13.10.2019
6027 Clear 22 1022 83 10000 3 30 17:59 13.10.2019
6028 Clear 22 1022 88 10000 3 20 17:41 13.10.2019
6029 Clear 22 1022 88 10000 3 20 17:23 13.10.2019
6030 Clear 22 1022 83 10000 3 350 16:44 13.10.2019
6031 Clear 22 1022 83 10000 3 350 16:20 13.10.2019
6032 Clear 22 1022 83 10000 3 350 16:20 13.10.2019
6033 Clouds 22 1022 88 10000 1 0 15:58 13.10.2019
6034 Clouds 22 1022 88 10000 1 0 15:58 13.10.2019
6035 Clouds 22 1021 88 10000 2.33 40.313 15:39 13.10.2019
6036 Clouds 22 1021 88 10000 3.78 59.002 15:21 13.10.2019
6037 Rain 22 1021 88 10000 1 0 14:58 13.10.2019
6038 Rain 22 1021 88 7000 4 360 14:39 13.10.2019
6039 Rain 22 1021 88 7000 4 360 14:39 13.10.2019
6040 Rain 22 1021 88 7000 4 360 14:21 13.10.2019
6041 Clouds 22 1021 88 10000 2 160 13:56 13.10.2019
6042 Clouds 22 1020 83 10000 2 150 13:37 13.10.2019
6043 Clouds 22 1020 83 10000 2 150 13:18 13.10.2019
6044 Clouds 22 1020 88 10000 4 150 12:55 13.10.2019
6045 Clouds 22 1020 88 10000 4 150 12:55 13.10.2019
6046 Rain 22 1020 88 10000 4 150 12:37 13.10.2019
6047 Rain 23 1020 88 10000 4 150 12:18 13.10.2019
6048 -273 0 0 0 0 0 11:55 13.10.2019
6049 Rain 23 1020 88 10000 4 150 11:55 13.10.2019
6050 Rain 24 1019 83 10000 4 150 11:36 13.10.2019
6051 Rain 24 1019 83 10000 4 150 11:18 13.10.2019
6052 Clouds 24 1019 64 10000 3 110 10:41 13.10.2019
6053 Clouds 24 1019 64 10000 3 110 10:22 13.10.2019
6054 Clouds 25 1018 57 10000 4 20 09:41 13.10.2019
6055 Clouds 25 1018 57 10000 4 20 09:21 13.10.2019
6056 Clear 25 1018 57 10000 4 10 08:57 13.10.2019
6057 Clear 26 1018 54 10000 5 350 08:37 13.10.2019
6058 Clear 26 1018 54 10000 5 350 08:18 13.10.2019
6059 Clouds 26 1018 50 10000 2 0 07:45 13.10.2019
6060 Clouds 26 1018 50 10000 2 0 07:45 13.10.2019
6061 Clouds 25 1019 47 10000 3 30 06:58 13.10.2019
6062 Clouds 26 1019 47 10000 2 0 06:31 13.10.2019
6063 Clouds 25 1019 53 10000 3 360 05:34 13.10.2019
6064 Clouds 25 1019 53 10000 3 360 05:34 13.10.2019
6065 Clouds 27 1020 50 10000 2 0 04:46 13.10.2019
6066 Clouds 24 1020 64 10000 2 30 03:39 13.10.2019
6067 Clouds 23 1019 69 10000 4 50 02:35 13.10.2019
6068 Clear 23 1019 73 10000 3 60 01:51 13.10.2019
6069 Clear 21 1018 77 10000 2 40 01:21 13.10.2019
6070 Clear 22 1018 82 10000 2 350 00:43 13.10.2019
6071 Clear 21 1018 82 10000 2 350 00:20 13.10.2019
6072 Clear 20 1018 82 10000 3 340 23:54 12.10.2019
6073 Clear 20 1018 82 10000 3 340 23:54 12.10.2019
6074 Clear 20 1017 82 10000 2 360 23:36 12.10.2019
6075 Clear 20 1017 82 10000 2 360 23:36 12.10.2019
6076 Clear 20 1017 82 10000 2 360 23:18 12.10.2019
6077 Clear 21 1017 82 10000 1 10 22:54 12.10.2019
6078 Clear 21 1017 82 10000 2 10 22:36 12.10.2019
6079 Clear 21 1017 82 10000 2 10 22:18 12.10.2019
6080 Clear 21 1017 82 10000 3 10 21:41 12.10.2019
6081 Clear 21 1017 82 10000 3 10 21:23 12.10.2019
6082 Clear 21 1017 77 10000 3 20 20:56 12.10.2019
6083 Clear 21 1017 77 10000 3 30 20:38 12.10.2019
6084 Clear 21 1017 77 10000 3 30 20:38 12.10.2019
6085 Clear 21 1017 77 10000 3 30 20:20 12.10.2019
6086 Clear 21 1017 77 10000 4 30 19:37 12.10.2019
6087 Clear 21 1017 77 10000 4 30 19:18 12.10.2019
6088 Clear 21 1017 77 10000 4 40 18:44 12.10.2019
6089 Clear 21 1017 77 10000 4 20 18:26 12.10.2019
6090 Clear 22 1017 73 10000 3 20 17:56 12.10.2019
6091 Clear 22 1017 73 10000 3 20 17:56 12.10.2019
6092 Clouds 22 1017 73 10000 4 10 17:37 12.10.2019
6093 Clouds 22 1017 73 10000 4 10 17:18 12.10.2019
6094 Clouds 22 1017 68 10000 4 30 16:40 12.10.2019
6095 Clouds 22 1017 68 10000 4 30 16:21 12.10.2019
6096 Clouds 22 1017 68 10000 4 40 15:57 12.10.2019
6097 Clouds 22 1017 68 10000 4 40 15:57 12.10.2019
6098 Clouds 22 1017 64 10000 5 40 15:38 12.10.2019
6099 Clouds 22 1017 64 10000 5 40 15:18 12.10.2019
6100 Clouds 22 1016 69 10000 6 10 14:40 12.10.2019
6101 Clouds 22 1016 69 10000 6 10 14:20 12.10.2019
6102 Clouds 23 1016 69 10000 5 10 13:51 12.10.2019
6103 Clouds 23 1016 64 10000 6 30 13:32 12.10.2019
6104 Clouds 23 1015 64 10000 4 30 12:56 12.10.2019
6105 Clouds 23 1015 60 10000 6 20 12:38 12.10.2019
6106 Clouds 24 1015 60 10000 6 20 12:20 12.10.2019
6107 Clouds 23 1015 57 10000 5 10 11:45 12.10.2019
6108 Clouds 24 1015 57 10000 7 30 11:24 12.10.2019
6109 Clouds 25 1014 53 10000 6 20 10:58 12.10.2019
6110 Clouds 24 1014 53 10000 5 20 10:39 12.10.2019
6111 Clouds 25 1014 53 10000 5 20 10:20 12.10.2019
6112 Clouds 25 1014 50 10000 6 360 09:57 12.10.2019
6113 Clouds 25 1014 50 10000 6 360 09:57 12.10.2019
6114 Clouds 25 1014 47 10000 6 10 09:38 12.10.2019
6115 Clouds 26 1014 47 10000 6 10 09:19 12.10.2019
6116 Clouds 26 1014 47 10000 6 10 09:19 12.10.2019
6117 Clouds 26 1014 50 10000 6 10 08:44 12.10.2019
6118 Clouds 27 1014 47 10000 6 350 08:24 12.10.2019
6119 Clouds 27 1014 50 10000 6 10 07:50 12.10.2019
6120 Clouds 25 1014 54 10000 5 350 07:30 12.10.2019
6121 Clouds 25 1015 61 10000 7 10 06:27 12.10.2019
6122 Clouds 25 1015 64 10000 5 360 05:42 12.10.2019
6123 Clouds 25 1015 64 10000 5 10 04:34 12.10.2019
6124 Clouds 25 1015 64 10000 5 10 03:53 12.10.2019
6125 Clouds 23 1015 69 10000 5 20 02:45 12.10.2019
6126 Clouds 23 1015 83 10000 3 10 01:32 12.10.2019
6127 Clouds 22 1015 83 10000 4 10 00:55 12.10.2019
6128 Clouds 22 1015 83 10000 4 10 00:55 12.10.2019
6129 Clouds 21 1014 83 10000 4 10 00:37 12.10.2019
6130 Clouds 21 1014 83 10000 5 20 23:55 11.10.2019
6131 Clouds 21 1014 83 10000 4 360 23:36 11.10.2019
6132 Clouds 21 1014 83 10000 4 360 23:36 11.10.2019
6133 Clouds 21 1014 83 10000 4 360 23:18 11.10.2019
6134 Clouds 21 1014 83 10000 4 360 23:18 11.10.2019
6135 Clouds 21 1014 94 7000 2 360 22:37 11.10.2019
6136 Clouds 21 1014 94 7000 2 360 22:18 11.10.2019
6137 Rain 21 1014 94 4000 4 360 21:42 11.10.2019
6138 Rain 21 1014 94 4000 4 360 21:21 11.10.2019
6139 Clouds 21 1014 88 7000 5 10 20:55 11.10.2019
6140 Clouds 21 1014 88 8000 4 10 20:37 11.10.2019
6141 Clouds 21 1014 88 8000 4 10 20:18 11.10.2019
6142 Clouds 21 1014 88 8000 3 360 19:55 11.10.2019
6143 Clouds 21 1014 88 8000 2 350 19:36 11.10.2019
6144 Clouds 22 1014 88 8000 2 350 19:18 11.10.2019
6145 Clouds 21 1014 88 7000 3 10 18:39 11.10.2019
6146 Clouds 21 1014 88 7000 3 10 18:19 11.10.2019
6147 Clouds 21 1014 94 6000 2 30 17:59 11.10.2019
6148 Clouds 22 1014 88 6000 4 10 17:38 11.10.2019
6149 Clouds 22 1014 88 6000 4 10 17:20 11.10.2019
6150 Clouds 22 1014 83 7000 3 360 16:59 11.10.2019
6151 Clouds 21 1014 83 7000 4 360 16:39 11.10.2019
6152 Clouds 21 1014 83 7000 4 360 16:19 11.10.2019
6153 Clouds 22 1014 83 7000 3 360 15:57 11.10.2019
6154 Clouds 22 1014 83 7000 3 360 15:37 11.10.2019
6155 Clouds 22 1014 83 7000 3 360 15:18 11.10.2019
6156 Clouds 21 1014 83 7000 4 10 14:43 11.10.2019
6157 Clouds 21 1014 83 7000 4 10 14:43 11.10.2019
6158 Clouds 21 1014 83 7000 4 10 14:23 11.10.2019
6159 Rain 22 1014 83 7000 5 10 13:47 11.10.2019
6160 Mist 22 1013 83 6000 5 10 13:26 11.10.2019
6161 Mist 23 1013 78 6000 4 10 12:58 11.10.2019
6162 Mist 23 1013 78 6000 5 10 12:40 11.10.2019
6163 Mist 23 1013 78 6000 5 10 12:21 11.10.2019
6164 Mist 23 1013 78 5000 5 360 11:59 11.10.2019
6165 Mist 23 1013 78 5000 6 10 11:39 11.10.2019
6166 Mist 23 1013 78 5000 6 10 11:21 11.10.2019
6167 Mist 23 1013 83 5000 6 360 10:56 11.10.2019
6168 Mist 24 1013 78 5000 5 360 10:37 11.10.2019
6169 Mist 24 1013 78 5000 5 360 10:18 11.10.2019
6170 Mist 24 1013 78 5000 5 360 10:18 11.10.2019
6171 Mist 24 1012 78 5000 5 360 09:42 11.10.2019
6172 Mist 24 1012 78 5000 5 360 09:21 11.10.2019
6173 Clouds 25 1012 73 6000 5 360 08:59 11.10.2019
6174 Clouds 25 1012 73 7000 5 360 08:39 11.10.2019
6175 Clouds 25 1012 73 7000 5 360 08:39 11.10.2019
6176 Clouds 26 1012 73 10000 4 10 08:20 11.10.2019
6177 Clouds 26 1012 73 10000 4 10 07:54 11.10.2019
6178 Clouds 26 1012 73 10000 5 340 07:34 11.10.2019
6179 Clouds 26 1012 69 10000 4 340 06:50 11.10.2019
6180 Clear 26 1013 73 10000 4 330 06:25 11.10.2019
6181 Clear 26 1013 69 10000 3 340 05:48 11.10.2019
6182 Clear 27 1013 69 10000 3 350 05:30 11.10.2019
6183 Clear 27 1014 69 10000 4 330 04:58 11.10.2019
6184 Clear 27 1014 65 10000 2 340 03:45 11.10.2019
6185 Clear 24 1013 83 10000 1 0 01:28 11.10.2019
6186 Clear 23 1013 83 10000 1.38 354.971 00:41 11.10.2019
6187 Clear 22 1013 83 10000 0.23 319.808 00:20 11.10.2019
6188 Clear 22 1013 83 10000 0.23 319.808 00:20 11.10.2019
6189 Clear 22 1012 78 10000 2 140 23:41 10.10.2019
6190 Clear 22 1012 78 10000 2 140 23:20 10.10.2019
6191 Clear 22 1012 78 10000 1 0 22:56 10.10.2019
6192 Clear 22 1012 78 10000 1 0 22:36 10.10.2019
6193 Clear 22 1012 78 10000 1 0 22:18 10.10.2019
6194 Clear 22 1012 78 10000 1 0 21:42 10.10.2019
6195 Clear 22 1012 78 10000 1 0 21:22 10.10.2019
6196 Clear 22 1012 78 10000 2 120 20:59 10.10.2019
6197 Clear 22 1013 78 10000 2 140 20:40 10.10.2019
6198 Clear 22 1013 78 10000 2 140 20:20 10.10.2019
6199 Clear 22 1013 78 10000 2 150 19:57 10.10.2019
6200 Clear 22 1013 78 10000 2 150 19:39 10.10.2019
6201 Clear 22 1013 78 10000 2 150 19:19 10.10.2019
6202 Clear 22 1013 78 10000 2 150 19:19 10.10.2019
6203 Clear 22 1013 73 10000 3 150 18:42 10.10.2019
6204 Clear 22 1013 73 10000 3 150 18:21 10.10.2019
6205 Clear 22 1013 73 10000 4 150 17:59 10.10.2019
6206 Clear 23 1014 73 10000 3 150 17:40 10.10.2019
6207 Clear 23 1014 73 10000 3 150 17:18 10.10.2019
6208 Clear 22 1014 73 10000 4 160 16:56 10.10.2019
6209 Clear 22 1014 73 10000 4 150 16:37 10.10.2019
6210 Clear 22 1014 73 10000 4 150 16:18 10.10.2019
6211 Clear 23 1013 73 10000 4 140 15:40 10.10.2019
6212 Clear 23 1013 73 10000 4 140 15:22 10.10.2019
6213 Clear 23 1014 73 10000 4 150 14:57 10.10.2019
6214 Clear 23 1013 73 10000 4 150 14:37 10.10.2019
6215 Clear 22 1013 73 10000 4 150 14:19 10.10.2019
6216 Clear 23 1013 69 10000 4 150 13:55 10.10.2019
6217 Clear 23 1013 69 10000 4 150 13:37 10.10.2019
6218 Clear 23 1013 69 10000 4 150 13:18 10.10.2019
6219 Clear 24 1012 65 10000 4 160 12:42 10.10.2019
6220 Clear 25 1012 65 10000 4 160 12:21 10.10.2019
6221 Clear 26 1012 61 10000 4 200 11:58 10.10.2019
6222 Clear 26 1012 61 10000 3 190 11:39 10.10.2019
6223 Clear 26 1012 61 10000 3 190 11:19 10.10.2019
6224 Clear 26 1012 61 10000 3 200 10:46 10.10.2019
6225 Clear 27 1012 54 10000 3 190 10:27 10.10.2019
6226 Clear 27 1012 54 10000 4 160 09:58 10.10.2019
6227 Clear 27 1012 54 10000 4 150 09:40 10.10.2019
6228 Clear 27 1012 54 10000 4 150 09:22 10.10.2019
6229 Clear 27 1012 54 10000 4 190 08:58 10.10.2019
6230 Clouds 27 1012 54 10000 3 230 08:38 10.10.2019
6231 Clouds 27 1012 54 10000 3 230 08:38 10.10.2019
6232 Clouds 27 1012 54 10000 3 230 08:19 10.10.2019
6233 Clouds 27 1012 54 10000 3 190 07:45 10.10.2019
6234 Clouds 27 1012 54 10000 3 190 07:23 10.10.2019
6235 Clouds 27 1012 54 10000 3 220 06:49 10.10.2019
6236 Clouds 27 1012 54 10000 3 220 06:49 10.10.2019
6237 Clouds 27 1013 57 10000 2 190 06:29 10.10.2019
6238 Clear 26 1014 54 10000 4 180 05:28 10.10.2019
6239 Clear 28 1014 57 10000 4 170 04:54 10.10.2019
6240 Clear 28 1015 57 10000 4 160 04:33 10.10.2019
6241 Clear 24 1015 68 10000 2 150 01:46 10.10.2019
6242 Clear 24 1015 68 10000 2 150 01:46 10.10.2019
6243 Clear 23 1015 73 10000 3 150 01:26 10.10.2019
6244 Clear 23 1014 68 10000 3 140 01:00 10.10.2019
6245 Clear 20 1014 72 10000 3 140 00:23 10.10.2019
6246 Clear 20 1014 72 10000 3 140 23:40 09.10.2019
6247 Clear 20 1014 72 10000 3 140 23:22 09.10.2019
6248 Clear 20 1014 72 10000 3 140 22:59 09.10.2019
6249 Clear 20 1014 68 10000 2 130 22:40 09.10.2019
6250 Clear 20 1014 68 10000 2 130 22:22 09.10.2019
6251 Clear 20 1015 68 10000 2 140 21:41 09.10.2019
6252 Clear 20 1015 68 10000 2 140 21:21 09.10.2019
6253 Clear 20 1015 68 10000 2 140 20:56 09.10.2019
6254 Clear 20 1015 64 10000 3 130 20:38 09.10.2019
6255 Clear 20 1015 64 10000 3 130 20:19 09.10.2019
6256 Clear 20 1015 64 10000 3 130 20:19 09.10.2019
6257 Clear 20 1015 64 10000 3 130 20:19 09.10.2019
6258 Clear 21 1015 64 10000 3 130 19:58 09.10.2019
6259 Clear 21 1016 64 10000 3 130 19:40 09.10.2019
6260 Clear 21 1016 64 10000 3 130 19:21 09.10.2019
6261 Clear 21 1016 60 10000 3 140 18:38 09.10.2019
6262 Clear 21 1016 60 10000 3 140 18:20 09.10.2019
6263 Clear 21 1016 60 10000 3 140 17:57 09.10.2019
6264 Clear 21 1016 60 10000 3 130 17:37 09.10.2019
6265 Clear 21 1016 60 10000 3 130 17:19 09.10.2019
6266 Clear 21 1017 60 10000 3 140 16:55 09.10.2019
6267 Clear 21 1017 60 10000 3 140 16:36 09.10.2019
6268 Clear 21 1017 60 10000 3 140 16:18 09.10.2019
6269 Clear 21 1017 60 10000 3 140 15:55 09.10.2019
6270 Clear 21 1017 60 10000 3 140 15:55 09.10.2019
6271 Clear 21 1017 60 10000 2 130 15:36 09.10.2019
6272 Clear 21 1017 60 10000 2 130 15:36 09.10.2019
6273 Clear 21 1017 60 10000 2 130 15:18 09.10.2019
6274 Clear 21 1017 60 10000 2 130 15:18 09.10.2019
6275 Clear 21 1017 60 10000 5 110 14:41 09.10.2019
6276 Clear 21 1017 60 10000 5 110 14:18 09.10.2019
6277 Clear 21 1017 56 10000 5 110 13:40 09.10.2019
6278 Clear 21 1017 56 10000 5 110 13:22 09.10.2019
6279 Clear 21 1017 56 10000 5 110 13:22 09.10.2019
6280 Clear 21 1017 56 10000 4 120 12:59 09.10.2019
6281 Clouds 21 1016 60 10000 4 120 12:41 09.10.2019
6282 Clouds 22 1016 60 10000 4 120 12:22 09.10.2019
6283 Clouds 22 1016 60 10000 4 140 11:57 09.10.2019
6284 Clouds 22 1016 56 10000 3 150 11:37 09.10.2019
6285 Clouds 22 1016 56 10000 3 150 11:37 09.10.2019
6286 Clouds 23 1016 56 10000 3 150 11:19 09.10.2019
6287 Clouds 22 1016 56 10000 3 100 10:45 09.10.2019
6288 Clouds 23 1016 56 10000 3 120 10:22 09.10.2019
6289 Clouds 23 1016 56 10000 4 110 09:59 09.10.2019
6290 Clouds 23 1016 56 10000 3 100 09:41 09.10.2019
6291 Clouds 23 1016 56 10000 3 100 09:41 09.10.2019
6292 Clouds 23 1016 56 10000 3 100 09:19 09.10.2019
6293 Clouds 23 1017 57 10000 5 80 08:43 09.10.2019
6294 Clouds 23 1017 56 10000 3 90 08:23 09.10.2019
6295 Clouds 23 1017 53 10000 2 140 07:59 09.10.2019
6296 Clouds 24 1017 53 10000 3 100 07:39 09.10.2019
6297 Clouds 24 1017 53 10000 3 100 07:21 09.10.2019
6298 Clouds 24 1018 53 10000 4 100 06:51 09.10.2019
6299 Clouds 23 1019 57 10000 3 70 05:56 09.10.2019
6300 Clouds 23 1019 60 10000 4 90 05:37 09.10.2019
6301 Clouds 25 1020 64 10000 3 90 04:25 09.10.2019
6302 Clear 22 1021 73 10000 3 60 02:52 09.10.2019
6303 Mist 22 1021 82 4000 2 10 01:43 09.10.2019
6304 Mist 21 1021 82 4000 1 10 01:20 09.10.2019
6305 Mist 21 1021 82 5000 2 360 00:57 09.10.2019
6306 Mist 20 1021 82 5000 1 360 00:38 09.10.2019
6307 Mist 18 1021 82 5000 1 360 00:20 09.10.2019
6308 Mist 18 1021 82 5000 1 330 23:39 08.10.2019
6309 Mist 18 1021 82 5000 1 330 23:19 08.10.2019
6310 Mist 18 1020 88 5000 1 350 22:56 08.10.2019
6311 Mist 17 1020 88 5000 1 330 22:38 08.10.2019
6312 Mist 18 1020 88 5000 1 330 22:19 08.10.2019
6313 Mist 17 1020 82 5000 1 340 21:57 08.10.2019
6314 Mist 18 1021 88 5000 1 330 21:39 08.10.2019
6315 Mist 18 1021 88 5000 1 330 21:19 08.10.2019
6316 Mist 18 1021 88 5000 1 330 21:19 08.10.2019
6317 Mist 17 1021 82 4000 1 0 20:56 08.10.2019
6318 Mist 18 1021 82 4000 1 350 20:37 08.10.2019
6319 Mist 18 1021 82 4000 1 350 20:19 08.10.2019
6320 Mist 18 1021 82 4000 1 340 19:56 08.10.2019
6321 Mist 18 1021 82 4000 1 340 19:37 08.10.2019
6322 Mist 18 1021 82 4000 1 340 19:18 08.10.2019
6323 Mist 18 1021 82 4200 2 330 18:45 08.10.2019
6324 Mist 18 1022 82 4500 3 330 18:25 08.10.2019
6325 Mist 19 1022 77 4500 3 340 17:58 08.10.2019
6326 Mist 19 1022 77 4500 4 340 17:39 08.10.2019
6327 Mist 18 1022 77 4500 4 340 17:20 08.10.2019
6328 Mist 19 1022 77 4500 3 340 16:56 08.10.2019
6329 Mist 19 1022 77 4500 3 340 16:56 08.10.2019
6330 Mist 19 1022 77 5000 3 340 16:37 08.10.2019
6331 Mist 19 1022 77 5000 3 340 16:18 08.10.2019
6332 Mist 19 1023 72 6000 3 350 15:39 08.10.2019
6333 Mist 19 1023 72 6000 3 350 15:39 08.10.2019
6334 Mist 19 1023 72 6000 3 350 15:20 08.10.2019
6335 Clouds 19 1023 72 6000 3 340 14:56 08.10.2019
6336 Clouds 19 1023 77 6000 3 340 14:38 08.10.2019
6337 Clouds 19 1023 77 6000 3 340 14:19 08.10.2019
6338 Clouds 19 1022 72 6000 4 340 13:55 08.10.2019
6339 Clouds 19 1022 72 6000 3 330 13:37 08.10.2019
6340 Clouds 19 1022 72 6000 3 330 13:18 08.10.2019
6341 Clouds 19 1022 72 6000 3 330 13:18 08.10.2019
6342 Clouds 19 1022 72 6000 3 330 13:18 08.10.2019
6343 Clouds 19 1022 72 6000 3 330 13:18 08.10.2019
6344 Clouds 19 1022 77 6000 3 320 12:41 08.10.2019
6345 Clouds 19 1022 77 6000 3 320 12:20 08.10.2019
6346 Mist 19 1022 77 8000 3 330 11:57 08.10.2019
6347 Mist 19 1022 77 8000 3 330 11:57 08.10.2019
6348 Rain 19 1022 77 10000 4 350 11:38 08.10.2019
6349 Rain 19 1022 77 10000 4 350 11:20 08.10.2019
6350 Clouds 20 1022 68 10000 4 360 10:42 08.10.2019
6351 Clouds 20 1022 68 10000 4 360 10:23 08.10.2019
6352 Clouds 20 1021 68 10000 5 10 09:59 08.10.2019
6353 Clouds 20 1021 68 10000 5 10 09:40 08.10.2019
6354 Clouds 20 1021 68 10000 5 10 09:40 08.10.2019
6355 Clouds 21 1021 68 10000 5 10 09:21 08.10.2019
6356 Clouds 21 1021 64 10000 4 360 08:45 08.10.2019
6357 Clouds 21 1021 64 10000 4 360 08:25 08.10.2019
6358 Clouds 21 1021 64 10000 4 360 07:47 08.10.2019
6359 Clouds 22 1022 56 10000 3 310 07:23 08.10.2019
6360 Clouds 22 1022 64 10000 3 340 06:57 08.10.2019
6361 Clouds 22 1022 64 10000 3 360 06:35 08.10.2019
6362 Clear 22 1022 64 10000 5 350 05:58 08.10.2019
6363 Clear 22 1022 64 10000 5 350 05:58 08.10.2019
6364 Clear 20 1022 64 10000 3 10 05:38 08.10.2019
6365 Clear 20 1022 64 10000 3 10 05:38 08.10.2019
6366 Clear 22 1023 64 10000 4 330 04:42 08.10.2019
6367 Clouds 21 1023 63 10000 5 330 03:30 08.10.2019
6368 Clouds 18 1022 68 10000 5 330 02:40 08.10.2019
6369 Clouds 18 1022 72 10000 5 330 01:49 08.10.2019
6370 Clouds 19 1022 72 10000 6 330 01:31 08.10.2019
6371 Clouds 19 1022 72 10000 6 330 01:31 08.10.2019
6372 Clouds 18 1021 72 10000 5 330 00:51 08.10.2019
6373 Clouds 18 1021 77 10000 4 340 00:22 08.10.2019
6374 Clouds 18 1021 77 10000 4 330 23:42 07.10.2019
6375 Clouds 18 1021 77 10000 4 330 23:21 07.10.2019
6376 Clouds 18 1020 77 10000 5 330 22:58 07.10.2019
6377 Clouds 18 1020 77 10000 4 330 22:40 07.10.2019
6378 Clouds 18 1020 77 10000 4 330 22:20 07.10.2019
6379 Clouds 18 1020 72 10000 4 320 21:57 07.10.2019
6380 Clouds 18 1020 77 10000 5 330 21:39 07.10.2019
6381 Clouds 18 1020 77 10000 5 330 21:20 07.10.2019
6382 Clouds 18 1020 72 10000 4 320 20:58 07.10.2019
6383 Clouds 18 1020 72 10000 5 320 20:39 07.10.2019
6384 Clouds 19 1020 72 10000 5 320 20:20 07.10.2019
6385 Clouds 19 1020 77 10000 4 340 19:58 07.10.2019
6386 Clouds 19 1020 77 10000 5 350 19:40 07.10.2019
6387 Clouds 18 1020 77 10000 5 350 19:19 07.10.2019
6388 Clouds 19 1020 77 10000 5 330 18:56 07.10.2019
6389 Clouds 18 1020 77 10000 5 330 18:56 07.10.2019
6390 Clouds 19 1020 77 10000 5 330 18:38 07.10.2019
6391 Clouds 19 1020 77 10000 5 330 18:18 07.10.2019
6392 Clouds 19 1020 77 10000 7 330 17:43 07.10.2019
6393 Clouds 19 1020 77 10000 6 340 17:20 07.10.2019
6394 Clouds 19 1021 77 10000 6 340 16:56 07.10.2019
6395 Clouds 19 1021 77 10000 5 340 16:38 07.10.2019
6396 Clouds 19 1021 77 10000 5 340 16:19 07.10.2019
6397 Clouds 20 1020 77 10000 6 330 15:43 07.10.2019
6398 Clouds 20 1020 77 10000 6 330 15:25 07.10.2019
6399 Clouds 20 1020 77 8000 6 330 14:42 07.10.2019
6400 -273 0 0 0 0 0 14:24 07.10.2019
6401 Clouds 21 1020 77 8000 6 330 14:24 07.10.2019
6402 Clouds 20 1020 77 7000 5 330 13:59 07.10.2019
6403 Clouds 20 1020 77 7000 5 330 13:59 07.10.2019
6404 Clouds 21 1020 77 6000 6 330 13:40 07.10.2019
6405 Clouds 21 1020 77 6000 6 330 13:19 07.10.2019
6406 Clouds 21 1019 77 6000 5 340 12:55 07.10.2019
6407 Clouds 21 1019 77 6000 5 340 12:55 07.10.2019
6408 Clouds 21 1019 77 6000 5 330 12:36 07.10.2019
6409 Clouds 22 1019 77 6000 5 330 12:18 07.10.2019
6410 Mist 22 1019 77 6000 5 330 11:56 07.10.2019
6411 Mist 22 1019 73 6000 5 330 11:36 07.10.2019
6412 Mist 22 1019 73 6000 5 330 11:18 07.10.2019
6413 Clouds 22 1019 73 7000 5 320 10:40 07.10.2019
6414 Clouds 22 1019 73 7000 5 320 10:20 07.10.2019
6415 Clouds 23 1018 78 8000 4 340 09:42 07.10.2019
6416 Clouds 23 1018 78 8000 4 340 09:23 07.10.2019
6417 Clouds 23 1018 78 8000 6 330 08:56 07.10.2019
6418 Clouds 24 1018 73 10000 5 320 08:37 07.10.2019
6419 Clouds 24 1018 73 10000 5 320 08:18 07.10.2019
6420 Clouds 24 1018 73 10000 5 330 07:40 07.10.2019
6421 Clouds 25 1018 73 10000 5 330 07:20 07.10.2019
6422 Clouds 25 1018 69 10000 4 310 06:44 07.10.2019
6423 Clouds 25 1018 69 10000 4 310 06:23 07.10.2019
6424 Clouds 25 1019 69 10000 4 290 05:30 07.10.2019
6425 Clouds 25 1019 69 10000 3 280 04:58 07.10.2019
6426 Clouds 25 1019 73 10000 2 290 04:20 07.10.2019
6427 Clouds 25 1019 73 10000 2 290 03:44 07.10.2019
6428 Clouds 23 1019 73 10000 1 0 03:18 07.10.2019
6429 Clouds 22 1019 73 10000 1 0 02:20 07.10.2019
6430 Clouds 22 1019 73 10000 0.83 4.889 01:42 07.10.2019
6431 Clouds 23 1019 73 10000 0.96 354.474 01:18 07.10.2019
6432 Clear 21 1018 73 10000 3 160 00:38 07.10.2019
6433 Clear 21 1018 73 10000 3 160 00:19 07.10.2019
6434 Clear 21 1018 73 10000 2 150 23:42 06.10.2019
6435 Clear 21 1018 73 10000 2 150 23:21 06.10.2019
6436 Clear 21 1018 73 10000 2 140 22:58 06.10.2019
6437 Clear 20 1018 73 10000 1 110 22:39 06.10.2019
6438 Clear 20 1018 73 10000 1 110 22:21 06.10.2019
6439 Clear 20 1018 68 10000 2 70 21:56 06.10.2019
6440 Clear 20 1018 68 10000 2 130 21:37 06.10.2019
6441 Clear 20 1018 68 10000 2 130 21:19 06.10.2019
6442 Clear 20 1018 68 10000 2 140 20:56 06.10.2019
6443 Clear 20 1018 68 10000 2 130 20:38 06.10.2019
6444 Clear 20 1018 68 10000 2 130 20:38 06.10.2019
6445 Clear 20 1018 68 10000 2 130 20:19 06.10.2019
6446 Clear 20 1018 68 10000 2 130 20:19 06.10.2019
6447 Clear 20 1019 68 10000 1 0 19:56 06.10.2019
6448 Clear 20 1019 68 10000 2 130 19:36 06.10.2019
6449 Clear 20 1019 68 10000 2 130 19:18 06.10.2019
6450 Clear 21 1019 68 10000 3 150 18:55 06.10.2019
6451 Clear 21 1019 68 10000 3 140 18:37 06.10.2019
6452 Clear 21 1020 68 10000 3 150 18:18 06.10.2019
6453 Clear 21 1020 68 10000 3 150 18:18 06.10.2019
6454 Clear 21 1020 68 10000 3 150 18:18 06.10.2019
6455 Clear 21 1020 68 10000 3 150 18:18 06.10.2019
6456 Clear 21 1020 68 10000 2 130 17:43 06.10.2019
6457 Clear 21 1020 68 10000 2 130 17:20 06.10.2019
6458 Clear 21 1020 64 10000 4 140 16:56 06.10.2019
6459 Clear 21 1020 64 10000 4 140 16:56 06.10.2019
6460 Clear 21 1020 64 10000 3 120 16:37 06.10.2019
6461 Clear 21 1020 64 10000 3 120 16:18 06.10.2019
6462 Clear 22 1020 64 10000 2 100 15:43 06.10.2019
6463 Clear 22 1020 64 10000 2 100 15:21 06.10.2019
6464 Clear 21 1020 64 10000 3 130 14:44 06.10.2019
6465 Clear 21 1020 64 10000 3 130 14:26 06.10.2019
6466 Clear 22 1020 60 10000 3 130 13:59 06.10.2019
6467 Clear 22 1020 60 10000 3 110 13:40 06.10.2019
6468 Clear 22 1020 60 10000 3 110 13:22 06.10.2019
6469 Clear 22 1019 60 10000 4 120 12:59 06.10.2019
6470 Clear 22 1019 60 10000 4 120 12:40 06.10.2019
6471 Clear 23 1019 60 10000 4 120 12:21 06.10.2019
6472 Clear 23 1020 57 10000 2 140 11:59 06.10.2019
6473 Clear 23 1019 57 10000 3 150 11:40 06.10.2019
6474 Clear 24 1019 57 10000 3 150 11:21 06.10.2019
6475 Clear 23 1019 53 10000 3 160 10:54 06.10.2019
6476 Clear 24 1019 50 10000 2 150 10:36 06.10.2019
6477 Clear 24 1019 50 10000 2 150 10:18 06.10.2019
6478 Clear 24 1019 50 10000 1 0 09:41 06.10.2019
6479 Clear 25 1019 50 10000 1 0 09:19 06.10.2019
6480 Clear 24 1019 50 10000 2 0 08:47 06.10.2019
6481 Clear 24 1019 50 10000 2 10 08:21 06.10.2019
6482 Clear 24 1020 53 10000 2 40 07:57 06.10.2019
6483 Clear 24 1020 50 10000 1 0 07:38 06.10.2019
6484 Clouds 24 1021 50 10000 2 0 06:39 06.10.2019
6485 Clouds 24 1022 60 10000 2 70 05:35 06.10.2019
6486 Clouds 23 1023 60 10000 2 0 04:27 06.10.2019
6487 Clouds 22 1022 60 10000 3 60 02:47 06.10.2019
6488 Clear 22 1022 60 10000 3 80 02:27 06.10.2019
6489 Clear 22 1022 64 10000 4 40 01:46 06.10.2019
6490 Clear 21 1022 64 10000 4 40 01:27 06.10.2019
6491 Clear 21 1022 68 10000 4 40 00:59 06.10.2019
6492 Clear 21 1022 68 10000 5 30 00:29 06.10.2019
6493 Clear 20 1021 68 10000 4 30 23:45 05.10.2019
6494 Clear 20 1021 68 10000 3 30 23:23 05.10.2019
6495 Clear 20 1021 68 10000 5 30 22:59 05.10.2019
6496 Clear 20 1021 68 10000 5 30 22:40 05.10.2019
6497 Clear 20 1021 68 10000 5 30 22:20 05.10.2019
6498 Clear 20 1021 68 10000 5 30 21:57 05.10.2019
6499 Clear 20 1021 68 10000 3 30 21:39 05.10.2019
6500 Clear 20 1021 68 10000 3 30 21:39 05.10.2019
6501 Clear 20 1021 68 10000 3 30 21:20 05.10.2019
6502 Clear 20 1021 68 10000 4 30 20:56 05.10.2019
6503 Clear 20 1021 68 10000 3 30 20:38 05.10.2019
6504 Clear 20 1021 68 10000 3 30 20:19 05.10.2019
6505 Clear 20 1021 68 10000 3 30 20:19 05.10.2019
6506 Clear 20 1021 68 10000 5 30 19:38 05.10.2019
6507 Clear 20 1021 68 10000 5 30 19:19 05.10.2019
6508 Clouds 20 1022 68 10000 5 30 18:56 05.10.2019
6509 Clouds 20 1022 64 10000 4 30 18:37 05.10.2019
6510 Clouds 20 1022 64 10000 4 30 18:19 05.10.2019
6511 Clouds 21 1022 68 10000 5 30 17:43 05.10.2019
6512 Clouds 21 1022 68 10000 6 40 17:25 05.10.2019
6513 Clouds 21 1022 68 10000 6 40 16:58 05.10.2019
6514 Clouds 21 1022 68 10000 6 40 16:40 05.10.2019
6515 Clouds 21 1022 68 10000 6 40 16:21 05.10.2019
6516 Clouds 21 1022 68 10000 6 20 15:57 05.10.2019
6517 Clouds 21 1022 73 10000 6 20 15:38 05.10.2019
6518 Clouds 22 1021 73 10000 6 20 15:20 05.10.2019
6519 Clouds 22 1021 73 10000 6 20 14:44 05.10.2019
6520 Clouds 22 1021 73 10000 6 20 14:25 05.10.2019
6521 Clouds 22 1021 73 10000 6 20 13:58 05.10.2019
6522 Clouds 21 1020 77 10000 5 40 13:40 05.10.2019
6523 Clouds 21 1020 77 10000 5 40 13:19 05.10.2019
6524 Clouds 22 1020 73 10000 7 20 12:43 05.10.2019
6525 Clouds 22 1020 73 10000 6 30 12:19 05.10.2019
6526 Clouds 22 1019 78 10000 6 30 11:43 05.10.2019
6527 Rain 22 1019 78 10000 6 30 11:21 05.10.2019
6528 Rain 22 1019 78 10000 6 30 10:58 05.10.2019
6529 Clouds 22 1019 83 10000 5 30 10:39 05.10.2019
6530 Clouds 22 1019 83 10000 5 30 10:21 05.10.2019
6531 Clouds 22 1019 88 10000 3 40 09:45 05.10.2019
6532 Rain 22 1019 88 7000 4 30 09:23 05.10.2019
6533 Rain 22 1019 88 7000 6 40 08:56 05.10.2019
6534 Rain 22 1019 83 10000 8 10 08:38 05.10.2019
6535 Rain 23 1019 83 10000 8 10 08:18 05.10.2019
6536 Rain 22 1019 83 10000 8 20 07:46 05.10.2019
6537 Rain 22 1019 83 10000 8 20 07:28 05.10.2019
6538 Rain 23 1019 69 10000 8 40 06:56 05.10.2019
6539 Clouds 24 1018 65 10000 8 50 06:22 05.10.2019
6540 Clouds 25 1019 61 10000 5 30 05:20 05.10.2019
6541 Clear 25 1018 61 10000 6 40 03:32 05.10.2019
6542 Clear 24 1018 60 10000 5 30 02:29 05.10.2019
6543 Clear 23 1017 78 10000 4 30 01:27 05.10.2019
6544 Clouds 23 1017 83 10000 5 30 00:49 05.10.2019
6545 Clouds 23 1016 83 10000 5 30 00:27 05.10.2019
6546 Clouds 22 1016 83 10000 6 40 23:57 04.10.2019
6547 Clouds 23 1015 88 10000 6 20 23:39 04.10.2019
6548 Clouds 23 1015 88 10000 6 20 23:21 04.10.2019
6549 Clouds 23 1015 83 10000 5 20 22:43 04.10.2019
6550 Clouds 23 1015 83 10000 5 20 22:24 04.10.2019
6551 Clouds 23 1015 88 10000 3 20 21:59 04.10.2019
6552 Clouds 23 1015 88 10000 4 40 21:40 04.10.2019
6553 Clouds 24 1015 88 10000 4 40 21:22 04.10.2019
6554 Clouds 24 1015 88 10000 3 40 20:58 04.10.2019
6555 Clouds 24 1015 88 10000 3 60 20:40 04.10.2019
6556 Clouds 24 1015 88 10000 3 60 20:21 04.10.2019
6557 Clouds 24 1015 88 10000 2 70 19:55 04.10.2019
6558 Clouds 24 1014 83 10000 2 70 19:37 04.10.2019
6559 Clouds 24 1014 83 10000 2 70 19:19 04.10.2019
6560 Clouds 24 1015 83 10000 3 70 18:40 04.10.2019
6561 Clouds 24 1015 83 10000 3 70 18:20 04.10.2019
6562 Clear 24 1015 83 10000 3 80 17:59 04.10.2019
6563 Clear 24 1014 83 10000 3 70 17:39 04.10.2019
6564 Clear 25 1014 83 10000 3 70 17:21 04.10.2019
6565 Clear 25 1014 83 10000 3 80 16:55 04.10.2019
6566 Clear 25 1014 83 10000 4 70 16:37 04.10.2019
6567 Clear 25 1014 83 10000 4 70 16:18 04.10.2019
6568 -273 0 0 0 0 0 15:55 04.10.2019
6569 Clouds 25 1014 78 10000 3 80 15:37 04.10.2019
6570 Clouds 25 1014 78 10000 3 80 15:19 04.10.2019
6571 Clouds 25 1014 78 10000 4 70 14:54 04.10.2019
6572 Clouds 25 1013 78 10000 3 80 14:36 04.10.2019
6573 Clouds 25 1013 78 10000 3 80 14:18 04.10.2019
6574 Clouds 26 1013 74 10000 3 90 13:42 04.10.2019
6575 Clouds 26 1013 74 10000 3 90 13:19 04.10.2019
6576 Clear 26 1012 69 10000 4 80 12:46 04.10.2019
6577 Clear 26 1013 74 10000 4 80 12:46 04.10.2019
6578 Clear 26 1012 69 10000 4 80 12:27 04.10.2019
6579 Clear 27 1012 65 10000 4 90 11:57 04.10.2019
6580 Clouds 26 1011 65 10000 4 90 11:38 04.10.2019
6581 Clouds 27 1011 65 10000 4 90 11:19 04.10.2019
6582 Clouds 27 1011 58 10000 4 80 10:39 04.10.2019
6583 Clouds 29 1011 58 10000 4 80 10:20 04.10.2019
6584 Clouds 29 1011 58 10000 4 70 09:45 04.10.2019
6585 Clouds 29 1011 58 10000 5 70 09:27 04.10.2019
6586 Clouds 30 1011 52 10000 3 60 08:56 04.10.2019
6587 Clouds 30 1011 55 10000 4 60 08:37 04.10.2019
6588 Clouds 30 1011 55 10000 4 60 08:19 04.10.2019
6589 Clouds 31 1011 52 10000 2 50 07:43 04.10.2019
6590 Clouds 31 1011 52 10000 2 50 07:21 04.10.2019
6591 Clouds 31 1012 62 10000 3 80 06:41 04.10.2019
6592 Clouds 29 1012 58 10000 3 110 06:23 04.10.2019
6593 Clouds 29 1013 66 10000 3 110 05:24 04.10.2019
6594 Clouds 31 1013 69 10000 4 110 04:56 04.10.2019
6595 Clouds 29 1013 83 7000 3 140 03:43 04.10.2019
6596 Clouds 25 1013 88 8000 2 120 02:53 04.10.2019
6597 Mist 26 1013 94 6000 2 130 01:55 04.10.2019
6598 Mist 26 1013 94 5000 2 120 01:29 04.10.2019
6599 Mist 25 1012 100 4000 2 100 00:50 04.10.2019
6600 Mist 24 1012 94 5000 1 90 23:54 03.10.2019
6601 Fog 24 1012 94 6000 1 70 23:36 03.10.2019
6602 Fog 23 1012 94 6000 1 70 23:18 03.10.2019
6603 Mist 23 1012 94 7000 1 0 22:54 03.10.2019
6604 Mist 23 1011 88 8000 1 110 22:36 03.10.2019
6605 Mist 24 1011 88 8000 1 110 22:18 03.10.2019
6606 Mist 23 1012 88 10000 1 0 21:41 03.10.2019
6607 Mist 23 1012 88 10000 1 0 21:21 03.10.2019
6608 Mist 23 1012 88 10000 1 0 20:59 03.10.2019
6609 Mist 23 1012 94 10000 2 130 20:41 03.10.2019
6610 Mist 24 1012 94 10000 2 130 20:23 03.10.2019
6611 Clear 23 1012 88 10000 3 130 19:59 03.10.2019
6612 Clear 24 1012 88 10000 3 120 19:41 03.10.2019
6613 Clear 24 1012 88 10000 3 120 19:22 03.10.2019
6614 Clear 24 1013 88 10000 3 130 18:57 03.10.2019
6615 Clear 24 1013 88 10000 3 120 18:38 03.10.2019
6616 Clear 24 1013 88 10000 3 120 18:38 03.10.2019
6617 Clear 24 1013 88 10000 3 120 18:19 03.10.2019
6618 Clear 24 1013 83 10000 3 120 17:43 03.10.2019
6619 Clear 24 1013 83 10000 3 120 17:23 03.10.2019
6620 Clear 24 1013 78 10000 3 130 16:58 03.10.2019
6621 Clear 24 1013 78 10000 3 120 16:40 03.10.2019
6622 Clear 24 1013 78 10000 3 120 16:21 03.10.2019
6623 Clear 24 1013 78 10000 3 130 15:54 03.10.2019
6624 Clear 24 1013 73 10000 4 120 15:36 03.10.2019
6625 Clear 25 1013 73 10000 4 120 15:18 03.10.2019
6626 Clear 25 1012 74 10000 4 120 14:39 03.10.2019
6627 Clear 25 1012 74 10000 4 120 14:20 03.10.2019
6628 Clear 25 1012 69 10000 3 150 13:55 03.10.2019
6629 Clear 25 1012 74 10000 3 150 13:36 03.10.2019
6630 Clear 26 1012 65 10000 3 150 13:18 03.10.2019
6631 Clear 26 1011 65 10000 3 140 12:40 03.10.2019
6632 Clear 26 1011 65 10000 3 140 12:20 03.10.2019
6633 Clear 27 1011 61 10000 4 110 11:59 03.10.2019
6634 Clear 27 1011 61 10000 4 110 11:59 03.10.2019
6635 Clear 27 1011 61 10000 4 110 11:40 03.10.2019
6636 Clear 27 1011 61 10000 4 110 11:21 03.10.2019
6637 Clear 28 1011 62 10000 4 90 10:58 03.10.2019
6638 Clouds 28 1011 62 10000 5 70 10:39 03.10.2019
6639 Clouds 29 1011 62 10000 5 70 10:18 03.10.2019
6640 Clouds 29 1011 62 10000 5 70 10:18 03.10.2019
6641 Clouds 28 1010 58 10000 5 90 09:56 03.10.2019
6642 Clouds 29 1010 52 10000 2 240 09:38 03.10.2019
6643 Clouds 29 1010 52 10000 2 240 09:19 03.10.2019
6644 Clouds 29 1011 48 10000 2 0 08:43 03.10.2019
6645 Clouds 29 1011 48 10000 2 0 08:43 03.10.2019
6646 Clouds 29 1011 48 10000 2 0 08:25 03.10.2019
6647 Clouds 29 1011 48 10000 2 220 07:45 03.10.2019
6648 Clouds 30 1011 55 10000 3 240 07:20 03.10.2019
6649 Clouds 30 1011 52 10000 3 240 06:56 03.10.2019
6650 Clouds 30 1012 51 10000 2 180 06:27 03.10.2019
6651 Clouds 29 1012 58 10000 2 0 05:49 03.10.2019
6652 Clouds 29 1013 62 10000 2 230 05:29 03.10.2019
6653 Clouds 29 1013 58 10000 2 0 04:45 03.10.2019
6654 Clear 30 1013 61 10000 2 0 03:55 03.10.2019
6655 Clear 27 1014 69 10000 2 210 03:19 03.10.2019
6656 Clear 24 1014 83 10000 3 190 02:27 03.10.2019
6657 Clear 25 1013 94 10000 2 180 01:40 03.10.2019
6658 Clear 24 1013 100 10000 1 160 00:53 03.10.2019
6659 Clear 24 1013 94 10000 0.64 165.338 00:32 03.10.2019
6660 Clear 22 1013 100 10000 0.23 169.762 23:57 02.10.2019
6661 Clear 21 1013 100 10000 0.23 169.762 23:37 02.10.2019
6662 Clear 21 1013 100 10000 0.23 169.762 23:18 02.10.2019
6663 Clear 21 1012 100 10000 1 200 22:42 02.10.2019
6664 Clear 21 1012 100 10000 1 200 22:20 02.10.2019
6665 Clear 21 1012 100 10000 1 210 21:55 02.10.2019
6666 Clear 21 1012 100 10000 2 210 21:37 02.10.2019
6667 Clear 22 1012 100 10000 2 210 21:18 02.10.2019
6668 Clear 22 1012 94 10000 1 200 20:55 02.10.2019
6669 Clear 22 1012 94 10000 1 200 20:55 02.10.2019
6670 Clear 22 1012 94 10000 1 200 20:55 02.10.2019
6671 Clear 22 1012 88 10000 0.34 316.664 20:37 02.10.2019
6672 Clear 22 1012 88 10000 0.34 316.664 20:18 02.10.2019
6673 Clear 22 1012 94 10000 1 0 19:44 02.10.2019
6674 Clear 22 1012 94 10000 1 0 19:23 02.10.2019
6675 Clear 22 1012 88 10000 1 190 18:58 02.10.2019
6676 Clear 22 1012 88 10000 1 190 18:58 02.10.2019
6677 Clear 22 1012 94 10000 1 0 18:39 02.10.2019
6678 Clear 22 1012 94 10000 1 0 18:21 02.10.2019
6679 Clear 23 1012 88 10000 1 0 17:57 02.10.2019
6680 Clear 23 1012 88 10000 1 0 17:57 02.10.2019
6681 Clear 23 1012 88 10000 1 0 17:57 02.10.2019
6682 Clear 23 1012 88 10000 2 10 17:38 02.10.2019
6683 Clear 23 1012 88 10000 2 10 17:38 02.10.2019
6684 Clear 23 1012 88 10000 2 10 17:20 02.10.2019
6685 Clear 23 1012 88 10000 2 10 16:45 02.10.2019
6686 Clouds 23 1012 83 10000 2 30 16:22 02.10.2019
6687 Clouds 23 1012 83 10000 2 30 15:59 02.10.2019
6688 Clouds 24 1012 88 10000 2 30 15:40 02.10.2019
6689 Clouds 24 1012 83 10000 3 10 15:22 02.10.2019
6690 Clouds 24 1012 83 10000 3 10 14:57 02.10.2019
6691 Clouds 24 1011 83 10000 2 10 14:39 02.10.2019
6692 Clouds 24 1011 83 10000 2 10 14:39 02.10.2019
6693 Clouds 24 1011 83 10000 2 10 14:20 02.10.2019
6694 Clouds 24 1011 78 10000 3 20 13:45 02.10.2019
6695 Clouds 24 1011 78 10000 3 20 13:25 02.10.2019
6696 Clouds 25 1010 74 10000 3 330 12:58 02.10.2019
6697 Clouds 24 1010 88 10000 5 330 12:37 02.10.2019
6698 Clouds 26 1010 69 10000 5 330 12:19 02.10.2019
6699 Clouds 26 1010 69 10000 6 320 11:44 02.10.2019
6700 Clouds 26 1010 69 10000 6 320 11:23 02.10.2019
6701 Clouds 27 1009 78 10000 5 350 10:42 02.10.2019
6702 Rain 27 1009 65 10000 6 320 10:20 02.10.2019
6703 Rain 27 1009 65 10000 6 320 09:58 02.10.2019
6704 Clouds 27 1008 66 10000 6 310 09:37 02.10.2019
6705 Clouds 27 1008 65 10000 8 300 09:18 02.10.2019
6706 Clouds 27 1008 65 10000 8 300 09:18 02.10.2019
6707 Clouds 27 1008 66 10000 6 310 09:18 02.10.2019
6708 Clouds 26 1008 65 10000 8 300 08:44 02.10.2019
6709 Clouds 26 1008 65 10000 8 300 08:23 02.10.2019
6710 Clouds 26 1008 69 10000 7 310 07:57 02.10.2019
6711 Clouds 26 1008 69 10000 7 310 07:38 02.10.2019
6712 Clouds 27 1009 69 10000 8 310 07:19 02.10.2019
6713 Clouds 26 1009 78 10000 7 310 06:31 02.10.2019
6714 Clouds 26 1009 78 10000 7 310 06:31 02.10.2019
6715 Clouds 26 1009 74 10000 8 310 05:52 02.10.2019
6716 Clouds 26 1009 78 10000 8 290 05:23 02.10.2019
6717 Rain 25 1009 94 10000 6 300 04:43 02.10.2019
6718 Clouds 26 1009 83 10000 7 310 03:51 02.10.2019
6719 Rain 23 1007 94 10000 7 290 02:39 02.10.2019
6720 Rain 23 1007 94 10000 7 290 02:21 02.10.2019
6721 Rain 23 1006 94 10000 9 310 01:19 02.10.2019
6722 Rain 22 1005 88 10000 8 310 00:42 02.10.2019
6723 Rain 23 1005 88 10000 8 310 00:23 02.10.2019
6724 Rain 23 1004 100 10000 7 320 23:42 01.10.2019
6725 Rain 22 1004 100 10000 7 320 23:24 01.10.2019
6726 Rain 24 1004 94 10000 7 320 22:58 01.10.2019
6727 Rain 23 1003 94 10000 9 340 22:38 01.10.2019
6728 Rain 23 1003 94 10000 9 340 22:18 01.10.2019
6729 Rain 23 1002 94 10000 12 350 21:44 01.10.2019
6730 Rain 23 1002 94 10000 12 350 21:24 01.10.2019
6731 Rain 23 1002 94 10000 11 350 20:59 01.10.2019
6732 Rain 23 1002 94 10000 12 10 20:39 01.10.2019
6733 Rain 23 1002 94 10000 12 10 20:21 01.10.2019
6734 Rain 23 1002 94 10000 12 10 19:59 01.10.2019
6735 Rain 23 1002 94 6000 12 20 19:41 01.10.2019
6736 Rain 23 1002 94 6000 12 20 19:41 01.10.2019
6737 Rain 23 1002 94 6000 12 20 19:23 01.10.2019
6738 Rain 23 1002 100 5000 13 10 18:56 01.10.2019
6739 Rain 23 1002 100 5000 15 360 18:38 01.10.2019
6740 Rain 24 1002 100 7000 14 10 18:19 01.10.2019
6741 Rain 23 1002 100 6000 15 10 17:43 01.10.2019
6742 Rain 24 1002 100 6000 15 10 17:22 01.10.2019
6743 Rain 23 1003 100 6000 13 20 16:59 01.10.2019
6744 Rain 22 1003 94 7000 15 10 16:41 01.10.2019
6745 Rain 23 1003 94 7000 15 10 16:22 01.10.2019
6746 Rain 23 1004 94 7000 15 20 15:49 01.10.2019
6747 Rain 22 1004 88 10000 15 30 15:25 01.10.2019
6748 Rain 22 1005 94 7000 13 30 14:58 01.10.2019
6749 Rain 22 1005 94 7000 14 30 14:40 01.10.2019
6750 Rain 22 1005 94 7000 14 30 14:20 01.10.2019
6751 Rain 23 1005 94 10000 12 30 13:56 01.10.2019
6752 Rain 22 1005 88 8000 12 40 13:37 01.10.2019
6753 Rain 22 1006 88 10000 11 50 13:18 01.10.2019
6754 -273 0 0 0 0 0 12:55 01.10.2019
6755 Rain 23 1006 88 10000 11 50 12:55 01.10.2019
6756 Rain 22 1006 94 10000 9 50 12:37 01.10.2019
6757 Rain 22 1006 88 10000 9 50 12:18 01.10.2019
6758 Rain 22 1006 88 10000 9 50 11:54 01.10.2019
6759 Rain 22 1007 88 10000 8 40 11:36 01.10.2019
6760 Rain 22 1007 94 10000 9 40 11:18 01.10.2019
6761 Rain 22 1007 94 10000 9 50 10:44 01.10.2019
6762 Rain 23 1007 94 10000 9 50 10:25 01.10.2019
6763 Rain 23 1007 94 8000 7 50 09:44 01.10.2019
6764 Rain 23 1007 94 8000 7 50 09:26 01.10.2019
6765 Rain 23 1008 94 10000 6 50 08:44 01.10.2019
6766 Rain 23 1008 94 10000 6 50 08:25 01.10.2019
6767 Rain 23 1009 94 10000 7 50 07:50 01.10.2019
6768 Rain 24 1010 88 10000 5 50 07:26 01.10.2019
6769 Rain 24 1010 88 10000 5 50 06:51 01.10.2019
6770 Rain 24 1010 83 10000 6 70 06:25 01.10.2019
6771 Rain 24 1010 83 10000 6 50 05:59 01.10.2019
6772 Rain 24 1010 83 10000 7 60 05:38 01.10.2019
6773 Rain 24 1013 88 10000 5 80 04:40 01.10.2019
6774 Rain 23 1013 94 10000 5 80 03:32 01.10.2019
6775 Rain 23 1012 94 1600 8 110 02:19 01.10.2019
6776 Rain 25 1012 88 10000 4 60 01:41 01.10.2019
6777 Clouds 25 1012 94 10000 3 60 00:42 01.10.2019
6778 Clouds 25 1012 94 10000 3 60 00:24 01.10.2019
6779 Clouds 25 1012 94 7000 2 60 23:41 30.09.2019
6780 Clouds 25 1012 94 7000 2 60 23:41 30.09.2019
6781 Clouds 25 1012 94 7000 2 60 23:22 30.09.2019
6782 Rain 25 1012 94 5000 2 40 22:46 30.09.2019
6783 Rain 25 1012 94 5000 2 40 22:27 30.09.2019
6784 Rain 25 1013 94 6000 2 70 21:58 30.09.2019
6785 Rain 25 1013 88 7000 2 60 21:40 30.09.2019
6786 Rain 25 1013 88 7000 2 60 21:20 30.09.2019